Wetterdaten: Montag, 12.02.2018
Datum Zeit Temp. A. Pool Temp. Feuchte A. Luftdruck Regen Wind Richtung Richtung Sonnenschein ET UV Solar Taupunkt Windchill Windben Empfang
12.02.2018 00:00 2,1 C 4,4 C 95 % 1008,4 hPa 0,0 l/m 8,7 km/h (2 Bft) W-SW 241 0 min 0,000 mm 0,0 UV-I 0 W/m 1,4 C -0,1 C 12,9 km/h (3 Bft) 96,30 %
12.02.2018 00:02 2,1 C 4,4 C 95 % 1008,4 hPa 0,0 l/m 9,2 km/h (2 Bft) S-SW 205 0 min 0,000 mm 0,0 UV-I 0 W/m 1,4 C -0,5 C 14,5 km/h (3 Bft) 95,56 %
12.02.2018 00:03 2,1 C 4,4 C 95 % 1008,4 hPa 0,0 l/m 8,1 km/h (2 Bft) SW 236 0 min 0,000 mm 0,0 UV-I 0 W/m 1,4 C 0,5 C 14,5 km/h (3 Bft) 100,00 %
12.02.2018 00:04 2,1 C 4,4 C 95 % 1008,4 hPa 0,0 l/m 8,7 km/h (2 Bft) SW 229 0 min 0,000 mm 0,0 UV-I 0 W/m 1,4 C -0,1 C 12,9 km/h (3 Bft) 95,83 %
12.02.2018 00:05 2,1 C 4,4 C 95 % 1008,4 hPa 0,0 l/m 9,9 km/h (2 Bft) SW 232 0 min 0,000 mm 0,0 UV-I 0 W/m 1,4 C -1,1 C 12,9 km/h (3 Bft) 100,00 %
12.02.2018 00:06 2,1 C 4,4 C 95 % 1008,4 hPa 0,2 l/m 8,8 km/h (2 Bft) SW 229 0 min 0,000 mm 0,0 UV-I 0 W/m 1,4 C -0,2 C 12,9 km/h (3 Bft) 96,30 %
12.02.2018 00:07 2,1 C 4,4 C 95 % 1008,4 hPa 0,0 l/m 10,5 km/h (2 Bft) W-SW 246 0 min 0,000 mm 0,0 UV-I 0 W/m 1,4 C -1,5 C 16,1 km/h (3 Bft) 96,15 %
12.02.2018 00:08 2,1 C 4,4 C 95 % 1008,5 hPa 0,0 l/m 7,7 km/h (2 Bft) W-SW 239 0 min 0,000 mm 0,0 UV-I 0 W/m 1,4 C 0,8 C 11,3 km/h (2 Bft) 96,43 %
12.02.2018 00:09 2,1 C 4,4 C 95 % 1008,6 hPa 0,0 l/m 10,4 km/h (2 Bft) S-SW 192 0 min 0,000 mm 0,0 UV-I 0 W/m 1,4 C -1,4 C 16,1 km/h (3 Bft) 100,00 %
12.02.2018 00:10 2,1 C 4,4 C 95 % 1008,6 hPa 0,0 l/m 9,8 km/h (2 Bft) S-SW 192 0 min 0,000 mm 0,0 UV-I 0 W/m 1,4 C -1,0 C 16,1 km/h (3 Bft) 96,67 %
12.02.2018 00:11 2,1 C 4,4 C 95 % 1008,6 hPa 0,0 l/m 9,1 km/h (2 Bft) SW 234 0 min 0,000 mm 0,0 UV-I 0 W/m 1,4 C -0,4 C 16,1 km/h (3 Bft) 95,65 %
12.02.2018 00:12 2,1 C 4,4 C 95 % 1008,6 hPa 0,0 l/m 9,8 km/h (2 Bft) W-SW 252 0 min 0,000 mm 0,0 UV-I 0 W/m 1,4 C -1,0 C 14,5 km/h (3 Bft) 100,00 %
12.02.2018 00:13 2,1 C 4,4 C 95 % 1008,6 hPa 0,0 l/m 11,6 km/h (2 Bft) SW 236 0 min 0,000 mm 0,0 UV-I 0 W/m 1,4 C -2,3 C 17,7 km/h (3 Bft) 95,83 %
12.02.2018 00:14 2,1 C 4,4 C 95 % 1008,7 hPa 0,0 l/m 13,5 km/h (3 Bft) W-SW 244 0 min 0,000 mm 0,0 UV-I 0 W/m 1,4 C -3,6 C 17,7 km/h (3 Bft) 96,15 %
12.02.2018 00:15 2,1 C 4,4 C 95 % 1008,7 hPa 0,0 l/m 13,6 km/h (3 Bft) W-SW 241 0 min 0,000 mm 0,0 UV-I 0 W/m 1,4 C -3,6 C 17,7 km/h (3 Bft) 92,59 %
12.02.2018 00:16 2,1 C 4,4 C 95 % 1008,7 hPa 0,0 l/m 16,8 km/h (3 Bft) SW 223 0 min 0,000 mm 0,0 UV-I 0 W/m 1,4 C -5,4 C 22,5 km/h (4 Bft) 100,00 %
12.02.2018 00:17 2,1 C 4,4 C 95 % 1008,7 hPa 0,0 l/m 13,2 km/h (3 Bft) SW 230 0 min 0,000 mm 0,0 UV-I 0 W/m 1,4 C -3,4 C 17,7 km/h (3 Bft) 96,30 %
12.02.2018 00:18 2,1 C 4,4 C 95 % 1008,7 hPa 0,0 l/m 12,3 km/h (3 Bft) SW 217 0 min 0,000 mm 0,0 UV-I 0 W/m 1,4 C -2,8 C 19,3 km/h (3 Bft) 96,72 %
12.02.2018 00:19 2,1 C 4,4 C 95 % 1008,6 hPa 0,0 l/m 12,1 km/h (2 Bft) SW 223 0 min 0,000 mm 0,0 UV-I 0 W/m 1,4 C -2,7 C 19,3 km/h (3 Bft) 97,73 %
12.02.2018 00:20 2,1 C 4,4 C 95 % 1008,6 hPa 0,0 l/m 13,6 km/h (3 Bft) SW 219 0 min 0,000 mm 0,0 UV-I 0 W/m 1,4 C -3,6 C 17,7 km/h (3 Bft) 100,00 %
12.02.2018 00:21 2,1 C 4,4 C 95 % 1008,7 hPa 0,0 l/m 16,3 km/h (3 Bft) SW 230 0 min 0,000 mm 0,0 UV-I 0 W/m 1,4 C -5,1 C 20,9 km/h (4 Bft) 100,00 %
12.02.2018 00:22 2,1 C 4,4 C 95 % 1008,7 hPa 0,0 l/m 15,0 km/h (3 Bft) W-SW 239 0 min 0,000 mm 0,0 UV-I 0 W/m 1,4 C -4,4 C 20,9 km/h (4 Bft) 100,00 %
12.02.2018 00:23 2,1 C 4,4 C 95 % 1008,7 hPa 0,0 l/m 15,2 km/h (3 Bft) SW 229 0 min 0,000 mm 0,0 UV-I 0 W/m 1,4 C -4,5 C 20,9 km/h (4 Bft) 92,59 %
12.02.2018 00:24 2,1 C 4,4 C 95 % 1008,7 hPa 0,0 l/m 14,1 km/h (3 Bft) SW 236 0 min 0,000 mm 0,0 UV-I 0 W/m 1,4 C -3,9 C 20,9 km/h (4 Bft) 92,86 %
12.02.2018 00:25 2,1 C 4,4 C 95 % 1008,7 hPa 0,0 l/m 13,3 km/h (3 Bft) SW 236 0 min 0,000 mm 0,0 UV-I 0 W/m 1,4 C -3,4 C 17,7 km/h (3 Bft) 100,00 %
12.02.2018 00:26 2,1 C 4,4 C 95 % 1008,7 hPa 0,0 l/m 12,5 km/h (3 Bft) W-SW 244 0 min 0,000 mm 0,0 UV-I 0 W/m 1,4 C -2,9 C 14,5 km/h (3 Bft) 100,00 %
12.02.2018 00:27 2,1 C 4,4 C 95 % 1008,8 hPa 0,0 l/m 14,3 km/h (3 Bft) SW 224 0 min 0,000 mm 0,0 UV-I 0 W/m 1,4 C -4,0 C 19,3 km/h (3 Bft) 100,00 %
12.02.2018 00:28 2,1 C 4,4 C 95 % 1008,8 hPa 0,0 l/m 11,9 km/h (2 Bft) SW 236 0 min 0,000 mm 0,0 UV-I 0 W/m 1,4 C -2,5 C 16,1 km/h (3 Bft) 100,00 %
12.02.2018 00:29 2,1 C 4,4 C 95 % 1008,8 hPa 0,0 l/m 11,7 km/h (2 Bft) SW 236 0 min 0,000 mm 0,0 UV-I 0 W/m 1,4 C -2,4 C 14,5 km/h (3 Bft) 100,00 %
12.02.2018 00:30 2,1 C 4,4 C 95 % 1008,8 hPa 0,0 l/m 12,6 km/h (3 Bft) SW 234 0 min 0,000 mm 0,0 UV-I 0 W/m 1,4 C -3,0 C 19,3 km/h (3 Bft) 100,00 %
12.02.2018 00:31 2,2 C 4,4 C 95 % 1008,8 hPa 0,0 l/m 11,9 km/h (2 Bft) SW 234 0 min 0,000 mm 0,0 UV-I 0 W/m 1,5 C -2,4 C 16,1 km/h (3 Bft) 100,00 %
12.02.2018 00:32 2,2 C 4,4 C 95 % 1008,8 hPa 0,0 l/m 13,2 km/h (3 Bft) W-SW 239 0 min 0,000 mm 0,0 UV-I 0 W/m 1,5 C -3,2 C 17,7 km/h (3 Bft) 100,00 %
12.02.2018 00:33 2,2 C 4,4 C 95 % 1008,8 hPa 0,0 l/m 11,1 km/h (2 Bft) W-SW 258 0 min 0,000 mm 0,0 UV-I 0 W/m 1,5 C -1,8 C 17,7 km/h (3 Bft) 100,00 %
12.02.2018 00:34 2,2 C 4,4 C 95 % 1008,8 hPa 0,0 l/m 14,9 km/h (3 Bft) SW 221 0 min 0,000 mm 0,0 UV-I 0 W/m 1,5 C -4,3 C 19,3 km/h (3 Bft) 100,00 %
12.02.2018 00:35 2,2 C 4,4 C 95 % 1008,8 hPa 0,0 l/m 15,0 km/h (3 Bft) SW 231 0 min 0,000 mm 0,0 UV-I 0 W/m 1,5 C -4,3 C 22,5 km/h (4 Bft) 100,00 %
12.02.2018 00:36 2,2 C 4,4 C 94 % 1008,8 hPa 0,0 l/m 10,9 km/h (2 Bft) W-SW 248 0 min 0,000 mm 0,0 UV-I 0 W/m 1,3 C -1,7 C 19,3 km/h (3 Bft) 100,00 %
12.02.2018 00:37 2,2 C 4,4 C 95 % 1008,8 hPa 0,0 l/m 13,0 km/h (3 Bft) W-SW 238 0 min 0,000 mm 0,0 UV-I 0 W/m 1,5 C -3,1 C 19,3 km/h (3 Bft) 100,00 %
12.02.2018 00:38 2,2 C 4,4 C 94 % 1008,8 hPa 0,0 l/m 13,7 km/h (3 Bft) SW 232 0 min 0,000 mm 0,0 UV-I 0 W/m 1,3 C -3,6 C 20,9 km/h (4 Bft) 100,00 %
12.02.2018 00:39 2,2 C 4,4 C 94 % 1008,8 hPa 0,0 l/m 12,9 km/h (3 Bft) W-SW 246 0 min 0,000 mm 0,0 UV-I 0 W/m 1,3 C -3,1 C 17,7 km/h (3 Bft) 100,00 %
12.02.2018 00:40 2,2 C 4,4 C 94 % 1008,8 hPa 0,0 l/m 14,2 km/h (3 Bft) W-SW 255 0 min 0,000 mm 0,0 UV-I 0 W/m 1,3 C -3,9 C 19,3 km/h (3 Bft) 100,00 %
12.02.2018 00:41 2,2 C 4,4 C 94 % 1008,8 hPa 0,0 l/m 14,1 km/h (3 Bft) SW 233 0 min 0,000 mm 0,0 UV-I 0 W/m 1,3 C -3,8 C 17,7 km/h (3 Bft) 100,00 %
12.02.2018 00:42 2,2 C 4,4 C 94 % 1008,8 hPa 0,0 l/m 14,7 km/h (3 Bft) SW 233 0 min 0,000 mm 0,0 UV-I 0 W/m 1,3 C -4,1 C 22,5 km/h (4 Bft) 100,00 %
12.02.2018 00:43 2,2 C 4,4 C 94 % 1008,9 hPa 0,0 l/m 12,9 km/h (3 Bft) W-SW 244 0 min 0,000 mm 0,0 UV-I 0 W/m 1,3 C -3,1 C 19,3 km/h (3 Bft) 91,30 %
12.02.2018 00:44 2,2 C 4,4 C 94 % 1008,9 hPa 0,0 l/m 14,7 km/h (3 Bft) SW 227 0 min 0,000 mm 0,0 UV-I 0 W/m 1,3 C -4,1 C 19,3 km/h (3 Bft) 93,33 %
12.02.2018 00:45 2,2 C 4,4 C 94 % 1008,9 hPa 0,0 l/m 15,3 km/h (3 Bft) SW 229 0 min 0,000 mm 0,0 UV-I 0 W/m 1,3 C -4,5 C 20,9 km/h (4 Bft) 100,00 %
12.02.2018 00:46 2,2 C 4,4 C 94 % 1008,9 hPa 0,0 l/m 15,9 km/h (3 Bft) SW 225 0 min 0,000 mm 0,0 UV-I 0 W/m 1,3 C -4,8 C 19,3 km/h (3 Bft) 100,00 %
12.02.2018 00:47 2,2 C 4,4 C 94 % 1008,9 hPa 0,0 l/m 16,8 km/h (3 Bft) W-SW 238 0 min 0,000 mm 0,0 UV-I 0 W/m 1,3 C -5,3 C 22,5 km/h (4 Bft) 100,00 %
12.02.2018 00:48 2,2 C 4,4 C 94 % 1008,9 hPa 0,0 l/m 12,8 km/h (3 Bft) SW 234 0 min 0,000 mm 0,0 UV-I 0 W/m 1,3 C -3,0 C 16,1 km/h (3 Bft) 100,00 %
12.02.2018 00:49 2,2 C 4,4 C 94 % 1008,9 hPa 0,0 l/m 15,1 km/h (3 Bft) W 264 0 min 0,000 mm 0,0 UV-I 0 W/m 1,3 C -4,4 C 20,9 km/h (4 Bft) 100,00 %
12.02.2018 00:50 2,2 C 4,4 C 94 % 1008,9 hPa 0,0 l/m 16,2 km/h (3 Bft) SW 227 0 min 0,000 mm 0,0 UV-I 0 W/m 1,3 C -5,0 C 22,5 km/h (4 Bft) 100,00 %
12.02.2018 00:51 2,2 C 4,4 C 94 % 1009,0 hPa 0,0 l/m 16,1 km/h (3 Bft) S-SW 213 0 min 0,000 mm 0,0 UV-I 0 W/m 1,3 C -4,9 C 24,1 km/h (4 Bft) 100,00 %
12.02.2018 00:52 2,2 C 4,4 C 94 % 1008,9 hPa 0,0 l/m 16,2 km/h (3 Bft) W-SW 237 0 min 0,000 mm 0,0 UV-I 0 W/m 1,3 C -5,0 C 22,5 km/h (4 Bft) 100,00 %
12.02.2018 00:53 2,2 C 4,4 C 94 % 1008,9 hPa 0,0 l/m 12,2 km/h (2 Bft) W-SW 237 0 min 0,000 mm 0,0 UV-I 0 W/m 1,3 C -2,6 C 19,3 km/h (3 Bft) 100,00 %
12.02.2018 00:54 2,2 C 4,4 C 94 % 1009,0 hPa 0,0 l/m 14,6 km/h (3 Bft) SW 223 0 min 0,000 mm 0,0 UV-I 0 W/m 1,3 C -4,1 C 20,9 km/h (4 Bft) 100,00 %
12.02.2018 00:55 2,2 C 4,4 C 94 % 1008,9 hPa 0,0 l/m 11,3 km/h (2 Bft) S-SW 203 0 min 0,000 mm 0,0 UV-I 0 W/m 1,3 C -2,0 C 17,7 km/h (3 Bft) 100,00 %
12.02.2018 00:56 2,2 C 4,4 C 94 % 1008,9 hPa 0,0 l/m 13,8 km/h (3 Bft) S-SW 209 0 min 0,000 mm 0,0 UV-I 0 W/m 1,3 C -3,6 C 19,3 km/h (3 Bft) 100,00 %
12.02.2018 00:57 2,2 C 4,4 C 94 % 1008,9 hPa 0,0 l/m 11,9 km/h (2 Bft) W-SW 240 0 min 0,000 mm 0,0 UV-I 0 W/m 1,3 C -2,4 C 16,1 km/h (3 Bft) 96,67 %
12.02.2018 00:58 2,2 C 4,4 C 94 % 1008,9 hPa 0,0 l/m 13,4 km/h (3 Bft) SW 236 0 min 0,000 mm 0,0 UV-I 0 W/m 1,3 C -3,4 C 17,7 km/h (3 Bft) 100,00 %
12.02.2018 00:59 2,2 C 4,4 C 94 % 1009,0 hPa 0,0 l/m 12,2 km/h (2 Bft) SW 232 0 min 0,000 mm 0,0 UV-I 0 W/m 1,3 C -2,6 C 17,7 km/h (3 Bft) 91,67 %
12.02.2018 01:00 2,2 C 4,4 C 94 % 1009,0 hPa 0,0 l/m 15,4 km/h (3 Bft) S-SW 209 0 min 0,000 mm 0,0 UV-I 0 W/m 1,3 C -4,5 C 24,1 km/h (4 Bft) 100,00 %
12.02.2018 01:01 2,2 C 4,4 C 94 % 1009,0 hPa 0,0 l/m 14,2 km/h (3 Bft) W-SW 249 0 min 0,000 mm 0,0 UV-I 0 W/m 1,3 C -3,9 C 19,3 km/h (3 Bft) 96,30 %
12.02.2018 01:02 2,2 C 4,4 C 94 % 1009,0 hPa 0,0 l/m 12,8 km/h (3 Bft) W-SW 244 0 min 0,000 mm 0,0 UV-I 0 W/m 1,3 C -3,0 C 19,3 km/h (3 Bft) 91,30 %
12.02.2018 01:03 2,2 C 4,4 C 94 % 1008,9 hPa 0,0 l/m 10,9 km/h (2 Bft) W-SW 246 0 min 0,000 mm 0,0 UV-I 0 W/m 1,3 C -1,7 C 14,5 km/h (3 Bft) 100,00 %
12.02.2018 01:04 2,2 C 4,4 C 94 % 1009,0 hPa 0,0 l/m 12,4 km/h (3 Bft) W-SW 238 0 min 0,000 mm 0,0 UV-I 0 W/m 1,3 C -2,7 C 17,7 km/h (3 Bft) 96,15 %
12.02.2018 01:05 2,2 C 4,4 C 94 % 1009,0 hPa 0,0 l/m 15,5 km/h (3 Bft) SW 214 0 min 0,000 mm 0,0 UV-I 0 W/m 1,3 C -4,6 C 19,3 km/h (3 Bft) 100,00 %
12.02.2018 01:06 2,2 C 4,4 C 94 % 1009,0 hPa 0,0 l/m 17,2 km/h (3 Bft) S-SW 207 0 min 0,000 mm 0,0 UV-I 0 W/m 1,3 C -5,5 C 22,5 km/h (4 Bft) 81,82 %
12.02.2018 01:07 2,2 C 4,4 C 94 % 1009,0 hPa 0,0 l/m 18,8 km/h (3 Bft) W-SW 244 0 min 0,000 mm 0,0 UV-I 0 W/m 1,3 C -6,3 C 25,7 km/h (4 Bft) 100,00 %
12.02.2018 01:08 2,2 C 4,4 C 94 % 1009,0 hPa 0,0 l/m 18,0 km/h (3 Bft) W 268 0 min 0,000 mm 0,0 UV-I 0 W/m 1,3 C -5,9 C 25,7 km/h (4 Bft) 95,65 %
12.02.2018 01:09 2,3 C 4,4 C 94 % 1009,0 hPa 0,0 l/m 15,6 km/h (3 Bft) SW 217 0 min 0,000 mm 0,0 UV-I 0 W/m 1,4 C -4,5 C 20,9 km/h (4 Bft) 100,00 %
12.02.2018 01:10 2,3 C 4,4 C 94 % 1009,0 hPa 0,0 l/m 15,8 km/h (3 Bft) SW 223 0 min 0,000 mm 0,0 UV-I 0 W/m 1,4 C -4,6 C 20,9 km/h (4 Bft) 92,31 %
12.02.2018 01:11 2,3 C 4,4 C 94 % 1009,0 hPa 0,0 l/m 15,4 km/h (3 Bft) SW 222 0 min 0,000 mm 0,0 UV-I 0 W/m 1,4 C -4,4 C 22,5 km/h (4 Bft) 92,59 %
12.02.2018 01:12 2,3 C 4,4 C 94 % 1009,0 hPa 0,0 l/m 18,4 km/h (3 Bft) W-SW 243 0 min 0,000 mm 0,0 UV-I 0 W/m 1,4 C -5,9 C 24,1 km/h (4 Bft) 100,00 %
12.02.2018 01:13 2,3 C 4,4 C 94 % 1009,1 hPa 0,0 l/m 15,5 km/h (3 Bft) SW 228 0 min 0,000 mm 0,0 UV-I 0 W/m 1,4 C -4,5 C 20,9 km/h (4 Bft) 96,15 %
12.02.2018 01:14 2,3 C 4,4 C 94 % 1009,1 hPa 0,0 l/m 13,7 km/h (3 Bft) NW 317 0 min 0,000 mm 0,0 UV-I 0 W/m 1,4 C -3,4 C 19,3 km/h (3 Bft) 100,00 %
12.02.2018 01:15 2,3 C 4,4 C 94 % 1009,1 hPa 0,0 l/m 15,2 km/h (3 Bft) SW 231 0 min 0,000 mm 0,0 UV-I 0 W/m 1,4 C -4,3 C 20,9 km/h (4 Bft) 96,55 %
12.02.2018 01:16 2,3 C 4,4 C 94 % 1009,1 hPa 0,0 l/m 19,4 km/h (3 Bft) W-SW 244 0 min 0,000 mm 0,0 UV-I 0 W/m 1,4 C -6,4 C 27,4 km/h (4 Bft) 98,00 %
12.02.2018 01:17 2,3 C 4,4 C 94 % 1009,1 hPa 0,0 l/m 13,9 km/h (3 Bft) W 281 0 min 0,000 mm 0,0 UV-I 0 W/m 1,4 C -3,6 C 19,3 km/h (3 Bft) 97,73 %
12.02.2018 01:18 2,3 C 4,4 C 94 % 1009,1 hPa 0,0 l/m 12,7 km/h (3 Bft) W-SW 238 0 min 0,000 mm 0,0 UV-I 0 W/m 1,4 C -2,8 C 17,7 km/h (3 Bft) 100,00 %
12.02.2018 01:19 2,3 C 4,4 C 94 % 1009,1 hPa 0,0 l/m 15,3 km/h (3 Bft) W-SW 248 0 min 0,000 mm 0,0 UV-I 0 W/m 1,4 C -4,4 C 20,9 km/h (4 Bft) 96,15 %
12.02.2018 01:20 2,3 C 4,4 C 94 % 1009,1 hPa 0,0 l/m 11,9 km/h (2 Bft) SW 229 0 min 0,000 mm 0,0 UV-I 0 W/m 1,4 C -2,3 C 16,1 km/h (3 Bft) 95,83 %
12.02.2018 01:21 2,3 C 4,4 C 94 % 1009,2 hPa 0,0 l/m 14,0 km/h (3 Bft) W-SW 252 0 min 0,000 mm 0,0 UV-I 0 W/m 1,4 C -3,6 C 17,7 km/h (3 Bft) 100,00 %
12.02.2018 01:22 2,3 C 4,4 C 94 % 1009,2 hPa 0,0 l/m 11,7 km/h (2 Bft) W-SW 248 0 min 0,000 mm 0,0 UV-I 0 W/m 1,4 C -2,1 C 16,1 km/h (3 Bft) 96,43 %
12.02.2018 01:23 2,3 C 4,4 C 94 % 1009,2 hPa 0,0 l/m 13,3 km/h (3 Bft) SW 236 0 min 0,000 mm 0,0 UV-I 0 W/m 1,4 C -3,2 C 16,1 km/h (3 Bft) 100,00 %
12.02.2018 01:24 2,3 C 4,4 C 94 % 1009,2 hPa 0,0 l/m 10,3 km/h (2 Bft) W-SW 252 0 min 0,000 mm 0,0 UV-I 0 W/m 1,4 C -1,1 C 12,9 km/h (3 Bft) 92,86 %
12.02.2018 01:25 2,3 C 4,4 C 94 % 1009,2 hPa 0,0 l/m 17,0 km/h (3 Bft) W-SW 255 0 min 0,000 mm 0,0 UV-I 0 W/m 1,4 C -5,3 C 24,1 km/h (4 Bft) 100,00 %
12.02.2018 01:26 2,3 C 4,4 C 94 % 1009,2 hPa 0,0 l/m 17,1 km/h (3 Bft) W-SW 258 0 min 0,000 mm 0,0 UV-I 0 W/m 1,4 C -5,3 C 24,1 km/h (4 Bft) 97,56 %
12.02.2018 01:27 2,3 C 4,4 C 94 % 1009,2 hPa 0,0 l/m 17,0 km/h (3 Bft) W-SW 242 0 min 0,000 mm 0,0 UV-I 0 W/m 1,4 C -5,3 C 22,5 km/h (4 Bft) 100,00 %
12.02.2018 01:28 2,3 C 4,4 C 94 % 1009,2 hPa 0,0 l/m 11,7 km/h (2 Bft) W-SW 254 0 min 0,000 mm 0,0 UV-I 0 W/m 1,4 C -2,1 C 16,1 km/h (3 Bft) 92,86 %
12.02.2018 01:29 2,3 C 4,4 C 94 % 1009,2 hPa 0,0 l/m 11,9 km/h (2 Bft) SW 232 0 min 0,000 mm 0,0 UV-I 0 W/m 1,4 C -2,3 C 17,7 km/h (3 Bft) 97,37 %
12.02.2018 01:30 2,3 C 4,4 C 94 % 1009,2 hPa 0,0 l/m 12,8 km/h (3 Bft) SW 225 0 min 0,000 mm 0,0 UV-I 0 W/m 1,4 C -2,9 C 16,1 km/h (3 Bft) 96,67 %
12.02.2018 01:31 2,3 C 4,4 C 94 % 1009,3 hPa 0,0 l/m 17,4 km/h (3 Bft) W-SW 241 0 min 0,000 mm 0,0 UV-I 0 W/m 1,4 C -5,5 C 22,5 km/h (4 Bft) 95,65 %
12.02.2018 01:32 2,3 C 4,4 C 94 % 1009,3 hPa 0,0 l/m 15,3 km/h (3 Bft) S-SW 202 0 min 0,000 mm 0,0 UV-I 0 W/m 1,4 C -4,4 C 19,3 km/h (3 Bft) 100,00 %
12.02.2018 01:33 2,3 C 4,4 C 94 % 1009,3 hPa 0,0 l/m 15,3 km/h (3 Bft) SW 215 0 min 0,000 mm 0,0 UV-I 0 W/m 1,4 C -4,4 C 20,9 km/h (4 Bft) 96,30 %
12.02.2018 01:34 2,3 C 4,4 C 94 % 1009,3 hPa 0,0 l/m 15,6 km/h (3 Bft) SW 222 0 min 0,000 mm 0,0 UV-I 0 W/m 1,4 C -4,5 C 20,9 km/h (4 Bft) 100,00 %
12.02.2018 01:35 2,3 C 4,4 C 94 % 1009,3 hPa 0,0 l/m 16,2 km/h (3 Bft) SW 219 0 min 0,000 mm 0,0 UV-I 0 W/m 1,4 C -4,8 C 19,3 km/h (3 Bft) 100,00 %
12.02.2018 01:36 2,3 C 4,4 C 94 % 1009,3 hPa 0,0 l/m 13,6 km/h (3 Bft) W-SW 254 0 min 0,000 mm 0,0 UV-I 0 W/m 1,4 C -3,4 C 17,7 km/h (3 Bft) 92,31 %
12.02.2018 01:37 2,3 C 4,4 C 94 % 1009,4 hPa 0,0 l/m 12,8 km/h (3 Bft) W-SW 250 0 min 0,000 mm 0,0 UV-I 0 W/m 1,4 C -2,9 C 17,7 km/h (3 Bft) 96,30 %
12.02.2018 01:38 2,3 C 4,4 C 94 % 1009,4 hPa 0,0 l/m 9,8 km/h (2 Bft) W-SW 242 0 min 0,000 mm 0,0 UV-I 0 W/m 1,4 C -0,8 C 14,5 km/h (3 Bft) 96,15 %
12.02.2018 01:39 2,3 C 4,4 C 94 % 1009,3 hPa 0,0 l/m 15,4 km/h (3 Bft) W-SW 244 0 min 0,000 mm 0,0 UV-I 0 W/m 1,4 C -4,4 C 20,9 km/h (4 Bft) 100,00 %
12.02.2018 01:40 2,3 C 4,4 C 94 % 1009,3 hPa 0,0 l/m 14,3 km/h (3 Bft) W 270 0 min 0,000 mm 0,0 UV-I 0 W/m 1,4 C -3,8 C 20,9 km/h (4 Bft) 100,00 %
12.02.2018 01:41 2,2 C 4,4 C 94 % 1009,3 hPa 0,0 l/m 12,8 km/h (3 Bft) W-SW 246 0 min 0,000 mm 0,0 UV-I 0 W/m 1,3 C -3,0 C 16,1 km/h (3 Bft) 100,00 %
12.02.2018 01:42 2,2 C 4,4 C 94 % 1009,3 hPa 0,0 l/m 9,5 km/h (2 Bft) SW 234 0 min 0,000 mm 0,0 UV-I 0 W/m 1,3 C -0,6 C 16,1 km/h (3 Bft) 95,65 %
12.02.2018 01:43 2,2 C 4,4 C 94 % 1009,2 hPa 0,0 l/m 11,0 km/h (2 Bft) SW 230 0 min 0,000 mm 0,0 UV-I 0 W/m 1,3 C -1,8 C 17,7 km/h (3 Bft) 100,00 %
12.02.2018 01:44 2,2 C 4,4 C 94 % 1009,3 hPa 0,0 l/m 12,6 km/h (3 Bft) W-SW 237 0 min 0,000 mm 0,0 UV-I 0 W/m 1,3 C -2,9 C 17,7 km/h (3 Bft) 100,00 %
12.02.2018 01:45 2,2 C 4,4 C 94 % 1009,3 hPa 0,0 l/m 14,0 km/h (3 Bft) W 269 0 min 0,000 mm 0,0 UV-I 0 W/m 1,3 C -3,7 C 17,7 km/h (3 Bft) 100,00 %
12.02.2018 01:46 2,2 C 4,4 C 94 % 1009,3 hPa 0,0 l/m 11,3 km/h (2 Bft) SW 236 0 min 0,000 mm 0,0 UV-I 0 W/m 1,3 C -2,0 C 17,7 km/h (3 Bft) 100,00 %
12.02.2018 01:47 2,2 C 4,4 C 94 % 1009,3 hPa 0,0 l/m 14,1 km/h (3 Bft) W-SW 240 0 min 0,000 mm 0,0 UV-I 0 W/m 1,3 C -3,8 C 19,3 km/h (3 Bft) 95,83 %
12.02.2018 01:48 2,2 C 4,4 C 94 % 1009,3 hPa 0,0 l/m 13,4 km/h (3 Bft) SW 236 0 min 0,000 mm 0,0 UV-I 0 W/m 1,3 C -3,4 C 20,9 km/h (4 Bft) 95,83 %
12.02.2018 01:49 2,2 C 4,4 C 94 % 1009,3 hPa 0,0 l/m 12,1 km/h (2 Bft) SW 222 0 min 0,000 mm 0,0 UV-I 0 W/m 1,3 C -2,5 C 16,1 km/h (3 Bft) 95,83 %
12.02.2018 01:50 2,2 C 4,4 C 94 % 1009,3 hPa 0,0 l/m 10,6 km/h (2 Bft) SW 236 0 min 0,000 mm 0,0 UV-I 0 W/m 1,3 C -1,5 C 14,5 km/h (3 Bft) 96,55 %
12.02.2018 01:51 2,2 C 4,4 C 93 % 1009,3 hPa 0,0 l/m 11,2 km/h (2 Bft) W-SW 241 0 min 0,000 mm 0,0 UV-I 0 W/m 1,2 C -1,9 C 16,1 km/h (3 Bft) 100,00 %
12.02.2018 01:52 2,2 C 4,4 C 93 % 1009,3 hPa 0,0 l/m 12,4 km/h (3 Bft) SW 229 0 min 0,000 mm 0,0 UV-I 0 W/m 1,2 C -2,7 C 16,1 km/h (3 Bft) 94,44 %
12.02.2018 01:53 2,2 C 4,4 C 94 % 1009,3 hPa 0,0 l/m 15,3 km/h (3 Bft) W-SW 250 0 min 0,000 mm 0,0 UV-I 0 W/m 1,3 C -4,5 C 19,3 km/h (3 Bft) 96,15 %
12.02.2018 01:54 2,2 C 4,4 C 94 % 1009,3 hPa 0,0 l/m 14,8 km/h (3 Bft) W-SW 257 0 min 0,000 mm 0,0 UV-I 0 W/m 1,3 C -4,2 C 19,3 km/h (3 Bft) 100,00 %
12.02.2018 01:55 2,2 C 4,4 C 94 % 1009,4 hPa 0,0 l/m 15,2 km/h (3 Bft) W-SW 238 0 min 0,000 mm 0,0 UV-I 0 W/m 1,3 C -4,4 C 19,3 km/h (3 Bft) 100,00 %
12.02.2018 01:56 2,2 C 4,4 C 94 % 1009,3 hPa 0,0 l/m 15,4 km/h (3 Bft) W-SW 238 0 min 0,000 mm 0,0 UV-I 0 W/m 1,3 C -4,5 C 22,5 km/h (4 Bft) 100,00 %
12.02.2018 01:57 2,2 C 4,4 C 93 % 1009,3 hPa 0,0 l/m 12,3 km/h (3 Bft) W-SW 237 0 min 0,000 mm 0,0 UV-I 0 W/m 1,2 C -2,7 C 17,7 km/h (3 Bft) 100,00 %
12.02.2018 01:58 2,2 C 4,4 C 93 % 1009,4 hPa 0,0 l/m 14,6 km/h (3 Bft) SW 232 0 min 0,000 mm 0,0 UV-I 0 W/m 1,2 C -4,1 C 17,7 km/h (3 Bft) 100,00 %
12.02.2018 01:59 2,2 C 4,4 C 93 % 1009,4 hPa 0,0 l/m 15,0 km/h (3 Bft) W-SW 240 0 min 0,000 mm 0,0 UV-I 0 W/m 1,2 C -4,3 C 17,7 km/h (3 Bft) 100,00 %
12.02.2018 02:00 2,2 C 4,4 C 93 % 1009,4 hPa 0,0 l/m 16,8 km/h (3 Bft) W-SW 238 0 min 0,000 mm 0,0 UV-I 0 W/m 1,2 C -5,3 C 20,9 km/h (4 Bft) 100,00 %
12.02.2018 02:01 2,2 C 4,4 C 94 % 1009,4 hPa 0,0 l/m 11,5 km/h (2 Bft) W-SW 256 0 min 0,000 mm 0,0 UV-I 0 W/m 1,3 C -2,1 C 17,7 km/h (3 Bft) 100,00 %
12.02.2018 02:02 2,2 C 4,4 C 93 % 1009,4 hPa 0,0 l/m 15,0 km/h (3 Bft) SW 230 0 min 0,000 mm 0,0 UV-I 0 W/m 1,2 C -4,3 C 20,9 km/h (4 Bft) 96,30 %
12.02.2018 02:03 2,2 C 4,4 C 93 % 1009,4 hPa 0,0 l/m 13,8 km/h (3 Bft) SW 234 0 min 0,000 mm 0,0 UV-I 0 W/m 1,2 C -3,6 C 19,3 km/h (3 Bft) 97,93 %
12.02.2018 02:04 2,2 C 4,4 C 93 % 1009,4 hPa 0,0 l/m 14,5 km/h (3 Bft) W-SW 237 0 min 0,000 mm 0,0 UV-I 0 W/m 1,2 C -4,0 C 20,9 km/h (4 Bft) 100,00 %
12.02.2018 02:05 2,2 C 4,4 C 93 % 1009,4 hPa 0,0 l/m 12,2 km/h (2 Bft) W-SW 245 0 min 0,000 mm 0,0 UV-I 0 W/m 1,2 C -2,6 C 17,7 km/h (3 Bft) 95,65 %
12.02.2018 02:06 2,2 C 4,4 C 93 % 1009,4 hPa 0,0 l/m 10,5 km/h (2 Bft) SW 226 0 min 0,000 mm 0,0 UV-I 0 W/m 1,2 C -1,4 C 17,7 km/h (3 Bft) 100,00 %
12.02.2018 02:07 2,2 C 4,4 C 93 % 1009,4 hPa 0,0 l/m 17,6 km/h (3 Bft) SW 223 0 min 0,000 mm 0,0 UV-I 0 W/m 1,2 C -5,7 C 20,9 km/h (4 Bft) 100,00 %
12.02.2018 02:08 2,2 C 4,4 C 93 % 1009,4 hPa 0,0 l/m 12,5 km/h (3 Bft) S-SW 207 0 min 0,000 mm 0,0 UV-I 0 W/m 1,2 C -2,8 C 19,3 km/h (3 Bft) 100,00 %
12.02.2018 02:09 2,2 C 4,4 C 93 % 1009,5 hPa 0,0 l/m 11,2 km/h (2 Bft) W 265 0 min 0,000 mm 0,0 UV-I 0 W/m 1,2 C -1,9 C 16,1 km/h (3 Bft) 100,00 %
12.02.2018 02:10 2,2 C 4,4 C 93 % 1009,4 hPa 0,0 l/m 13,7 km/h (3 Bft) W-SW 250 0 min 0,000 mm 0,0 UV-I 0 W/m 1,2 C -3,6 C 19,3 km/h (3 Bft) 100,00 %
12.02.2018 02:11 2,2 C 4,4 C 93 % 1009,4 hPa 0,0 l/m 11,2 km/h (2 Bft) SW 227 0 min 0,000 mm 0,0 UV-I 0 W/m 1,2 C -1,9 C 12,9 km/h (3 Bft) 100,00 %
12.02.2018 02:12 2,2 C 4,4 C 93 % 1009,4 hPa 0,0 l/m 11,1 km/h (2 Bft) SW 232 0 min 0,000 mm 0,0 UV-I 0 W/m 1,2 C -1,8 C 14,5 km/h (3 Bft) 100,00 %
12.02.2018 02:13 2,2 C 4,4 C 93 % 1009,4 hPa 0,0 l/m 14,5 km/h (3 Bft) SW 236 0 min 0,000 mm 0,0 UV-I 0 W/m 1,2 C -4,0 C 19,3 km/h (3 Bft) 100,00 %
12.02.2018 02:14 2,2 C 4,4 C 93 % 1009,4 hPa 0,0 l/m 14,5 km/h (3 Bft) SW 229 0 min 0,000 mm 0,0 UV-I 0 W/m 1,2 C -4,0 C 19,3 km/h (3 Bft) 96,15 %
12.02.2018 02:15 2,2 C 4,4 C 93 % 1009,4 hPa 0,0 l/m 12,3 km/h (3 Bft) W-SW 240 0 min 0,000 mm 0,0 UV-I 0 W/m 1,2 C -2,7 C 16,1 km/h (3 Bft) 100,00 %
12.02.2018 02:16 2,2 C 4,4 C 93 % 1009,4 hPa 0,0 l/m 11,7 km/h (2 Bft) W 272 0 min 0,000 mm 0,0 UV-I 0 W/m 1,2 C -2,3 C 19,3 km/h (3 Bft) 100,00 %
12.02.2018 02:17 2,2 C 4,4 C 93 % 1009,4 hPa 0,0 l/m 12,4 km/h (3 Bft) W-SW 238 0 min 0,000 mm 0,0 UV-I 0 W/m 1,2 C -2,7 C 17,7 km/h (3 Bft) 100,00 %
12.02.2018 02:18 2,2 C 4,4 C 93 % 1009,5 hPa 0,0 l/m 12,7 km/h (3 Bft) S-SW 213 0 min 0,000 mm 0,0 UV-I 0 W/m 1,2 C -2,9 C 16,1 km/h (3 Bft) 100,00 %
12.02.2018 02:19 2,2 C 4,4 C 93 % 1009,5 hPa 0,0 l/m 10,9 km/h (2 Bft) W-SW 244 0 min 0,000 mm 0,0 UV-I 0 W/m 1,2 C -1,7 C 17,7 km/h (3 Bft) 100,00 %
12.02.2018 02:20 2,2 C 4,4 C 93 % 1009,5 hPa 0,0 l/m 11,1 km/h (2 Bft) SW 222 0 min 0,000 mm 0,0 UV-I 0 W/m 1,2 C -1,8 C 14,5 km/h (3 Bft) 100,00 %
12.02.2018 02:21 2,2 C 4,4 C 93 % 1009,5 hPa 0,0 l/m 11,2 km/h (2 Bft) W-SW 238 0 min 0,000 mm 0,0 UV-I 0 W/m 1,2 C -1,9 C 14,5 km/h (3 Bft) 100,00 %
12.02.2018 02:22 2,2 C 4,4 C 93 % 1009,5 hPa 0,0 l/m 11,8 km/h (2 Bft) W-SW 240 0 min 0,000 mm 0,0 UV-I 0 W/m 1,2 C -2,3 C 16,1 km/h (3 Bft) 100,00 %
12.02.2018 02:23 2,2 C 4,4 C 93 % 1009,4 hPa 0,0 l/m 10,5 km/h (2 Bft) W-SW 242 0 min 0,000 mm 0,0 UV-I 0 W/m 1,2 C -1,4 C 12,9 km/h (3 Bft) 100,00 %
12.02.2018 02:24 2,2 C 4,4 C 93 % 1009,4 hPa 0,0 l/m 9,5 km/h (2 Bft) W-SW 246 0 min 0,000 mm 0,0 UV-I 0 W/m 1,2 C -0,6 C 14,5 km/h (3 Bft) 100,00 %
12.02.2018 02:25 2,2 C 4,4 C 93 % 1009,4 hPa 0,0 l/m 11,3 km/h (2 Bft) SW 230 0 min 0,000 mm 0,0 UV-I 0 W/m 1,2 C -2,0 C 16,1 km/h (3 Bft) 100,00 %
12.02.2018 02:26 2,1 C 4,4 C 93 % 1009,4 hPa 0,0 l/m 11,6 km/h (2 Bft) W-SW 250 0 min 0,000 mm 0,0 UV-I 0 W/m 1,1 C -2,3 C 19,3 km/h (3 Bft) 100,00 %
12.02.2018 02:27 2,1 C 4,4 C 93 % 1009,4 hPa 0,0 l/m 9,5 km/h (2 Bft) W-SW 254 0 min 0,000 mm 0,0 UV-I 0 W/m 1,1 C -0,7 C 12,9 km/h (3 Bft) 100,00 %
12.02.2018 02:28 2,1 C 4,4 C 93 % 1009,4 hPa 0,0 l/m 11,6 km/h (2 Bft) W 263 0 min 0,000 mm 0,0 UV-I 0 W/m 1,1 C -2,3 C 14,5 km/h (3 Bft) 100,00 %
12.02.2018 02:29 2,1 C 4,4 C 93 % 1009,4 hPa 0,0 l/m 8,0 km/h (2 Bft) W-SW 254 0 min 0,000 mm 0,0 UV-I 0 W/m 1,1 C 0,6 C 11,3 km/h (2 Bft) 100,00 %
12.02.2018 02:30 2,1 C 4,4 C 93 % 1009,4 hPa 0,0 l/m 11,2 km/h (2 Bft) W-SW 253 0 min 0,000 mm 0,0 UV-I 0 W/m 1,1 C -2,0 C 16,1 km/h (3 Bft) 100,00 %
12.02.2018 02:31 2,1 C 4,4 C 93 % 1009,5 hPa 0,0 l/m 11,0 km/h (2 Bft) W-SW 244 0 min 0,000 mm 0,0 UV-I 0 W/m 1,1 C -1,9 C 14,5 km/h (3 Bft) 91,67 %
12.02.2018 02:32 2,1 C 4,4 C 93 % 1009,5 hPa 0,0 l/m 9,7 km/h (2 Bft) W-SW 248 0 min 0,000 mm 0,0 UV-I 0 W/m 1,1 C -0,9 C 12,9 km/h (3 Bft) 100,00 %
12.02.2018 02:33 2,1 C 4,4 C 93 % 1009,5 hPa 0,0 l/m 9,1 km/h (2 Bft) S-SW 213 0 min 0,000 mm 0,0 UV-I 0 W/m 1,1 C -0,4 C 14,5 km/h (3 Bft) 100,00 %
12.02.2018 02:34 2,1 C 4,4 C 93 % 1009,5 hPa 0,0 l/m 7,9 km/h (2 Bft) W-SW 242 0 min 0,000 mm 0,0 UV-I 0 W/m 1,1 C 0,7 C 11,3 km/h (2 Bft) 100,00 %
12.02.2018 02:35 2,1 C 4,4 C 93 % 1009,5 hPa 0,0 l/m 9,6 km/h (2 Bft) W 269 0 min 0,000 mm 0,0 UV-I 0 W/m 1,1 C -0,8 C 12,9 km/h (3 Bft) 93,10 %
12.02.2018 02:36 2,1 C 4,4 C 93 % 1009,5 hPa 0,0 l/m 8,6 km/h (2 Bft) W-SW 254 0 min 0,000 mm 0,0 UV-I 0 W/m 1,1 C 0,0 C 12,9 km/h (3 Bft) 96,30 %
12.02.2018 02:37 2,1 C 4,4 C 93 % 1009,5 hPa 0,0 l/m 8,4 km/h (2 Bft) W-SW 244 0 min 0,000 mm 0,0 UV-I 0 W/m 1,1 C 0,2 C 12,9 km/h (3 Bft) 100,00 %
12.02.2018 02:38 2,1 C 4,4 C 93 % 1009,4 hPa 0,0 l/m 8,4 km/h (2 Bft) W-SW 248 0 min 0,000 mm 0,0 UV-I 0 W/m 1,1 C 0,2 C 12,9 km/h (3 Bft) 100,00 %
12.02.2018 02:39 2,1 C 4,4 C 93 % 1009,5 hPa 0,0 l/m 7,5 km/h (2 Bft) W-SW 238 0 min 0,000 mm 0,0 UV-I 0 W/m 1,1 C 1,0 C 12,9 km/h (3 Bft) 100,00 %
12.02.2018 02:40 2,1 C 4,4 C 93 % 1009,4 hPa 0,0 l/m 8,4 km/h (2 Bft) W-SW 244 0 min 0,000 mm 0,0 UV-I 0 W/m 1,1 C 0,2 C 12,9 km/h (3 Bft) 100,00 %
12.02.2018 02:41 2,1 C 4,4 C 93 % 1009,4 hPa 0,0 l/m 6,9 km/h (2 Bft) W-SW 244 0 min 0,000 mm 0,0 UV-I 0 W/m 1,1 C 1,6 C 9,7 km/h (2 Bft) 100,00 %
12.02.2018 02:42 2,1 C 4,4 C 93 % 1009,4 hPa 0,0 l/m 7,9 km/h (2 Bft) W-SW 237 0 min 0,000 mm 0,0 UV-I 0 W/m 1,1 C 0,7 C 11,3 km/h (2 Bft) 100,00 %
12.02.2018 02:43 2,1 C 4,4 C 93 % 1009,4 hPa 0,0 l/m 8,5 km/h (2 Bft) W-SW 249 0 min 0,000 mm 0,0 UV-I 0 W/m 1,1 C 0,1 C 11,3 km/h (2 Bft) 96,15 %
12.02.2018 02:44 2,1 C 4,4 C 93 % 1009,4 hPa 0,0 l/m 7,3 km/h (2 Bft) W-SW 256 0 min 0,000 mm 0,0 UV-I 0 W/m 1,1 C 1,2 C 11,3 km/h (2 Bft) 100,00 %
12.02.2018 02:45 2,1 C 4,4 C 93 % 1009,4 hPa 0,0 l/m 7,7 km/h (2 Bft) W-SW 246 0 min 0,000 mm 0,0 UV-I 0 W/m 1,1 C 0,8 C 11,3 km/h (2 Bft) 100,00 %
12.02.2018 02:46 2,1 C 4,4 C 93 % 1009,5 hPa 0,0 l/m 8,1 km/h (2 Bft) SW 228 0 min 0,000 mm 0,0 UV-I 0 W/m 1,1 C 0,5 C 11,3 km/h (2 Bft) 100,00 %
12.02.2018 02:47 2,1 C 4,4 C 93 % 1009,5 hPa 0,0 l/m 8,5 km/h (2 Bft) W 271 0 min 0,000 mm 0,0 UV-I 0 W/m 1,1 C 0,1 C 12,9 km/h (3 Bft) 100,00 %
12.02.2018 02:48 2,1 C 4,4 C 93 % 1009,5 hPa 0,0 l/m 8,2 km/h (2 Bft) SW 219 0 min 0,000 mm 0,0 UV-I 0 W/m 1,1 C 0,4 C 11,3 km/h (2 Bft) 100,00 %
12.02.2018 02:49 2,2 C 4,4 C 93 % 1009,5 hPa 0,0 l/m 8,0 km/h (2 Bft) SW 219 0 min 0,000 mm 0,0 UV-I 0 W/m 1,2 C 0,7 C 11,3 km/h (2 Bft) 100,00 %
12.02.2018 02:50 2,1 C 4,4 C 93 % 1009,5 hPa 0,0 l/m 8,1 km/h (2 Bft) SW 233 0 min 0,000 mm 0,0 UV-I 0 W/m 1,1 C 0,5 C 11,3 km/h (2 Bft) 100,00 %
12.02.2018 02:51 2,1 C 4,4 C 93 % 1009,5 hPa 0,0 l/m 7,7 km/h (2 Bft) W-SW 239 0 min 0,000 mm 0,0 UV-I 0 W/m 1,1 C 0,8 C 9,7 km/h (2 Bft) 100,00 %
12.02.2018 02:52 2,1 C 4,4 C 93 % 1009,5 hPa 0,0 l/m 8,2 km/h (2 Bft) SW 225 0 min 0,000 mm 0,0 UV-I 0 W/m 1,1 C 0,4 C 9,7 km/h (2 Bft) 100,00 %
12.02.2018 02:53 2,1 C 4,4 C 93 % 1009,5 hPa 0,0 l/m 7,0 km/h (2 Bft) SW 227 0 min 0,000 mm 0,0 UV-I 0 W/m 1,1 C 1,5 C 11,3 km/h (2 Bft) 100,00 %
12.02.2018 02:54 2,1 C 4,4 C 93 % 1009,5 hPa 0,0 l/m 9,4 km/h (2 Bft) W-SW 237 0 min 0,000 mm 0,0 UV-I 0 W/m 1,1 C -0,7 C 11,3 km/h (2 Bft) 100,00 %
12.02.2018 02:55 2,1 C 4,4 C 93 % 1009,4 hPa 0,0 l/m 8,0 km/h (2 Bft) SW 231 0 min 0,000 mm 0,0 UV-I 0 W/m 1,1 C 0,6 C 9,7 km/h (2 Bft) 100,00 %
12.02.2018 02:56 2,1 C 4,4 C 93 % 1009,4 hPa 0,0 l/m 8,4 km/h (2 Bft) S-SW 207 0 min 0,000 mm 0,0 UV-I 0 W/m 1,1 C 0,2 C 11,3 km/h (2 Bft) 96,55 %
12.02.2018 02:57 2,1 C 4,4 C 93 % 1009,5 hPa 0,0 l/m 8,1 km/h (2 Bft) SW 227 0 min 0,000 mm 0,0 UV-I 0 W/m 1,1 C 0,5 C 9,7 km/h (2 Bft) 100,00 %
12.02.2018 02:58 2,1 C 4,4 C 93 % 1009,5 hPa 0,0 l/m 8,4 km/h (2 Bft) SW 215 0 min 0,000 mm 0,0 UV-I 0 W/m 1,1 C 0,2 C 11,3 km/h (2 Bft) 96,55 %
12.02.2018 02:59 2,1 C 4,4 C 93 % 1009,5 hPa 0,0 l/m 7,8 km/h (2 Bft) SW 233 0 min 0,000 mm 0,0 UV-I 0 W/m 1,1 C 0,7 C 9,7 km/h (2 Bft) 96,30 %
12.02.2018 03:00 2,1 C 4,4 C 93 % 1009,4 hPa 0,0 l/m 9,4 km/h (2 Bft) SW 221 0 min 0,000 mm 0,0 UV-I 0 W/m 1,1 C -0,7 C 12,9 km/h (3 Bft) 98,35 %
12.02.2018 03:01 2,1 C 4,4 C 93 % 1009,4 hPa 0,0 l/m 9,3 km/h (2 Bft) SW 229 0 min 0,000 mm 0,0 UV-I 0 W/m 1,1 C -0,6 C 12,9 km/h (3 Bft) 97,73 %
12.02.2018 03:02 2,1 C 4,4 C 93 % 1009,4 hPa 0,0 l/m 7,1 km/h (2 Bft) W-SW 239 0 min 0,000 mm 0,0 UV-I 0 W/m 1,1 C 1,4 C 12,9 km/h (3 Bft) 100,00 %
12.02.2018 03:03 2,1 C 4,4 C 93 % 1009,4 hPa 0,0 l/m 6,4 km/h (2 Bft) SW 234 0 min 0,000 mm 0,0 UV-I 0 W/m 1,1 C 2,1 C 8,0 km/h (2 Bft) 100,00 %
12.02.2018 03:04 2,1 C 4,4 C 93 % 1009,4 hPa 0,0 l/m 8,2 km/h (2 Bft) W-SW 244 0 min 0,000 mm 0,0 UV-I 0 W/m 1,1 C 0,4 C 12,9 km/h (3 Bft) 100,00 %
12.02.2018 03:05 2,1 C 4,4 C 93 % 1009,4 hPa 0,0 l/m 6,8 km/h (2 Bft) SW 220 0 min 0,000 mm 0,0 UV-I 0 W/m 1,1 C 1,7 C 11,3 km/h (2 Bft) 100,00 %
12.02.2018 03:06 2,1 C 4,4 C 93 % 1009,4 hPa 0,0 l/m 6,8 km/h (2 Bft) S-SW 210 0 min 0,000 mm 0,0 UV-I 0 W/m 1,1 C 1,7 C 11,3 km/h (2 Bft) 92,31 %
12.02.2018 03:07 2,1 C 4,4 C 93 % 1009,4 hPa 0,0 l/m 6,8 km/h (2 Bft) SW 219 0 min 0,000 mm 0,0 UV-I 0 W/m 1,1 C 1,7 C 9,7 km/h (2 Bft) 100,00 %
12.02.2018 03:08 2,1 C 4,4 C 93 % 1009,4 hPa 0,0 l/m 6,4 km/h (2 Bft) W-SW 237 0 min 0,000 mm 0,0 UV-I 0 W/m 1,1 C 2,1 C 11,3 km/h (2 Bft) 91,67 %
12.02.2018 03:09 2,1 C 4,4 C 93 % 1009,4 hPa 0,0 l/m 5,8 km/h (2 Bft) SW 233 0 min 0,000 mm 0,0 UV-I 0 W/m 1,1 C 2,1 C 9,7 km/h (2 Bft) 100,00 %
12.02.2018 03:10 2,1 C 4,4 C 93 % 1009,4 hPa 0,0 l/m 7,8 km/h (2 Bft) S-SW 200 0 min 0,000 mm 0,0 UV-I 0 W/m 1,1 C 0,7 C 9,7 km/h (2 Bft) 96,30 %
12.02.2018 03:11 2,1 C 4,4 C 93 % 1009,4 hPa 0,0 l/m 7,6 km/h (2 Bft) W-SW 241 0 min 0,000 mm 0,0 UV-I 0 W/m 1,1 C 0,9 C 12,9 km/h (3 Bft) 91,30 %
12.02.2018 03:12 2,1 C 4,4 C 92 % 1009,4 hPa 0,0 l/m 7,6 km/h (2 Bft) S 188 0 min 0,000 mm 0,0 UV-I 0 W/m 0,9 C 0,9 C 9,7 km/h (2 Bft) 95,83 %
12.02.2018 03:13 2,1 C 4,4 C 92 % 1009,4 hPa 0,0 l/m 9,4 km/h (2 Bft) S-SW 205 0 min 0,000 mm 0,0 UV-I 0 W/m 0,9 C -0,7 C 11,3 km/h (2 Bft) 96,15 %
12.02.2018 03:14 2,2 C 4,4 C 92 % 1009,5 hPa 0,0 l/m 6,5 km/h (2 Bft) S-SW 205 0 min 0,000 mm 0,0 UV-I 0 W/m 1,0 C 2,1 C 9,7 km/h (2 Bft) 100,00 %
12.02.2018 03:15 2,1 C 4,4 C 92 % 1009,4 hPa 0,0 l/m 6,9 km/h (2 Bft) SW 228 0 min 0,000 mm 0,0 UV-I 0 W/m 0,9 C 1,6 C 9,7 km/h (2 Bft) 95,65 %
12.02.2018 03:16 2,2 C 4,4 C 92 % 1009,5 hPa 0,0 l/m 7,2 km/h (2 Bft) S-SW 202 0 min 0,000 mm 0,0 UV-I 0 W/m 1,0 C 1,4 C 9,7 km/h (2 Bft) 100,00 %
12.02.2018 03:17 2,2 C 4,4 C 92 % 1009,5 hPa 0,0 l/m 7,9 km/h (2 Bft) SW 219 0 min 0,000 mm 0,0 UV-I 0 W/m 1,0 C 0,8 C 12,9 km/h (3 Bft) 95,65 %
12.02.2018 03:18 2,1 C 4,4 C 92 % 1009,4 hPa 0,0 l/m 7,4 km/h (2 Bft) W-SW 242 0 min 0,000 mm 0,0 UV-I 0 W/m 0,9 C 1,1 C 12,9 km/h (3 Bft) 100,00 %
12.02.2018 03:19 2,2 C 4,4 C 92 % 1009,4 hPa 0,0 l/m 6,8 km/h (2 Bft) W-SW 240 0 min 0,000 mm 0,0 UV-I 0 W/m 1,0 C 1,8 C 8,0 km/h (2 Bft) 96,55 %
12.02.2018 03:20 2,2 C 4,4 C 92 % 1009,5 hPa 0,0 l/m 7,5 km/h (2 Bft) S-SW 201 0 min 0,000 mm 0,0 UV-I 0 W/m 1,0 C 1,1 C 9,7 km/h (2 Bft) 92,59 %
12.02.2018 03:21 2,2 C 4,4 C 92 % 1009,5 hPa 0,0 l/m 8,2 km/h (2 Bft) SW 218 0 min 0,000 mm 0,0 UV-I 0 W/m 1,0 C 0,5 C 11,3 km/h (2 Bft) 100,00 %
12.02.2018 03:22 2,2 C 4,4 C 92 % 1009,4 hPa 0,0 l/m 7,6 km/h (2 Bft) SW 233 0 min 0,000 mm 0,0 UV-I 0 W/m 1,0 C 1,0 C 11,3 km/h (2 Bft) 100,00 %
12.02.2018 03:23 2,2 C 4,4 C 92 % 1009,4 hPa 0,0 l/m 6,1 km/h (2 Bft) S-SW 213 0 min 0,000 mm 0,0 UV-I 0 W/m 1,0 C 2,2 C 8,0 km/h (2 Bft) 91,30 %
12.02.2018 03:24 2,2 C 4,4 C 92 % 1009,5 hPa 0,0 l/m 7,2 km/h (2 Bft) SW 236 0 min 0,000 mm 0,0 UV-I 0 W/m 1,0 C 1,4 C 12,9 km/h (3 Bft) 92,59 %
12.02.2018 03:25 2,2 C 4,4 C 92 % 1009,5 hPa 0,0 l/m 8,4 km/h (2 Bft) S-SW 209 0 min 0,000 mm 0,0 UV-I 0 W/m 1,0 C 0,3 C 12,9 km/h (3 Bft) 100,00 %
12.02.2018 03:26 2,2 C 4,4 C 92 % 1009,5 hPa 0,0 l/m 7,2 km/h (2 Bft) SW 221 0 min 0,000 mm 0,0 UV-I 0 W/m 1,0 C 1,4 C 9,7 km/h (2 Bft) 95,83 %
12.02.2018 03:27 2,2 C 4,4 C 92 % 1009,5 hPa 0,0 l/m 7,4 km/h (2 Bft) SW 234 0 min 0,000 mm 0,0 UV-I 0 W/m 1,0 C 1,2 C 11,3 km/h (2 Bft) 100,00 %
12.02.2018 03:28 2,2 C 4,4 C 92 % 1009,5 hPa 0,0 l/m 6,8 km/h (2 Bft) SW 217 0 min 0,000 mm 0,0 UV-I 0 W/m 1,0 C 1,8 C 11,3 km/h (2 Bft) 96,15 %
12.02.2018 03:29 2,2 C 4,4 C 92 % 1009,6 hPa 0,0 l/m 8,4 km/h (2 Bft) SW 231 0 min 0,000 mm 0,0 UV-I 0 W/m 1,0 C 0,3 C 12,9 km/h (3 Bft) 87,50 %
12.02.2018 03:30 2,2 C 4,4 C 92 % 1009,5 hPa 0,0 l/m 8,2 km/h (2 Bft) SW 234 0 min 0,000 mm 0,0 UV-I 0 W/m 1,0 C 0,5 C 14,5 km/h (3 Bft) 100,00 %
12.02.2018 03:31 2,2 C 4,4 C 92 % 1009,5 hPa 0,0 l/m 8,5 km/h (2 Bft) S-SW 207 0 min 0,000 mm 0,0 UV-I 0 W/m 1,0 C 0,2 C 11,3 km/h (2 Bft) 91,67 %
12.02.2018 03:32 2,2 C 4,4 C 92 % 1009,5 hPa 0,0 l/m 10,2 km/h (2 Bft) W-SW 239 0 min 0,000 mm 0,0 UV-I 0 W/m 1,0 C -1,2 C 12,9 km/h (3 Bft) 96,88 %
12.02.2018 03:33 2,2 C 4,4 C 92 % 1009,5 hPa 0,0 l/m 8,3 km/h (2 Bft) SW 231 0 min 0,000 mm 0,0 UV-I 0 W/m 1,0 C 0,4 C 11,3 km/h (2 Bft) 88,89 %
12.02.2018 03:34 2,2 C 4,4 C 92 % 1009,5 hPa 0,0 l/m 9,3 km/h (2 Bft) S-SW 204 0 min 0,000 mm 0,0 UV-I 0 W/m 1,0 C -0,5 C 12,9 km/h (3 Bft) 90,91 %
12.02.2018 03:35 2,2 C 4,4 C 92 % 1009,5 hPa 0,0 l/m 8,6 km/h (2 Bft) SW 227 0 min 0,000 mm 0,0 UV-I 0 W/m 1,0 C 0,1 C 12,9 km/h (3 Bft) 93,33 %
12.02.2018 03:36 2,2 C 4,4 C 92 % 1009,5 hPa 0,0 l/m 9,5 km/h (2 Bft) SW 233 0 min 0,000 mm 0,0 UV-I 0 W/m 1,0 C -0,6 C 12,9 km/h (3 Bft) 92,31 %
12.02.2018 03:37 2,2 C 4,4 C 92 % 1009,5 hPa 0,0 l/m 9,3 km/h (2 Bft) S-SW 208 0 min 0,000 mm 0,0 UV-I 0 W/m 1,0 C -0,5 C 14,5 km/h (3 Bft) 96,30 %
12.02.2018 03:38 2,2 C 4,4 C 92 % 1009,5 hPa 0,0 l/m 10,2 km/h (2 Bft) W-SW 244 0 min 0,000 mm 0,0 UV-I 0 W/m 1,0 C -1,2 C 17,7 km/h (3 Bft) 92,86 %
12.02.2018 03:39 2,2 C 4,4 C 92 % 1009,5 hPa 0,0 l/m 9,8 km/h (2 Bft) SW 215 0 min 0,000 mm 0,0 UV-I 0 W/m 1,0 C -0,9 C 16,1 km/h (3 Bft) 95,83 %
12.02.2018 03:40 2,2 C 4,4 C 92 % 1009,5 hPa 0,0 l/m 9,3 km/h (2 Bft) W-SW 243 0 min 0,000 mm 0,0 UV-I 0 W/m 1,0 C -0,5 C 14,5 km/h (3 Bft) 91,30 %
12.02.2018 03:41 2,2 C 4,4 C 92 % 1009,5 hPa 0,0 l/m 10,6 km/h (2 Bft) SW 236 0 min 0,000 mm 0,0 UV-I 0 W/m 1,0 C -1,5 C 16,1 km/h (3 Bft) 100,00 %
12.02.2018 03:42 2,3 C 4,4 C 92 % 1009,6 hPa 0,0 l/m 6,0 km/h (2 Bft) S-SW 208 0 min 0,000 mm 0,0 UV-I 0 W/m 1,1 C 2,3 C 6,4 km/h (2 Bft) 86,96 %
12.02.2018 03:43 2,3 C 4,4 C 92 % 1009,6 hPa 0,0 l/m 6,4 km/h (2 Bft) W-SW 244 0 min 0,000 mm 0,0 UV-I 0 W/m 1,1 C 2,3 C 8,0 km/h (2 Bft) 100,00 %
12.02.2018 03:44 2,3 C 4,4 C 92 % 1009,6 hPa 0,0 l/m 6,8 km/h (2 Bft) SW 220 0 min 0,000 mm 0,0 UV-I 0 W/m 1,1 C 1,9 C 11,3 km/h (2 Bft) 92,31 %
12.02.2018 03:45 2,3 C 4,4 C 91 % 1009,6 hPa 0,0 l/m 7,7 km/h (2 Bft) SW 229 0 min 0,000 mm 0,0 UV-I 0 W/m 1,0 C 1,0 C 9,7 km/h (2 Bft) 96,30 %
12.02.2018 03:46 2,3 C 4,4 C 91 % 1009,6 hPa 0,0 l/m 7,8 km/h (2 Bft) SW 232 0 min 0,000 mm 0,0 UV-I 0 W/m 1,0 C 1,0 C 11,3 km/h (2 Bft) 100,00 %
12.02.2018 03:47 2,3 C 4,4 C 91 % 1009,7 hPa 0,0 l/m 8,0 km/h (2 Bft) W-SW 237 0 min 0,000 mm 0,0 UV-I 0 W/m 1,0 C 0,8 C 11,3 km/h (2 Bft) 96,55 %
12.02.2018 03:48 2,3 C 4,4 C 91 % 1009,7 hPa 0,0 l/m 8,8 km/h (2 Bft) W-SW 256 0 min 0,000 mm 0,0 UV-I 0 W/m 1,0 C 0,1 C 12,9 km/h (3 Bft) 100,00 %
12.02.2018 03:49 2,3 C 4,4 C 91 % 1009,7 hPa 0,0 l/m 7,9 km/h (2 Bft) W-SW 241 0 min 0,000 mm 0,0 UV-I 0 W/m 1,0 C 0,9 C 11,3 km/h (2 Bft) 93,33 %
12.02.2018 03:50 2,3 C 4,4 C 91 % 1009,6 hPa 0,0 l/m 8,2 km/h (2 Bft) SW 234 0 min 0,000 mm 0,0 UV-I 0 W/m 1,0 C 0,6 C 14,5 km/h (3 Bft) 100,00 %
12.02.2018 03:51 2,3 C 4,4 C 91 % 1009,7 hPa 0,0 l/m 10,9 km/h (2 Bft) SW 235 0 min 0,000 mm 0,0 UV-I 0 W/m 1,0 C -1,6 C 16,1 km/h (3 Bft) 96,15 %
12.02.2018 03:52 2,3 C 4,4 C 91 % 1009,7 hPa 0,0 l/m 8,2 km/h (2 Bft) W-SW 246 0 min 0,000 mm 0,0 UV-I 0 W/m 1,0 C 0,6 C 11,3 km/h (2 Bft) 100,00 %
12.02.2018 03:53 2,3 C 4,4 C 91 % 1009,7 hPa 0,0 l/m 10,4 km/h (2 Bft) SW 227 0 min 0,000 mm 0,0 UV-I 0 W/m 1,0 C -1,2 C 17,7 km/h (3 Bft) 91,30 %
12.02.2018 03:54 2,3 C 4,4 C 91 % 1009,7 hPa 0,0 l/m 10,4 km/h (2 Bft) W-SW 238 0 min 0,000 mm 0,0 UV-I 0 W/m 1,0 C -1,2 C 14,5 km/h (3 Bft) 100,00 %
12.02.2018 03:55 2,3 C 4,4 C 91 % 1009,7 hPa 0,0 l/m 10,1 km/h (2 Bft) SW 226 0 min 0,000 mm 0,0 UV-I 0 W/m 1,0 C -1,0 C 16,1 km/h (3 Bft) 92,31 %
12.02.2018 03:56 2,3 C 4,4 C 92 % 1009,7 hPa 0,0 l/m 10,1 km/h (2 Bft) SW 220 0 min 0,000 mm 0,0 UV-I 0 W/m 1,1 C -1,0 C 14,5 km/h (3 Bft) 100,00 %
12.02.2018 03:57 2,3 C 4,4 C 92 % 1009,7 hPa 0,0 l/m 10,4 km/h (2 Bft) W-SW 239 0 min 0,000 mm 0,0 UV-I 0 W/m 1,1 C -1,2 C 16,1 km/h (3 Bft) 95,65 %
12.02.2018 03:58 2,3 C 4,4 C 92 % 1009,7 hPa 0,0 l/m 7,2 km/h (2 Bft) S-SW 204 0 min 0,000 mm 0,0 UV-I 0 W/m 1,1 C 1,5 C 11,3 km/h (2 Bft) 100,00 %
12.02.2018 03:59 2,3 C 4,4 C 92 % 1009,6 hPa 0,0 l/m 10,7 km/h (2 Bft) SW 224 0 min 0,000 mm 0,0 UV-I 0 W/m 1,1 C -1,4 C 14,5 km/h (3 Bft) 96,15 %
12.02.2018 04:00 2,2 C 4,4 C 92 % 1009,7 hPa 0,0 l/m 10,1 km/h (2 Bft) W-SW 256 0 min 0,000 mm 0,0 UV-I 0 W/m 1,0 C -1,1 C 14,5 km/h (3 Bft) 96,30 %
12.02.2018 04:02 2,2 C 4,4 C 92 % 1009,7 hPa 0,0 l/m 11,1 km/h (2 Bft) SW 229 0 min 0,000 mm 0,0 UV-I 0 W/m 1,0 C -1,8 C 14,5 km/h (3 Bft) 100,00 %
12.02.2018 04:03 2,2 C 4,4 C 92 % 1009,7 hPa 0,0 l/m 10,1 km/h (2 Bft) SW 236 0 min 0,000 mm 0,0 UV-I 0 W/m 1,0 C -1,1 C 16,1 km/h (3 Bft) 100,00 %
12.02.2018 04:04 2,2 C 4,4 C 92 % 1009,7 hPa 0,0 l/m 9,3 km/h (2 Bft) W-SW 250 0 min 0,000 mm 0,0 UV-I 0 W/m 1,0 C -0,5 C 12,9 km/h (3 Bft) 96,15 %
12.02.2018 04:05 2,2 C 4,4 C 92 % 1009,7 hPa 0,0 l/m 11,4 km/h (2 Bft) SW 223 0 min 0,000 mm 0,0 UV-I 0 W/m 1,0 C -2,1 C 14,5 km/h (3 Bft) 100,00 %
12.02.2018 04:06 2,2 C 4,4 C 92 % 1009,7 hPa 0,0 l/m 7,8 km/h (2 Bft) W-SW 238 0 min 0,000 mm 0,0 UV-I 0 W/m 1,0 C 0,8 C 11,3 km/h (2 Bft) 96,55 %
12.02.2018 04:07 2,2 C 4,4 C 92 % 1009,7 hPa 0,0 l/m 11,4 km/h (2 Bft) SW 225 0 min 0,000 mm 0,0 UV-I 0 W/m 1,0 C -2,1 C 14,5 km/h (3 Bft) 100,00 %
12.02.2018 04:08 2,2 C 4,4 C 92 % 1009,8 hPa 0,0 l/m 9,0 km/h (2 Bft) S-SW 213 0 min 0,000 mm 0,0 UV-I 0 W/m 1,0 C -0,2 C 14,5 km/h (3 Bft) 95,83 %
12.02.2018 04:09 2,2 C 4,4 C 93 % 1009,7 hPa 0,0 l/m 12,0 km/h (2 Bft) SW 223 0 min 0,000 mm 0,0 UV-I 0 W/m 1,2 C -2,5 C 16,1 km/h (3 Bft) 95,83 %
12.02.2018 04:10 2,2 C 4,4 C 93 % 1009,7 hPa 0,0 l/m 9,8 km/h (2 Bft) SW 229 0 min 0,000 mm 0,0 UV-I 0 W/m 1,2 C -0,9 C 16,1 km/h (3 Bft) 95,65 %
12.02.2018 04:11 2,1 C 4,4 C 93 % 1009,7 hPa 0,0 l/m 9,8 km/h (2 Bft) W-SW 239 0 min 0,000 mm 0,0 UV-I 0 W/m 1,1 C -1,0 C 12,9 km/h (3 Bft) 100,00 %
12.02.2018 04:12 2,1 C 4,4 C 93 % 1009,7 hPa 0,0 l/m 8,3 km/h (2 Bft) SW 234 0 min 0,000 mm 0,0 UV-I 0 W/m 1,1 C 0,3 C 12,9 km/h (3 Bft) 96,55 %
12.02.2018 04:13 2,1 C 4,4 C 93 % 1009,7 hPa 0,0 l/m 12,6 km/h (3 Bft) SW 233 0 min 0,000 mm 0,0 UV-I 0 W/m 1,1 C -3,0 C 17,7 km/h (3 Bft) 96,30 %
12.02.2018 04:14 2,1 C 4,4 C 93 % 1009,7 hPa 0,0 l/m 11,0 km/h (2 Bft) W-SW 242 0 min 0,000 mm 0,0 UV-I 0 W/m 1,1 C -1,9 C 14,5 km/h (3 Bft) 100,00 %
12.02.2018 04:15 2,1 C 4,4 C 93 % 1009,6 hPa 0,0 l/m 11,5 km/h (2 Bft) SW 220 0 min 0,000 mm 0,0 UV-I 0 W/m 1,1 C -2,2 C 17,7 km/h (3 Bft) 93,33 %
12.02.2018 04:16 2,1 C 4,4 C 93 % 1009,7 hPa 0,0 l/m 11,3 km/h (2 Bft) W-SW 238 0 min 0,000 mm 0,0 UV-I 0 W/m 1,1 C -2,1 C 16,1 km/h (3 Bft) 100,00 %
12.02.2018 04:17 2,1 C 4,4 C 93 % 1009,7 hPa 0,0 l/m 10,9 km/h (2 Bft) SW 232 0 min 0,000 mm 0,0 UV-I 0 W/m 1,1 C -1,8 C 14,5 km/h (3 Bft) 96,30 %
12.02.2018 04:18 2,1 C 4,4 C 93 % 1009,7 hPa 0,0 l/m 10,8 km/h (2 Bft) SW 236 0 min 0,000 mm 0,0 UV-I 0 W/m 1,1 C -1,7 C 16,1 km/h (3 Bft) 96,15 %
12.02.2018 04:19 2,1 C 4,4 C 93 % 1009,7 hPa 0,0 l/m 10,5 km/h (2 Bft) S-SW 209 0 min 0,000 mm 0,0 UV-I 0 W/m 1,1 C -1,5 C 14,5 km/h (3 Bft) 100,00 %
12.02.2018 04:20 2,1 C 4,4 C 93 % 1009,7 hPa 0,0 l/m 10,6 km/h (2 Bft) W 263 0 min 0,000 mm 0,0 UV-I 0 W/m 1,1 C -1,6 C 14,5 km/h (3 Bft) 92,86 %
12.02.2018 04:21 2,0 C 4,4 C 93 % 1009,7 hPa 0,0 l/m 9,6 km/h (2 Bft) SW 225 0 min 0,000 mm 0,0 UV-I 0 W/m 1,0 C -0,9 C 12,9 km/h (3 Bft) 92,59 %
12.02.2018 04:22 2,0 C 4,4 C 93 % 1009,8 hPa 0,0 l/m 9,7 km/h (2 Bft) SW 235 0 min 0,000 mm 0,0 UV-I 0 W/m 1,0 C -1,0 C 16,1 km/h (3 Bft) 100,00 %
12.02.2018 04:23 2,0 C 4,4 C 93 % 1009,8 hPa 0,2 l/m 9,8 km/h (2 Bft) SW 214 0 min 0,000 mm 0,0 UV-I 0 W/m 1,0 C -1,1 C 16,1 km/h (3 Bft) 96,15 %
12.02.2018 04:24 1,9 C 4,4 C 94 % 1009,8 hPa 0,0 l/m 9,3 km/h (2 Bft) S-SW 202 0 min 0,000 mm 0,0 UV-I 0 W/m 1,0 C -0,8 C 14,5 km/h (3 Bft) 95,83 %
12.02.2018 04:25 1,9 C 4,4 C 94 % 1009,8 hPa 0,0 l/m 9,5 km/h (2 Bft) W-SW 239 0 min 0,000 mm 0,0 UV-I 0 W/m 1,0 C -1,0 C 16,1 km/h (3 Bft) 100,00 %
12.02.2018 04:26 1,9 C 4,4 C 94 % 1009,8 hPa 0,0 l/m 12,7 km/h (3 Bft) SW 232 0 min 0,000 mm 0,0 UV-I 0 W/m 1,0 C -3,3 C 17,7 km/h (3 Bft) 96,30 %
12.02.2018 04:27 1,9 C 4,4 C 94 % 1009,8 hPa 0,0 l/m 10,5 km/h (2 Bft) SW 226 0 min 0,000 mm 0,0 UV-I 0 W/m 1,0 C -1,7 C 14,5 km/h (3 Bft) 96,15 %
12.02.2018 04:28 1,9 C 4,4 C 94 % 1009,8 hPa 0,0 l/m 10,2 km/h (2 Bft) W-SW 246 0 min 0,000 mm 0,0 UV-I 0 W/m 1,0 C -1,5 C 17,7 km/h (3 Bft) 93,33 %
12.02.2018 04:29 1,9 C 4,4 C 94 % 1009,8 hPa 0,0 l/m 11,3 km/h (2 Bft) S-SW 208 0 min 0,000 mm 0,0 UV-I 0 W/m 1,0 C -2,3 C 16,1 km/h (3 Bft) 100,00 %
12.02.2018 04:30 1,9 C 4,4 C 94 % 1009,8 hPa 0,0 l/m 8,4 km/h (2 Bft) SW 234 0 min 0,000 mm 0,0 UV-I 0 W/m 1,0 C -0,0 C 12,9 km/h (3 Bft) 92,59 %
12.02.2018 04:31 1,9 C 4,4 C 94 % 1009,8 hPa 0,0 l/m 12,5 km/h (3 Bft) W-SW 239 0 min 0,000 mm 0,0 UV-I 0 W/m 1,0 C -3,1 C 19,3 km/h (3 Bft) 100,00 %
12.02.2018 04:32 1,8 C 4,4 C 94 % 1009,8 hPa 0,0 l/m 13,3 km/h (3 Bft) SW 232 0 min 0,000 mm 0,0 UV-I 0 W/m 0,9 C -3,8 C 17,7 km/h (3 Bft) 96,30 %
12.02.2018 04:33 1,8 C 4,4 C 94 % 1009,8 hPa 0,0 l/m 12,2 km/h (2 Bft) SW 228 0 min 0,000 mm 0,0 UV-I 0 W/m 0,9 C -3,1 C 17,7 km/h (3 Bft) 96,15 %
12.02.2018 04:34 1,8 C 4,4 C 94 % 1009,8 hPa 0,0 l/m 11,9 km/h (2 Bft) SW 235 0 min 0,000 mm 0,0 UV-I 0 W/m 0,9 C -2,9 C 17,7 km/h (3 Bft) 100,00 %
12.02.2018 04:35 1,8 C 4,4 C 94 % 1009,8 hPa 0,0 l/m 11,6 km/h (2 Bft) SW 236 0 min 0,000 mm 0,0 UV-I 0 W/m 0,9 C -2,7 C 14,5 km/h (3 Bft) 96,15 %
12.02.2018 04:36 1,8 C 4,4 C 94 % 1009,8 hPa 0,0 l/m 13,1 km/h (3 Bft) SW 217 0 min 0,000 mm 0,0 UV-I 0 W/m 0,9 C -3,7 C 20,9 km/h (4 Bft) 96,30 %
12.02.2018 04:37 1,8 C 4,4 C 94 % 1009,8 hPa 0,0 l/m 12,9 km/h (3 Bft) SW 234 0 min 0,000 mm 0,0 UV-I 0 W/m 0,9 C -3,5 C 19,3 km/h (3 Bft) 91,30 %
12.02.2018 04:38 1,7 C 4,4 C 94 % 1009,8 hPa 0,0 l/m 12,7 km/h (3 Bft) SW 227 0 min 0,000 mm 0,0 UV-I 0 W/m 0,8 C -3,5 C 16,1 km/h (3 Bft) 100,00 %
12.02.2018 04:39 1,7 C 4,4 C 94 % 1009,8 hPa 0,0 l/m 9,5 km/h (2 Bft) SW 225 0 min 0,000 mm 0,0 UV-I 0 W/m 0,8 C -1,2 C 19,3 km/h (3 Bft) 92,31 %
12.02.2018 04:40 1,7 C 4,4 C 94 % 1009,8 hPa 0,0 l/m 14,1 km/h (3 Bft) SW 216 0 min 0,000 mm 0,0 UV-I 0 W/m 0,8 C -4,4 C 22,5 km/h (4 Bft) 100,00 %
12.02.2018 04:41 1,6 C 4,4 C 94 % 1009,9 hPa 0,0 l/m 11,9 km/h (2 Bft) W-SW 252 0 min 0,000 mm 0,0 UV-I 0 W/m 0,7 C -3,1 C 16,1 km/h (3 Bft) 100,00 %
12.02.2018 04:42 1,6 C 4,4 C 94 % 1009,9 hPa 0,2 l/m 14,1 km/h (3 Bft) W-SW 239 0 min 0,000 mm 0,0 UV-I 0 W/m 0,7 C -4,5 C 19,3 km/h (3 Bft) 100,00 %
12.02.2018 04:43 1,5 C 4,4 C 94 % 1009,9 hPa 0,0 l/m 12,8 km/h (3 Bft) W-SW 244 0 min 0,000 mm 0,0 UV-I 0 W/m 0,6 C -3,8 C 17,7 km/h (3 Bft) 100,00 %
12.02.2018 04:44 1,4 C 4,4 C 94 % 1009,9 hPa 0,0 l/m 12,5 km/h (3 Bft) SW 234 0 min 0,000 mm 0,0 UV-I 0 W/m 0,5 C -3,7 C 20,9 km/h (4 Bft) 100,00 %
12.02.2018 04:45 1,4 C 4,4 C 94 % 1009,8 hPa 0,0 l/m 15,8 km/h (3 Bft) SW 218 0 min 0,000 mm 0,0 UV-I 0 W/m 0,5 C -5,7 C 20,9 km/h (4 Bft) 100,00 %
12.02.2018 04:46 1,3 C 4,4 C 94 % 1009,8 hPa 0,0 l/m 11,3 km/h (2 Bft) S-SW 211 0 min 0,000 mm 0,0 UV-I 0 W/m 0,4 C -3,0 C 14,5 km/h (3 Bft) 100,00 %
12.02.2018 04:47 1,3 C 4,4 C 94 % 1009,8 hPa 0,0 l/m 13,4 km/h (3 Bft) SW 218 0 min 0,000 mm 0,0 UV-I 0 W/m 0,4 C -4,4 C 19,3 km/h (3 Bft) 100,00 %
12.02.2018 04:48 1,2 C 4,4 C 94 % 1009,8 hPa 0,0 l/m 14,6 km/h (3 Bft) S-SW 205 0 min 0,000 mm 0,0 UV-I 0 W/m 0,3 C -5,3 C 19,3 km/h (3 Bft) 100,00 %
12.02.2018 04:49 1,1 C 4,4 C 94 % 1009,8 hPa 0,0 l/m 11,6 km/h (2 Bft) S 190 0 min 0,000 mm 0,0 UV-I 0 W/m 0,2 C -3,5 C 16,1 km/h (3 Bft) 100,00 %
12.02.2018 04:50 1,1 C 4,4 C 94 % 1009,8 hPa 0,0 l/m 9,9 km/h (2 Bft) S-SW 209 0 min 0,000 mm 0,0 UV-I 0 W/m 0,2 C -2,2 C 16,1 km/h (3 Bft) 100,00 %
12.02.2018 04:51 1,0 C 4,4 C 95 % 1009,8 hPa 0,0 l/m 9,2 km/h (2 Bft) W-SW 248 0 min 0,000 mm 0,0 UV-I 0 W/m 0,3 C -1,7 C 12,9 km/h (3 Bft) 100,00 %
12.02.2018 04:52 1,0 C 4,4 C 95 % 1009,8 hPa 0,0 l/m 8,8 km/h (2 Bft) SW 236 0 min 0,000 mm 0,0 UV-I 0 W/m 0,3 C -1,3 C 14,5 km/h (3 Bft) 100,00 %
12.02.2018 04:53 1,0 C 4,4 C 95 % 1009,8 hPa 0,0 l/m 12,1 km/h (2 Bft) W-SW 243 0 min 0,000 mm 0,0 UV-I 0 W/m 0,3 C -3,9 C 16,1 km/h (3 Bft) 100,00 %
12.02.2018 04:54 0,9 C 4,4 C 95 % 1009,8 hPa 0,0 l/m 9,8 km/h (2 Bft) SW 232 0 min 0,000 mm 0,0 UV-I 0 W/m 0,2 C -2,3 C 14,5 km/h (3 Bft) 100,00 %
12.02.2018 04:55 0,9 C 4,4 C 95 % 1009,8 hPa 0,0 l/m 10,4 km/h (2 Bft) W-SW 238 0 min 0,000 mm 0,0 UV-I 0 W/m 0,2 C -2,8 C 17,7 km/h (3 Bft) 100,00 %
12.02.2018 04:56 0,9 C 4,4 C 95 % 1009,8 hPa 0,0 l/m 11,3 km/h (2 Bft) S-SW 205 0 min 0,000 mm 0,0 UV-I 0 W/m 0,2 C -3,5 C 17,7 km/h (3 Bft) 100,00 %
12.02.2018 04:57 0,9 C 4,4 C 95 % 1009,8 hPa 0,0 l/m 6,3 km/h (2 Bft) SW 225 0 min 0,000 mm 0,0 UV-I 0 W/m 0,2 C 0,9 C 9,7 km/h (2 Bft) 100,00 %
12.02.2018 04:58 0,9 C 4,4 C 95 % 1009,8 hPa 0,0 l/m 8,4 km/h (2 Bft) SW 227 0 min 0,000 mm 0,0 UV-I 0 W/m 0,2 C -1,1 C 14,5 km/h (3 Bft) 100,00 %
12.02.2018 04:59 0,9 C 4,4 C 95 % 1009,8 hPa 0,0 l/m 6,2 km/h (2 Bft) SW 231 0 min 0,000 mm 0,0 UV-I 0 W/m 0,2 C 0,9 C 9,7 km/h (2 Bft) 93,33 %
12.02.2018 05:00 0,9 C 4,4 C 95 % 1009,8 hPa 0,2 l/m 8,8 km/h (2 Bft) SW 223 0 min 0,000 mm 0,0 UV-I 0 W/m 0,2 C -1,4 C 14,5 km/h (3 Bft) 100,00 %
12.02.2018 05:01 0,9 C 4,4 C 95 % 1009,8 hPa 0,0 l/m 6,8 km/h (2 Bft) S-SW 205 0 min 0,000 mm 0,0 UV-I 0 W/m 0,2 C 0,5 C 8,0 km/h (2 Bft) 92,31 %
12.02.2018 05:02 0,8 C 4,4 C 95 % 1009,8 hPa 0,0 l/m 8,8 km/h (2 Bft) SW 234 0 min 0,000 mm 0,0 UV-I 0 W/m 0,1 C -1,5 C 11,3 km/h (2 Bft) 100,00 %
12.02.2018 05:03 0,9 C 4,4 C 96 % 1009,8 hPa 0,0 l/m 9,2 km/h (2 Bft) S-SW 207 0 min 0,000 mm 0,0 UV-I 0 W/m 0,3 C -1,8 C 12,9 km/h (3 Bft) 100,00 %
12.02.2018 05:04 0,8 C 4,4 C 95 % 1009,8 hPa 0,0 l/m 7,9 km/h (2 Bft) SW 227 0 min 0,000 mm 0,0 UV-I 0 W/m 0,1 C -0,7 C 11,3 km/h (2 Bft) 100,00 %
12.02.2018 05:05 0,9 C 4,4 C 95 % 1009,7 hPa 0,0 l/m 11,4 km/h (2 Bft) S-SW 212 0 min 0,000 mm 0,0 UV-I 0 W/m 0,2 C -3,5 C 17,7 km/h (3 Bft) 100,00 %
12.02.2018 05:06 0,9 C 4,4 C 95 % 1009,7 hPa 0,0 l/m 10,1 km/h (2 Bft) SW 224 0 min 0,000 mm 0,0 UV-I 0 W/m 0,2 C -2,5 C 19,3 km/h (3 Bft) 100,00 %
12.02.2018 05:07 0,9 C 4,4 C 95 % 1009,8 hPa 0,0 l/m 9,9 km/h (2 Bft) SW 219 0 min 0,000 mm 0,0 UV-I 0 W/m 0,2 C -2,4 C 16,1 km/h (3 Bft) 100,00 %
12.02.2018 05:08 0,9 C 4,4 C 96 % 1009,7 hPa 0,0 l/m 9,3 km/h (2 Bft) SW 220 0 min 0,000 mm 0,0 UV-I 0 W/m 0,3 C -1,9 C 11,3 km/h (2 Bft) 100,00 %
12.02.2018 05:09 0,9 C 4,4 C 96 % 1009,7 hPa 0,0 l/m 10,5 km/h (2 Bft) SW 221 0 min 0,000 mm 0,0 UV-I 0 W/m 0,3 C -2,9 C 16,1 km/h (3 Bft) 92,86 %
12.02.2018 05:10 0,9 C 4,4 C 96 % 1009,7 hPa 0,0 l/m 8,8 km/h (2 Bft) SW 227 0 min 0,000 mm 0,0 UV-I 0 W/m 0,3 C -1,4 C 12,9 km/h (3 Bft) 100,00 %
12.02.2018 05:11 0,9 C 4,4 C 96 % 1009,7 hPa 0,0 l/m 6,9 km/h (2 Bft) S-SW 205 0 min 0,000 mm 0,0 UV-I 0 W/m 0,3 C 0,4 C 11,3 km/h (2 Bft) 100,00 %
12.02.2018 05:12 0,9 C 4,4 C 96 % 1009,7 hPa 0,0 l/m 8,5 km/h (2 Bft) SW 220 0 min 0,000 mm 0,0 UV-I 0 W/m 0,3 C -1,2 C 11,3 km/h (2 Bft) 91,67 %
12.02.2018 05:13 0,9 C 4,4 C 96 % 1009,7 hPa 0,0 l/m 12,0 km/h (2 Bft) S-SW 198 0 min 0,000 mm 0,0 UV-I 0 W/m 0,3 C -4,0 C 14,5 km/h (3 Bft) 100,00 %
12.02.2018 05:14 0,9 C 4,4 C 96 % 1009,7 hPa 0,0 l/m 9,4 km/h (2 Bft) S-SW 211 0 min 0,000 mm 0,0 UV-I 0 W/m 0,3 C -2,0 C 16,1 km/h (3 Bft) 96,30 %
12.02.2018 05:15 0,9 C 4,4 C 96 % 1009,8 hPa 0,0 l/m 6,7 km/h (2 Bft) S 189 0 min 0,000 mm 0,0 UV-I 0 W/m 0,3 C 0,6 C 9,7 km/h (2 Bft) 92,86 %
12.02.2018 05:16 0,9 C 4,4 C 96 % 1009,8 hPa 0,0 l/m 9,8 km/h (2 Bft) S-SW 200 0 min 0,000 mm 0,0 UV-I 0 W/m 0,3 C -2,3 C 12,9 km/h (3 Bft) 96,30 %
12.02.2018 05:17 1,0 C 4,4 C 96 % 1009,8 hPa 0,0 l/m 7,9 km/h (2 Bft) SW 222 0 min 0,000 mm 0,0 UV-I 0 W/m 0,4 C -0,5 C 11,3 km/h (2 Bft) 96,15 %
12.02.2018 05:18 1,0 C 4,4 C 96 % 1009,8 hPa 0,0 l/m 9,0 km/h (2 Bft) S 181 0 min 0,000 mm 0,0 UV-I 0 W/m 0,4 C -1,5 C 14,5 km/h (3 Bft) 93,33 %
12.02.2018 05:19 1,0 C 4,4 C 96 % 1009,8 hPa 0,0 l/m 10,9 km/h (2 Bft) S-SW 204 0 min 0,000 mm 0,0 UV-I 0 W/m 0,4 C -3,0 C 14,5 km/h (3 Bft) 95,83 %
12.02.2018 05:20 1,0 C 4,4 C 96 % 1009,8 hPa 0,0 l/m 8,0 km/h (2 Bft) S-SW 207 0 min 0,000 mm 0,0 UV-I 0 W/m 0,4 C -0,6 C 14,5 km/h (3 Bft) 100,00 %
12.02.2018 05:21 1,0 C 4,4 C 96 % 1009,8 hPa 0,0 l/m 10,6 km/h (2 Bft) S-SW 210 0 min 0,000 mm 0,0 UV-I 0 W/m 0,4 C -2,8 C 16,1 km/h (3 Bft) 95,83 %
12.02.2018 05:22 1,0 C 4,4 C 96 % 1009,9 hPa 0,0 l/m 9,3 km/h (2 Bft) SW 217 0 min 0,000 mm 0,0 UV-I 0 W/m 0,4 C -1,8 C 16,1 km/h (3 Bft) 96,55 %
12.02.2018 05:23 1,0 C 4,4 C 96 % 1009,9 hPa 0,0 l/m 11,9 km/h (2 Bft) SW 216 0 min 0,000 mm 0,0 UV-I 0 W/m 0,4 C -3,8 C 14,5 km/h (3 Bft) 100,00 %
12.02.2018 05:24 1,0 C 4,4 C 96 % 1009,9 hPa 0,0 l/m 10,5 km/h (2 Bft) S-SW 205 0 min 0,000 mm 0,0 UV-I 0 W/m 0,4 C -2,7 C 17,7 km/h (3 Bft) 96,55 %
12.02.2018 05:25 1,1 C 4,4 C 96 % 1009,9 hPa 0,0 l/m 9,1 km/h (2 Bft) S-SW 205 0 min 0,000 mm 0,0 UV-I 0 W/m 0,5 C -1,5 C 17,7 km/h (3 Bft) 96,15 %
12.02.2018 05:26 1,1 C 4,4 C 96 % 1009,9 hPa 0,0 l/m 8,5 km/h (2 Bft) SW 225 0 min 0,000 mm 0,0 UV-I 0 W/m 0,5 C -1,0 C 16,1 km/h (3 Bft) 94,44 %
12.02.2018 05:27 1,1 C 4,4 C 96 % 1009,9 hPa 0,0 l/m 10,0 km/h (2 Bft) S 172 0 min 0,000 mm 0,0 UV-I 0 W/m 0,5 C -2,2 C 17,7 km/h (3 Bft) 96,30 %
12.02.2018 05:28 1,1 C 4,4 C 96 % 1009,9 hPa 0,0 l/m 11,1 km/h (2 Bft) S-SW 205 0 min 0,000 mm 0,0 UV-I 0 W/m 0,5 C -3,1 C 16,1 km/h (3 Bft) 96,15 %
12.02.2018 05:29 1,1 C 4,4 C 96 % 1009,9 hPa 0,0 l/m 12,1 km/h (2 Bft) S-SW 196 0 min 0,000 mm 0,0 UV-I 0 W/m 0,5 C -3,8 C 16,1 km/h (3 Bft) 95,83 %
12.02.2018 05:30 1,1 C 4,4 C 96 % 1009,9 hPa 0,0 l/m 10,8 km/h (2 Bft) S-SW 205 0 min 0,000 mm 0,0 UV-I 0 W/m 0,5 C -2,9 C 14,5 km/h (3 Bft) 100,00 %
12.02.2018 05:31 1,1 C 4,4 C 96 % 1009,9 hPa 0,0 l/m 10,1 km/h (2 Bft) SO 146 0 min 0,000 mm 0,0 UV-I 0 W/m 0,5 C -2,3 C 12,9 km/h (3 Bft) 92,59 %
12.02.2018 05:32 1,1 C 4,4 C 96 % 1009,9 hPa 0,0 l/m 8,4 km/h (2 Bft) S-SW 200 0 min 0,000 mm 0,0 UV-I 0 W/m 0,5 C -0,9 C 9,7 km/h (2 Bft) 100,00 %
12.02.2018 05:33 1,1 C 4,4 C 96 % 1009,9 hPa 0,0 l/m 7,6 km/h (2 Bft) S-SW 213 0 min 0,000 mm 0,0 UV-I 0 W/m 0,5 C -0,1 C 11,3 km/h (2 Bft) 96,30 %
12.02.2018 05:34 1,1 C 4,4 C 96 % 1009,9 hPa 0,0 l/m 10,2 km/h (2 Bft) S-SW 207 0 min 0,000 mm 0,0 UV-I 0 W/m 0,5 C -2,4 C 12,9 km/h (3 Bft) 100,00 %
12.02.2018 05:35 1,1 C 4,4 C 96 % 1009,9 hPa 0,0 l/m 8,5 km/h (2 Bft) SW 232 0 min 0,000 mm 0,0 UV-I 0 W/m 0,5 C -1,0 C 11,3 km/h (2 Bft) 100,00 %
12.02.2018 05:36 1,1 C 4,4 C 96 % 1009,9 hPa 0,0 l/m 8,6 km/h (2 Bft) S-SW 207 0 min 0,000 mm 0,0 UV-I 0 W/m 0,5 C -1,0 C 11,3 km/h (2 Bft) 96,67 %
12.02.2018 05:37 1,1 C 4,4 C 96 % 1009,9 hPa 0,0 l/m 9,4 km/h (2 Bft) S-SW 213 0 min 0,000 mm 0,0 UV-I 0 W/m 0,5 C -1,7 C 12,9 km/h (3 Bft) 92,31 %
12.02.2018 05:38 1,1 C 4,4 C 96 % 1009,9 hPa 0,0 l/m 8,9 km/h (2 Bft) S-SW 194 0 min 0,000 mm 0,0 UV-I 0 W/m 0,5 C -1,3 C 11,3 km/h (2 Bft) 100,00 %
12.02.2018 05:39 1,1 C 4,4 C 96 % 1010,0 hPa 0,0 l/m 7,4 km/h (2 Bft) S-SW 209 0 min 0,000 mm 0,0 UV-I 0 W/m 0,5 C 0,1 C 9,7 km/h (2 Bft) 95,65 %
12.02.2018 05:40 1,1 C 4,4 C 96 % 1010,0 hPa 0,0 l/m 7,2 km/h (2 Bft) SW 215 0 min 0,000 mm 0,0 UV-I 0 W/m 0,5 C 0,3 C 9,7 km/h (2 Bft) 96,55 %
12.02.2018 05:41 1,1 C 4,4 C 96 % 1010,0 hPa 0,0 l/m 10,3 km/h (2 Bft) SW 220 0 min 0,000 mm 0,0 UV-I 0 W/m 0,5 C -2,5 C 12,9 km/h (3 Bft) 100,00 %
12.02.2018 05:42 1,1 C 4,4 C 96 % 1009,9 hPa 0,0 l/m 8,3 km/h (2 Bft) S-SW 207 0 min 0,000 mm 0,0 UV-I 0 W/m 0,5 C -0,8 C 11,3 km/h (2 Bft) 96,43 %
12.02.2018 05:43 1,1 C 4,4 C 96 % 1009,9 hPa 0,0 l/m 6,6 km/h (2 Bft) S-SW 211 0 min 0,000 mm 0,0 UV-I 0 W/m 0,5 C 0,9 C 9,7 km/h (2 Bft) 100,00 %
12.02.2018 05:44 1,1 C 4,4 C 96 % 1010,0 hPa 0,0 l/m 5,8 km/h (2 Bft) S-SW 207 0 min 0,000 mm 0,0 UV-I 0 W/m 0,5 C 1,1 C 8,0 km/h (2 Bft) 95,83 %
12.02.2018 05:45 1,1 C 4,4 C 96 % 1010,0 hPa 0,0 l/m 6,5 km/h (2 Bft) SW 224 0 min 0,000 mm 0,0 UV-I 0 W/m 0,5 C 1,0 C 9,7 km/h (2 Bft) 100,00 %
12.02.2018 05:46 1,2 C 4,4 C 96 % 1010,0 hPa 0,0 l/m 8,4 km/h (2 Bft) S-SW 207 0 min 0,000 mm 0,0 UV-I 0 W/m 0,6 C -0,8 C 11,3 km/h (2 Bft) 96,67 %
12.02.2018 05:47 1,1 C 4,4 C 96 % 1010,0 hPa 0,0 l/m 7,3 km/h (2 Bft) S-SW 208 0 min 0,000 mm 0,0 UV-I 0 W/m 0,5 C 0,2 C 9,7 km/h (2 Bft) 96,15 %
12.02.2018 05:48 1,2 C 4,4 C 96 % 1010,0 hPa 0,0 l/m 7,7 km/h (2 Bft) S-SW 205 0 min 0,000 mm 0,0 UV-I 0 W/m 0,6 C -0,1 C 12,9 km/h (3 Bft) 96,30 %
12.02.2018 05:49 1,2 C 4,4 C 96 % 1010,0 hPa 0,0 l/m 8,2 km/h (2 Bft) SW 222 0 min 0,000 mm 0,0 UV-I 0 W/m 0,6 C -0,6 C 12,9 km/h (3 Bft) 94,12 %
12.02.2018 05:50 1,2 C 4,4 C 96 % 1010,0 hPa 0,0 l/m 7,6 km/h (2 Bft) S-SW 205 0 min 0,000 mm 0,0 UV-I 0 W/m 0,6 C -0,0 C 9,7 km/h (2 Bft) 100,00 %
12.02.2018 05:51 1,2 C 4,4 C 96 % 1010,0 hPa 0,0 l/m 6,6 km/h (2 Bft) SW 218 0 min 0,000 mm 0,0 UV-I 0 W/m 0,6 C 1,0 C 9,7 km/h (2 Bft) 92,31 %
12.02.2018 05:52 1,2 C 4,4 C 96 % 1009,9 hPa 0,0 l/m 6,2 km/h (2 Bft) S-SW 202 0 min 0,000 mm 0,0 UV-I 0 W/m 0,6 C 1,2 C 11,3 km/h (2 Bft) 95,83 %
12.02.2018 05:53 1,2 C 4,4 C 96 % 1009,9 hPa 0,0 l/m 7,3 km/h (2 Bft) S-SW 207 0 min 0,000 mm 0,0 UV-I 0 W/m 0,6 C 0,3 C 12,9 km/h (3 Bft) 100,00 %
12.02.2018 05:54 1,2 C 4,4 C 96 % 1009,9 hPa 0,0 l/m 4,4 km/h (1 Bft) S-SW 207 0 min 0,000 mm 0,0 UV-I 0 W/m 0,6 C 1,2 C 6,4 km/h (2 Bft) 100,00 %
12.02.2018 05:55 1,2 C 4,4 C 96 % 1010,0 hPa 0,0 l/m 5,5 km/h (1 Bft) SW 216 0 min 0,000 mm 0,0 UV-I 0 W/m 0,6 C 1,2 C 6,4 km/h (2 Bft) 100,00 %
12.02.2018 05:56 1,2 C 4,4 C 96 % 1009,9 hPa 0,0 l/m 7,7 km/h (2 Bft) S-SW 194 0 min 0,000 mm 0,0 UV-I 0 W/m 0,6 C -0,1 C 12,9 km/h (3 Bft) 100,00 %
12.02.2018 05:57 1,2 C 4,4 C 96 % 1010,0 hPa 0,0 l/m 7,6 km/h (2 Bft) S-SW 208 0 min 0,000 mm 0,0 UV-I 0 W/m 0,6 C -0,0 C 9,7 km/h (2 Bft) 100,00 %
12.02.2018 05:58 1,2 C 4,4 C 96 % 1010,0 hPa 0,0 l/m 5,3 km/h (1 Bft) S-SW 207 0 min 0,000 mm 0,0 UV-I 0 W/m 0,6 C 1,2 C 8,0 km/h (2 Bft) 95,83 %
12.02.2018 05:59 1,2 C 4,4 C 96 % 1010,0 hPa 0,0 l/m 6,1 km/h (2 Bft) W-SW 242 0 min 0,000 mm 0,0 UV-I 0 W/m 0,6 C 1,2 C 9,7 km/h (2 Bft) 100,00 %
12.02.2018 06:00 1,2 C 4,4 C 96 % 1010,0 hPa 0,0 l/m 8,0 km/h (2 Bft) SW 217 0 min 0,000 mm 0,0 UV-I 0 W/m 0,6 C -0,4 C 11,3 km/h (2 Bft) 100,00 %
12.02.2018 06:01 1,2 C 4,4 C 96 % 1010,0 hPa 0,0 l/m 8,0 km/h (2 Bft) S-SW 209 0 min 0,000 mm 0,0 UV-I 0 W/m 0,6 C -0,4 C 11,3 km/h (2 Bft) 100,00 %
12.02.2018 06:02 1,2 C 4,4 C 96 % 1010,0 hPa 0,0 l/m 7,8 km/h (2 Bft) SW 221 0 min 0,000 mm 0,0 UV-I 0 W/m 0,6 C -0,2 C 12,9 km/h (3 Bft) 95,65 %
12.02.2018 06:03 1,2 C 4,4 C 96 % 1010,0 hPa 0,0 l/m 7,1 km/h (2 Bft) S-SW 203 0 min 0,000 mm 0,0 UV-I 0 W/m 0,6 C 0,5 C 9,7 km/h (2 Bft) 100,00 %
12.02.2018 06:04 1,3 C 4,4 C 96 % 1009,9 hPa 0,0 l/m 6,3 km/h (2 Bft) W-SW 241 0 min 0,000 mm 0,0 UV-I 0 W/m 0,7 C 1,3 C 9,7 km/h (2 Bft) 100,00 %
12.02.2018 06:05 1,3 C 4,4 C 96 % 1009,9 hPa 0,0 l/m 7,0 km/h (2 Bft) W-SW 251 0 min 0,000 mm 0,0 UV-I 0 W/m 0,7 C 0,7 C 11,3 km/h (2 Bft) 100,00 %
12.02.2018 06:06 1,3 C 4,4 C 96 % 1009,9 hPa 0,0 l/m 7,6 km/h (2 Bft) SW 217 0 min 0,000 mm 0,0 UV-I 0 W/m 0,7 C 0,1 C 11,3 km/h (2 Bft) 95,12 %
12.02.2018 06:07 1,3 C 4,4 C 96 % 1009,9 hPa 0,0 l/m 6,9 km/h (2 Bft) W-SW 244 0 min 0,000 mm 0,0 UV-I 0 W/m 0,7 C 0,8 C 12,9 km/h (3 Bft) 100,00 %
12.02.2018 06:08 1,3 C 4,4 C 96 % 1009,9 hPa 0,0 l/m 6,8 km/h (2 Bft) W-SW 238 0 min 0,000 mm 0,0 UV-I 0 W/m 0,7 C 0,9 C 11,3 km/h (2 Bft) 100,00 %
12.02.2018 06:09 1,3 C 4,4 C 96 % 1009,9 hPa 0,0 l/m 7,6 km/h (2 Bft) SW 216 0 min 0,000 mm 0,0 UV-I 0 W/m 0,7 C 0,1 C 11,3 km/h (2 Bft) 100,00 %
12.02.2018 06:10 1,3 C 4,4 C 96 % 1009,8 hPa 0,0 l/m 6,2 km/h (2 Bft) SW 221 0 min 0,000 mm 0,0 UV-I 0 W/m 0,7 C 1,3 C 8,0 km/h (2 Bft) 100,00 %
12.02.2018 06:11 1,3 C 4,4 C 96 % 1009,9 hPa 0,0 l/m 8,7 km/h (2 Bft) SW 215 0 min 0,000 mm 0,0 UV-I 0 W/m 0,7 C -0,9 C 12,9 km/h (3 Bft) 100,00 %
12.02.2018 06:12 1,3 C 4,4 C 96 % 1009,8 hPa 0,0 l/m 7,2 km/h (2 Bft) SW 230 0 min 0,000 mm 0,0 UV-I 0 W/m 0,7 C 0,5 C 9,7 km/h (2 Bft) 100,00 %
12.02.2018 06:13 1,3 C 4,4 C 96 % 1009,9 hPa 0,0 l/m 8,9 km/h (2 Bft) SW 223 0 min 0,000 mm 0,0 UV-I 0 W/m 0,7 C -1,1 C 12,9 km/h (3 Bft) 100,00 %
12.02.2018 06:14 1,3 C 4,4 C 96 % 1009,9 hPa 0,0 l/m 6,4 km/h (2 Bft) W-SW 243 0 min 0,000 mm 0,0 UV-I 0 W/m 0,7 C 1,3 C 11,3 km/h (2 Bft) 100,00 %
12.02.2018 06:15 1,3 C 4,4 C 96 % 1009,8 hPa 0,0 l/m 7,2 km/h (2 Bft) S-SW 203 0 min 0,000 mm 0,0 UV-I 0 W/m 0,7 C 0,5 C 11,3 km/h (2 Bft) 100,00 %
12.02.2018 06:16 1,3 C 4,4 C 96 % 1009,9 hPa 0,0 l/m 8,7 km/h (2 Bft) SW 229 0 min 0,000 mm 0,0 UV-I 0 W/m 0,7 C -0,9 C 12,9 km/h (3 Bft) 100,00 %
12.02.2018 06:17 1,3 C 4,4 C 96 % 1009,9 hPa 0,0 l/m 8,9 km/h (2 Bft) W-SW 243 0 min 0,000 mm 0,0 UV-I 0 W/m 0,7 C -1,1 C 12,9 km/h (3 Bft) 100,00 %
12.02.2018 06:18 1,3 C 4,4 C 96 % 1009,9 hPa 0,0 l/m 8,4 km/h (2 Bft) SW 216 0 min 0,000 mm 0,0 UV-I 0 W/m 0,7 C -0,7 C 11,3 km/h (2 Bft) 100,00 %
12.02.2018 06:19 1,3 C 4,4 C 96 % 1009,9 hPa 0,0 l/m 6,4 km/h (2 Bft) W-SW 240 0 min 0,000 mm 0,0 UV-I 0 W/m 0,7 C 1,3 C 8,0 km/h (2 Bft) 100,00 %
12.02.2018 06:20 1,3 C 4,4 C 96 % 1009,9 hPa 0,0 l/m 9,0 km/h (2 Bft) W-SW 242 0 min 0,000 mm 0,0 UV-I 0 W/m 0,7 C -1,2 C 12,9 km/h (3 Bft) 95,83 %
12.02.2018 06:21 1,3 C 4,4 C 96 % 1009,9 hPa 0,0 l/m 9,5 km/h (2 Bft) W-SW 238 0 min 0,000 mm 0,0 UV-I 0 W/m 0,7 C -1,6 C 12,9 km/h (3 Bft) 95,65 %
12.02.2018 06:22 1,3 C 4,4 C 96 % 1009,9 hPa 0,0 l/m 8,2 km/h (2 Bft) SW 233 0 min 0,000 mm 0,0 UV-I 0 W/m 0,7 C -0,5 C 11,3 km/h (2 Bft) 100,00 %
12.02.2018 06:23 1,3 C 4,4 C 96 % 1009,9 hPa 0,0 l/m 7,7 km/h (2 Bft) W-SW 248 0 min 0,000 mm 0,0 UV-I 0 W/m 0,7 C 0,0 C 11,3 km/h (2 Bft) 100,00 %
12.02.2018 06:24 1,3 C 4,4 C 95 % 1009,9 hPa 0,0 l/m 8,0 km/h (2 Bft) W-SW 240 0 min 0,000 mm 0,0 UV-I 0 W/m 0,6 C -0,3 C 11,3 km/h (2 Bft) 100,00 %
12.02.2018 06:25 1,3 C 4,4 C 95 % 1009,9 hPa 0,0 l/m 7,5 km/h (2 Bft) W-SW 238 0 min 0,000 mm 0,0 UV-I 0 W/m 0,6 C 0,2 C 9,7 km/h (2 Bft) 95,65 %
12.02.2018 06:26 1,3 C 4,4 C 95 % 1009,9 hPa 0,0 l/m 8,0 km/h (2 Bft) SW 225 0 min 0,000 mm 0,0 UV-I 0 W/m 0,6 C -0,3 C 11,3 km/h (2 Bft) 100,00 %
12.02.2018 06:27 1,3 C 4,4 C 95 % 1009,9 hPa 0,0 l/m 9,4 km/h (2 Bft) SW 234 0 min 0,000 mm 0,0 UV-I 0 W/m 0,6 C -1,5 C 12,9 km/h (3 Bft) 100,00 %
12.02.2018 06:28 1,4 C 4,4 C 95 % 1009,9 hPa 0,0 l/m 8,8 km/h (2 Bft) W-SW 238 0 min 0,000 mm 0,0 UV-I 0 W/m 0,7 C -0,9 C 12,9 km/h (3 Bft) 100,00 %
12.02.2018 06:29 1,4 C 4,4 C 95 % 1010,0 hPa 0,0 l/m 7,5 km/h (2 Bft) W-SW 238 0 min 0,000 mm 0,0 UV-I 0 W/m 0,7 C 0,3 C 11,3 km/h (2 Bft) 100,00 %
12.02.2018 06:30 1,4 C 4,4 C 95 % 1009,9 hPa 0,0 l/m 6,7 km/h (2 Bft) W-SW 239 0 min 0,000 mm 0,0 UV-I 0 W/m 0,7 C 1,1 C 9,7 km/h (2 Bft) 93,33 %
12.02.2018 06:31 1,4 C 4,4 C 95 % 1009,9 hPa 0,0 l/m 8,6 km/h (2 Bft) W-SW 242 0 min 0,000 mm 0,0 UV-I 0 W/m 0,7 C -0,7 C 11,3 km/h (2 Bft) 96,15 %
12.02.2018 06:32 1,4 C 4,4 C 95 % 1010,0 hPa 0,0 l/m 6,1 km/h (2 Bft) W-SW 257 0 min 0,000 mm 0,0 UV-I 0 W/m 0,7 C 1,4 C 8,0 km/h (2 Bft) 100,00 %
12.02.2018 06:33 1,4 C 4,4 C 95 % 1010,0 hPa 0,0 l/m 6,7 km/h (2 Bft) SW 236 0 min 0,000 mm 0,0 UV-I 0 W/m 0,7 C 1,1 C 9,7 km/h (2 Bft) 100,00 %
12.02.2018 06:34 1,4 C 4,4 C 95 % 1010,0 hPa 0,0 l/m 4,7 km/h (1 Bft) S-SW 205 0 min 0,000 mm 0,0 UV-I 0 W/m 0,7 C 1,4 C 8,0 km/h (2 Bft) 100,00 %
12.02.2018 06:35 1,4 C 4,4 C 95 % 1010,0 hPa 0,0 l/m 6,4 km/h (2 Bft) SW 215 0 min 0,000 mm 0,0 UV-I 0 W/m 0,7 C 1,4 C 9,7 km/h (2 Bft) 100,00 %
12.02.2018 06:36 1,4 C 4,4 C 95 % 1010,0 hPa 0,0 l/m 5,8 km/h (2 Bft) S-SW 198 0 min 0,000 mm 0,0 UV-I 0 W/m 0,7 C 1,4 C 8,0 km/h (2 Bft) 96,15 %
12.02.2018 06:37 1,4 C 4,4 C 95 % 1010,0 hPa 0,0 l/m 6,8 km/h (2 Bft) S-SW 212 0 min 0,000 mm 0,0 UV-I 0 W/m 0,7 C 1,0 C 9,7 km/h (2 Bft) 95,83 %
12.02.2018 06:38 1,4 C 4,4 C 95 % 1010,0 hPa 0,0 l/m 7,2 km/h (2 Bft) SW 225 0 min 0,000 mm 0,0 UV-I 0 W/m 0,7 C 0,6 C 11,3 km/h (2 Bft) 100,00 %
12.02.2018 06:39 1,4 C 4,4 C 95 % 1010,0 hPa 0,0 l/m 7,3 km/h (2 Bft) S-SW 211 0 min 0,000 mm 0,0 UV-I 0 W/m 0,7 C 0,5 C 11,3 km/h (2 Bft) 100,00 %
12.02.2018 06:40 1,4 C 4,4 C 95 % 1010,0 hPa 0,0 l/m 9,0 km/h (2 Bft) SW 223 0 min 0,000 mm 0,0 UV-I 0 W/m 0,7 C -1,1 C 12,9 km/h (3 Bft) 100,00 %
12.02.2018 06:41 1,4 C 4,4 C 95 % 1010,0 hPa 0,0 l/m 6,7 km/h (2 Bft) W-SW 243 0 min 0,000 mm 0,0 UV-I 0 W/m 0,7 C 1,1 C 9,7 km/h (2 Bft) 100,00 %
12.02.2018 06:42 1,4 C 4,4 C 95 % 1010,0 hPa 0,0 l/m 6,4 km/h (2 Bft) SW 216 0 min 0,000 mm 0,0 UV-I 0 W/m 0,7 C 1,4 C 9,7 km/h (2 Bft) 100,00 %
12.02.2018 06:43 1,4 C 4,4 C 95 % 1010,0 hPa 0,0 l/m 6,4 km/h (2 Bft) S-SW 213 0 min 0,000 mm 0,0 UV-I 0 W/m 0,7 C 1,4 C 8,0 km/h (2 Bft) 100,00 %
12.02.2018 06:44 1,4 C 4,4 C 95 % 1010,0 hPa 0,0 l/m 7,1 km/h (2 Bft) S-SW 210 0 min 0,000 mm 0,0 UV-I 0 W/m 0,7 C 0,7 C 11,3 km/h (2 Bft) 100,00 %
12.02.2018 06:45 1,4 C 4,4 C 95 % 1010,0 hPa 0,0 l/m 8,5 km/h (2 Bft) W-SW 247 0 min 0,000 mm 0,0 UV-I 0 W/m 0,7 C -0,6 C 12,9 km/h (3 Bft) 100,00 %
12.02.2018 06:46 1,4 C 4,4 C 95 % 1010,1 hPa 0,0 l/m 8,7 km/h (2 Bft) SW 229 0 min 0,000 mm 0,0 UV-I 0 W/m 0,7 C -0,8 C 12,9 km/h (3 Bft) 90,91 %
12.02.2018 06:47 1,4 C 4,4 C 95 % 1010,0 hPa 0,0 l/m 6,3 km/h (2 Bft) W-SW 250 0 min 0,000 mm 0,0 UV-I 0 W/m 0,7 C 1,4 C 8,0 km/h (2 Bft) 96,67 %
12.02.2018 06:48 1,4 C 4,4 C 95 % 1010,1 hPa 0,0 l/m 8,0 km/h (2 Bft) W-SW 243 0 min 0,000 mm 0,0 UV-I 0 W/m 0,7 C -0,2 C 11,3 km/h (2 Bft) 100,00 %
12.02.2018 06:49 1,4 C 4,4 C 95 % 1010,1 hPa 0,0 l/m 8,5 km/h (2 Bft) S-SW 207 0 min 0,000 mm 0,0 UV-I 0 W/m 0,7 C -0,6 C 11,3 km/h (2 Bft) 100,00 %
12.02.2018 06:50 1,4 C 4,4 C 95 % 1010,0 hPa 0,0 l/m 8,8 km/h (2 Bft) S-SW 211 0 min 0,000 mm 0,0 UV-I 0 W/m 0,7 C -0,9 C 12,9 km/h (3 Bft) 100,00 %
12.02.2018 06:51 1,4 C 4,4 C 95 % 1010,1 hPa 0,0 l/m 9,1 km/h (2 Bft) SW 229 0 min 0,000 mm 0,0 UV-I 0 W/m 0,7 C -1,2 C 11,3 km/h (2 Bft) 96,30 %
12.02.2018 06:52 1,4 C 4,4 C 95 % 1010,1 hPa 0,0 l/m 6,9 km/h (2 Bft) S-SW 193 0 min 0,000 mm 0,0 UV-I 0 W/m 0,7 C 0,9 C 9,7 km/h (2 Bft) 100,00 %
12.02.2018 06:53 1,4 C 4,4 C 95 % 1010,1 hPa 0,0 l/m 5,4 km/h (1 Bft) S 189 0 min 0,000 mm 0,0 UV-I 0 W/m 0,7 C 1,4 C 8,0 km/h (2 Bft) 100,00 %
12.02.2018 06:54 1,4 C 4,4 C 95 % 1010,1 hPa 0,0 l/m 10,1 km/h (2 Bft) S-SW 209 0 min 0,000 mm 0,0 UV-I 0 W/m 0,7 C -2,0 C 16,1 km/h (3 Bft) 100,00 %
12.02.2018 06:55 1,5 C 4,4 C 95 % 1010,2 hPa 0,0 l/m 10,2 km/h (2 Bft) S-SW 208 0 min 0,000 mm 0,0 UV-I 0 W/m 0,8 C -2,0 C 12,9 km/h (3 Bft) 100,00 %
12.02.2018 06:56 1,5 C 4,4 C 95 % 1010,1 hPa 0,0 l/m 12,0 km/h (2 Bft) SW 226 0 min 0,000 mm 0,0 UV-I 0 W/m 0,8 C -3,3 C 20,9 km/h (4 Bft) 98,08 %
12.02.2018 06:57 1,5 C 4,4 C 96 % 1010,1 hPa 0,0 l/m 11,0 km/h (2 Bft) SW 223 0 min 0,000 mm 0,0 UV-I 0 W/m 0,9 C -2,6 C 14,5 km/h (3 Bft) 100,00 %
12.02.2018 06:58 1,6 C 4,4 C 95 % 1010,1 hPa 0,0 l/m 8,2 km/h (2 Bft) SW 232 0 min 0,000 mm 0,0 UV-I 0 W/m 0,9 C -0,2 C 11,3 km/h (2 Bft) 100,00 %
12.02.2018 06:59 1,6 C 4,4 C 95 % 1010,1 hPa 0,0 l/m 9,9 km/h (2 Bft) S 175 0 min 0,000 mm 0,0 UV-I 0 W/m 0,9 C -1,6 C 16,1 km/h (3 Bft) 100,00 %
12.02.2018 07:00 1,6 C 4,4 C 95 % 1010,2 hPa 0,0 l/m 11,8 km/h (2 Bft) SW 236 0 min 0,000 mm 0,0 UV-I 0 W/m 0,9 C -3,0 C 17,7 km/h (3 Bft) 100,00 %
12.02.2018 07:01 1,6 C 4,4 C 95 % 1010,1 hPa 0,0 l/m 13,4 km/h (3 Bft) SW 225 0 min 0,000 mm 0,0 UV-I 0 W/m 0,9 C -4,1 C 20,9 km/h (4 Bft) 100,00 %
12.02.2018 07:02 1,6 C 4,4 C 95 % 1010,1 hPa 0,0 l/m 14,6 km/h (3 Bft) W-SW 238 0 min 0,000 mm 0,0 UV-I 0 W/m 0,9 C -4,8 C 20,9 km/h (4 Bft) 100,00 %
12.02.2018 07:03 1,5 C 4,4 C 95 % 1010,1 hPa 0,0 l/m 9,9 km/h (2 Bft) SW 225 0 min 0,000 mm 0,0 UV-I 0 W/m 0,8 C -1,7 C 14,5 km/h (3 Bft) 96,15 %
12.02.2018 07:04 1,5 C 4,4 C 95 % 1010,1 hPa 0,0 l/m 10,5 km/h (2 Bft) SW 234 0 min 0,000 mm 0,0 UV-I 0 W/m 0,8 C -2,2 C 19,3 km/h (3 Bft) 100,00 %
12.02.2018 07:05 1,5 C 4,4 C 95 % 1010,1 hPa 0,0 l/m 15,3 km/h (3 Bft) SW 223 0 min 0,000 mm 0,0 UV-I 0 W/m 0,8 C -5,3 C 19,3 km/h (3 Bft) 91,30 %
12.02.2018 07:06 1,5 C 4,4 C 95 % 1010,1 hPa 0,0 l/m 14,2 km/h (3 Bft) W-SW 240 0 min 0,000 mm 0,0 UV-I 0 W/m 0,8 C -4,7 C 17,7 km/h (3 Bft) 100,00 %
12.02.2018 07:07 1,5 C 4,4 C 95 % 1010,2 hPa 0,0 l/m 12,0 km/h (2 Bft) W-SW 243 0 min 0,000 mm 0,0 UV-I 0 W/m 0,8 C -3,3 C 14,5 km/h (3 Bft) 100,00 %
12.02.2018 07:08 1,5 C 4,4 C 95 % 1010,2 hPa 0,0 l/m 14,6 km/h (3 Bft) SW 230 0 min 0,000 mm 0,0 UV-I 0 W/m 0,8 C -4,9 C 17,7 km/h (3 Bft) 100,00 %
12.02.2018 07:09 1,5 C 4,4 C 95 % 1010,2 hPa 0,0 l/m 11,7 km/h (2 Bft) W-SW 249 0 min 0,000 mm 0,0 UV-I 0 W/m 0,8 C -3,1 C 16,1 km/h (3 Bft) 100,00 %
12.02.2018 07:10 1,5 C 4,4 C 95 % 1010,2 hPa 0,0 l/m 12,6 km/h (3 Bft) SW 233 0 min 0,000 mm 0,0 UV-I 0 W/m 0,8 C -3,7 C 17,7 km/h (3 Bft) 100,00 %
12.02.2018 07:11 1,5 C 4,4 C 95 % 1010,3 hPa 0,0 l/m 10,0 km/h (2 Bft) W-SW 240 0 min 0,000 mm 0,0 UV-I 0 W/m 0,8 C -1,8 C 14,5 km/h (3 Bft) 96,15 %
12.02.2018 07:12 1,5 C 4,4 C 95 % 1010,3 hPa 0,0 l/m 9,8 km/h (2 Bft) SW 220 0 min 0,000 mm 0,0 UV-I 0 W/m 0,8 C -1,6 C 14,5 km/h (3 Bft) 100,00 %
12.02.2018 07:13 1,5 C 4,4 C 95 % 1010,3 hPa 0,0 l/m 10,1 km/h (2 Bft) SW 234 0 min 0,000 mm 0,0 UV-I 0 W/m 0,8 C -1,9 C 14,5 km/h (3 Bft) 100,00 %
12.02.2018 07:14 1,5 C 4,4 C 95 % 1010,3 hPa 0,0 l/m 10,5 km/h (2 Bft) SW 231 0 min 0,000 mm 0,0 UV-I 0 W/m 0,8 C -2,2 C 14,5 km/h (3 Bft) 96,55 %
12.02.2018 07:15 1,5 C 4,4 C 95 % 1010,3 hPa 0,0 l/m 10,7 km/h (2 Bft) SW 219 0 min 0,000 mm 0,0 UV-I 0 W/m 0,8 C -2,3 C 14,5 km/h (3 Bft) 100,00 %
12.02.2018 07:16 1,5 C 4,4 C 95 % 1010,3 hPa 0,0 l/m 12,2 km/h (2 Bft) W-SW 254 0 min 0,000 mm 0,0 UV-I 0 W/m 0,8 C -3,4 C 17,7 km/h (3 Bft) 100,00 %
12.02.2018 07:17 1,5 C 4,4 C 95 % 1010,4 hPa 0,0 l/m 7,2 km/h (2 Bft) W-SW 238 0 min 0,000 mm 0,0 UV-I 0 W/m 0,8 C 0,7 C 11,3 km/h (2 Bft) 91,67 %
12.02.2018 07:18 1,5 C 4,4 C 95 % 1010,4 hPa 0,0 l/m 8,6 km/h (2 Bft) W-SW 248 0 min 0,000 mm 0,0 UV-I 0 W/m 0,8 C -0,6 C 11,3 km/h (2 Bft) 100,00 %
12.02.2018 07:19 1,5 C 4,4 C 95 % 1010,4 hPa 0,0 l/m 7,6 km/h (2 Bft) S-SW 209 0 min 0,000 mm 0,0 UV-I 1 W/m 0,8 C 0,3 C 14,5 km/h (3 Bft) 96,30 %
12.02.2018 07:20 1,5 C 4,4 C 95 % 1010,4 hPa 0,0 l/m 7,8 km/h (2 Bft) SW 236 0 min 0,000 mm 0,0 UV-I 5 W/m 0,8 C 0,1 C 12,9 km/h (3 Bft) 100,00 %
12.02.2018 07:21 1,5 C 4,4 C 95 % 1010,4 hPa 0,0 l/m 7,1 km/h (2 Bft) SW 229 0 min 0,000 mm 0,0 UV-I 5 W/m 0,8 C 0,8 C 8,0 km/h (2 Bft) 100,00 %
12.02.2018 07:22 1,5 C 4,4 C 95 % 1010,4 hPa 0,0 l/m 6,2 km/h (2 Bft) SW 217 0 min 0,000 mm 0,0 UV-I 5 W/m 0,8 C 1,5 C 8,0 km/h (2 Bft) 100,00 %
12.02.2018 07:23 1,5 C 4,4 C 95 % 1010,5 hPa 0,0 l/m 5,4 km/h (1 Bft) S-SW 209 0 min 0,000 mm 0,0 UV-I 1 W/m 0,8 C 1,5 C 8,0 km/h (2 Bft) 100,00 %
12.02.2018 07:24 1,5 C 4,4 C 95 % 1010,5 hPa 0,0 l/m 6,6 km/h (2 Bft) S-SW 205 0 min 0,000 mm 0,0 UV-I 4 W/m 0,8 C 1,3 C 8,0 km/h (2 Bft) 96,15 %
12.02.2018 07:25 1,5 C 4,4 C 95 % 1010,5 hPa 0,0 l/m 6,8 km/h (2 Bft) SW 223 0 min 0,000 mm 0,0 UV-I 5 W/m 0,8 C 1,1 C 8,0 km/h (2 Bft) 100,00 %
12.02.2018 07:26 1,5 C 4,4 C 95 % 1010,5 hPa 0,0 l/m 6,9 km/h (2 Bft) SW 236 0 min 0,000 mm 0,0 UV-I 5 W/m 0,8 C 1,0 C 11,3 km/h (2 Bft) 85,71 %
12.02.2018 07:27 1,5 C 4,4 C 95 % 1010,5 hPa 0,0 l/m 5,5 km/h (1 Bft) W-SW 243 0 min 0,000 mm 0,0 UV-I 5 W/m 0,8 C 1,5 C 8,0 km/h (2 Bft) 100,00 %
12.02.2018 07:28 1,5 C 4,4 C 95 % 1010,5 hPa 0,0 l/m 7,2 km/h (2 Bft) S-SW 208 0 min 0,000 mm 0,0 UV-I 5 W/m 0,8 C 0,7 C 9,7 km/h (2 Bft) 95,65 %
12.02.2018 07:29 1,5 C 4,4 C 95 % 1010,6 hPa 0,0 l/m 5,8 km/h (2 Bft) S-SW 205 0 min 0,000 mm 0,0 UV-I 5 W/m 0,8 C 1,5 C 8,0 km/h (2 Bft) 100,00 %
12.02.2018 07:30 1,5 C 4,4 C 95 % 1010,6 hPa 0,0 l/m 5,0 km/h (1 Bft) S-SW 202 0 min 0,000 mm 0,0 UV-I 5 W/m 0,8 C 1,5 C 6,4 km/h (2 Bft) 92,86 %
12.02.2018 07:31 1,5 C 4,4 C 95 % 1010,6 hPa 0,0 l/m 7,9 km/h (2 Bft) S-SW 207 0 min 0,000 mm 0,0 UV-I 7 W/m 0,8 C 0,0 C 9,7 km/h (2 Bft) 96,30 %
12.02.2018 07:32 1,5 C 4,4 C 95 % 1010,6 hPa 0,0 l/m 6,3 km/h (2 Bft) S-SW 202 0 min 0,000 mm 0,0 UV-I 7 W/m 0,8 C 1,5 C 8,0 km/h (2 Bft) 96,15 %
12.02.2018 07:33 1,5 C 4,4 C 95 % 1010,6 hPa 0,0 l/m 6,5 km/h (2 Bft) SW 219 0 min 0,000 mm 0,0 UV-I 7 W/m 0,8 C 1,4 C 8,0 km/h (2 Bft) 92,59 %
12.02.2018 07:34 1,5 C 4,4 C 95 % 1010,6 hPa 0,0 l/m 6,2 km/h (2 Bft) S-SW 194 0 min 0,000 mm 0,0 UV-I 7 W/m 0,8 C 1,5 C 8,0 km/h (2 Bft) 93,33 %
12.02.2018 07:35 1,5 C 4,4 C 95 % 1010,6 hPa 0,0 l/m 7,4 km/h (2 Bft) W 261 0 min 0,000 mm 0,0 UV-I 7 W/m 0,8 C 0,5 C 11,3 km/h (2 Bft) 95,65 %
12.02.2018 07:36 1,5 C 4,4 C 95 % 1010,7 hPa 0,0 l/m 7,2 km/h (2 Bft) W-SW 245 0 min 0,000 mm 0,0 UV-I 7 W/m 0,8 C 0,7 C 9,7 km/h (2 Bft) 100,00 %
12.02.2018 07:37 1,5 C 4,4 C 95 % 1010,7 hPa 0,0 l/m 8,7 km/h (2 Bft) SW 220 0 min 0,000 mm 0,0 UV-I 7 W/m 0,8 C -0,7 C 12,9 km/h (3 Bft) 96,88 %
12.02.2018 07:38 1,5 C 4,4 C 95 % 1010,7 hPa 0,0 l/m 6,6 km/h (2 Bft) S-SW 213 0 min 0,000 mm 0,0 UV-I 9 W/m 0,8 C 1,3 C 11,3 km/h (2 Bft) 100,00 %
12.02.2018 07:39 1,5 C 4,4 C 95 % 1010,7 hPa 0,0 l/m 6,7 km/h (2 Bft) S-SW 197 0 min 0,000 mm 0,0 UV-I 9 W/m 0,8 C 1,2 C 11,3 km/h (2 Bft) 91,67 %
12.02.2018 07:40 1,5 C 4,4 C 95 % 1010,7 hPa 0,0 l/m 6,1 km/h (2 Bft) S-SW 213 0 min 0,000 mm 0,0 UV-I 9 W/m 0,8 C 1,5 C 9,7 km/h (2 Bft) 100,00 %
12.02.2018 07:41 1,5 C 4,4 C 95 % 1010,6 hPa 0,0 l/m 7,2 km/h (2 Bft) S-SW 198 0 min 0,000 mm 0,0 UV-I 9 W/m 0,8 C 0,7 C 8,0 km/h (2 Bft) 96,15 %
12.02.2018 07:42 1,5 C 4,4 C 95 % 1010,7 hPa 0,0 l/m 7,2 km/h (2 Bft) S-SW 205 0 min 0,000 mm 0,0 UV-I 9 W/m 0,8 C 0,7 C 11,3 km/h (2 Bft) 91,67 %
12.02.2018 07:43 1,5 C 4,4 C 95 % 1010,7 hPa 0,0 l/m 7,5 km/h (2 Bft) SW 216 0 min 0,000 mm 0,0 UV-I 9 W/m 0,8 C 0,4 C 11,3 km/h (2 Bft) 96,55 %
12.02.2018 07:44 1,5 C 4,4 C 95 % 1010,6 hPa 0,0 l/m 7,7 km/h (2 Bft) SW 220 0 min 0,000 mm 0,0 UV-I 11 W/m 0,8 C 0,2 C 9,7 km/h (2 Bft) 95,83 %
12.02.2018 07:45 1,5 C 4,4 C 95 % 1010,6 hPa 0,0 l/m 5,6 km/h (1 Bft) S-SW 198 0 min 0,000 mm 0,0 UV-I 11 W/m 0,8 C 1,5 C 9,7 km/h (2 Bft) 95,65 %
12.02.2018 07:46 1,5 C 4,4 C 95 % 1010,7 hPa 0,0 l/m 6,8 km/h (2 Bft) S-SW 202 0 min 0,000 mm 0,0 UV-I 11 W/m 0,8 C 1,1 C 9,7 km/h (2 Bft) 93,33 %
12.02.2018 07:47 1,5 C 4,4 C 95 % 1010,7 hPa 0,0 l/m 9,2 km/h (2 Bft) SW 214 0 min 0,000 mm 0,0 UV-I 11 W/m 0,8 C -1,1 C 14,5 km/h (3 Bft) 86,96 %
12.02.2018 07:48 1,4 C 4,4 C 95 % 1010,7 hPa 0,0 l/m 6,6 km/h (2 Bft) S-SW 207 0 min 0,000 mm 0,0 UV-I 12 W/m 0,7 C 1,2 C 9,7 km/h (2 Bft) 96,67 %
12.02.2018 07:49 1,4 C 4,4 C 95 % 1010,7 hPa 0,0 l/m 8,8 km/h (2 Bft) S-SW 201 0 min 0,000 mm 0,0 UV-I 12 W/m 0,7 C -0,9 C 9,7 km/h (2 Bft) 92,86 %
12.02.2018 07:50 1,4 C 4,4 C 95 % 1010,7 hPa 0,0 l/m 7,6 km/h (2 Bft) S-SW 207 0 min 0,000 mm 0,0 UV-I 12 W/m 0,7 C 0,2 C 11,3 km/h (2 Bft) 92,59 %
12.02.2018 07:51 1,4 C 4,4 C 95 % 1010,7 hPa 0,0 l/m 5,6 km/h (1 Bft) SW 222 0 min 0,000 mm 0,0 UV-I 12 W/m 0,7 C 1,4 C 9,7 km/h (2 Bft) 91,30 %
12.02.2018 07:52 1,4 C 4,4 C 95 % 1010,8 hPa 0,0 l/m 7,7 km/h (2 Bft) SW 216 0 min 0,000 mm 0,0 UV-I 13 W/m 0,7 C 0,1 C 9,7 km/h (2 Bft) 100,00 %
12.02.2018 07:53 1,4 C 4,4 C 95 % 1010,8 hPa 0,0 l/m 5,1 km/h (1 Bft) S-SW 208 0 min 0,000 mm 0,0 UV-I 14 W/m 0,7 C 1,4 C 6,4 km/h (2 Bft) 93,10 %
12.02.2018 07:54 1,4 C 4,4 C 95 % 1010,8 hPa 0,0 l/m 6,6 km/h (2 Bft) S-SW 210 0 min 0,000 mm 0,0 UV-I 14 W/m 0,7 C 1,2 C 8,0 km/h (2 Bft) 95,83 %
12.02.2018 07:55 1,4 C 4,4 C 95 % 1010,7 hPa 0,0 l/m 6,1 km/h (2 Bft) S-SW 208 0 min 0,000 mm 0,0 UV-I 14 W/m 0,7 C 1,4 C 9,7 km/h (2 Bft) 91,67 %
12.02.2018 07:56 1,4 C 4,4 C 95 % 1010,8 hPa 0,0 l/m 9,3 km/h (2 Bft) S-SW 211 0 min 0,000 mm 0,0 UV-I 14 W/m 0,7 C -1,3 C 12,9 km/h (3 Bft) 96,88 %
12.02.2018 07:57 1,4 C 4,4 C 95 % 1010,8 hPa 0,0 l/m 5,7 km/h (1 Bft) S-SW 208 0 min 0,000 mm 0,0 UV-I 14 W/m 0,7 C 1,4 C 9,7 km/h (2 Bft) 95,83 %
12.02.2018 07:58 1,4 C 4,4 C 95 % 1010,7 hPa 0,0 l/m 6,0 km/h (2 Bft) S-SW 207 0 min 0,000 mm 0,0 UV-I 14 W/m 0,7 C 1,4 C 9,7 km/h (2 Bft) 92,31 %
12.02.2018 07:59 1,4 C 4,4 C 95 % 1010,7 hPa 0,0 l/m 5,9 km/h (2 Bft) S-SW 212 0 min 0,000 mm 0,0 UV-I 16 W/m 0,7 C 1,4 C 9,7 km/h (2 Bft) 100,00 %
12.02.2018 08:00 1,4 C 4,4 C 95 % 1010,7 hPa 0,0 l/m 4,8 km/h (1 Bft) S-SW 213 0 min 0,000 mm 0,0 UV-I 16 W/m 0,7 C 1,4 C 8,0 km/h (2 Bft) 92,86 %
12.02.2018 08:01 1,4 C 4,4 C 95 % 1010,7 hPa 0,0 l/m 6,0 km/h (2 Bft) S-SW 197 0 min 0,000 mm 0,0 UV-I 18 W/m 0,7 C 1,4 C 9,7 km/h (2 Bft) 100,00 %
12.02.2018 08:02 1,4 C 4,4 C 95 % 1010,7 hPa 0,0 l/m 2,4 km/h (1 Bft) S-SW 203 0 min 0,000 mm 0,0 UV-I 18 W/m 0,7 C 1,4 C 4,8 km/h (1 Bft) 96,15 %
12.02.2018 08:03 1,4 C 4,4 C 95 % 1010,7 hPa 0,0 l/m 4,4 km/h (1 Bft) S-SW 194 0 min 0,000 mm 0,0 UV-I 18 W/m 0,7 C 1,4 C 4,8 km/h (1 Bft) 100,00 %
12.02.2018 08:04 1,4 C 4,4 C 95 % 1010,7 hPa 0,0 l/m 4,2 km/h (1 Bft) S-SW 195 0 min 0,000 mm 0,0 UV-I 19 W/m 0,7 C 1,4 C 6,4 km/h (2 Bft) 92,31 %
12.02.2018 08:05 1,4 C 4,4 C 95 % 1010,7 hPa 0,0 l/m 3,6 km/h (1 Bft) S-SW 199 0 min 0,000 mm 0,0 UV-I 19 W/m 0,7 C 1,4 C 6,4 km/h (2 Bft) 91,67 %
12.02.2018 08:06 1,4 C 4,4 C 95 % 1010,8 hPa 0,0 l/m 4,7 km/h (1 Bft) S-SW 198 0 min 0,000 mm 0,0 UV-I 19 W/m 0,7 C 1,4 C 6,4 km/h (2 Bft) 100,00 %
12.02.2018 08:07 1,4 C 4,4 C 95 % 1010,7 hPa 0,0 l/m 3,8 km/h (1 Bft) S-SW 200 0 min 0,000 mm 0,0 UV-I 21 W/m 0,7 C 1,4 C 6,4 km/h (2 Bft) 93,33 %
12.02.2018 08:08 1,4 C 4,4 C 95 % 1010,7 hPa 0,0 l/m 2,7 km/h (1 Bft) S 186 0 min 0,000 mm 0,0 UV-I 21 W/m 0,7 C 1,4 C 4,8 km/h (1 Bft) 95,65 %
12.02.2018 08:09 1,4 C 4,4 C 95 % 1010,8 hPa 0,0 l/m 3,8 km/h (1 Bft) S 186 0 min 0,000 mm 0,0 UV-I 22 W/m 0,7 C 1,4 C 6,4 km/h (2 Bft) 95,83 %
12.02.2018 08:10 1,4 C 4,4 C 95 % 1010,8 hPa 0,0 l/m 3,7 km/h (1 Bft) S 187 0 min 0,000 mm 0,0 UV-I 23 W/m 0,7 C 1,4 C 4,8 km/h (1 Bft) 100,00 %
12.02.2018 08:11 1,3 C 4,4 C 95 % 1010,7 hPa 0,0 l/m 5,0 km/h (1 Bft) S-SW 202 0 min 0,000 mm 0,0 UV-I 25 W/m 0,6 C 1,3 C 6,4 km/h (2 Bft) 95,83 %
12.02.2018 08:12 1,3 C 4,4 C 95 % 1010,8 hPa 0,0 l/m 5,2 km/h (1 Bft) S-SW 209 0 min 0,000 mm 0,0 UV-I 25 W/m 0,6 C 1,3 C 6,4 km/h (2 Bft) 100,00 %
12.02.2018 08:13 1,3 C 4,4 C 95 % 1010,8 hPa 0,0 l/m 4,1 km/h (1 Bft) S-SW 192 0 min 0,000 mm 0,0 UV-I 25 W/m 0,6 C 1,3 C 6,4 km/h (2 Bft) 92,59 %
12.02.2018 08:14 1,3 C 4,4 C 95 % 1010,8 hPa 0,0 l/m 4,7 km/h (1 Bft) S-SW 207 0 min 0,000 mm 0,0 UV-I 26 W/m 0,6 C 1,3 C 6,4 km/h (2 Bft) 100,00 %
12.02.2018 08:15 1,3 C 4,4 C 95 % 1010,8 hPa 0,0 l/m 4,6 km/h (1 Bft) S-SW 193 0 min 0,000 mm 0,0 UV-I 26 W/m 0,6 C 1,3 C 6,4 km/h (2 Bft) 96,30 %
12.02.2018 08:16 1,3 C 4,4 C 95 % 1010,8 hPa 0,0 l/m 5,2 km/h (1 Bft) S-SW 204 0 min 0,000 mm 0,0 UV-I 26 W/m 0,6 C 1,3 C 6,4 km/h (2 Bft) 95,65 %
12.02.2018 08:17 1,3 C 4,4 C 95 % 1010,9 hPa 0,0 l/m 4,9 km/h (1 Bft) S-SW 202 0 min 0,000 mm 0,0 UV-I 28 W/m 0,6 C 1,3 C 6,4 km/h (2 Bft) 100,00 %
12.02.2018 08:18 1,3 C 4,4 C 95 % 1010,8 hPa 0,0 l/m 4,6 km/h (1 Bft) S-SW 200 0 min 0,000 mm 0,0 UV-I 28 W/m 0,6 C 1,3 C 6,4 km/h (2 Bft) 95,83 %
12.02.2018 08:19 1,3 C 4,4 C 95 % 1010,8 hPa 0,0 l/m 4,6 km/h (1 Bft) S-SW 199 0 min 0,000 mm 0,0 UV-I 30 W/m 0,6 C 1,3 C 6,4 km/h (2 Bft) 100,00 %
12.02.2018 08:20 1,3 C 4,4 C 95 % 1010,8 hPa 0,0 l/m 5,2 km/h (1 Bft) S-SW 202 0 min 0,000 mm 0,0 UV-I 31 W/m 0,6 C 1,3 C 8,0 km/h (2 Bft) 100,00 %
12.02.2018 08:21 1,3 C 4,4 C 95 % 1010,8 hPa 0,0 l/m 5,4 km/h (1 Bft) S-SW 200 0 min 0,000 mm 0,0 UV-I 32 W/m 0,6 C 1,3 C 8,0 km/h (2 Bft) 92,68 %
12.02.2018 08:22 1,3 C 4,4 C 95 % 1010,8 hPa 0,0 l/m 5,5 km/h (1 Bft) S 187 0 min 0,000 mm 0,0 UV-I 33 W/m 0,6 C 1,3 C 8,0 km/h (2 Bft) 93,33 %
12.02.2018 08:23 1,3 C 4,4 C 95 % 1010,8 hPa 0,0 l/m 5,5 km/h (1 Bft) S-SW 205 0 min 0,000 mm 0,0 UV-I 33 W/m 0,6 C 1,3 C 8,0 km/h (2 Bft) 100,00 %
12.02.2018 08:24 1,4 C 4,4 C 95 % 1010,7 hPa 0,0 l/m 3,6 km/h (1 Bft) S-SW 193 0 min 0,000 mm 0,0 UV-I 35 W/m 0,7 C 1,4 C 8,0 km/h (2 Bft) 91,67 %
12.02.2018 08:25 1,4 C 4,4 C 95 % 1010,8 hPa 0,0 l/m 6,7 km/h (2 Bft) S-SW 193 0 min 0,000 mm 0,0 UV-I 37 W/m 0,7 C 1,1 C 8,0 km/h (2 Bft) 93,10 %
12.02.2018 08:26 1,4 C 4,4 C 95 % 1010,8 hPa 0,0 l/m 4,7 km/h (1 Bft) S-SW 196 0 min 0,000 mm 0,0 UV-I 38 W/m 0,7 C 1,4 C 8,0 km/h (2 Bft) 97,65 %
12.02.2018 08:27 1,4 C 4,4 C 95 % 1010,8 hPa 0,0 l/m 6,4 km/h (2 Bft) S 188 0 min 0,000 mm 0,0 UV-I 40 W/m 0,7 C 1,4 C 8,0 km/h (2 Bft) 100,00 %
12.02.2018 08:28 1,4 C 4,4 C 95 % 1010,8 hPa 0,0 l/m 6,4 km/h (2 Bft) S-SO 163 0 min 0,000 mm 0,0 UV-I 42 W/m 0,7 C 1,4 C 11,3 km/h (2 Bft) 96,30 %
12.02.2018 08:29 1,4 C 4,4 C 95 % 1010,8 hPa 0,0 l/m 6,2 km/h (2 Bft) S-SW 201 0 min 0,000 mm 0,0 UV-I 42 W/m 0,7 C 1,4 C 8,0 km/h (2 Bft) 92,31 %
12.02.2018 08:30 1,4 C 4,4 C 95 % 1010,8 hPa 0,0 l/m 8,5 km/h (2 Bft) SW 218 0 min 0,000 mm 0,0 UV-I 45 W/m 0,7 C -0,6 C 12,9 km/h (3 Bft) 100,00 %
12.02.2018 08:31 1,4 C 4,4 C 95 % 1010,8 hPa 0,0 l/m 5,3 km/h (1 Bft) S-SW 198 0 min 0,000 mm 0,0 UV-I 46 W/m 0,7 C 1,4 C 8,0 km/h (2 Bft) 91,67 %
12.02.2018 08:32 1,4 C 4,4 C 95 % 1010,8 hPa 0,0 l/m 4,9 km/h (1 Bft) SW 218 0 min 0,000 mm 0,0 UV-I 46 W/m 0,7 C 1,4 C 8,0 km/h (2 Bft) 96,15 %
12.02.2018 08:33 1,4 C 4,4 C 95 % 1010,8 hPa 0,0 l/m 7,1 km/h (2 Bft) S-SW 213 0 min 0,000 mm 0,0 UV-I 47 W/m 0,7 C 0,7 C 9,7 km/h (2 Bft) 96,55 %
12.02.2018 08:34 1,4 C 4,4 C 95 % 1010,8 hPa 0,0 l/m 5,5 km/h (1 Bft) SW 215 0 min 0,000 mm 0,0 UV-I 47 W/m 0,7 C 1,4 C 6,4 km/h (2 Bft) 100,00 %
12.02.2018 08:35 1,5 C 4,4 C 95 % 1010,9 hPa 0,0 l/m 7,0 km/h (2 Bft) S-SW 202 0 min 0,000 mm 0,0 UV-I 47 W/m 0,8 C 0,9 C 9,7 km/h (2 Bft) 96,30 %
12.02.2018 08:36 1,5 C 4,4 C 95 % 1010,8 hPa 0,0 l/m 5,6 km/h (1 Bft) S-SW 205 0 min 0,000 mm 0,0 UV-I 47 W/m 0,8 C 1,5 C 8,0 km/h (2 Bft) 96,55 %
12.02.2018 08:37 1,5 C 4,4 C 95 % 1010,9 hPa 0,0 l/m 7,3 km/h (2 Bft) S-SW 211 0 min 0,000 mm 0,0 UV-I 47 W/m 0,8 C 0,6 C 8,0 km/h (2 Bft) 93,33 %
12.02.2018 08:38 1,5 C 4,4 C 95 % 1010,9 hPa 0,0 l/m 6,6 km/h (2 Bft) SW 216 0 min 0,000 mm 0,0 UV-I 47 W/m 0,8 C 1,3 C 8,0 km/h (2 Bft) 100,00 %
12.02.2018 08:39 1,5 C 4,4 C 95 % 1010,9 hPa 0,0 l/m 7,6 km/h (2 Bft) SW 219 0 min 0,000 mm 0,0 UV-I 48 W/m 0,8 C 0,3 C 12,9 km/h (3 Bft) 95,83 %
12.02.2018 08:40 1,5 C 4,4 C 95 % 1010,9 hPa 0,0 l/m 7,5 km/h (2 Bft) S-SW 209 0 min 0,000 mm 0,0 UV-I 49 W/m 0,8 C 0,4 C 11,3 km/h (2 Bft) 95,65 %
12.02.2018 08:41 1,5 C 4,4 C 95 % 1010,9 hPa 0,0 l/m 7,4 km/h (2 Bft) S-SW 211 0 min 0,000 mm 0,0 UV-I 51 W/m 0,8 C 0,5 C 11,3 km/h (2 Bft) 100,00 %
12.02.2018 08:42 1,6 C 4,4 C 95 % 1010,9 hPa 0,0 l/m 7,7 km/h (2 Bft) S-SW 202 0 min 0,000 mm 0,0 UV-I 54 W/m 0,9 C 0,3 C 12,9 km/h (3 Bft) 96,55 %
12.02.2018 08:43 1,6 C 4,4 C 95 % 1010,9 hPa 0,0 l/m 6,4 km/h (2 Bft) S-SW 203 0 min 0,000 mm 0,0 UV-I 55 W/m 0,9 C 1,6 C 9,7 km/h (2 Bft) 100,00 %
12.02.2018 08:44 1,6 C 4,4 C 95 % 1010,9 hPa 0,0 l/m 5,3 km/h (1 Bft) S-SW 211 0 min 0,000 mm 0,0 UV-I 56 W/m 0,9 C 1,6 C 8,0 km/h (2 Bft) 95,65 %
12.02.2018 08:45 1,6 C 4,4 C 95 % 1010,9 hPa 0,0 l/m 6,2 km/h (2 Bft) S-SW 207 0 min 0,000 mm 0,0 UV-I 56 W/m 0,9 C 1,6 C 9,7 km/h (2 Bft) 100,00 %
12.02.2018 08:46 1,6 C 4,4 C 95 % 1010,9 hPa 0,0 l/m 5,8 km/h (2 Bft) S-SW 202 0 min 0,000 mm 0,0 UV-I 56 W/m 0,9 C 1,6 C 8,0 km/h (2 Bft) 96,55 %
12.02.2018 08:47 1,6 C 4,4 C 95 % 1010,9 hPa 0,0 l/m 6,4 km/h (2 Bft) S-SW 206 0 min 0,000 mm 0,0 UV-I 56 W/m 0,9 C 1,6 C 12,9 km/h (3 Bft) 96,30 %
12.02.2018 08:48 1,6 C 4,4 C 95 % 1010,9 hPa 0,0 l/m 6,5 km/h (2 Bft) S-SW 204 0 min 0,000 mm 0,0 UV-I 55 W/m 0,9 C 1,5 C 11,3 km/h (2 Bft) 100,00 %
12.02.2018 08:49 1,6 C 4,4 C 95 % 1010,9 hPa 0,0 l/m 5,8 km/h (2 Bft) S-SW 211 0 min 0,000 mm 0,0 UV-I 54 W/m 0,9 C 1,6 C 6,4 km/h (2 Bft) 100,00 %
12.02.2018 08:50 1,7 C 4,4 C 95 % 1011,0 hPa 0,0 l/m 4,6 km/h (1 Bft) S-SW 210 0 min 0,000 mm 0,0 UV-I 54 W/m 1,0 C 1,7 C 8,0 km/h (2 Bft) 96,30 %
12.02.2018 08:51 1,7 C 4,4 C 95 % 1011,0 hPa 0,0 l/m 6,2 km/h (2 Bft) S-SW 211 0 min 0,000 mm 0,0 UV-I 54 W/m 1,0 C 1,7 C 9,7 km/h (2 Bft) 96,15 %
12.02.2018 08:52 1,7 C 4,4 C 95 % 1011,0 hPa 0,0 l/m 8,1 km/h (2 Bft) S-SW 205 0 min 0,000 mm 0,0 UV-I 54 W/m 1,0 C 0,0 C 11,3 km/h (2 Bft) 100,00 %
12.02.2018 08:53 1,7 C 4,4 C 95 % 1010,9 hPa 0,0 l/m 6,0 km/h (2 Bft) SW 233 0 min 0,000 mm 0,0 UV-I 56 W/m 1,0 C 1,7 C 11,3 km/h (2 Bft) 96,30 %
12.02.2018 08:54 1,7 C 4,4 C 95 % 1011,0 hPa 0,0 l/m 3,8 km/h (1 Bft) S-SW 210 0 min 0,000 mm 0,0 UV-I 56 W/m 1,0 C 1,7 C 6,4 km/h (2 Bft) 100,00 %
12.02.2018 08:55 1,7 C 4,4 C 95 % 1010,9 hPa 0,0 l/m 6,6 km/h (2 Bft) S-SW 202 0 min 0,000 mm 0,0 UV-I 59 W/m 1,0 C 1,5 C 11,3 km/h (2 Bft) 96,88 %
12.02.2018 08:56 1,7 C 4,4 C 95 % 1011,0 hPa 0,0 l/m 11,3 km/h (2 Bft) SW 216 0 min 0,000 mm 0,0 UV-I 60 W/m 1,0 C -2,6 C 12,9 km/h (3 Bft) 100,00 %
12.02.2018 08:57 1,7 C 4,4 C 95 % 1011,0 hPa 0,0 l/m 9,3 km/h (2 Bft) SW 232 0 min 0,000 mm 0,0 UV-I 61 W/m 1,0 C -1,0 C 12,9 km/h (3 Bft) 100,00 %
12.02.2018 08:58 1,7 C 4,4 C 95 % 1011,0 hPa 0,0 l/m 10,1 km/h (2 Bft) S-SW 202 0 min 0,000 mm 0,0 UV-I 62 W/m 1,0 C -1,7 C 14,5 km/h (3 Bft) 95,45 %
12.02.2018 08:59 1,8 C 4,4 C 95 % 1011,0 hPa 0,0 l/m 6,0 km/h (2 Bft) S-SW 209 0 min 0,000 mm 0,0 UV-I 62 W/m 1,1 C 1,8 C 11,3 km/h (2 Bft) 92,86 %
12.02.2018 09:00 1,8 C 4,4 C 95 % 1011,0 hPa 0,0 l/m 8,1 km/h (2 Bft) W-SW 238 0 min 0,025 mm 0,0 UV-I 62 W/m 1,1 C 0,2 C 11,3 km/h (2 Bft) 100,00 %
12.02.2018 09:01 1,8 C 4,4 C 95 % 1011,0 hPa 0,0 l/m 9,1 km/h (2 Bft) SW 215 0 min 0,000 mm 0,0 UV-I 62 W/m 1,1 C -0,7 C 11,3 km/h (2 Bft) 95,65 %
12.02.2018 09:02 1,8 C 4,4 C 94 % 1011,0 hPa 0,0 l/m 9,1 km/h (2 Bft) S-SW 202 0 min 0,000 mm 0,0 UV-I 62 W/m 0,9 C -0,7 C 12,9 km/h (3 Bft) 91,67 %
12.02.2018 09:03 1,8 C 4,4 C 95 % 1011,0 hPa 0,0 l/m 6,8 km/h (2 Bft) SW 215 0 min 0,000 mm 0,0 UV-I 63 W/m 1,1 C 1,4 C 9,7 km/h (2 Bft) 100,00 %
12.02.2018 09:04 1,8 C 4,4 C 95 % 1011,0 hPa 0,0 l/m 8,9 km/h (2 Bft) S-SW 201 0 min 0,000 mm 0,0 UV-I 63 W/m 1,1 C -0,6 C 17,7 km/h (3 Bft) 100,00 %
12.02.2018 09:05 1,8 C 4,4 C 95 % 1011,0 hPa 0,0 l/m 9,5 km/h (2 Bft) SW 225 0 min 0,000 mm 0,0 UV-I 63 W/m 1,1 C -1,1 C 12,9 km/h (3 Bft) 100,00 %
12.02.2018 09:06 1,8 C 4,4 C 94 % 1011,0 hPa 0,0 l/m 9,4 km/h (2 Bft) W-SW 238 0 min 0,000 mm 0,0 UV-I 63 W/m 0,9 C -1,0 C 11,3 km/h (2 Bft) 100,00 %
12.02.2018 09:07 1,8 C 4,4 C 94 % 1011,0 hPa 0,0 l/m 7,9 km/h (2 Bft) S-SW 212 0 min 0,000 mm 0,0 UV-I 62 W/m 0,9 C 0,3 C 9,7 km/h (2 Bft) 100,00 %
12.02.2018 09:08 1,8 C 4,4 C 94 % 1011,0 hPa 0,0 l/m 11,1 km/h (2 Bft) S-SW 207 0 min 0,000 mm 0,0 UV-I 62 W/m 0,9 C -2,3 C 14,5 km/h (3 Bft) 100,00 %
12.02.2018 09:09 1,8 C 4,4 C 94 % 1011,0 hPa 0,0 l/m 10,9 km/h (2 Bft) SW 227 0 min 0,000 mm 0,0 UV-I 60 W/m 0,9 C -2,1 C 16,1 km/h (3 Bft) 93,33 %
12.02.2018 09:10 1,8 C 4,4 C 94 % 1011,1 hPa 0,0 l/m 8,7 km/h (2 Bft) SW 227 0 min 0,000 mm 0,0 UV-I 60 W/m 0,9 C -0,4 C 12,9 km/h (3 Bft) 100,00 %
12.02.2018 09:11 1,8 C 4,4 C 94 % 1011,0 hPa 0,0 l/m 7,3 km/h (2 Bft) W-SW 238 0 min 0,000 mm 0,0 UV-I 57 W/m 0,9 C 0,9 C 11,3 km/h (2 Bft) 100,00 %
12.02.2018 09:12 1,8 C 4,4 C 94 % 1011,0 hPa 0,0 l/m 10,3 km/h (2 Bft) SW 227 0 min 0,000 mm 0,0 UV-I 56 W/m 0,9 C -1,7 C 16,1 km/h (3 Bft) 100,00 %
12.02.2018 09:13 1,8 C 4,4 C 94 % 1011,0 hPa 0,0 l/m 10,9 km/h (2 Bft) W-SW 240 0 min 0,000 mm 0,0 UV-I 56 W/m 0,9 C -2,1 C 14,5 km/h (3 Bft) 100,00 %
12.02.2018 09:14 1,8 C 4,4 C 94 % 1011,0 hPa 0,0 l/m 6,7 km/h (2 Bft) SW 231 0 min 0,000 mm 0,0 UV-I 56 W/m 0,9 C 1,5 C 9,7 km/h (2 Bft) 100,00 %
12.02.2018 09:15 1,8 C 4,4 C 94 % 1011,0 hPa 0,0 l/m 9,4 km/h (2 Bft) S-SW 207 0 min 0,000 mm 0,0 UV-I 56 W/m 0,9 C -1,0 C 14,5 km/h (3 Bft) 100,00 %
12.02.2018 09:16 1,8 C 4,4 C 94 % 1011,0 hPa 0,0 l/m 7,3 km/h (2 Bft) SW 221 0 min 0,000 mm 0,0 UV-I 56 W/m 0,9 C 0,9 C 9,7 km/h (2 Bft) 100,00 %
12.02.2018 09:17 1,8 C 4,4 C 94 % 1011,0 hPa 0,0 l/m 6,4 km/h (2 Bft) SW 236 0 min 0,000 mm 0,0 UV-I 56 W/m 0,9 C 1,8 C 11,3 km/h (2 Bft) 100,00 %
12.02.2018 09:18 1,8 C 4,4 C 94 % 1011,0 hPa 0,0 l/m 7,6 km/h (2 Bft) S-SW 213 0 min 0,000 mm 0,0 UV-I 55 W/m 0,9 C 0,6 C 11,3 km/h (2 Bft) 100,00 %
12.02.2018 09:19 1,8 C 4,4 C 94 % 1011,1 hPa 0,0 l/m 5,4 km/h (1 Bft) SW 216 0 min 0,000 mm 0,0 UV-I 54 W/m 0,9 C 1,8 C 8,0 km/h (2 Bft) 100,00 %
12.02.2018 09:20 1,8 C 4,4 C 94 % 1011,1 hPa 0,0 l/m 5,6 km/h (1 Bft) SW 227 0 min 0,000 mm 0,0 UV-I 54 W/m 0,9 C 1,8 C 8,0 km/h (2 Bft) 100,00 %
12.02.2018 09:21 1,8 C 4,4 C 94 % 1011,0 hPa 0,0 l/m 5,8 km/h (2 Bft) SW 225 0 min 0,000 mm 0,0 UV-I 54 W/m 0,9 C 1,8 C 8,0 km/h (2 Bft) 100,00 %
12.02.2018 09:22 1,8 C 4,4 C 94 % 1011,1 hPa 0,0 l/m 8,0 km/h (2 Bft) SW 227 0 min 0,000 mm 0,0 UV-I 54 W/m 0,9 C 0,2 C 9,7 km/h (2 Bft) 100,00 %
12.02.2018 09:23 1,8 C 4,4 C 94 % 1011,1 hPa 0,0 l/m 6,8 km/h (2 Bft) SW 220 0 min 0,000 mm 0,0 UV-I 56 W/m 0,9 C 1,4 C 8,0 km/h (2 Bft) 100,00 %
12.02.2018 09:24 1,9 C 4,4 C 94 % 1011,1 hPa 0,0 l/m 6,0 km/h (2 Bft) SW 221 0 min 0,000 mm 0,0 UV-I 55 W/m 1,0 C 1,9 C 8,0 km/h (2 Bft) 100,00 %
12.02.2018 09:25 1,9 C 4,4 C 94 % 1011,0 hPa 0,0 l/m 8,5 km/h (2 Bft) S-SW 213 0 min 0,000 mm 0,0 UV-I 54 W/m 1,0 C -0,1 C 12,9 km/h (3 Bft) 100,00 %
12.02.2018 09:26 1,9 C 4,4 C 94 % 1011,0 hPa 0,0 l/m 9,0 km/h (2 Bft) S-SW 202 0 min 0,000 mm 0,0 UV-I 54 W/m 1,0 C -0,5 C 11,3 km/h (2 Bft) 100,00 %
12.02.2018 09:27 1,9 C 4,4 C 94 % 1011,1 hPa 0,0 l/m 8,6 km/h (2 Bft) SW 236 0 min 0,000 mm 0,0 UV-I 54 W/m 1,0 C -0,2 C 14,5 km/h (3 Bft) 95,83 %
12.02.2018 09:28 1,9 C 4,4 C 94 % 1011,1 hPa 0,0 l/m 6,0 km/h (2 Bft) S-SW 204 0 min 0,000 mm 0,0 UV-I 54 W/m 1,0 C 1,9 C 8,0 km/h (2 Bft) 100,00 %
12.02.2018 09:29 1,9 C 4,4 C 94 % 1011,1 hPa 0,0 l/m 8,0 km/h (2 Bft) S-SW 209 0 min 0,000 mm 0,0 UV-I 55 W/m 1,0 C 0,3 C 11,3 km/h (2 Bft) 100,00 %
12.02.2018 09:30 1,9 C 4,4 C 94 % 1011,1 hPa 0,0 l/m 7,0 km/h (2 Bft) SW 225 0 min 0,000 mm 0,0 UV-I 57 W/m 1,0 C 1,3 C 11,3 km/h (2 Bft) 100,00 %
12.02.2018 09:31 1,9 C 4,4 C 94 % 1011,1 hPa 0,0 l/m 8,9 km/h (2 Bft) SW 229 0 min 0,000 mm 0,0 UV-I 59 W/m 1,0 C -0,5 C 12,9 km/h (3 Bft) 100,00 %
12.02.2018 09:32 1,9 C 4,4 C 94 % 1011,1 hPa 0,0 l/m 8,4 km/h (2 Bft) SW 215 0 min 0,000 mm 0,0 UV-I 61 W/m 1,0 C -0,0 C 12,9 km/h (3 Bft) 100,00 %
12.02.2018 09:33 1,9 C 4,4 C 94 % 1011,1 hPa 0,0 l/m 8,4 km/h (2 Bft) SW 221 0 min 0,000 mm 0,0 UV-I 63 W/m 1,0 C -0,0 C 12,9 km/h (3 Bft) 100,00 %
12.02.2018 09:34 1,9 C 4,4 C 94 % 1011,1 hPa 0,0 l/m 5,9 km/h (2 Bft) S-SW 195 0 min 0,000 mm 0,0 UV-I 65 W/m 1,0 C 1,9 C 11,3 km/h (2 Bft) 95,83 %
12.02.2018 09:35 1,9 C 4,4 C 94 % 1011,1 hPa 0,0 l/m 7,1 km/h (2 Bft) SW 233 0 min 0,000 mm 0,0 UV-I 68 W/m 1,0 C 1,2 C 12,9 km/h (3 Bft) 96,15 %
12.02.2018 09:36 1,9 C 4,4 C 94 % 1011,1 hPa 0,0 l/m 8,4 km/h (2 Bft) SW 227 0 min 0,000 mm 0,0 UV-I 69 W/m 1,0 C -0,0 C 12,9 km/h (3 Bft) 100,00 %
12.02.2018 09:37 2,0 C 4,4 C 94 % 1011,1 hPa 0,0 l/m 7,6 km/h (2 Bft) SW 221 0 min 0,000 mm 0,0 UV-I 71 W/m 1,1 C 0,8 C 12,9 km/h (3 Bft) 95,65 %
12.02.2018 09:38 2,0 C 4,4 C 94 % 1011,2 hPa 0,0 l/m 7,6 km/h (2 Bft) SW 215 0 min 0,000 mm 0,0 UV-I 78 W/m 1,1 C 0,8 C 9,7 km/h (2 Bft) 100,00 %
12.02.2018 09:39 2,0 C 4,4 C 94 % 1011,1 hPa 0,0 l/m 8,0 km/h (2 Bft) S-SW 210 0 min 0,000 mm 0,0 UV-I 86 W/m 1,1 C 0,5 C 11,3 km/h (2 Bft) 95,65 %
12.02.2018 09:40 2,0 C 4,4 C 94 % 1011,1 hPa 0,0 l/m 7,6 km/h (2 Bft) S-SW 212 0 min 0,000 mm 0,0 UV-I 91 W/m 1,1 C 0,8 C 11,3 km/h (2 Bft) 100,00 %
12.02.2018 09:41 2,0 C 4,4 C 94 % 1011,2 hPa 0,0 l/m 7,0 km/h (2 Bft) W-SW 241 0 min 0,000 mm 0,0 UV-I 91 W/m 1,1 C 1,4 C 8,0 km/h (2 Bft) 92,31 %
12.02.2018 09:42 2,1 C 4,4 C 94 % 1011,2 hPa 0,0 l/m 4,2 km/h (1 Bft) SW 224 0 min 0,000 mm 0,0 UV-I 89 W/m 1,2 C 2,1 C 6,4 km/h (2 Bft) 96,30 %
12.02.2018 09:43 2,1 C 4,4 C 93 % 1011,2 hPa 0,0 l/m 7,9 km/h (2 Bft) S-SW 204 0 min 0,000 mm 0,0 UV-I 87 W/m 1,1 C 0,7 C 12,9 km/h (3 Bft) 100,00 %
12.02.2018 09:44 2,1 C 4,4 C 93 % 1011,2 hPa 0,0 l/m 7,9 km/h (2 Bft) SW 217 0 min 0,000 mm 0,0 UV-I 86 W/m 1,1 C 0,7 C 11,3 km/h (2 Bft) 96,67 %
12.02.2018 09:45 2,1 C 4,4 C 93 % 1011,2 hPa 0,0 l/m 6,0 km/h (2 Bft) W-SW 238 0 min 0,000 mm 0,0 UV-I 88 W/m 1,1 C 2,1 C 8,0 km/h (2 Bft) 100,00 %
12.02.2018 09:46 2,1 C 4,4 C 93 % 1011,2 hPa 0,0 l/m 7,2 km/h (2 Bft) W-SW 242 0 min 0,000 mm 0,0 UV-I 90 W/m 1,1 C 1,3 C 9,7 km/h (2 Bft) 93,33 %
12.02.2018 09:47 2,1 C 4,4 C 93 % 1011,2 hPa 0,0 l/m 9,4 km/h (2 Bft) SW 221 0 min 0,000 mm 0,0 UV-I 88 W/m 1,1 C -0,7 C 16,1 km/h (3 Bft) 91,67 %
12.02.2018 09:48 2,1 C 4,4 C 93 % 1011,2 hPa 0,0 l/m 7,9 km/h (2 Bft) SW 219 0 min 0,000 mm 0,0 UV-I 89 W/m 1,1 C 0,7 C 11,3 km/h (2 Bft) 94,74 %
12.02.2018 09:49 2,1 C 4,4 C 93 % 1011,2 hPa 0,0 l/m 10,8 km/h (2 Bft) SW 227 0 min 0,000 mm 0,0 UV-I 91 W/m 1,1 C -1,7 C 19,3 km/h (3 Bft) 100,00 %
12.02.2018 09:50 2,1 C 4,4 C 93 % 1011,2 hPa 0,0 l/m 10,6 km/h (2 Bft) S-SW 213 0 min 0,000 mm 0,0 UV-I 95 W/m 1,1 C -1,6 C 17,7 km/h (3 Bft) 96,15 %
12.02.2018 09:51 2,1 C 4,4 C 93 % 1011,2 hPa 0,0 l/m 8,0 km/h (2 Bft) SW 217 0 min 0,000 mm 0,0 UV-I 98 W/m 1,1 C 0,6 C 12,9 km/h (3 Bft) 96,15 %
12.02.2018 09:52 2,1 C 4,4 C 93 % 1011,2 hPa 0,0 l/m 7,2 km/h (2 Bft) S-SW 211 0 min 0,000 mm 0,0 UV-I 100 W/m 1,1 C 1,3 C 11,3 km/h (2 Bft) 100,00 %
12.02.2018 09:53 2,1 C 4,4 C 93 % 1011,2 hPa 0,0 l/m 8,7 km/h (2 Bft) SW 223 0 min 0,000 mm 0,0 UV-I 100 W/m 1,1 C -0,1 C 12,9 km/h (3 Bft) 100,00 %
12.02.2018 09:54 2,2 C 4,4 C 93 % 1011,3 hPa 0,0 l/m 7,5 km/h (2 Bft) W 263 0 min 0,000 mm 0,0 UV-I 99 W/m 1,2 C 1,1 C 12,9 km/h (3 Bft) 96,15 %
12.02.2018 09:55 2,2 C 4,4 C 93 % 1011,3 hPa 0,0 l/m 7,8 km/h (2 Bft) W-SW 244 0 min 0,000 mm 0,0 UV-I 97 W/m 1,2 C 0,8 C 11,3 km/h (2 Bft) 96,30 %
12.02.2018 09:56 2,2 C 4,4 C 93 % 1011,3 hPa 0,0 l/m 7,0 km/h (2 Bft) W-SW 244 0 min 0,000 mm 0,0 UV-I 95 W/m 1,2 C 1,6 C 12,9 km/h (3 Bft) 100,00 %
12.02.2018 09:57 2,2 C 4,4 C 93 % 1011,3 hPa 0,0 l/m 10,7 km/h (2 Bft) SW 225 0 min 0,000 mm 0,0 UV-I 93 W/m 1,2 C -1,6 C 16,1 km/h (3 Bft) 96,30 %
12.02.2018 09:58 2,2 C 4,4 C 93 % 1011,3 hPa 0,0 l/m 8,2 km/h (2 Bft) W 262 0 min 0,000 mm 0,0 UV-I 89 W/m 1,2 C 0,5 C 11,3 km/h (2 Bft) 96,15 %
12.02.2018 09:59 2,2 C 4,4 C 93 % 1011,3 hPa 0,0 l/m 5,0 km/h (1 Bft) SW 217 0 min 0,000 mm 0,0 UV-I 88 W/m 1,2 C 2,2 C 8,0 km/h (2 Bft) 100,00 %
12.02.2018 10:00 2,2 C 4,4 C 93 % 1011,4 hPa 0,0 l/m 4,4 km/h (1 Bft) S-SW 200 0 min 0,026 mm 0,0 UV-I 88 W/m 1,2 C 2,2 C 6,4 km/h (2 Bft) 100,00 %
12.02.2018 10:01 2,2 C 4,4 C 93 % 1011,4 hPa 0,0 l/m 7,8 km/h (2 Bft) SW 234 0 min 0,000 mm 0,0 UV-I 89 W/m 1,2 C 0,8 C 12,9 km/h (3 Bft) 95,83 %
12.02.2018 10:02 2,2 C 4,4 C 92 % 1011,4 hPa 0,0 l/m 7,8 km/h (2 Bft) SW 218 0 min 0,000 mm 0,0 UV-I 88 W/m 1,0 C 0,8 C 11,3 km/h (2 Bft) 91,30 %
12.02.2018 10:03 2,2 C 4,4 C 92 % 1011,4 hPa 0,0 l/m 8,6 km/h (2 Bft) SW 220 0 min 0,000 mm 0,0 UV-I 88 W/m 1,0 C 0,1 C 11,3 km/h (2 Bft) 100,00 %
12.02.2018 10:04 2,2 C 4,4 C 93 % 1011,4 hPa 0,0 l/m 6,4 km/h (2 Bft) SW 214 0 min 0,000 mm 0,0 UV-I 84 W/m 1,2 C 2,2 C 9,7 km/h (2 Bft) 96,15 %
12.02.2018 10:05 2,2 C 4,4 C 92 % 1011,4 hPa 0,0 l/m 7,5 km/h (2 Bft) W-SW 237 0 min 0,000 mm 0,0 UV-I 81 W/m 1,0 C 1,1 C 11,3 km/h (2 Bft) 100,00 %
12.02.2018 10:06 2,2 C 4,4 C 92 % 1011,4 hPa 0,0 l/m 7,6 km/h (2 Bft) S-SW 201 0 min 0,000 mm 0,0 UV-I 78 W/m 1,0 C 1,0 C 11,3 km/h (2 Bft) 97,72 %
12.02.2018 10:07 2,2 C 4,4 C 92 % 1011,3 hPa 0,0 l/m 8,8 km/h (2 Bft) S-SW 205 0 min 0,000 mm 0,0 UV-I 76 W/m 1,0 C -0,0 C 11,3 km/h (2 Bft) 100,00 %
12.02.2018 10:08 2,2 C 4,4 C 92 % 1011,4 hPa 0,0 l/m 5,7 km/h (1 Bft) S-SW 207 0 min 0,000 mm 0,0 UV-I 74 W/m 1,0 C 2,2 C 8,0 km/h (2 Bft) 100,00 %
12.02.2018 10:09 2,2 C 4,4 C 92 % 1011,4 hPa 0,0 l/m 6,4 km/h (2 Bft) SW 221 0 min 0,000 mm 0,0 UV-I 74 W/m 1,0 C 2,2 C 8,0 km/h (2 Bft) 94,12 %
12.02.2018 10:10 2,2 C 4,4 C 93 % 1011,4 hPa 0,0 l/m 6,0 km/h (2 Bft) SW 223 0 min 0,000 mm 0,0 UV-I 72 W/m 1,2 C 2,2 C 9,7 km/h (2 Bft) 100,00 %
12.02.2018 10:11 2,2 C 4,4 C 93 % 1011,4 hPa 0,0 l/m 8,0 km/h (2 Bft) SW 220 0 min 0,000 mm 0,0 UV-I 71 W/m 1,2 C 0,7 C 11,3 km/h (2 Bft) 100,00 %
12.02.2018 10:12 2,2 C 4,4 C 93 % 1011,4 hPa 0,0 l/m 6,3 km/h (2 Bft) S-SW 193 0 min 0,000 mm 0,0 UV-I 69 W/m 1,2 C 2,2 C 11,3 km/h (2 Bft) 91,67 %
12.02.2018 10:13 2,2 C 4,4 C 93 % 1011,4 hPa 0,0 l/m 6,8 km/h (2 Bft) W-SW 246 0 min 0,000 mm 0,0 UV-I 67 W/m 1,2 C 1,8 C 11,3 km/h (2 Bft) 96,55 %
12.02.2018 10:14 2,2 C 4,4 C 93 % 1011,4 hPa 0,0 l/m 6,8 km/h (2 Bft) SW 236 0 min 0,000 mm 0,0 UV-I 63 W/m 1,2 C 1,8 C 8,0 km/h (2 Bft) 100,00 %
12.02.2018 10:15 2,2 C 4,4 C 93 % 1011,4 hPa 0,0 l/m 8,2 km/h (2 Bft) SW 232 0 min 0,000 mm 0,0 UV-I 61 W/m 1,2 C 0,5 C 11,3 km/h (2 Bft) 100,00 %
12.02.2018 10:16 2,2 C 4,4 C 93 % 1011,4 hPa 0,0 l/m 7,0 km/h (2 Bft) SW 223 0 min 0,000 mm 0,0 UV-I 57 W/m 1,2 C 1,6 C 11,3 km/h (2 Bft) 100,00 %
12.02.2018 10:17 2,2 C 4,4 C 93 % 1011,5 hPa 0,0 l/m 8,3 km/h (2 Bft) S-SW 204 0 min 0,000 mm 0,0 UV-I 54 W/m 1,2 C 0,4 C 11,3 km/h (2 Bft) 94,12 %
12.02.2018 10:18 2,2 C 4,4 C 93 % 1011,5 hPa 0,0 l/m 10,8 km/h (2 Bft) SW 234 0 min 0,000 mm 0,0 UV-I 53 W/m 1,2 C -1,6 C 14,5 km/h (3 Bft) 96,30 %
12.02.2018 10:19 2,1 C 4,4 C 93 % 1011,5 hPa 0,0 l/m 11,9 km/h (2 Bft) W-SW 238 0 min 0,000 mm 0,0 UV-I 53 W/m 1,1 C -2,5 C 16,1 km/h (3 Bft) 100,00 %
12.02.2018 10:20 2,1 C 4,4 C 93 % 1011,4 hPa 0,0 l/m 12,0 km/h (2 Bft) SW 220 0 min 0,000 mm 0,0 UV-I 54 W/m 1,1 C -2,6 C 16,1 km/h (3 Bft) 100,00 %
12.02.2018 10:21 2,1 C 4,4 C 93 % 1011,5 hPa 0,0 l/m 8,0 km/h (2 Bft) W-SW 240 0 min 0,000 mm 0,0 UV-I 56 W/m 1,1 C 0,6 C 12,9 km/h (3 Bft) 100,00 %
12.02.2018 10:22 2,1 C 4,4 C 93 % 1011,5 hPa 0,0 l/m 6,8 km/h (2 Bft) SW 215 0 min 0,000 mm 0,0 UV-I 58 W/m 1,1 C 1,7 C 11,3 km/h (2 Bft) 100,00 %
12.02.2018 10:23 2,1 C 4,4 C 93 % 1011,5 hPa 0,0 l/m 10,6 km/h (2 Bft) W-SW 246 0 min 0,000 mm 0,0 UV-I 59 W/m 1,1 C -1,6 C 14,5 km/h (3 Bft) 96,15 %
12.02.2018 10:24 2,1 C 4,4 C 93 % 1011,5 hPa 0,0 l/m 7,0 km/h (2 Bft) W-SW 245 0 min 0,000 mm 0,0 UV-I 61 W/m 1,1 C 1,5 C 9,7 km/h (2 Bft) 100,00 %
12.02.2018 10:25 2,1 C 4,4 C 93 % 1011,5 hPa 0,0 l/m 5,9 km/h (2 Bft) W-SW 237 0 min 0,000 mm 0,0 UV-I 64 W/m 1,1 C 2,1 C 9,7 km/h (2 Bft) 100,00 %
12.02.2018 10:26 2,1 C 4,4 C 93 % 1011,5 hPa 0,0 l/m 8,2 km/h (2 Bft) W-SW 237 0 min 0,000 mm 0,0 UV-I 69 W/m 1,1 C 0,4 C 11,3 km/h (2 Bft) 95,83 %
12.02.2018 10:27 2,1 C 4,4 C 93 % 1011,5 hPa 0,0 l/m 6,0 km/h (2 Bft) W-SW 242 0 min 0,000 mm 0,0 UV-I 75 W/m 1,1 C 2,1 C 9,7 km/h (2 Bft) 100,00 %
12.02.2018 10:28 2,1 C 4,4 C 93 % 1011,5 hPa 0,0 l/m 5,0 km/h (1 Bft) W-SW 238 0 min 0,000 mm 0,0 UV-I 82 W/m 1,1 C 2,1 C 8,0 km/h (2 Bft) 100,00 %
12.02.2018 10:29 2,1 C 4,4 C 93 % 1011,5 hPa 0,0 l/m 8,4 km/h (2 Bft) SW 227 0 min 0,000 mm 0,0 UV-I 92 W/m 1,1 C 0,2 C 12,9 km/h (3 Bft) 100,00 %
12.02.2018 10:30 2,2 C 4,4 C 93 % 1011,5 hPa 0,0 l/m 6,8 km/h (2 Bft) SW 231 0 min 0,000 mm 0,0 UV-I 97 W/m 1,2 C 1,8 C 9,7 km/h (2 Bft) 100,00 %
12.02.2018 10:31 2,2 C 4,4 C 93 % 1011,5 hPa 0,0 l/m 6,6 km/h (2 Bft) W-SW 248 0 min 0,000 mm 0,0 UV-I 103 W/m 1,2 C 2,0 C 8,0 km/h (2 Bft) 100,00 %
12.02.2018 10:32 2,2 C 4,4 C 93 % 1011,5 hPa 0,0 l/m 4,8 km/h (1 Bft) W 268 0 min 0,000 mm 0,0 UV-I 104 W/m 1,2 C 2,2 C 9,7 km/h (2 Bft) 100,00 %
12.02.2018 10:33 2,2 C 4,4 C 93 % 1011,5 hPa 0,0 l/m 4,9 km/h (1 Bft) W-SW 238 0 min 0,000 mm 0,0 UV-I 106 W/m 1,2 C 2,2 C 8,0 km/h (2 Bft) 100,00 %
12.02.2018 10:34 2,2 C 4,4 C 93 % 1011,5 hPa 0,0 l/m 4,6 km/h (1 Bft) W 267 0 min 0,000 mm 0,0 UV-I 108 W/m 1,2 C 2,2 C 9,7 km/h (2 Bft) 100,00 %
12.02.2018 10:35 2,3 C 4,4 C 94 % 1011,5 hPa 0,0 l/m 4,8 km/h (1 Bft) W 266 0 min 0,000 mm 0,0 UV-I 112 W/m 1,4 C 2,3 C 6,4 km/h (2 Bft) 100,00 %
12.02.2018 10:36 2,3 C 4,4 C 94 % 1011,6 hPa 0,0 l/m 3,9 km/h (1 Bft) W 265 0 min 0,000 mm 0,0 UV-I 113 W/m 1,4 C 2,3 C 6,4 km/h (2 Bft) 100,00 %
12.02.2018 10:37 2,3 C 4,4 C 94 % 1011,6 hPa 0,0 l/m 5,9 km/h (2 Bft) SW 232 0 min 0,000 mm 0,0 UV-I 111 W/m 1,4 C 2,3 C 9,7 km/h (2 Bft) 100,00 %
12.02.2018 10:38 2,3 C 4,4 C 93 % 1011,6 hPa 0,0 l/m 4,9 km/h (1 Bft) W 269 0 min 0,000 mm 0,0 UV-I 113 W/m 1,3 C 2,3 C 6,4 km/h (2 Bft) 100,00 %
12.02.2018 10:39 2,4 C 4,4 C 93 % 1011,6 hPa 0,0 l/m 3,4 km/h (1 Bft) W 269 0 min 0,000 mm 0,0 UV-I 112 W/m 1,4 C 2,4 C 4,8 km/h (1 Bft) 100,00 %
12.02.2018 10:40 2,4 C 4,4 C 93 % 1011,6 hPa 0,0 l/m 4,7 km/h (1 Bft) W 265 0 min 0,000 mm 0,0 UV-I 111 W/m 1,4 C 2,4 C 6,4 km/h (2 Bft) 100,00 %
12.02.2018 10:41 2,4 C 4,4 C 93 % 1011,7 hPa 0,0 l/m 3,2 km/h (1 Bft) W 265 0 min 0,000 mm 0,0 UV-I 111 W/m 1,4 C 2,4 C 4,8 km/h (1 Bft) 100,00 %
12.02.2018 10:42 2,4 C 4,4 C 93 % 1011,7 hPa 0,0 l/m 2,5 km/h (1 Bft) W 271 0 min 0,000 mm 0,0 UV-I 113 W/m 1,4 C 2,4 C 4,8 km/h (1 Bft) 95,65 %
12.02.2018 10:43 2,4 C 4,4 C 94 % 1011,7 hPa 0,0 l/m 3,8 km/h (1 Bft) W 267 0 min 0,000 mm 0,0 UV-I 122 W/m 1,5 C 2,4 C 6,4 km/h (2 Bft) 100,00 %
12.02.2018 10:44 2,5 C 4,4 C 93 % 1011,7 hPa 0,0 l/m 4,9 km/h (1 Bft) W 266 0 min 0,000 mm 0,0 UV-I 133 W/m 1,5 C 2,5 C 9,7 km/h (2 Bft) 96,15 %
12.02.2018 10:45 2,5 C 4,4 C 93 % 1011,7 hPa 0,0 l/m 11,2 km/h (2 Bft) W 271 0 min 0,000 mm 0,0 UV-I 145 W/m 1,5 C -1,6 C 12,9 km/h (3 Bft) 93,33 %
12.02.2018 10:46 2,5 C 4,4 C 93 % 1011,7 hPa 0,0 l/m 10,1 km/h (2 Bft) W-SW 239 0 min 0,000 mm 0,1 UV-I 157 W/m 1,5 C -0,8 C 12,9 km/h (3 Bft) 100,00 %
12.02.2018 10:47 2,6 C 4,4 C 93 % 1011,7 hPa 0,0 l/m 8,3 km/h (2 Bft) W 265 0 min 0,000 mm 0,5 UV-I 170 W/m 1,6 C 0,8 C 11,3 km/h (2 Bft) 100,00 %
12.02.2018 10:48 2,6 C 4,4 C 93 % 1011,7 hPa 0,0 l/m 8,9 km/h (2 Bft) W 259 0 min 0,000 mm 0,5 UV-I 183 W/m 1,6 C 0,3 C 12,9 km/h (3 Bft) 96,55 %
12.02.2018 10:49 2,7 C 4,4 C 93 % 1011,7 hPa 0,0 l/m 7,6 km/h (2 Bft) W-SW 253 0 min 0,000 mm 0,5 UV-I 189 W/m 1,7 C 1,6 C 11,3 km/h (2 Bft) 100,00 %
12.02.2018 10:50 2,7 C 4,4 C 93 % 1011,7 hPa 0,0 l/m 6,5 km/h (2 Bft) SW 236 0 min 0,000 mm 0,5 UV-I 197 W/m 1,7 C 2,6 C 9,7 km/h (2 Bft) 100,00 %
12.02.2018 10:51 2,8 C 4,4 C 93 % 1011,7 hPa 0,0 l/m 10,3 km/h (2 Bft) W-SW 255 0 min 0,000 mm 0,5 UV-I 205 W/m 1,8 C -0,6 C 17,7 km/h (3 Bft) 100,00 %
12.02.2018 10:52 2,8 C 4,4 C 92 % 1011,7 hPa 0,0 l/m 10,0 km/h (2 Bft) W-SW 249 0 min 0,000 mm 0,6 UV-I 211 W/m 1,6 C -0,4 C 16,1 km/h (3 Bft) 100,00 %
12.02.2018 10:53 2,8 C 4,4 C 91 % 1011,8 hPa 0,0 l/m 11,0 km/h (2 Bft) W-SW 241 0 min 0,000 mm 0,6 UV-I 213 W/m 1,5 C -1,1 C 14,5 km/h (3 Bft) 100,00 %
12.02.2018 10:54 2,8 C 4,4 C 91 % 1011,8 hPa 0,0 l/m 9,7 km/h (2 Bft) W 279 0 min 0,000 mm 0,6 UV-I 214 W/m 1,5 C -0,1 C 14,5 km/h (3 Bft) 100,00 %
12.02.2018 10:55 2,8 C 4,4 C 91 % 1011,7 hPa 0,0 l/m 6,6 km/h (2 Bft) W-SW 239 0 min 0,000 mm 0,5 UV-I 214 W/m 1,5 C 2,6 C 8,0 km/h (2 Bft) 100,00 %
12.02.2018 10:56 2,9 C 4,4 C 91 % 1011,8 hPa 0,0 l/m 8,0 km/h (2 Bft) W 260 0 min 0,000 mm 0,5 UV-I 211 W/m 1,6 C 1,4 C 14,5 km/h (3 Bft) 100,00 %
12.02.2018 10:57 2,9 C 4,4 C 91 % 1011,7 hPa 0,0 l/m 15,4 km/h (3 Bft) W 263 0 min 0,000 mm 0,5 UV-I 210 W/m 1,6 C -3,7 C 19,3 km/h (3 Bft) 100,00 %
12.02.2018 10:58 2,9 C 4,4 C 91 % 1011,8 hPa 0,0 l/m 12,2 km/h (2 Bft) W-SW 243 0 min 0,000 mm 0,5 UV-I 205 W/m 1,6 C -1,8 C 17,7 km/h (3 Bft) 100,00 %
12.02.2018 10:59 2,9 C 4,4 C 90 % 1011,8 hPa 0,0 l/m 10,8 km/h (2 Bft) S-SW 205 0 min 0,000 mm 0,5 UV-I 204 W/m 1,4 C -0,8 C 14,5 km/h (3 Bft) 100,00 %
12.02.2018 11:00 3,0 C 4,4 C 90 % 1011,8 hPa 0,0 l/m 9,5 km/h (2 Bft) W 261 0 min 0,051 mm 0,6 UV-I 204 W/m 1,5 C 0,2 C 16,1 km/h (3 Bft) 100,00 %
12.02.2018 11:01 3,0 C 4,4 C 90 % 1011,8 hPa 0,0 l/m 9,4 km/h (2 Bft) W-SW 238 0 min 0,000 mm 0,6 UV-I 207 W/m 1,5 C 0,3 C 14,5 km/h (3 Bft) 100,00 %
12.02.2018 11:02 3,1 C 4,4 C 91 % 1011,8 hPa 0,0 l/m 8,8 km/h (2 Bft) W 265 0 min 0,000 mm 0,6 UV-I 209 W/m 1,8 C 0,9 C 16,1 km/h (3 Bft) 100,00 %
12.02.2018 11:03 3,1 C 4,4 C 91 % 1011,8 hPa 0,0 l/m 11,3 km/h (2 Bft) SW 234 0 min 0,000 mm 0,6 UV-I 213 W/m 1,8 C -1,0 C 17,7 km/h (3 Bft) 100,00 %
12.02.2018 11:04 3,1 C 4,4 C 91 % 1011,8 hPa 0,0 l/m 13,5 km/h (3 Bft) SW 234 0 min 0,000 mm 0,6 UV-I 220 W/m 1,8 C -2,4 C 17,7 km/h (3 Bft) 100,00 %
12.02.2018 11:05 3,2 C 4,4 C 91 % 1011,8 hPa 0,0 l/m 11,6 km/h (2 Bft) W-SW 255 0 min 0,000 mm 0,6 UV-I 224 W/m 1,9 C -1,1 C 16,1 km/h (3 Bft) 100,00 %
12.02.2018 11:06 3,2 C 4,4 C 90 % 1011,8 hPa 0,0 l/m 11,9 km/h (2 Bft) SW 232 0 min 0,000 mm 0,6 UV-I 228 W/m 1,7 C -1,3 C 19,3 km/h (3 Bft) 100,00 %
12.02.2018 11:07 3,2 C 4,4 C 90 % 1011,8 hPa 0,0 l/m 12,0 km/h (2 Bft) W-SW 237 0 min 0,000 mm 0,6 UV-I 229 W/m 1,7 C -1,3 C 16,1 km/h (3 Bft) 100,00 %
12.02.2018 11:08 3,2 C 4,4 C 90 % 1011,8 hPa 0,0 l/m 13,3 km/h (3 Bft) SW 235 0 min 0,000 mm 0,6 UV-I 230 W/m 1,7 C -2,1 C 19,3 km/h (3 Bft) 100,00 %
12.02.2018 11:09 3,2 C 4,4 C 90 % 1011,8 hPa 0,0 l/m 11,5 km/h (2 Bft) W-SW 247 0 min 0,000 mm 0,6 UV-I 230 W/m 1,7 C -1,0 C 14,5 km/h (3 Bft) 100,00 %
12.02.2018 11:10 3,2 C 4,4 C 90 % 1011,8 hPa 0,0 l/m 13,2 km/h (3 Bft) SW 229 0 min 0,000 mm 0,6 UV-I 230 W/m 1,7 C -2,1 C 17,7 km/h (3 Bft) 100,00 %
12.02.2018 11:11 3,3 C 4,4 C 90 % 1011,9 hPa 0,0 l/m 13,1 km/h (3 Bft) W-SW 247 0 min 0,000 mm 0,6 UV-I 224 W/m 1,8 C -1,9 C 16,1 km/h (3 Bft) 100,00 %
12.02.2018 11:12 3,3 C 4,4 C 90 % 1011,8 hPa 0,0 l/m 11,2 km/h (2 Bft) SW 227 0 min 0,000 mm 0,5 UV-I 209 W/m 1,8 C -0,7 C 16,1 km/h (3 Bft) 100,00 %
12.02.2018 11:13 3,3 C 4,4 C 90 % 1012,0 hPa 0,0 l/m 15,4 km/h (3 Bft) W 275 0 min 0,000 mm 0,1 UV-I 161 W/m 1,8 C -3,2 C 20,9 km/h (4 Bft) 100,00 %
12.02.2018 11:14 3,3 C 4,4 C 90 % 1012,1 hPa 0,0 l/m 14,8 km/h (3 Bft) N 360 0 min 0,000 mm 0,0 UV-I 90 W/m 1,8 C -2,9 C 27,4 km/h (4 Bft) 100,00 %
12.02.2018 11:15 3,3 C 4,4 C 90 % 1012,1 hPa 0,0 l/m 12,5 km/h (3 Bft) W-SW 241 0 min 0,000 mm 0,0 UV-I 49 W/m 1,8 C -1,5 C 19,3 km/h (3 Bft) 100,00 %
12.02.2018 11:16 3,0 C 4,4 C 90 % 1012,0 hPa 0,0 l/m 15,9 km/h (3 Bft) W-NW 283 0 min 0,000 mm 0,0 UV-I 43 W/m 1,5 C -3,8 C 22,5 km/h (4 Bft) 100,00 %
12.02.2018 11:17 2,7 C 4,4 C 88 % 1012,2 hPa 0,0 l/m 13,0 km/h (3 Bft) W 278 0 min 0,000 mm 0,0 UV-I 48 W/m 0,9 C -2,5 C 19,3 km/h (3 Bft) 100,00 %
12.02.2018 11:18 2,4 C 4,4 C 89 % 1012,2 hPa 0,0 l/m 16,3 km/h (3 Bft) W-SW 244 0 min 0,000 mm 0,0 UV-I 47 W/m 0,8 C -4,8 C 22,5 km/h (4 Bft) 100,00 %
12.02.2018 11:19 2,1 C 4,4 C 89 % 1012,2 hPa 0,0 l/m 13,9 km/h (3 Bft) W 279 0 min 0,000 mm 0,0 UV-I 49 W/m 0,5 C -3,8 C 17,7 km/h (3 Bft) 96,30 %
12.02.2018 11:20 1,8 C 4,4 C 90 % 1012,2 hPa 0,0 l/m 13,4 km/h (3 Bft) W 274 0 min 0,000 mm 0,0 UV-I 48 W/m 0,3 C -3,8 C 17,7 km/h (3 Bft) 100,00 %
12.02.2018 11:21 1,7 C 4,4 C 90 % 1012,3 hPa 0,0 l/m 11,3 km/h (2 Bft) W 260 0 min 0,000 mm 0,0 UV-I 56 W/m 0,2 C -2,6 C 14,5 km/h (3 Bft) 100,00 %
12.02.2018 11:22 1,5 C 4,4 C 91 % 1012,2 hPa 0,0 l/m 12,0 km/h (2 Bft) W-SW 249 0 min 0,000 mm 0,0 UV-I 57 W/m 0,2 C -3,3 C 17,7 km/h (3 Bft) 100,00 %
12.02.2018 11:23 1,3 C 4,4 C 92 % 1012,3 hPa 0,0 l/m 8,6 km/h (2 Bft) W-SW 246 0 min 0,000 mm 0,0 UV-I 65 W/m 0,1 C -0,8 C 11,3 km/h (2 Bft) 96,55 %
12.02.2018 11:24 1,3 C 4,4 C 93 % 1012,3 hPa 0,0 l/m 6,6 km/h (2 Bft) W 270 0 min 0,000 mm 0,0 UV-I 75 W/m 0,3 C 1,1 C 17,7 km/h (3 Bft) 100,00 %
12.02.2018 11:25 1,2 C 4,4 C 93 % 1012,3 hPa 0,0 l/m 15,6 km/h (3 Bft) W-SW 253 0 min 0,000 mm 0,0 UV-I 81 W/m 0,2 C -5,9 C 25,7 km/h (4 Bft) 100,00 %
12.02.2018 11:26 1,2 C 4,4 C 93 % 1012,3 hPa 0,0 l/m 15,0 km/h (3 Bft) W-SW 248 0 min 0,000 mm 0,0 UV-I 86 W/m 0,2 C -5,5 C 24,1 km/h (4 Bft) 95,65 %
12.02.2018 11:27 1,1 C 4,4 C 93 % 1012,3 hPa 0,0 l/m 16,4 km/h (3 Bft) W 269 0 min 0,000 mm 0,0 UV-I 94 W/m 0,1 C -6,4 C 20,9 km/h (4 Bft) 100,00 %
12.02.2018 11:28 1,1 C 4,4 C 94 % 1012,3 hPa 0,0 l/m 11,4 km/h (2 Bft) W-SW 252 0 min 0,000 mm 0,0 UV-I 112 W/m 0,2 C -3,3 C 14,5 km/h (3 Bft) 100,00 %
12.02.2018 11:29 1,1 C 4,4 C 94 % 1012,4 hPa 0,0 l/m 11,3 km/h (2 Bft) NW 309 0 min 0,000 mm 0,0 UV-I 126 W/m 0,2 C -3,2 C 16,1 km/h (3 Bft) 100,00 %
12.02.2018 11:30 1,1 C 4,4 C 94 % 1012,4 hPa 0,0 l/m 14,5 km/h (3 Bft) W 265 0 min 0,000 mm 0,0 UV-I 136 W/m 0,2 C -5,4 C 22,5 km/h (4 Bft) 100,00 %
12.02.2018 11:31 1,1 C 4,4 C 94 % 1012,4 hPa 0,0 l/m 12,2 km/h (2 Bft) W 261 0 min 0,000 mm 0,0 UV-I 139 W/m 0,2 C -3,9 C 17,7 km/h (3 Bft) 97,56 %
12.02.2018 11:32 1,0 C 4,4 C 94 % 1012,4 hPa 0,0 l/m 11,9 km/h (2 Bft) W 275 0 min 0,000 mm 0,5 UV-I 150 W/m 0,1 C -3,8 C 14,5 km/h (3 Bft) 95,83 %
12.02.2018 11:33 1,1 C 4,4 C 94 % 1012,4 hPa 0,0 l/m 11,5 km/h (2 Bft) W-NW 285 0 min 0,000 mm 0,5 UV-I 153 W/m 0,2 C -3,4 C 17,7 km/h (3 Bft) 100,00 %
12.02.2018 11:34 1,1 C 4,4 C 94 % 1012,4 hPa 0,0 l/m 11,0 km/h (2 Bft) NW 312 0 min 0,000 mm 0,5 UV-I 152 W/m 0,2 C -3,0 C 17,7 km/h (3 Bft) 96,30 %
12.02.2018 11:35 1,1 C 4,4 C 94 % 1012,4 hPa 0,0 l/m 12,9 km/h (3 Bft) W-SW 246 0 min 0,000 mm 0,2 UV-I 150 W/m 0,2 C -4,3 C 17,7 km/h (3 Bft) 96,15 %
12.02.2018 11:36 1,1 C 4,4 C 94 % 1012,4 hPa 0,0 l/m 10,4 km/h (2 Bft) W 261 0 min 0,000 mm 0,0 UV-I 148 W/m 0,2 C -2,6 C 14,5 km/h (3 Bft) 96,30 %
12.02.2018 11:37 1,1 C 4,4 C 94 % 1012,5 hPa 0,0 l/m 19,2 km/h (3 Bft) W 266 0 min 0,000 mm 0,0 UV-I 146 W/m 0,2 C -7,8 C 22,5 km/h (4 Bft) 92,31 %
12.02.2018 11:38 1,1 C 4,4 C 94 % 1012,4 hPa 0,0 l/m 11,6 km/h (2 Bft) W 266 0 min 0,000 mm 0,0 UV-I 146 W/m 0,2 C -3,5 C 16,1 km/h (3 Bft) 100,00 %
12.02.2018 11:39 1,1 C 4,4 C 94 % 1012,5 hPa 0,0 l/m 12,7 km/h (3 Bft) W 266 0 min 0,000 mm 0,0 UV-I 146 W/m 0,2 C -4,2 C 16,1 km/h (3 Bft) 95,65 %
12.02.2018 11:40 1,1 C 4,4 C 94 % 1012,5 hPa 0,2 l/m 14,5 km/h (3 Bft) SW 229 0 min 0,000 mm 0,0 UV-I 145 W/m 0,2 C -5,4 C 20,9 km/h (4 Bft) 100,00 %
12.02.2018 11:41 1,1 C 4,4 C 94 % 1012,4 hPa 0,0 l/m 8,4 km/h (2 Bft) W-SW 255 0 min 0,000 mm 0,0 UV-I 142 W/m 0,2 C -0,9 C 12,9 km/h (3 Bft) 94,12 %
12.02.2018 11:42 1,2 C 4,4 C 94 % 1012,5 hPa 0,0 l/m 13,9 km/h (3 Bft) W-SW 237 0 min 0,000 mm 0,0 UV-I 139 W/m 0,3 C -4,9 C 19,3 km/h (3 Bft) 100,00 %
12.02.2018 11:43 1,2 C 4,4 C 93 % 1012,4 hPa 0,0 l/m 12,5 km/h (3 Bft) W-SW 258 0 min 0,000 mm 0,0 UV-I 137 W/m 0,2 C -4,0 C 16,1 km/h (3 Bft) 96,15 %
12.02.2018 11:44 1,2 C 4,4 C 94 % 1012,5 hPa 0,0 l/m 17,5 km/h (3 Bft) W 272 0 min 0,000 mm 0,0 UV-I 135 W/m 0,3 C -6,9 C 22,5 km/h (4 Bft) 100,00 %
12.02.2018 11:45 1,2 C 4,4 C 93 % 1012,4 hPa 0,0 l/m 16,8 km/h (3 Bft) W-SW 251 0 min 0,000 mm 0,0 UV-I 133 W/m 0,2 C -6,5 C 22,5 km/h (4 Bft) 96,15 %
12.02.2018 11:46 1,2 C 4,4 C 93 % 1012,4 hPa 0,0 l/m 11,4 km/h (2 Bft) W 260 0 min 0,000 mm 0,0 UV-I 133 W/m 0,2 C -3,2 C 16,1 km/h (3 Bft) 96,30 %
12.02.2018 11:47 1,2 C 4,4 C 93 % 1012,5 hPa 0,0 l/m 8,9 km/h (2 Bft) W-NW 282 0 min 0,000 mm 0,0 UV-I 140 W/m 0,2 C -1,2 C 11,3 km/h (2 Bft) 100,00 %
12.02.2018 11:48 1,3 C 4,4 C 93 % 1012,5 hPa 0,0 l/m 12,9 km/h (3 Bft) W-NW 287 0 min 0,000 mm 0,0 UV-I 148 W/m 0,3 C -4,1 C 19,3 km/h (3 Bft) 95,65 %
12.02.2018 11:49 1,3 C 4,4 C 93 % 1012,5 hPa 0,0 l/m 11,4 km/h (2 Bft) W 260 0 min 0,000 mm 0,5 UV-I 163 W/m 0,3 C -3,1 C 14,5 km/h (3 Bft) 100,00 %
12.02.2018 11:50 1,3 C 4,4 C 94 % 1012,5 hPa 0,0 l/m 13,9 km/h (3 Bft) W-SW 257 0 min 0,000 mm 0,5 UV-I 177 W/m 0,4 C -4,7 C 17,7 km/h (3 Bft) 91,30 %
12.02.2018 11:51 1,3 C 4,4 C 93 % 1012,5 hPa 0,0 l/m 13,7 km/h (3 Bft) NW 304 0 min 0,000 mm 0,5 UV-I 192 W/m 0,3 C -4,6 C 19,3 km/h (3 Bft) 100,00 %
12.02.2018 11:52 1,4 C 4,4 C 93 % 1012,6 hPa 0,0 l/m 10,9 km/h (2 Bft) W 261 0 min 0,000 mm 0,6 UV-I 202 W/m 0,4 C -2,6 C 12,9 km/h (3 Bft) 96,15 %
12.02.2018 11:53 1,4 C 4,4 C 93 % 1012,6 hPa 0,0 l/m 11,4 km/h (2 Bft) W-SW 255 0 min 0,000 mm 0,6 UV-I 210 W/m 0,4 C -3,0 C 14,5 km/h (3 Bft) 95,83 %
12.02.2018 11:54 1,4 C 4,4 C 93 % 1012,6 hPa 0,0 l/m 8,5 km/h (2 Bft) W-SW 254 0 min 0,000 mm 0,6 UV-I 213 W/m 0,4 C -0,6 C 12,9 km/h (3 Bft) 96,15 %
12.02.2018 11:55 1,5 C 4,4 C 93 % 1012,6 hPa 0,0 l/m 11,2 km/h (2 Bft) SW 232 0 min 0,000 mm 0,6 UV-I 211 W/m 0,5 C -2,7 C 14,5 km/h (3 Bft) 96,30 %
12.02.2018 11:56 1,5 C 4,4 C 93 % 1012,6 hPa 0,0 l/m 13,5 km/h (3 Bft) W-SW 238 0 min 0,000 mm 0,6 UV-I 207 W/m 0,5 C -4,3 C 19,3 km/h (3 Bft) 90,91 %
12.02.2018 11:57 1,6 C 4,4 C 93 % 1012,6 hPa 0,0 l/m 18,7 km/h (3 Bft) SW 234 0 min 0,000 mm 0,6 UV-I 206 W/m 0,6 C -7,0 C 25,7 km/h (4 Bft) 96,30 %
12.02.2018 11:58 1,6 C 4,4 C 92 % 1012,7 hPa 0,0 l/m 14,3 km/h (3 Bft) W-NW 287 0 min 0,000 mm 0,6 UV-I 207 W/m 0,4 C -4,6 C 22,5 km/h (4 Bft) 100,00 %
12.02.2018 11:59 1,6 C 4,4 C 92 % 1012,7 hPa 0,0 l/m 13,6 km/h (3 Bft) W 269 0 min 0,000 mm 0,6 UV-I 207 W/m 0,4 C -4,2 C 17,7 km/h (3 Bft) 91,67 %
12.02.2018 12:00 1,7 C 4,4 C 92 % 1012,7 hPa 0,0 l/m 7,8 km/h (2 Bft) N-NW 327 0 min 0,000 mm 0,6 UV-I 204 W/m 0,5 C 0,3 C 16,1 km/h (3 Bft) 100,00 %
12.02.2018 12:01 1,7 C 4,4 C 92 % 1012,7 hPa 0,0 l/m 11,7 km/h (2 Bft) W 271 0 min 0,050 mm 0,6 UV-I 204 W/m 0,5 C -2,8 C 17,7 km/h (3 Bft) 96,67 %
12.02.2018 12:02 1,7 C 4,4 C 92 % 1012,7 hPa 0,0 l/m 12,5 km/h (3 Bft) SW 234 0 min 0,000 mm 0,6 UV-I 204 W/m 0,5 C -3,4 C 14,5 km/h (3 Bft) 95,65 %
12.02.2018 12:03 1,8 C 4,4 C 92 % 1012,7 hPa 0,0 l/m 13,7 km/h (3 Bft) W-NW 282 0 min 0,000 mm 0,6 UV-I 198 W/m 0,6 C -4,0 C 20,9 km/h (4 Bft) 100,00 %
12.02.2018 12:04 1,7 C 4,4 C 92 % 1012,7 hPa 0,0 l/m 10,8 km/h (2 Bft) W 271 0 min 0,000 mm 0,6 UV-I 193 W/m 0,5 C -2,2 C 14,5 km/h (3 Bft) 95,65 %
12.02.2018 12:05 1,8 C 4,4 C 92 % 1012,8 hPa 0,0 l/m 10,9 km/h (2 Bft) W-NW 288 0 min 0,000 mm 0,5 UV-I 190 W/m 0,6 C -2,1 C 14,5 km/h (3 Bft) 100,00 %
12.02.2018 12:06 1,8 C 4,4 C 92 % 1012,8 hPa 0,0 l/m 8,6 km/h (2 Bft) W-SW 247 0 min 0,000 mm 0,5 UV-I 184 W/m 0,6 C -0,3 C 14,5 km/h (3 Bft) 95,65 %
12.02.2018 12:07 1,8 C 4,4 C 92 % 1012,8 hPa 0,0 l/m 14,1 km/h (3 Bft) W 270 0 min 0,000 mm 0,5 UV-I 171 W/m 0,6 C -4,3 C 20,9 km/h (4 Bft) 100,00 %
12.02.2018 12:08 1,8 C 4,4 C 92 % 1012,9 hPa 0,0 l/m 16,9 km/h (3 Bft) S-SW 207 0 min 0,000 mm 0,4 UV-I 154 W/m 0,6 C -5,8 C 20,9 km/h (4 Bft) 100,00 %
12.02.2018 12:09 1,8 C 4,4 C 91 % 1012,9 hPa 0,0 l/m 17,5 km/h (3 Bft) W 271 0 min 0,000 mm 0,0 UV-I 136 W/m 0,5 C -6,1 C 24,1 km/h (4 Bft) 100,00 %
12.02.2018 12:10 1,9 C 4,4 C 91 % 1012,9 hPa 0,0 l/m 8,7 km/h (2 Bft) W-SW 253 0 min 0,000 mm 0,0 UV-I 130 W/m 0,6 C -0,3 C 12,9 km/h (3 Bft) 100,00 %
12.02.2018 12:11 1,9 C 4,4 C 91 % 1012,9 hPa 0,0 l/m 11,2 km/h (2 Bft) W 278 0 min 0,000 mm 0,0 UV-I 120 W/m 0,6 C -2,3 C 16,1 km/h (3 Bft) 100,00 %
12.02.2018 12:12 1,9 C 4,4 C 91 % 1012,9 hPa 0,0 l/m 14,2 km/h (3 Bft) W 275 0 min 0,000 mm 0,0 UV-I 109 W/m 0,6 C -4,2 C 22,5 km/h (4 Bft) 96,30 %
12.02.2018 12:13 1,9 C 4,4 C 91 % 1012,9 hPa 0,0 l/m 11,6 km/h (2 Bft) W-SW 250 0 min 0,000 mm 0,0 UV-I 112 W/m 0,6 C -2,5 C 17,7 km/h (3 Bft) 100,00 %
12.02.2018 12:14 1,9 C 4,4 C 91 % 1012,9 hPa 0,0 l/m 11,1 km/h (2 Bft) W 260 0 min 0,000 mm 0,0 UV-I 123 W/m 0,6 C -2,2 C 14,5 km/h (3 Bft) 93,33 %
12.02.2018 12:15 1,9 C 4,4 C 91 % 1012,9 hPa 0,0 l/m 17,1 km/h (3 Bft) W 265 0 min 0,000 mm 0,0 UV-I 126 W/m 0,6 C -5,8 C 24,1 km/h (4 Bft) 95,65 %
12.02.2018 12:16 1,9 C 4,4 C 91 % 1012,9 hPa 0,0 l/m 14,8 km/h (3 Bft) W 269 0 min 0,000 mm 0,0 UV-I 116 W/m 0,6 C -4,6 C 19,3 km/h (3 Bft) 96,30 %
12.02.2018 12:17 1,9 C 4,4 C 91 % 1012,9 hPa 0,0 l/m 10,1 km/h (2 Bft) W-SW 248 0 min 0,000 mm 0,0 UV-I 113 W/m 0,6 C -1,4 C 16,1 km/h (3 Bft) 100,00 %
12.02.2018 12:18 1,9 C 4,4 C 91 % 1013,0 hPa 0,0 l/m 14,5 km/h (3 Bft) W-SW 258 0 min 0,000 mm 0,0 UV-I 134 W/m 0,6 C -4,4 C 17,7 km/h (3 Bft) 91,67 %
12.02.2018 12:19 1,9 C 4,4 C 91 % 1012,9 hPa 0,0 l/m 12,9 km/h (3 Bft) SW 227 0 min 0,000 mm 0,0 UV-I 134 W/m 0,6 C -3,4 C 24,1 km/h (4 Bft) 100,00 %
12.02.2018 12:20 1,9 C 4,4 C 91 % 1013,0 hPa 0,0 l/m 18,2 km/h (3 Bft) W 275 0 min 0,000 mm 0,0 UV-I 133 W/m 0,6 C -6,4 C 25,7 km/h (4 Bft) 95,83 %
12.02.2018 12:21 2,0 C 4,4 C 91 % 1013,0 hPa 0,0 l/m 13,5 km/h (3 Bft) W 265 0 min 0,000 mm 0,0 UV-I 129 W/m 0,7 C -3,7 C 17,7 km/h (3 Bft) 100,00 %
12.02.2018 12:22 2,0 C 4,4 C 90 % 1013,0 hPa 0,0 l/m 16,0 km/h (3 Bft) W 279 0 min 0,000 mm 0,0 UV-I 120 W/m 0,5 C -5,1 C 20,9 km/h (4 Bft) 95,83 %
12.02.2018 12:23 2,0 C 4,4 C 90 % 1013,0 hPa 0,0 l/m 9,1 km/h (2 Bft) W 263 0 min 0,000 mm 0,0 UV-I 123 W/m 0,5 C -0,5 C 12,9 km/h (3 Bft) 100,00 %
12.02.2018 12:24 2,0 C 4,4 C 90 % 1013,1 hPa 0,0 l/m 7,7 km/h (2 Bft) W 261 0 min 0,000 mm 0,0 UV-I 118 W/m 0,5 C 0,7 C 12,9 km/h (3 Bft) 96,43 %
12.02.2018 12:25 2,1 C 4,4 C 91 % 1013,1 hPa 0,0 l/m 9,1 km/h (2 Bft) W-SW 250 0 min 0,000 mm 0,0 UV-I 120 W/m 0,8 C -0,4 C 11,3 km/h (2 Bft) 96,55 %
12.02.2018 12:26 2,1 C 4,4 C 90 % 1013,1 hPa 0,0 l/m 13,3 km/h (3 Bft) W 263 0 min 0,000 mm 0,0 UV-I 134 W/m 0,6 C -3,4 C 17,7 km/h (3 Bft) 100,00 %
12.02.2018 12:27 2,1 C 4,4 C 90 % 1013,0 hPa 0,0 l/m 13,1 km/h (3 Bft) W-SW 242 0 min 0,000 mm 0,2 UV-I 144 W/m 0,6 C -3,3 C 20,9 km/h (4 Bft) 91,30 %
12.02.2018 12:28 2,1 C 4,4 C 90 % 1013,0 hPa 0,0 l/m 12,9 km/h (3 Bft) W-SW 251 0 min 0,000 mm 0,5 UV-I 162 W/m 0,6 C -3,2 C 17,7 km/h (3 Bft) 100,00 %
12.02.2018 12:29 2,2 C 4,4 C 90 % 1013,0 hPa 0,0 l/m 12,9 km/h (3 Bft) W-SW 258 0 min 0,000 mm 0,5 UV-I 174 W/m 0,7 C -3,1 C 17,7 km/h (3 Bft) 96,97 %
12.02.2018 12:30 2,2 C 4,4 C 90 % 1013,0 hPa 0,0 l/m 14,2 km/h (3 Bft) W 277 0 min 0,000 mm 0,5 UV-I 178 W/m 0,7 C -3,9 C 19,3 km/h (3 Bft) 100,00 %
12.02.2018 12:31 2,2 C 4,4 C 90 % 1013,1 hPa 0,0 l/m 15,7 km/h (3 Bft) W-SW 252 0 min 0,000 mm 0,5 UV-I 177 W/m 0,7 C -4,7 C 22,5 km/h (4 Bft) 95,83 %
12.02.2018 12:32 2,2 C 4,4 C 89 % 1013,0 hPa 0,0 l/m 18,5 km/h (3 Bft) W 270 0 min 0,000 mm 0,5 UV-I 184 W/m 0,6 C -6,1 C 24,1 km/h (4 Bft) 100,00 %
12.02.2018 12:33 2,2 C 4,4 C 88 % 1013,1 hPa 0,0 l/m 17,6 km/h (3 Bft) W-SW 246 0 min 0,000 mm 0,5 UV-I 193 W/m 0,4 C -5,7 C 20,9 km/h (4 Bft) 96,15 %
12.02.2018 12:34 2,2 C 4,4 C 88 % 1013,1 hPa 0,0 l/m 19,0 km/h (3 Bft) W 267 0 min 0,000 mm 0,5 UV-I 197 W/m 0,4 C -6,3 C 25,7 km/h (4 Bft) 95,65 %
12.02.2018 12:35 2,3 C 4,4 C 87 % 1013,1 hPa 0,0 l/m 12,6 km/h (3 Bft) NW 306 0 min 0,000 mm 0,5 UV-I 192 W/m 0,4 C -2,7 C 20,9 km/h (4 Bft) 96,30 %
12.02.2018 12:36 2,3 C 4,4 C 87 % 1013,2 hPa 0,0 l/m 16,5 km/h (3 Bft) W 267 0 min 0,000 mm 0,5 UV-I 188 W/m 0,4 C -5,0 C 19,3 km/h (3 Bft) 96,15 %
12.02.2018 12:37 2,3 C 4,4 C 87 % 1013,2 hPa 0,0 l/m 13,8 km/h (3 Bft) W-SW 252 0 min 0,000 mm 0,5 UV-I 182 W/m 0,4 C -3,5 C 19,3 km/h (3 Bft) 100,00 %
12.02.2018 12:38 2,3 C 4,4 C 88 % 1013,1 hPa 0,0 l/m 12,7 km/h (3 Bft) W-SW 257 0 min 0,000 mm 0,5 UV-I 172 W/m 0,5 C -2,8 C 19,3 km/h (3 Bft) 95,65 %
12.02.2018 12:39 2,3 C 4,4 C 88 % 1013,2 hPa 0,0 l/m 17,1 km/h (3 Bft) W 275 0 min 0,000 mm 0,5 UV-I 162 W/m 0,5 C -5,3 C 22,5 km/h (4 Bft) 100,00 %
12.02.2018 12:40 2,3 C 4,4 C 87 % 1013,2 hPa 0,0 l/m 10,1 km/h (2 Bft) SW 236 0 min 0,000 mm 0,2 UV-I 153 W/m 0,4 C -1,0 C 14,5 km/h (3 Bft) 96,15 %
12.02.2018 12:41 2,3 C 4,4 C 88 % 1013,2 hPa 0,0 l/m 15,4 km/h (3 Bft) W 281 0 min 0,000 mm 0,0 UV-I 139 W/m 0,5 C -4,4 C 20,9 km/h (4 Bft) 100,00 %
12.02.2018 12:42 2,3 C 4,4 C 87 % 1013,1 hPa 0,0 l/m 16,9 km/h (3 Bft) W-SW 257 0 min 0,000 mm 0,0 UV-I 134 W/m 0,4 C -5,2 C 24,1 km/h (4 Bft) 91,30 %
12.02.2018 12:43 2,3 C 4,4 C 87 % 1013,2 hPa 0,0 l/m 15,0 km/h (3 Bft) W-SW 250 0 min 0,000 mm 0,0 UV-I 143 W/m 0,4 C -4,2 C 22,5 km/h (4 Bft) 100,00 %
12.02.2018 12:44 2,3 C 4,4 C 87 % 1013,2 hPa 0,0 l/m 12,6 km/h (3 Bft) W 267 0 min 0,000 mm 0,0 UV-I 151 W/m 0,4 C -2,7 C 16,1 km/h (3 Bft) 91,67 %
12.02.2018 12:45 2,4 C 4,4 C 87 % 1013,2 hPa 0,0 l/m 15,4 km/h (3 Bft) W 273 0 min 0,000 mm 0,3 UV-I 161 W/m 0,5 C -4,3 C 20,9 km/h (4 Bft) 97,73 %
12.02.2018 12:46 2,4 C 4,4 C 87 % 1013,2 hPa 0,0 l/m 17,0 km/h (3 Bft) W-NW 298 0 min 0,000 mm 0,5 UV-I 170 W/m 0,5 C -5,1 C 22,5 km/h (4 Bft) 100,00 %
12.02.2018 12:47 2,4 C 4,4 C 87 % 1013,2 hPa 0,0 l/m 16,8 km/h (3 Bft) W 259 0 min 0,000 mm 0,5 UV-I 173 W/m 0,5 C -5,0 C 20,9 km/h (4 Bft) 95,83 %
12.02.2018 12:48 2,4 C 4,4 C 87 % 1013,2 hPa 0,0 l/m 18,4 km/h (3 Bft) W 259 0 min 0,000 mm 0,5 UV-I 178 W/m 0,5 C -5,8 C 22,5 km/h (4 Bft) 100,00 %
12.02.2018 12:49 2,4 C 4,4 C 87 % 1013,2 hPa 0,0 l/m 16,0 km/h (3 Bft) W-SW 238 0 min 0,000 mm 0,5 UV-I 171 W/m 0,5 C -4,6 C 24,1 km/h (4 Bft) 96,15 %
12.02.2018 12:50 2,4 C 4,4 C 87 % 1013,2 hPa 0,0 l/m 14,1 km/h (3 Bft) W-SW 248 0 min 0,000 mm 0,3 UV-I 160 W/m 0,5 C -3,6 C 17,7 km/h (3 Bft) 100,00 %
12.02.2018 12:51 2,4 C 4,4 C 87 % 1013,2 hPa 0,0 l/m 19,9 km/h (4 Bft) W-SW 239 0 min 0,000 mm 0,0 UV-I 152 W/m 0,5 C -6,5 C 25,7 km/h (4 Bft) 95,65 %
12.02.2018 12:52 2,4 C 4,4 C 86 % 1013,2 hPa 0,0 l/m 15,4 km/h (3 Bft) W 266 0 min 0,000 mm 0,0 UV-I 155 W/m 0,3 C -4,3 C 24,1 km/h (4 Bft) 100,00 %
12.02.2018 12:55 2,4 C 4,4 C 86 % 1013,2 hPa 0,0 l/m 17,7 km/h (3 Bft) W-SW 247 0 min 0,000 mm 0,2 UV-I 155 W/m 0,3 C -5,5 C 30,6 km/h (5 Bft) 100,00 %
12.02.2018 13:00 2,4 C 4,4 C 86 % 1013,2 hPa 0,0 l/m 14,5 km/h (3 Bft) W 270 0 min 0,076 mm 0,0 UV-I 143 W/m 0,3 C -3,8 C 24,1 km/h (4 Bft) 100,00 %
12.02.2018 13:05 2,4 C 4,4 C 86 % 1013,2 hPa 0,2 l/m 16,1 km/h (3 Bft) W-SW 247 0 min 0,000 mm 0,0 UV-I 137 W/m 0,3 C -4,7 C 27,4 km/h (4 Bft) 99,12 %
12.02.2018 13:10 2,3 C 4,4 C 87 % 1013,3 hPa 0,0 l/m 16,1 km/h (3 Bft) W-SW 247 0 min 0,000 mm 0,3 UV-I 162 W/m 0,4 C -4,8 C 27,4 km/h (4 Bft) 100,00 %
12.02.2018 13:15 2,4 C 4,4 C 87 % 1013,4 hPa 0,0 l/m 12,9 km/h (3 Bft) W-SW 247 0 min 0,000 mm 0,4 UV-I 167 W/m 0,5 C -2,8 C 20,9 km/h (4 Bft) 100,00 %
12.02.2018 13:20 2,3 C 4,4 C 88 % 1013,4 hPa 0,0 l/m 14,5 km/h (3 Bft) W-SW 247 0 min 0,000 mm 0,1 UV-I 137 W/m 0,5 C -3,9 C 25,7 km/h (4 Bft) 100,00 %
12.02.2018 13:25 2,1 C 4,4 C 89 % 1013,4 hPa 0,0 l/m 14,5 km/h (3 Bft) SW 225 0 min 0,000 mm 0,5 UV-I 178 W/m 0,5 C -4,2 C 25,7 km/h (4 Bft) 99,12 %
12.02.2018 13:30 2,0 C 4,4 C 89 % 1013,4 hPa 0,0 l/m 14,5 km/h (3 Bft) W-SW 247 0 min 0,000 mm 0,5 UV-I 184 W/m 0,4 C -4,3 C 22,5 km/h (4 Bft) 99,12 %
12.02.2018 13:35 2,1 C 4,4 C 90 % 1013,4 hPa 0,0 l/m 12,9 km/h (3 Bft) W-SW 247 0 min 0,000 mm 0,3 UV-I 171 W/m 0,6 C -3,2 C 20,9 km/h (4 Bft) 96,49 %
12.02.2018 13:37 2,2 C 4,4 C 89 % 1013,4 hPa 0,0 l/m 8,6 km/h (2 Bft) W-SW 253 0 min 0,001 mm 0,0 UV-I 147 W/m 0,6 C 0,1 C 12,9 km/h (3 Bft) 96,77 %
12.02.2018 13:38 2,2 C 4,4 C 89 % 1013,4 hPa 0,0 l/m 10,4 km/h (2 Bft) SW 217 0 min 0,000 mm 0,0 UV-I 145 W/m 0,6 C -1,3 C 12,9 km/h (3 Bft) 100,00 %
12.02.2018 13:39 2,3 C 4,4 C 88 % 1013,4 hPa 0,0 l/m 9,5 km/h (2 Bft) W-SW 253 0 min 0,000 mm 0,0 UV-I 139 W/m 0,5 C -0,5 C 12,9 km/h (3 Bft) 96,55 %
12.02.2018 13:40 2,3 C 4,4 C 88 % 1013,4 hPa 0,0 l/m 11,1 km/h (2 Bft) W 269 0 min 0,000 mm 0,0 UV-I 133 W/m 0,5 C -1,7 C 14,5 km/h (3 Bft) 96,30 %
12.02.2018 13:41 2,3 C 4,4 C 88 % 1013,4 hPa 0,0 l/m 9,2 km/h (2 Bft) W-SW 240 0 min 0,000 mm 0,0 UV-I 125 W/m 0,5 C -0,3 C 12,9 km/h (3 Bft) 91,30 %
12.02.2018 13:42 2,4 C 4,4 C 88 % 1013,4 hPa 0,0 l/m 11,6 km/h (2 Bft) W 263 0 min 0,000 mm 0,0 UV-I 118 W/m 0,6 C -2,0 C 14,5 km/h (3 Bft) 100,00 %
12.02.2018 13:43 2,4 C 4,4 C 87 % 1013,4 hPa 0,0 l/m 15,9 km/h (3 Bft) W 269 0 min 0,000 mm 0,0 UV-I 115 W/m 0,5 C -4,6 C 20,9 km/h (4 Bft) 93,10 %
12.02.2018 13:44 2,4 C 4,4 C 86 % 1013,4 hPa 0,0 l/m 13,8 km/h (3 Bft) W-SW 258 0 min 0,000 mm 0,0 UV-I 111 W/m 0,3 C -3,4 C 20,9 km/h (4 Bft) 96,30 %
12.02.2018 13:45 2,4 C 4,4 C 86 % 1013,4 hPa 0,0 l/m 12,7 km/h (3 Bft) W-SW 256 0 min 0,000 mm 0,0 UV-I 111 W/m 0,3 C -2,7 C 19,3 km/h (3 Bft) 100,00 %
12.02.2018 13:46 2,4 C 4,4 C 86 % 1013,4 hPa 0,0 l/m 12,1 km/h (2 Bft) W-SW 254 0 min 0,000 mm 0,0 UV-I 105 W/m 0,3 C -2,3 C 16,1 km/h (3 Bft) 96,30 %
12.02.2018 13:48 2,4 C 4,4 C 85 % 1013,4 hPa 0,0 l/m 11,7 km/h (2 Bft) W 275 0 min 0,000 mm 0,0 UV-I 119 W/m 0,1 C -2,0 C 17,7 km/h (3 Bft) 98,00 %
12.02.2018 13:49 2,5 C 4,4 C 85 % 1013,4 hPa 0,0 l/m 7,3 km/h (2 Bft) SW 228 0 min 0,000 mm 0,0 UV-I 144 W/m 0,2 C 1,6 C 11,3 km/h (2 Bft) 100,00 %
12.02.2018 13:50 2,5 C 4,4 C 84 % 1013,5 hPa 0,0 l/m 17,7 km/h (3 Bft) W 263 0 min 0,000 mm 0,0 UV-I 155 W/m 0,1 C -5,4 C 24,1 km/h (4 Bft) 96,15 %
12.02.2018 13:51 2,5 C 4,4 C 84 % 1013,4 hPa 0,0 l/m 15,3 km/h (3 Bft) W-SW 240 0 min 0,000 mm 0,0 UV-I 162 W/m 0,1 C -4,1 C 19,3 km/h (3 Bft) 100,00 %
12.02.2018 13:52 2,5 C 4,4 C 83 % 1013,4 hPa 0,0 l/m 12,3 km/h (3 Bft) S-SW 206 0 min 0,000 mm 0,0 UV-I 161 W/m -0,1 C -2,3 C 22,5 km/h (4 Bft) 95,65 %
12.02.2018 13:53 2,6 C 4,4 C 84 % 1013,4 hPa 0,0 l/m 15,0 km/h (3 Bft) W-NW 294 0 min 0,000 mm 0,0 UV-I 157 W/m 0,2 C -3,8 C 24,1 km/h (4 Bft) 100,00 %
12.02.2018 13:54 2,6 C 4,4 C 83 % 1013,4 hPa 0,0 l/m 18,7 km/h (3 Bft) W-SW 251 0 min 0,000 mm 0,0 UV-I 154 W/m 0,0 C -5,7 C 22,5 km/h (4 Bft) 92,31 %
12.02.2018 13:55 2,6 C 4,4 C 83 % 1013,4 hPa 0,0 l/m 16,1 km/h (3 Bft) W-SW 240 0 min 0,000 mm 0,0 UV-I 155 W/m 0,0 C -4,4 C 20,9 km/h (4 Bft) 96,30 %
12.02.2018 13:56 2,6 C 4,4 C 83 % 1013,4 hPa 0,0 l/m 15,4 km/h (3 Bft) W-SW 249 0 min 0,000 mm 0,0 UV-I 159 W/m 0,0 C -4,1 C 20,9 km/h (4 Bft) 92,31 %
12.02.2018 13:57 2,6 C 4,4 C 82 % 1013,5 hPa 0,0 l/m 16,9 km/h (3 Bft) W 261 0 min 0,000 mm 0,0 UV-I 160 W/m -0,2 C -4,8 C 24,1 km/h (4 Bft) 100,00 %
12.02.2018 13:58 2,6 C 4,4 C 82 % 1013,4 hPa 0,0 l/m 22,5 km/h (4 Bft) W 274 0 min 0,000 mm 0,0 UV-I 157 W/m -0,2 C -7,3 C 33,8 km/h (5 Bft) 97,56 %
12.02.2018 13:59 2,6 C 4,4 C 82 % 1013,5 hPa 0,0 l/m 16,2 km/h (3 Bft) W 263 0 min 0,000 mm 0,0 UV-I 152 W/m -0,2 C -4,5 C 22,5 km/h (4 Bft) 91,67 %
12.02.2018 14:00 2,6 C 4,4 C 81 % 1013,5 hPa 0,0 l/m 15,6 km/h (3 Bft) W 264 0 min 0,000 mm 0,0 UV-I 147 W/m -0,3 C -4,2 C 20,9 km/h (4 Bft) 100,00 %
12.02.2018 14:01 2,6 C 4,4 C 81 % 1013,5 hPa 0,0 l/m 15,7 km/h (3 Bft) W-SW 257 0 min 0,076 mm 0,0 UV-I 141 W/m -0,3 C -4,2 C 22,5 km/h (4 Bft) 96,67 %
12.02.2018 14:02 2,6 C 4,4 C 81 % 1013,5 hPa 0,0 l/m 12,2 km/h (2 Bft) NW 324 0 min 0,000 mm 0,0 UV-I 138 W/m -0,3 C -2,1 C 19,3 km/h (3 Bft) 100,00 %
12.02.2018 14:03 2,6 C 4,4 C 82 % 1013,5 hPa 0,0 l/m 9,2 km/h (2 Bft) W-SW 246 0 min 0,000 mm 0,0 UV-I 147 W/m -0,2 C 0,1 C 12,9 km/h (3 Bft) 97,14 %
12.02.2018 14:04 2,6 C 4,4 C 82 % 1013,5 hPa 0,0 l/m 8,7 km/h (2 Bft) W-SW 258 0 min 0,000 mm 0,0 UV-I 155 W/m -0,2 C 0,5 C 11,3 km/h (2 Bft) 95,65 %
12.02.2018 14:05 2,6 C 4,4 C 82 % 1013,5 hPa 0,0 l/m 11,0 km/h (2 Bft) W 261 0 min 0,000 mm 0,0 UV-I 156 W/m -0,2 C -1,3 C 16,1 km/h (3 Bft) 100,00 %
12.02.2018 14:06 2,6 C 4,4 C 83 % 1013,5 hPa 0,0 l/m 11,1 km/h (2 Bft) W-SW 242 0 min 0,000 mm 0,0 UV-I 156 W/m 0,0 C -1,4 C 14,5 km/h (3 Bft) 93,33 %
12.02.2018 14:07 2,7 C 4,4 C 83 % 1013,6 hPa 0,0 l/m 10,7 km/h (2 Bft) W-SW 246 0 min 0,000 mm 0,0 UV-I 157 W/m 0,1 C -1,0 C 12,9 km/h (3 Bft) 100,00 %
12.02.2018 14:08 2,7 C 4,4 C 82 % 1013,6 hPa 0,0 l/m 8,4 km/h (2 Bft) W 261 0 min 0,000 mm 0,0 UV-I 158 W/m -0,1 C 0,8 C 12,9 km/h (3 Bft) 100,00 %
12.02.2018 14:09 2,7 C 4,4 C 82 % 1013,5 hPa 0,0 l/m 10,3 km/h (2 Bft) W 272 0 min 0,000 mm 0,0 UV-I 162 W/m -0,1 C -0,7 C 16,1 km/h (3 Bft) 100,00 %
12.02.2018 14:10 2,7 C 4,4 C 82 % 1013,6 hPa 0,0 l/m 12,3 km/h (3 Bft) W-SW 252 0 min 0,000 mm 0,0 UV-I 163 W/m -0,1 C -2,1 C 19,3 km/h (3 Bft) 100,00 %
12.02.2018 14:11 2,7 C 4,4 C 82 % 1013,5 hPa 0,0 l/m 9,5 km/h (2 Bft) SW 229 0 min 0,000 mm 0,0 UV-I 162 W/m -0,1 C -0,1 C 16,1 km/h (3 Bft) 96,15 %
12.02.2018 14:12 2,7 C 4,4 C 82 % 1013,6 hPa 0,0 l/m 13,3 km/h (3 Bft) W 281 0 min 0,000 mm 0,0 UV-I 159 W/m -0,1 C -2,7 C 17,7 km/h (3 Bft) 100,00 %
12.02.2018 14:13 2,7 C 4,4 C 82 % 1013,6 hPa 0,0 l/m 9,1 km/h (2 Bft) W-SW 252 0 min 0,000 mm 0,0 UV-I 154 W/m -0,1 C 0,2 C 12,9 km/h (3 Bft) 100,00 %
12.02.2018 14:14 2,7 C 4,4 C 82 % 1013,6 hPa 0,0 l/m 13,2 km/h (3 Bft) W 267 0 min 0,000 mm 0,0 UV-I 150 W/m -0,1 C -2,7 C 20,9 km/h (4 Bft) 100,00 %
12.02.2018 14:15 2,7 C 4,4 C 81 % 1013,6 hPa 0,0 l/m 16,8 km/h (3 Bft) W-SW 256 0 min 0,000 mm 0,0 UV-I 149 W/m -0,2 C -4,7 C 19,3 km/h (3 Bft) 100,00 %
12.02.2018 14:16 2,7 C 4,4 C 81 % 1013,6 hPa 0,0 l/m 19,5 km/h (3 Bft) W 261 0 min 0,000 mm 0,0 UV-I 144 W/m -0,2 C -5,9 C 27,4 km/h (4 Bft) 100,00 %
12.02.2018 14:17 2,6 C 4,4 C 80 % 1013,6 hPa 0,0 l/m 19,3 km/h (3 Bft) W 267 0 min 0,000 mm 0,0 UV-I 136 W/m -0,5 C -6,0 C 24,1 km/h (4 Bft) 100,00 %
12.02.2018 14:18 2,6 C 4,4 C 80 % 1013,7 hPa 0,0 l/m 19,4 km/h (3 Bft) SW 235 0 min 0,000 mm 0,0 UV-I 124 W/m -0,5 C -6,0 C 25,7 km/h (4 Bft) 100,00 %
12.02.2018 14:19 2,6 C 4,4 C 80 % 1013,6 hPa 0,0 l/m 18,5 km/h (3 Bft) W-SW 241 0 min 0,000 mm 0,0 UV-I 115 W/m -0,5 C -5,6 C 24,1 km/h (4 Bft) 96,15 %
12.02.2018 14:20 2,6 C 4,4 C 80 % 1013,6 hPa 0,0 l/m 14,3 km/h (3 Bft) W-SW 250 0 min 0,000 mm 0,0 UV-I 105 W/m -0,5 C -3,4 C 17,7 km/h (3 Bft) 100,00 %
12.02.2018 14:21 2,6 C 4,4 C 80 % 1013,7 hPa 0,0 l/m 18,2 km/h (3 Bft) W 262 0 min 0,000 mm 0,0 UV-I 96 W/m -0,5 C -5,5 C 24,1 km/h (4 Bft) 100,00 %
12.02.2018 14:22 2,5 C 4,4 C 80 % 1013,7 hPa 0,0 l/m 14,9 km/h (3 Bft) W 259 0 min 0,000 mm 0,0 UV-I 91 W/m -0,6 C -3,9 C 19,3 km/h (3 Bft) 100,00 %
12.02.2018 14:23 2,5 C 4,4 C 80 % 1013,7 hPa 0,0 l/m 18,5 km/h (3 Bft) W-SW 251 0 min 0,000 mm 0,0 UV-I 92 W/m -0,6 C -5,7 C 22,5 km/h (4 Bft) 100,00 %
12.02.2018 14:24 2,4 C 4,4 C 80 % 1013,7 hPa 0,0 l/m 20,0 km/h (4 Bft) W 260 0 min 0,000 mm 0,0 UV-I 93 W/m -0,7 C -6,5 C 24,1 km/h (4 Bft) 100,00 %
12.02.2018 14:25 2,4 C 4,4 C 80 % 1013,7 hPa 0,0 l/m 17,4 km/h (3 Bft) W-SW 254 0 min 0,000 mm 0,0 UV-I 96 W/m -0,7 C -5,3 C 24,1 km/h (4 Bft) 100,00 %
12.02.2018 14:26 2,4 C 4,4 C 80 % 1013,7 hPa 0,0 l/m 20,0 km/h (4 Bft) W-SW 240 0 min 0,000 mm 0,0 UV-I 100 W/m -0,7 C -6,5 C 29,0 km/h (5 Bft) 95,83 %
12.02.2018 14:27 2,4 C 4,4 C 80 % 1013,7 hPa 0,0 l/m 18,2 km/h (3 Bft) W-SW 247 0 min 0,000 mm 0,0 UV-I 104 W/m -0,7 C -5,7 C 25,7 km/h (4 Bft) 100,00 %
12.02.2018 14:28 2,4 C 4,4 C 80 % 1013,7 hPa 0,0 l/m 10,5 km/h (2 Bft) W-SW 255 0 min 0,000 mm 0,0 UV-I 108 W/m -0,7 C -1,2 C 16,1 km/h (3 Bft) 100,00 %
12.02.2018 14:29 2,4 C 4,4 C 80 % 1013,7 hPa 0,0 l/m 10,0 km/h (2 Bft) W 260 0 min 0,000 mm 0,0 UV-I 114 W/m -0,7 C -0,8 C 16,1 km/h (3 Bft) 100,00 %
12.02.2018 14:30 2,4 C 4,4 C 81 % 1013,7 hPa 0,0 l/m 14,8 km/h (3 Bft) W-SW 257 0 min 0,000 mm 0,0 UV-I 117 W/m -0,5 C -4,0 C 22,5 km/h (4 Bft) 100,00 %
12.02.2018 14:31 2,4 C 4,4 C 80 % 1013,7 hPa 0,0 l/m 16,7 km/h (3 Bft) W-SW 246 0 min 0,000 mm 0,0 UV-I 121 W/m -0,7 C -5,0 C 20,9 km/h (4 Bft) 100,00 %
12.02.2018 14:32 2,4 C 4,4 C 80 % 1013,7 hPa 0,0 l/m 15,1 km/h (3 Bft) W-SW 250 0 min 0,000 mm 0,0 UV-I 132 W/m -0,7 C -4,1 C 20,9 km/h (4 Bft) 97,14 %
12.02.2018 14:33 2,4 C 4,4 C 80 % 1013,7 hPa 0,0 l/m 15,2 km/h (3 Bft) W-SW 250 0 min 0,000 mm 0,0 UV-I 147 W/m -0,7 C -4,2 C 22,5 km/h (4 Bft) 100,00 %
12.02.2018 14:34 2,4 C 4,4 C 80 % 1013,7 hPa 0,0 l/m 16,4 km/h (3 Bft) W-SW 253 0 min 0,000 mm 0,0 UV-I 158 W/m -0,7 C -4,8 C 20,9 km/h (4 Bft) 100,00 %
12.02.2018 14:35 2,5 C 4,4 C 80 % 1013,7 hPa 0,0 l/m 19,0 km/h (3 Bft) W-SW 254 0 min 0,000 mm 0,0 UV-I 163 W/m -0,6 C -6,0 C 24,1 km/h (4 Bft) 94,74 %
12.02.2018 14:36 2,5 C 4,4 C 80 % 1013,6 hPa 0,0 l/m 14,4 km/h (3 Bft) W-SW 252 0 min 0,000 mm 0,0 UV-I 161 W/m -0,6 C -3,6 C 19,3 km/h (3 Bft) 96,15 %
12.02.2018 14:37 2,5 C 4,4 C 80 % 1013,7 hPa 0,0 l/m 11,6 km/h (2 Bft) W-SW 258 0 min 0,000 mm 0,0 UV-I 162 W/m -0,6 C -1,9 C 16,1 km/h (3 Bft) 100,00 %
12.02.2018 14:38 2,5 C 4,4 C 80 % 1013,7 hPa 0,0 l/m 14,3 km/h (3 Bft) W-SW 246 0 min 0,000 mm 0,0 UV-I 140 W/m -0,6 C -3,6 C 19,3 km/h (3 Bft) 96,15 %
12.02.2018 14:39 2,5 C 4,4 C 80 % 1013,6 hPa 0,0 l/m 12,2 km/h (2 Bft) SW 235 0 min 0,000 mm 0,0 UV-I 127 W/m -0,6 C -2,3 C 19,3 km/h (3 Bft) 100,00 %
12.02.2018 14:40 2,5 C 4,4 C 80 % 1013,7 hPa 0,0 l/m 13,9 km/h (3 Bft) SW 234 0 min 0,000 mm 0,0 UV-I 122 W/m -0,6 C -3,3 C 17,7 km/h (3 Bft) 95,65 %
12.02.2018 14:41 2,6 C 4,4 C 80 % 1013,6 hPa 0,0 l/m 12,3 km/h (3 Bft) W-SW 242 0 min 0,000 mm 0,0 UV-I 116 W/m -0,5 C -2,2 C 19,3 km/h (3 Bft) 100,00 %
12.02.2018 14:42 2,6 C 4,4 C 80 % 1013,6 hPa 0,0 l/m 17,7 km/h (3 Bft) W 267 0 min 0,000 mm 0,0 UV-I 119 W/m -0,5 C -5,2 C 24,1 km/h (4 Bft) 100,00 %
12.02.2018 14:43 2,5 C 4,4 C 80 % 1013,7 hPa 0,0 l/m 18,1 km/h (3 Bft) SW 229 0 min 0,000 mm 0,0 UV-I 125 W/m -0,6 C -5,5 C 22,5 km/h (4 Bft) 100,00 %
12.02.2018 14:44 2,5 C 4,4 C 80 % 1013,7 hPa 0,0 l/m 15,2 km/h (3 Bft) SW 222 0 min 0,000 mm 0,0 UV-I 138 W/m -0,6 C -4,1 C 19,3 km/h (3 Bft) 100,00 %
12.02.2018 14:45 2,5 C 4,4 C 80 % 1013,7 hPa 0,0 l/m 14,0 km/h (3 Bft) W-SW 252 0 min 0,000 mm 0,0 UV-I 156 W/m -0,6 C -3,4 C 19,3 km/h (3 Bft) 100,00 %
12.02.2018 14:46 2,5 C 4,4 C 80 % 1013,7 hPa 0,0 l/m 11,2 km/h (2 Bft) W 277 0 min 0,000 mm 0,0 UV-I 168 W/m -0,6 C -1,6 C 14,5 km/h (3 Bft) 100,00 %
12.02.2018 14:47 2,6 C 4,4 C 80 % 1013,7 hPa 0,0 l/m 11,8 km/h (2 Bft) W-SW 255 0 min 0,000 mm 0,0 UV-I 177 W/m -0,5 C -1,9 C 14,5 km/h (3 Bft) 100,00 %
12.02.2018 14:48 2,6 C 4,4 C 80 % 1013,7 hPa 0,0 l/m 21,8 km/h (4 Bft) W 264 0 min 0,000 mm 0,0 UV-I 178 W/m -0,5 C -7,0 C 25,7 km/h (4 Bft) 100,00 %
12.02.2018 14:49 2,6 C 4,4 C 80 % 1013,7 hPa 0,0 l/m 12,6 km/h (3 Bft) W-SW 252 0 min 0,000 mm 0,0 UV-I 179 W/m -0,5 C -2,4 C 17,7 km/h (3 Bft) 100,00 %
12.02.2018 14:50 2,6 C 4,4 C 80 % 1013,7 hPa 0,0 l/m 7,6 km/h (2 Bft) W-SW 244 0 min 0,000 mm 0,0 UV-I 179 W/m -0,5 C 1,5 C 11,3 km/h (2 Bft) 100,00 %
12.02.2018 14:51 2,6 C 4,4 C 80 % 1013,8 hPa 0,0 l/m 7,4 km/h (2 Bft) W-SW 245 0 min 0,000 mm 0,0 UV-I 177 W/m -0,5 C 1,6 C 8,0 km/h (2 Bft) 100,00 %
12.02.2018 14:52 2,6 C 4,4 C 80 % 1013,8 hPa 0,0 l/m 13,5 km/h (3 Bft) W-SW 257 0 min 0,000 mm 0,0 UV-I 173 W/m -0,5 C -3,0 C 22,5 km/h (4 Bft) 95,83 %
12.02.2018 14:53 2,6 C 4,4 C 79 % 1013,8 hPa 0,0 l/m 14,1 km/h (3 Bft) SW 236 0 min 0,000 mm 0,0 UV-I 165 W/m -0,7 C -3,3 C 22,5 km/h (4 Bft) 95,65 %
12.02.2018 14:54 2,6 C 4,4 C 80 % 1013,8 hPa 0,0 l/m 12,6 km/h (3 Bft) W 261 0 min 0,000 mm 0,0 UV-I 160 W/m -0,5 C -2,4 C 19,3 km/h (3 Bft) 100,00 %
12.02.2018 14:55 2,6 C 4,4 C 79 % 1013,8 hPa 0,0 l/m 12,9 km/h (3 Bft) W-SW 245 0 min 0,000 mm 0,0 UV-I 155 W/m -0,7 C -2,6 C 17,7 km/h (3 Bft) 100,00 %
12.02.2018 14:56 2,6 C 4,4 C 79 % 1013,8 hPa 0,0 l/m 12,4 km/h (3 Bft) W 273 0 min 0,000 mm 0,0 UV-I 155 W/m -0,7 C -2,3 C 17,7 km/h (3 Bft) 100,00 %
12.02.2018 14:57 2,6 C 4,4 C 80 % 1013,7 hPa 0,0 l/m 18,0 km/h (3 Bft) W-SW 258 0 min 0,000 mm 0,0 UV-I 154 W/m -0,5 C -5,4 C 24,1 km/h (4 Bft) 100,00 %
12.02.2018 14:58 2,6 C 4,4 C 79 % 1013,8 hPa 0,0 l/m 16,3 km/h (3 Bft) W-SW 250 0 min 0,000 mm 0,0 UV-I 153 W/m -0,7 C -4,5 C 20,9 km/h (4 Bft) 100,00 %
12.02.2018 14:59 2,6 C 4,4 C 79 % 1013,8 hPa 0,0 l/m 9,5 km/h (2 Bft) W-SW 249 0 min 0,000 mm 0,0 UV-I 152 W/m -0,7 C -0,2 C 12,9 km/h (3 Bft) 100,00 %
12.02.2018 15:00 2,6 C 4,4 C 80 % 1013,7 hPa 0,0 l/m 14,8 km/h (3 Bft) W-SW 258 0 min 0,000 mm 0,0 UV-I 150 W/m -0,5 C -3,7 C 20,9 km/h (4 Bft) 96,15 %
12.02.2018 15:01 2,6 C 4,4 C 79 % 1013,8 hPa 0,0 l/m 13,3 km/h (3 Bft) W 260 0 min 0,000 mm 0,0 UV-I 149 W/m -0,7 C -2,8 C 19,3 km/h (3 Bft) 100,00 %
12.02.2018 15:02 2,6 C 4,4 C 79 % 1013,8 hPa 0,0 l/m 19,6 km/h (3 Bft) W-SW 255 0 min 0,000 mm 0,0 UV-I 145 W/m -0,7 C -6,1 C 22,5 km/h (4 Bft) 100,00 %
12.02.2018 15:03 2,6 C 4,4 C 79 % 1013,8 hPa 0,0 l/m 12,5 km/h (3 Bft) W-SW 238 0 min 0,000 mm 0,0 UV-I 140 W/m -0,7 C -2,3 C 17,7 km/h (3 Bft) 100,00 %
12.02.2018 15:04 2,6 C 4,4 C 79 % 1013,8 hPa 0,0 l/m 14,8 km/h (3 Bft) W-SW 248 0 min 0,000 mm 0,0 UV-I 130 W/m -0,7 C -3,7 C 19,3 km/h (3 Bft) 100,00 %
12.02.2018 15:05 2,6 C 4,4 C 79 % 1013,8 hPa 0,0 l/m 11,9 km/h (2 Bft) W-SW 258 0 min 0,000 mm 0,0 UV-I 133 W/m -0,7 C -1,9 C 16,1 km/h (3 Bft) 100,00 %
12.02.2018 15:06 2,6 C 4,4 C 79 % 1013,8 hPa 0,0 l/m 15,0 km/h (3 Bft) W 277 0 min 0,000 mm 0,0 UV-I 132 W/m -0,7 C -3,8 C 30,6 km/h (5 Bft) 100,00 %
12.02.2018 15:07 2,6 C 4,4 C 79 % 1013,7 hPa 0,0 l/m 14,5 km/h (3 Bft) SW 225 0 min 0,000 mm 0,0 UV-I 122 W/m -0,7 C -3,5 C 24,1 km/h (4 Bft) 100,00 %
12.02.2018 15:08 2,6 C 4,4 C 79 % 1013,8 hPa 0,0 l/m 13,3 km/h (3 Bft) W-SW 250 0 min 0,000 mm 0,0 UV-I 121 W/m -0,7 C -2,8 C 19,3 km/h (3 Bft) 96,15 %
12.02.2018 15:09 2,5 C 4,4 C 79 % 1013,8 hPa 0,0 l/m 11,0 km/h (2 Bft) W-SW 256 0 min 0,000 mm 0,0 UV-I 120 W/m -0,8 C -1,4 C 16,1 km/h (3 Bft) 100,00 %
12.02.2018 15:10 2,6 C 4,4 C 79 % 1013,8 hPa 0,0 l/m 15,4 km/h (3 Bft) W 273 0 min 0,000 mm 0,0 UV-I 112 W/m -0,7 C -4,1 C 22,5 km/h (4 Bft) 100,00 %
12.02.2018 15:11 2,5 C 4,4 C 79 % 1013,7 hPa 0,0 l/m 14,4 km/h (3 Bft) W 259 0 min 0,000 mm 0,0 UV-I 124 W/m -0,8 C -3,6 C 19,3 km/h (3 Bft) 100,00 %
12.02.2018 15:12 2,5 C 4,4 C 79 % 1013,7 hPa 0,0 l/m 13,8 km/h (3 Bft) W 267 0 min 0,000 mm 0,0 UV-I 120 W/m -0,8 C -3,3 C 20,9 km/h (4 Bft) 100,00 %
12.02.2018 15:13 2,5 C 4,4 C 79 % 1013,8 hPa 0,0 l/m 10,7 km/h (2 Bft) W-SW 246 0 min 0,000 mm 0,0 UV-I 115 W/m -0,8 C -1,2 C 16,1 km/h (3 Bft) 100,00 %
12.02.2018 15:14 2,5 C 4,4 C 79 % 1013,7 hPa 0,0 l/m 11,1 km/h (2 Bft) W 279 0 min 0,000 mm 0,0 UV-I 115 W/m -0,8 C -1,5 C 14,5 km/h (3 Bft) 100,00 %
12.02.2018 15:15 2,5 C 4,4 C 79 % 1013,7 hPa 0,0 l/m 9,1 km/h (2 Bft) W-NW 282 0 min 0,000 mm 0,0 UV-I 117 W/m -0,8 C 0,0 C 12,9 km/h (3 Bft) 100,00 %
12.02.2018 15:16 2,5 C 4,4 C 79 % 1013,7 hPa 0,0 l/m 6,0 km/h (2 Bft) W 262 0 min 0,000 mm 0,0 UV-I 111 W/m -0,8 C 2,5 C 9,7 km/h (2 Bft) 100,00 %
12.02.2018 15:17 2,6 C 4,4 C 80 % 1013,7 hPa 0,0 l/m 8,8 km/h (2 Bft) W-SW 252 0 min 0,000 mm 0,0 UV-I 111 W/m -0,5 C 0,4 C 11,3 km/h (2 Bft) 96,67 %
12.02.2018 15:18 2,6 C 4,4 C 80 % 1013,7 hPa 0,0 l/m 8,1 km/h (2 Bft) W-SW 238 0 min 0,000 mm 0,0 UV-I 111 W/m -0,5 C 1,0 C 12,9 km/h (3 Bft) 97,98 %
12.02.2018 15:19 2,6 C 4,4 C 80 % 1013,7 hPa 0,0 l/m 12,8 km/h (3 Bft) W 260 0 min 0,000 mm 0,0 UV-I 108 W/m -0,5 C -2,5 C 17,7 km/h (3 Bft) 95,45 %
12.02.2018 15:20 2,6 C 4,4 C 80 % 1013,7 hPa 0,0 l/m 9,4 km/h (2 Bft) W-SW 239 0 min 0,000 mm 0,0 UV-I 107 W/m -0,5 C -0,1 C 14,5 km/h (3 Bft) 100,00 %
12.02.2018 15:21 2,6 C 4,4 C 80 % 1013,7 hPa 0,0 l/m 11,2 km/h (2 Bft) W 261 0 min 0,000 mm 0,0 UV-I 105 W/m -0,5 C -1,5 C 16,1 km/h (3 Bft) 100,00 %
12.02.2018 15:22 2,6 C 4,4 C 80 % 1013,7 hPa 0,0 l/m 11,0 km/h (2 Bft) W 259 0 min 0,000 mm 0,0 UV-I 111 W/m -0,5 C -1,3 C 14,5 km/h (3 Bft) 100,00 %
12.02.2018 15:23 2,6 C 4,4 C 80 % 1013,8 hPa 0,0 l/m 15,0 km/h (3 Bft) W-SW 255 0 min 0,000 mm 0,0 UV-I 111 W/m -0,5 C -3,8 C 17,7 km/h (3 Bft) 100,00 %
12.02.2018 15:24 2,6 C 4,4 C 80 % 1013,8 hPa 0,0 l/m 9,8 km/h (2 Bft) W-SW 244 0 min 0,000 mm 0,0 UV-I 111 W/m -0,5 C -0,4 C 14,5 km/h (3 Bft) 96,55 %
12.02.2018 15:25 2,6 C 4,4 C 80 % 1013,7 hPa 0,0 l/m 9,5 km/h (2 Bft) W 271 0 min 0,000 mm 0,0 UV-I 111 W/m -0,5 C -0,2 C 16,1 km/h (3 Bft) 100,00 %
12.02.2018 15:26 2,6 C 4,4 C 80 % 1013,8 hPa 0,0 l/m 13,2 km/h (3 Bft) W-NW 289 0 min 0,000 mm 0,0 UV-I 111 W/m -0,5 C -2,8 C 19,3 km/h (3 Bft) 100,00 %
12.02.2018 15:27 2,6 C 4,4 C 80 % 1013,8 hPa 0,0 l/m 10,9 km/h (2 Bft) W 259 0 min 0,000 mm 0,0 UV-I 126 W/m -0,5 C -1,2 C 17,7 km/h (3 Bft) 100,00 %
12.02.2018 15:28 2,6 C 4,4 C 79 % 1013,8 hPa 0,0 l/m 8,9 km/h (2 Bft) W 259 1 min 0,000 mm 0,0 UV-I 187 W/m -0,7 C 0,3 C 12,9 km/h (3 Bft) 100,00 %
12.02.2018 15:29 2,6 C 4,4 C 79 % 1013,8 hPa 0,0 l/m 11,0 km/h (2 Bft) W 262 0 min 0,000 mm 0,0 UV-I 111 W/m -0,7 C -1,3 C 16,1 km/h (3 Bft) 100,00 %
12.02.2018 15:30 2,6 C 4,4 C 80 % 1013,8 hPa 0,0 l/m 6,9 km/h (2 Bft) W-NW 282 0 min 0,000 mm 0,0 UV-I 110 W/m -0,5 C 2,1 C 12,9 km/h (3 Bft) 96,30 %
12.02.2018 15:31 2,6 C 4,4 C 80 % 1013,9 hPa 0,0 l/m 7,5 km/h (2 Bft) W-SW 254 0 min 0,000 mm 0,0 UV-I 105 W/m -0,5 C 1,5 C 11,3 km/h (2 Bft) 100,00 %
12.02.2018 15:32 2,6 C 4,4 C 80 % 1013,8 hPa 0,0 l/m 13,9 km/h (3 Bft) W-SW 244 0 min 0,000 mm 0,0 UV-I 106 W/m -0,5 C -3,2 C 16,1 km/h (3 Bft) 100,00 %
12.02.2018 15:33 2,5 C 4,4 C 80 % 1013,8 hPa 0,0 l/m 10,0 km/h (2 Bft) W 269 0 min 0,000 mm 0,0 UV-I 106 W/m -0,6 C -0,7 C 12,9 km/h (3 Bft) 96,15 %
12.02.2018 15:34 2,5 C 4,4 C 80 % 1013,8 hPa 0,0 l/m 7,0 km/h (2 Bft) W-SW 242 0 min 0,000 mm 0,0 UV-I 108 W/m -0,6 C 1,9 C 11,3 km/h (2 Bft) 96,30 %
12.02.2018 15:35 2,5 C 4,4 C 80 % 1013,9 hPa 0,0 l/m 8,6 km/h (2 Bft) W-SW 242 0 min 0,000 mm 0,0 UV-I 100 W/m -0,6 C 0,4 C 14,5 km/h (3 Bft) 100,00 %
12.02.2018 15:36 2,5 C 4,4 C 80 % 1013,9 hPa 0,0 l/m 6,2 km/h (2 Bft) W-SW 254 0 min 0,000 mm 0,0 UV-I 100 W/m -0,6 C 2,5 C 8,0 km/h (2 Bft) 91,67 %
12.02.2018 15:37 2,5 C 4,4 C 81 % 1014,0 hPa 0,0 l/m 8,3 km/h (2 Bft) W 259 1 min 0,000 mm 0,0 UV-I 172 W/m -0,4 C 0,7 C 11,3 km/h (2 Bft) 100,00 %
12.02.2018 15:38 2,5 C 4,4 C 81 % 1014,0 hPa 0,0 l/m 13,2 km/h (3 Bft) W 262 1 min 0,000 mm 0,0 UV-I 172 W/m -0,4 C -2,9 C 17,7 km/h (3 Bft) 92,86 %
12.02.2018 15:39 2,5 C 4,4 C 80 % 1014,0 hPa 0,0 l/m 9,3 km/h (2 Bft) W 264 1 min 0,000 mm 0,0 UV-I 172 W/m -0,6 C -0,1 C 12,9 km/h (3 Bft) 95,12 %
12.02.2018 15:40 2,5 C 4,4 C 80 % 1014,0 hPa 0,0 l/m 13,3 km/h (3 Bft) W 277 1 min 0,000 mm 0,0 UV-I 172 W/m -0,6 C -3,0 C 16,1 km/h (3 Bft) 100,00 %
12.02.2018 15:41 2,5 C 4,4 C 80 % 1014,0 hPa 0,0 l/m 10,6 km/h (2 Bft) W-SW 257 1 min 0,000 mm 0,0 UV-I 172 W/m -0,6 C -1,1 C 16,1 km/h (3 Bft) 95,65 %
12.02.2018 15:42 2,5 C 4,4 C 80 % 1014,0 hPa 0,0 l/m 7,5 km/h (2 Bft) W 270 1 min 0,000 mm 0,0 UV-I 172 W/m -0,6 C 1,4 C 11,3 km/h (2 Bft) 91,67 %
12.02.2018 15:43 2,5 C 4,4 C 80 % 1014,1 hPa 0,0 l/m 9,5 km/h (2 Bft) W-SW 244 1 min 0,000 mm 0,0 UV-I 172 W/m -0,6 C -0,3 C 14,5 km/h (3 Bft) 93,33 %
12.02.2018 15:44 2,4 C 4,4 C 80 % 1014,1 hPa 0,0 l/m 11,7 km/h (2 Bft) W 268 1 min 0,000 mm 0,0 UV-I 172 W/m -0,7 C -2,0 C 16,1 km/h (3 Bft) 96,15 %
12.02.2018 15:45 2,4 C 4,4 C 79 % 1014,1 hPa 0,0 l/m 7,6 km/h (2 Bft) SW 227 1 min 0,000 mm 0,0 UV-I 172 W/m -0,9 C 1,2 C 12,9 km/h (3 Bft) 96,30 %
12.02.2018 15:46 2,4 C 4,4 C 79 % 1014,0 hPa 0,0 l/m 9,7 km/h (2 Bft) W 261 1 min 0,000 mm 0,0 UV-I 172 W/m -0,9 C -0,6 C 12,9 km/h (3 Bft) 100,00 %
12.02.2018 15:47 2,4 C 4,4 C 80 % 1014,1 hPa 0,0 l/m 7,6 km/h (2 Bft) W 266 1 min 0,000 mm 0,0 UV-I 172 W/m -0,7 C 1,2 C 12,9 km/h (3 Bft) 96,30 %
12.02.2018 15:48 2,5 C 4,4 C 80 % 1014,1 hPa 0,0 l/m 11,7 km/h (2 Bft) W-SW 247 1 min 0,000 mm 0,0 UV-I 172 W/m -0,6 C -1,9 C 14,5 km/h (3 Bft) 91,30 %
12.02.2018 15:49 2,5 C 4,4 C 80 % 1014,1 hPa 0,0 l/m 10,6 km/h (2 Bft) W-SW 256 1 min 0,000 mm 0,0 UV-I 172 W/m -0,6 C -1,1 C 14,5 km/h (3 Bft) 100,00 %
12.02.2018 15:50 2,4 C 4,4 C 80 % 1014,1 hPa 0,0 l/m 10,7 km/h (2 Bft) W-SW 253 1 min 0,000 mm 0,0 UV-I 172 W/m -0,7 C -1,3 C 16,1 km/h (3 Bft) 95,65 %
12.02.2018 15:51 2,4 C 4,4 C 80 % 1014,1 hPa 0,0 l/m 10,5 km/h (2 Bft) W-SW 250 1 min 0,000 mm 0,0 UV-I 172 W/m -0,7 C -1,2 C 12,9 km/h (3 Bft) 100,00 %
12.02.2018 15:52 2,4 C 4,4 C 80 % 1014,1 hPa 0,0 l/m 10,0 km/h (2 Bft) SW 232 1 min 0,000 mm 0,0 UV-I 172 W/m -0,7 C -0,8 C 12,9 km/h (3 Bft) 91,30 %
12.02.2018 15:53 2,4 C 4,4 C 80 % 1014,1 hPa 0,0 l/m 10,1 km/h (2 Bft) SW 229 1 min 0,000 mm 0,0 UV-I 172 W/m -0,7 C -0,9 C 12,9 km/h (3 Bft) 100,00 %
12.02.2018 15:54 2,5 C 4,4 C 80 % 1014,1 hPa 0,0 l/m 8,1 km/h (2 Bft) W-SW 254 1 min 0,000 mm 0,0 UV-I 172 W/m -0,6 C 0,9 C 11,3 km/h (2 Bft) 96,15 %
12.02.2018 15:55 2,4 C 4,4 C 80 % 1014,1 hPa 0,0 l/m 8,8 km/h (2 Bft) W-SW 245 1 min 0,000 mm 0,0 UV-I 172 W/m -0,7 C 0,2 C 12,9 km/h (3 Bft) 96,30 %
12.02.2018 15:56 2,5 C 4,4 C 80 % 1014,1 hPa 0,0 l/m 6,3 km/h (2 Bft) W-NW 285 1 min 0,000 mm 0,0 UV-I 172 W/m -0,6 C 2,5 C 9,7 km/h (2 Bft) 100,00 %
12.02.2018 15:57 2,5 C 4,4 C 81 % 1014,1 hPa 0,0 l/m 6,3 km/h (2 Bft) W 271 1 min 0,000 mm 0,0 UV-I 172 W/m -0,4 C 2,5 C 11,3 km/h (2 Bft) 96,15 %
12.02.2018 15:58 2,5 C 4,4 C 81 % 1014,1 hPa 0,0 l/m 6,9 km/h (2 Bft) W-SW 257 1 min 0,000 mm 0,0 UV-I 172 W/m -0,4 C 2,0 C 9,7 km/h (2 Bft) 100,00 %
12.02.2018 15:59 2,5 C 4,4 C 80 % 1014,1 hPa 0,0 l/m 7,1 km/h (2 Bft) W 269 1 min 0,000 mm 0,0 UV-I 172 W/m -0,6 C 1,8 C 8,0 km/h (2 Bft) 96,43 %
12.02.2018 16:00 2,5 C 4,4 C 80 % 1014,2 hPa 0,0 l/m 6,2 km/h (2 Bft) W 261 1 min 0,000 mm 0,0 UV-I 172 W/m -0,6 C 2,5 C 9,7 km/h (2 Bft) 100,00 %
12.02.2018 16:01 2,5 C 4,4 C 80 % 1014,2 hPa 0,0 l/m 5,8 km/h (2 Bft) W 261 0 min 0,076 mm 0,0 UV-I 83 W/m -0,6 C 2,5 C 9,7 km/h (2 Bft) 96,15 %
12.02.2018 16:02 2,6 C 4,4 C 81 % 1014,2 hPa 0,0 l/m 5,8 km/h (2 Bft) W 271 0 min 0,000 mm 0,0 UV-I 80 W/m -0,3 C 2,6 C 9,7 km/h (2 Bft) 100,00 %
12.02.2018 16:03 2,6 C 4,4 C 80 % 1014,2 hPa 0,0 l/m 4,7 km/h (1 Bft) W 271 0 min 0,000 mm 0,0 UV-I 79 W/m -0,5 C 2,6 C 11,3 km/h (2 Bft) 96,15 %
12.02.2018 16:04 2,5 C 4,4 C 81 % 1014,3 hPa 0,0 l/m 8,3 km/h (2 Bft) W-SW 254 0 min 0,000 mm 0,0 UV-I 77 W/m -0,4 C 0,7 C 11,3 km/h (2 Bft) 96,30 %
12.02.2018 16:05 2,6 C 4,4 C 80 % 1014,2 hPa 0,0 l/m 6,3 km/h (2 Bft) W-SW 252 0 min 0,000 mm 0,0 UV-I 76 W/m -0,5 C 2,6 C 9,7 km/h (2 Bft) 100,00 %
12.02.2018 16:06 2,5 C 4,4 C 80 % 1014,3 hPa 0,0 l/m 10,1 km/h (2 Bft) W 269 0 min 0,000 mm 0,0 UV-I 76 W/m -0,6 C -0,8 C 12,9 km/h (3 Bft) 96,30 %
12.02.2018 16:07 2,5 C 4,4 C 80 % 1014,2 hPa 0,0 l/m 7,1 km/h (2 Bft) W-SW 248 0 min 0,000 mm 0,0 UV-I 76 W/m -0,6 C 1,8 C 11,3 km/h (2 Bft) 100,00 %
12.02.2018 16:08 2,5 C 4,4 C 80 % 1014,2 hPa 0,0 l/m 11,1 km/h (2 Bft) W-SW 256 0 min 0,000 mm 0,0 UV-I 76 W/m -0,6 C -1,5 C 14,5 km/h (3 Bft) 100,00 %
12.02.2018 16:09 2,5 C 4,4 C 80 % 1014,2 hPa 0,0 l/m 8,5 km/h (2 Bft) W 276 0 min 0,000 mm 0,0 UV-I 76 W/m -0,6 C 0,5 C 14,5 km/h (3 Bft) 97,95 %
12.02.2018 16:10 2,5 C 4,4 C 79 % 1014,2 hPa 0,0 l/m 10,9 km/h (2 Bft) SW 232 0 min 0,000 mm 0,0 UV-I 76 W/m -0,8 C -1,4 C 14,5 km/h (3 Bft) 96,43 %
12.02.2018 16:11 2,5 C 4,4 C 79 % 1014,2 hPa 0,0 l/m 6,3 km/h (2 Bft) W-SW 250 0 min 0,000 mm 0,0 UV-I 76 W/m -0,8 C 2,5 C 8,0 km/h (2 Bft) 100,00 %
12.02.2018 16:12 2,5 C 4,4 C 79 % 1014,3 hPa 0,0 l/m 6,9 km/h (2 Bft) W 266 0 min 0,000 mm 0,0 UV-I 76 W/m -0,8 C 2,0 C 9,7 km/h (2 Bft) 100,00 %
12.02.2018 16:13 2,4 C 4,4 C 79 % 1014,2 hPa 0,0 l/m 5,6 km/h (1 Bft) W-SW 256 0 min 0,000 mm 0,0 UV-I 76 W/m -0,9 C 2,4 C 9,7 km/h (2 Bft) 100,00 %
12.02.2018 16:14 2,4 C 4,4 C 80 % 1014,3 hPa 0,0 l/m 6,1 km/h (2 Bft) W-SW 256 0 min 0,000 mm 0,0 UV-I 76 W/m -0,7 C 2,4 C 11,3 km/h (2 Bft) 100,00 %
12.02.2018 16:15 2,4 C 4,4 C 79 % 1014,3 hPa 0,0 l/m 10,1 km/h (2 Bft) W 269 0 min 0,000 mm 0,0 UV-I 76 W/m -0,9 C -0,9 C 14,5 km/h (3 Bft) 96,15 %
12.02.2018 16:16 2,4 C 4,4 C 79 % 1014,2 hPa 0,0 l/m 10,5 km/h (2 Bft) W-SW 246 0 min 0,000 mm 0,0 UV-I 76 W/m -0,9 C -1,2 C 17,7 km/h (3 Bft) 91,67 %
12.02.2018 16:17 2,4 C 4,4 C 79 % 1014,3 hPa 0,0 l/m 8,5 km/h (2 Bft) W-SW 258 0 min 0,000 mm 0,0 UV-I 76 W/m -0,9 C 0,4 C 14,5 km/h (3 Bft) 96,67 %
12.02.2018 16:18 2,4 C 4,4 C 79 % 1014,2 hPa 0,0 l/m 7,6 km/h (2 Bft) SW 235 0 min 0,000 mm 0,0 UV-I 76 W/m -0,9 C 1,2 C 9,7 km/h (2 Bft) 100,00 %
12.02.2018 16:19 2,4 C 4,4 C 79 % 1014,3 hPa 0,0 l/m 7,1 km/h (2 Bft) SW 232 0 min 0,000 mm 0,0 UV-I 76 W/m -0,9 C 1,7 C 9,7 km/h (2 Bft) 97,95 %
12.02.2018 16:20 2,4 C 4,4 C 79 % 1014,3 hPa 0,0 l/m 7,1 km/h (2 Bft) W-SW 240 0 min 0,000 mm 0,0 UV-I 76 W/m -0,9 C 1,7 C 9,7 km/h (2 Bft) 100,00 %
12.02.2018 16:21 2,4 C 4,4 C 79 % 1014,3 hPa 0,0 l/m 8,6 km/h (2 Bft) W-SW 257 0 min 0,000 mm 0,0 UV-I 76 W/m -0,9 C 0,3 C 12,9 km/h (3 Bft) 95,83 %
12.02.2018 16:22 2,4 C 4,4 C 79 % 1014,2 hPa 0,0 l/m 9,0 km/h (2 Bft) W-SW 255 0 min 0,000 mm 0,0 UV-I 76 W/m -0,9 C 0,0 C 12,9 km/h (3 Bft) 95,65 %
12.02.2018 16:23 2,3 C 4,4 C 79 % 1014,2 hPa 0,0 l/m 7,7 km/h (2 Bft) W-SW 243 0 min 0,000 mm 0,0 UV-I 76 W/m -1,0 C 1,0 C 9,7 km/h (2 Bft) 96,67 %
12.02.2018 16:24 2,3 C 4,4 C 79 % 1014,2 hPa 0,0 l/m 7,8 km/h (2 Bft) W-SW 242 1 min 0,000 mm 0,0 UV-I 76 W/m -1,0 C 1,0 C 12,9 km/h (3 Bft) 100,00 %
12.02.2018 16:25 2,3 C 4,4 C 80 % 1014,3 hPa 0,0 l/m 7,7 km/h (2 Bft) W-SW 252 1 min 0,000 mm 0,0 UV-I 76 W/m -0,8 C 1,0 C 11,3 km/h (2 Bft) 94,44 %
12.02.2018 16:26 2,3 C 4,4 C 80 % 1014,3 hPa 0,0 l/m 7,2 km/h (2 Bft) W 260 0 min 0,000 mm 0,0 UV-I 62 W/m -0,8 C 1,5 C 12,9 km/h (3 Bft) 95,65 %
12.02.2018 16:27 2,3 C 4,4 C 79 % 1014,2 hPa 0,0 l/m 9,1 km/h (2 Bft) SW 233 0 min 0,000 mm 0,0 UV-I 44 W/m -1,0 C -0,2 C 12,9 km/h (3 Bft) 96,30 %
12.02.2018 16:28 2,3 C 4,4 C 79 % 1014,2 hPa 0,0 l/m 7,8 km/h (2 Bft) SW 225 0 min 0,000 mm 0,0 UV-I 42 W/m -1,0 C 1,0 C 11,3 km/h (2 Bft) 95,65 %
12.02.2018 16:29 2,3 C 4,4 C 80 % 1014,2 hPa 0,0 l/m 6,1 km/h (2 Bft) SW 236 0 min 0,000 mm 0,0 UV-I 42 W/m -0,8 C 2,3 C 6,4 km/h (2 Bft) 94,44 %
12.02.2018 16:30 2,3 C 4,4 C 80 % 1014,2 hPa 0,0 l/m 6,0 km/h (2 Bft) SW 234 0 min 0,000 mm 0,0 UV-I 40 W/m -0,8 C 2,3 C 9,7 km/h (2 Bft) 100,00 %
12.02.2018 16:31 2,3 C 4,4 C 80 % 1014,2 hPa 0,0 l/m 5,5 km/h (1 Bft) W-SW 250 0 min 0,000 mm 0,0 UV-I 40 W/m -0,8 C 2,3 C 8,0 km/h (2 Bft) 95,83 %
12.02.2018 16:32 2,2 C 4,4 C 80 % 1014,2 hPa 0,0 l/m 6,5 km/h (2 Bft) SW 220 0 min 0,000 mm 0,0 UV-I 38 W/m -0,9 C 2,1 C 11,3 km/h (2 Bft) 96,15 %
12.02.2018 16:33 2,2 C 4,4 C 80 % 1014,2 hPa 0,0 l/m 8,2 km/h (2 Bft) SW 221 0 min 0,000 mm 0,0 UV-I 38 W/m -0,9 C 0,5 C 11,3 km/h (2 Bft) 97,93 %
12.02.2018 16:34 2,2 C 4,4 C 80 % 1014,2 hPa 0,0 l/m 8,3 km/h (2 Bft) W-SW 257 0 min 0,000 mm 0,0 UV-I 39 W/m -0,9 C 0,4 C 11,3 km/h (2 Bft) 95,24 %
12.02.2018 16:35 2,2 C 4,4 C 80 % 1014,3 hPa 0,0 l/m 6,6 km/h (2 Bft) SW 223 0 min 0,000 mm 0,0 UV-I 39 W/m -0,9 C 2,0 C 11,3 km/h (2 Bft) 100,00 %
12.02.2018 16:36 2,2 C 4,4 C 80 % 1014,2 hPa 0,0 l/m 9,1 km/h (2 Bft) W-SW 255 0 min 0,000 mm 0,0 UV-I 37 W/m -0,9 C -0,3 C 12,9 km/h (3 Bft) 96,30 %
12.02.2018 16:37 2,2 C 4,4 C 80 % 1014,2 hPa 0,0 l/m 9,3 km/h (2 Bft) W 261 0 min 0,000 mm 0,0 UV-I 37 W/m -0,9 C -0,5 C 12,9 km/h (3 Bft) 100,00 %
12.02.2018 16:38 2,2 C 4,4 C 80 % 1014,2 hPa 0,0 l/m 5,8 km/h (2 Bft) SW 225 0 min 0,000 mm 0,0 UV-I 35 W/m -0,9 C 2,2 C 6,4 km/h (2 Bft) 93,55 %
12.02.2018 16:39 2,2 C 4,4 C 80 % 1014,3 hPa 0,0 l/m 6,6 km/h (2 Bft) SW 236 0 min 0,000 mm 0,0 UV-I 35 W/m -0,9 C 2,0 C 9,7 km/h (2 Bft) 100,00 %
12.02.2018 16:40 2,2 C 4,4 C 80 % 1014,3 hPa 0,0 l/m 8,0 km/h (2 Bft) W 265 0 min 0,000 mm 0,0 UV-I 34 W/m -0,9 C 0,7 C 11,3 km/h (2 Bft) 96,30 %
12.02.2018 16:41 2,2 C 4,4 C 80 % 1014,3 hPa 0,0 l/m 8,6 km/h (2 Bft) SW 234 0 min 0,000 mm 0,0 UV-I 33 W/m -0,9 C 0,1 C 11,3 km/h (2 Bft) 100,00 %
12.02.2018 16:42 2,2 C 4,4 C 80 % 1014,3 hPa 0,0 l/m 8,9 km/h (2 Bft) W 260 0 min 0,000 mm 0,0 UV-I 32 W/m -0,9 C -0,1 C 12,9 km/h (3 Bft) 93,33 %
12.02.2018 16:43 2,2 C 4,4 C 80 % 1014,3 hPa 0,0 l/m 7,7 km/h (2 Bft) W-SW 244 0 min 0,000 mm 0,0 UV-I 32 W/m -0,9 C 0,9 C 11,3 km/h (2 Bft) 97,91 %
12.02.2018 16:44 2,2 C 4,4 C 80 % 1014,3 hPa 0,0 l/m 8,0 km/h (2 Bft) SW 225 0 min 0,000 mm 0,0 UV-I 30 W/m -0,9 C 0,7 C 12,9 km/h (3 Bft) 97,73 %
12.02.2018 16:45 2,1 C 4,4 C 80 % 1014,3 hPa 0,0 l/m 6,8 km/h (2 Bft) W 259 0 min 0,000 mm 0,0 UV-I 30 W/m -1,0 C 1,7 C 9,7 km/h (2 Bft) 92,31 %
12.02.2018 16:46 2,1 C 4,4 C 80 % 1014,3 hPa 0,0 l/m 7,8 km/h (2 Bft) S-SW 209 0 min 0,000 mm 0,0 UV-I 30 W/m -1,0 C 0,7 C 11,3 km/h (2 Bft) 100,00 %
12.02.2018 16:47 2,1 C 4,4 C 80 % 1014,3 hPa 0,0 l/m 7,7 km/h (2 Bft) W 259 0 min 0,000 mm 0,0 UV-I 30 W/m -1,0 C 0,8 C 11,3 km/h (2 Bft) 92,86 %
12.02.2018 16:48 2,1 C 4,4 C 80 % 1014,4 hPa 0,0 l/m 6,7 km/h (2 Bft) W 263 0 min 0,000 mm 0,0 UV-I 30 W/m -1,0 C 1,8 C 11,3 km/h (2 Bft) 100,00 %
12.02.2018 16:50 2,1 C 4,4 C 80 % 1014,4 hPa 0,0 l/m 8,0 km/h (2 Bft) W-SW 247 0 min 0,000 mm 0,0 UV-I 30 W/m -1,0 C 0,6 C 11,3 km/h (2 Bft) 100,00 %
12.02.2018 16:51 2,1 C 4,4 C 80 % 1014,4 hPa 0,0 l/m 8,3 km/h (2 Bft) W-SW 249 0 min 0,000 mm 0,0 UV-I 30 W/m -1,0 C 0,3 C 9,7 km/h (2 Bft) 96,92 %
12.02.2018 16:52 2,1 C 4,4 C 80 % 1014,4 hPa 0,0 l/m 10,0 km/h (2 Bft) SW 223 0 min 0,000 mm 0,0 UV-I 28 W/m -1,0 C -1,1 C 12,9 km/h (3 Bft) 100,00 %
12.02.2018 16:53 2,1 C 4,4 C 80 % 1014,4 hPa 0,0 l/m 7,5 km/h (2 Bft) W-SW 245 0 min 0,000 mm 0,0 UV-I 26 W/m -1,0 C 1,0 C 9,7 km/h (2 Bft) 96,55 %
12.02.2018 16:54 2,1 C 4,4 C 80 % 1014,4 hPa 0,0 l/m 7,2 km/h (2 Bft) SW 234 0 min 0,000 mm 0,0 UV-I 24 W/m -1,0 C 1,3 C 9,7 km/h (2 Bft) 96,30 %
12.02.2018 16:55 2,0 C 4,4 C 80 % 1014,4 hPa 0,0 l/m 6,9 km/h (2 Bft) SW 234 0 min 0,000 mm 0,0 UV-I 22 W/m -1,1 C 1,5 C 9,7 km/h (2 Bft) 92,86 %
12.02.2018 16:56 2,0 C 4,4 C 81 % 1014,4 hPa 0,0 l/m 9,1 km/h (2 Bft) SW 222 0 min 0,000 mm 0,0 UV-I 21 W/m -0,9 C -0,5 C 12,9 km/h (3 Bft) 96,30 %
12.02.2018 16:58 2,0 C 4,4 C 81 % 1014,5 hPa 0,0 l/m 7,4 km/h (2 Bft) W-SW 239 0 min 0,000 mm 0,0 UV-I 17 W/m -0,9 C 1,0 C 9,7 km/h (2 Bft) 98,11 %
12.02.2018 16:59 2,0 C 4,4 C 81 % 1014,5 hPa 0,0 l/m 5,6 km/h (1 Bft) W 264 0 min 0,000 mm 0,0 UV-I 16 W/m -0,9 C 2,0 C 9,7 km/h (2 Bft) 100,00 %
12.02.2018 17:00 1,9 C 4,4 C 81 % 1014,5 hPa 0,0 l/m 6,1 km/h (2 Bft) W-SW 254 0 min 0,000 mm 0,0 UV-I 16 W/m -1,0 C 1,9 C 8,0 km/h (2 Bft) 96,55 %
12.02.2018 17:01 1,9 C 4,4 C 81 % 1014,5 hPa 0,0 l/m 8,5 km/h (2 Bft) SW 236 0 min 0,025 mm 0,0 UV-I 16 W/m -1,0 C -0,1 C 11,3 km/h (2 Bft) 100,00 %
12.02.2018 17:02 1,9 C 4,4 C 82 % 1014,5 hPa 0,0 l/m 7,3 km/h (2 Bft) W 268 0 min 0,000 mm 0,0 UV-I 16 W/m -0,8 C 1,0 C 11,3 km/h (2 Bft) 96,15 %
12.02.2018 17:03 1,9 C 4,4 C 82 % 1014,6 hPa 0,0 l/m 6,1 km/h (2 Bft) W-SW 240 0 min 0,000 mm 0,0 UV-I 16 W/m -0,8 C 1,9 C 6,4 km/h (2 Bft) 100,00 %
12.02.2018 17:04 1,9 C 4,4 C 82 % 1014,6 hPa 0,0 l/m 6,6 km/h (2 Bft) SW 224 0 min 0,000 mm 0,0 UV-I 16 W/m -0,8 C 1,7 C 11,3 km/h (2 Bft) 95,65 %
12.02.2018 17:05 1,9 C 4,4 C 82 % 1014,6 hPa 0,0 l/m 7,0 km/h (2 Bft) SW 228 1 min 0,000 mm 0,0 UV-I 16 W/m -0,8 C 1,3 C 11,3 km/h (2 Bft) 100,00 %
12.02.2018 17:06 1,9 C 4,4 C 82 % 1014,6 hPa 0,0 l/m 8,2 km/h (2 Bft) W-SW 252 0 min 0,000 mm 0,0 UV-I 14 W/m -0,8 C 0,2 C 11,3 km/h (2 Bft) 95,65 %
12.02.2018 17:07 1,9 C 4,4 C 82 % 1014,6 hPa 0,0 l/m 6,9 km/h (2 Bft) SW 236 1 min 0,000 mm 0,0 UV-I 13 W/m -0,8 C 1,4 C 8,0 km/h (2 Bft) 96,00 %
12.02.2018 17:10 1,8 C 4,4 C 82 % 1014,6 hPa 0,0 l/m 6,4 km/h (2 Bft) SW 224 3 min 0,000 mm 0,0 UV-I 12 W/m -0,9 C 1,8 C 6,4 km/h (2 Bft) 98,59 %
12.02.2018 17:11 1,8 C 4,4 C 83 % 1014,6 hPa 0,0 l/m 8,1 km/h (2 Bft) SW 225 0 min 0,000 mm 0,0 UV-I 11 W/m -0,8 C 0,2 C 11,3 km/h (2 Bft) 96,30 %
12.02.2018 17:12 1,8 C 4,4 C 83 % 1014,7 hPa 0,0 l/m 7,6 km/h (2 Bft) SW 227 0 min 0,000 mm 0,0 UV-I 11 W/m -0,8 C 0,6 C 11,3 km/h (2 Bft) 100,00 %
12.02.2018 17:13 1,8 C 4,4 C 83 % 1014,7 hPa 0,0 l/m 7,0 km/h (2 Bft) S-SW 210 0 min 0,000 mm 0,0 UV-I 10 W/m -0,8 C 1,2 C 9,7 km/h (2 Bft) 95,65 %
12.02.2018 17:14 1,8 C 4,4 C 83 % 1014,7 hPa 0,0 l/m 7,9 km/h (2 Bft) W-SW 243 0 min 0,000 mm 0,0 UV-I 9 W/m -0,8 C 0,3 C 9,7 km/h (2 Bft) 95,83 %
12.02.2018 17:15 1,8 C 4,4 C 83 % 1014,7 hPa 0,0 l/m 9,6 km/h (2 Bft) W 270 0 min 0,000 mm 0,0 UV-I 9 W/m -0,8 C -1,1 C 12,9 km/h (3 Bft) 100,00 %
12.02.2018 17:16 1,8 C 4,4 C 83 % 1014,7 hPa 0,0 l/m 8,1 km/h (2 Bft) SW 221 0 min 0,000 mm 0,0 UV-I 7 W/m -0,8 C 0,2 C 9,7 km/h (2 Bft) 100,00 %
12.02.2018 17:17 1,8 C 4,4 C 83 % 1014,8 hPa 0,0 l/m 7,8 km/h (2 Bft) W-SW 241 0 min 0,000 mm 0,0 UV-I 7 W/m -0,8 C 0,4 C 11,3 km/h (2 Bft) 96,88 %
12.02.2018 17:18 1,8 C 4,4 C 83 % 1014,8 hPa 0,0 l/m 7,0 km/h (2 Bft) W-SW 246 0 min 0,000 mm 0,0 UV-I 7 W/m -0,8 C 1,2 C 9,7 km/h (2 Bft) 100,00 %
12.02.2018 17:19 1,8 C 4,4 C 83 % 1014,8 hPa 0,0 l/m 6,1 km/h (2 Bft) W-SW 240 0 min 0,000 mm 0,0 UV-I 5 W/m -0,8 C 1,8 C 8,0 km/h (2 Bft) 96,15 %
12.02.2018 17:20 1,8 C 4,4 C 84 % 1014,9 hPa 0,0 l/m 7,5 km/h (2 Bft) SW 234 0 min 0,000 mm 0,0 UV-I 5 W/m -0,6 C 0,7 C 9,7 km/h (2 Bft) 96,67 %
12.02.2018 17:21 1,8 C 4,4 C 84 % 1014,9 hPa 0,0 l/m 7,3 km/h (2 Bft) SW 234 0 min 0,000 mm 0,0 UV-I 5 W/m -0,6 C 0,9 C 9,7 km/h (2 Bft) 100,00 %
12.02.2018 17:22 1,8 C 4,4 C 84 % 1014,8 hPa 0,0 l/m 7,2 km/h (2 Bft) S-SW 207 0 min 0,000 mm 0,0 UV-I 5 W/m -0,6 C 1,0 C 9,7 km/h (2 Bft) 96,55 %
12.02.2018 17:23 1,8 C 4,4 C 84 % 1014,9 hPa 0,0 l/m 8,1 km/h (2 Bft) W-SW 240 0 min 0,000 mm 0,0 UV-I 5 W/m -0,6 C 0,2 C 11,3 km/h (2 Bft) 95,83 %
12.02.2018 17:24 1,8 C 4,4 C 84 % 1014,9 hPa 0,0 l/m 8,0 km/h (2 Bft) W-SW 239 0 min 0,000 mm 0,0 UV-I 5 W/m -0,6 C 0,2 C 11,3 km/h (2 Bft) 95,65 %
12.02.2018 17:25 1,8 C 4,4 C 84 % 1014,9 hPa 0,0 l/m 11,3 km/h (2 Bft) SW 236 0 min 0,000 mm 0,0 UV-I 2 W/m -0,6 C -2,4 C 14,5 km/h (3 Bft) 100,00 %
12.02.2018 17:26 1,8 C 4,4 C 84 % 1014,9 hPa 0,0 l/m 7,3 km/h (2 Bft) W-SW 252 0 min 0,000 mm 0,0 UV-I 0 W/m -0,6 C 0,9 C 11,3 km/h (2 Bft) 95,65 %
12.02.2018 17:27 1,8 C 4,4 C 85 % 1014,9 hPa 0,0 l/m 10,9 km/h (2 Bft) W-SW 237 0 min 0,000 mm 0,0 UV-I 0 W/m -0,4 C -2,1 C 16,1 km/h (3 Bft) 96,30 %
12.02.2018 17:28 1,7 C 4,4 C 85 % 1015,0 hPa 0,0 l/m 14,6 km/h (3 Bft) SW 231 0 min 0,000 mm 0,0 UV-I 0 W/m -0,5 C -4,7 C 19,3 km/h (3 Bft) 96,55 %
12.02.2018 17:29 1,7 C 4,4 C 85 % 1015,0 hPa 0,0 l/m 10,2 km/h (2 Bft) SW 233 0 min 0,000 mm 0,0 UV-I 0 W/m -0,5 C -1,7 C 16,1 km/h (3 Bft) 100,00 %
12.02.2018 17:30 1,7 C 4,4 C 85 % 1015,0 hPa 0,0 l/m 19,9 km/h (4 Bft) SW 235 0 min 0,000 mm 0,0 UV-I 0 W/m -0,5 C -7,4 C 27,4 km/h (4 Bft) 100,00 %
12.02.2018 17:31 1,7 C 4,4 C 85 % 1015,0 hPa 0,0 l/m 21,3 km/h (4 Bft) SW 229 0 min 0,000 mm 0,0 UV-I 0 W/m -0,5 C -8,0 C 30,6 km/h (5 Bft) 100,00 %
12.02.2018 17:32 1,6 C 4,4 C 86 % 1015,0 hPa 0,0 l/m 18,0 km/h (3 Bft) W-SW 256 0 min 0,000 mm 0,0 UV-I 0 W/m -0,5 C -6,6 C 27,4 km/h (4 Bft) 100,00 %
12.02.2018 17:33 1,5 C 4,4 C 86 % 1015,0 hPa 0,0 l/m 18,1 km/h (3 Bft) W-SW 239 0 min 0,000 mm 0,0 UV-I 0 W/m -0,6 C -6,8 C 27,4 km/h (4 Bft) 96,30 %
12.02.2018 17:34 1,4 C 4,4 C 87 % 1015,0 hPa 0,0 l/m 16,2 km/h (3 Bft) SW 221 0 min 0,000 mm 0,0 UV-I 0 W/m -0,5 C -6,0 C 27,4 km/h (4 Bft) 100,00 %
12.02.2018 17:35 1,4 C 4,4 C 87 % 1015,0 hPa 0,0 l/m 19,3 km/h (3 Bft) W 276 0 min 0,000 mm 0,0 UV-I 0 W/m -0,5 C -7,5 C 25,7 km/h (4 Bft) 100,00 %
12.02.2018 17:36 1,3 C 4,4 C 87 % 1015,0 hPa 0,0 l/m 15,4 km/h (3 Bft) SW 223 0 min 0,000 mm 0,0 UV-I 0 W/m -0,6 C -5,6 C 20,9 km/h (4 Bft) 100,00 %
12.02.2018 17:37 1,3 C 4,4 C 88 % 1015,0 hPa 0,0 l/m 14,1 km/h (3 Bft) W-SW 238 0 min 0,000 mm 0,0 UV-I 0 W/m -0,5 C -4,9 C 24,1 km/h (4 Bft) 100,00 %
12.02.2018 17:38 1,2 C 4,4 C 88 % 1015,0 hPa 0,0 l/m 18,0 km/h (3 Bft) S-SW 204 0 min 0,000 mm 0,0 UV-I 0 W/m -0,6 C -7,1 C 25,7 km/h (4 Bft) 100,00 %
12.02.2018 17:39 1,2 C 4,4 C 88 % 1015,0 hPa 0,0 l/m 17,0 km/h (3 Bft) S-SW 212 0 min 0,000 mm 0,0 UV-I 0 W/m -0,6 C -6,6 C 25,7 km/h (4 Bft) 95,83 %
12.02.2018 17:40 1,1 C 4,4 C 88 % 1015,0 hPa 0,0 l/m 17,8 km/h (3 Bft) SW 215 0 min 0,000 mm 0,0 UV-I 0 W/m -0,7 C -7,2 C 25,7 km/h (4 Bft) 100,00 %
12.02.2018 17:41 1,1 C 4,4 C 89 % 1015,1 hPa 0,0 l/m 11,0 km/h (2 Bft) W-SW 242 0 min 0,000 mm 0,0 UV-I 0 W/m -0,5 C -3,0 C 16,1 km/h (3 Bft) 96,30 %
12.02.2018 17:43 1,0 C 4,4 C 89 % 1015,1 hPa 0,0 l/m 13,5 km/h (3 Bft) W-SW 250 0 min 0,000 mm 0,0 UV-I 0 W/m -0,6 C -4,9 C 16,1 km/h (3 Bft) 97,87 %
12.02.2018 17:44 1,0 C 4,4 C 89 % 1015,1 hPa 0,0 l/m 9,7 km/h (2 Bft) W-SW 242 0 min 0,000 mm 0,0 UV-I 0 W/m -0,6 C -2,1 C 17,7 km/h (3 Bft) 100,00 %
12.02.2018 17:45 0,9 C 4,4 C 89 % 1015,1 hPa 0,0 l/m 16,2 km/h (3 Bft) W-SW 248 0 min 0,000 mm 0,0 UV-I 0 W/m -0,7 C -6,6 C 24,1 km/h (4 Bft) 93,33 %
12.02.2018 17:46 0,9 C 4,4 C 89 % 1015,1 hPa 0,0 l/m 15,7 km/h (3 Bft) SW 232 0 min 0,000 mm 0,0 UV-I 0 W/m -0,7 C -6,3 C 24,1 km/h (4 Bft) 96,67 %
12.02.2018 17:47 0,9 C 4,4 C 89 % 1015,1 hPa 0,0 l/m 15,3 km/h (3 Bft) W-SW 256 0 min 0,000 mm 0,0 UV-I 0 W/m -0,7 C -6,1 C 20,9 km/h (4 Bft) 95,65 %
12.02.2018 17:48 0,9 C 4,4 C 89 % 1015,1 hPa 0,0 l/m 16,7 km/h (3 Bft) SW 229 0 min 0,000 mm 0,0 UV-I 0 W/m -0,7 C -6,8 C 22,5 km/h (4 Bft) 93,10 %
12.02.2018 17:49 0,8 C 4,4 C 90 % 1015,2 hPa 0,0 l/m 12,6 km/h (3 Bft) W-SW 246 0 min 0,000 mm 0,0 UV-I 0 W/m -0,6 C -4,5 C 17,7 km/h (3 Bft) 100,00 %
12.02.2018 17:50 0,8 C 4,4 C 90 % 1015,2 hPa 0,0 l/m 14,2 km/h (3 Bft) W-NW 288 0 min 0,000 mm 0,0 UV-I 0 W/m -0,6 C -5,5 C 17,7 km/h (3 Bft) 100,00 %
12.02.2018 17:51 0,8 C 4,4 C 90 % 1015,1 hPa 0,0 l/m 14,6 km/h (3 Bft) SW 230 0 min 0,000 mm 0,0 UV-I 0 W/m -0,6 C -5,8 C 20,9 km/h (4 Bft) 96,88 %
12.02.2018 17:52 0,8 C 4,4 C 90 % 1015,2 hPa 0,0 l/m 15,4 km/h (3 Bft) SW 223 0 min 0,000 mm 0,0 UV-I 0 W/m -0,6 C -6,2 C 20,9 km/h (4 Bft) 96,30 %
12.02.2018 17:53 0,8 C 4,4 C 90 % 1015,2 hPa 0,0 l/m 11,2 km/h (2 Bft) SW 227 0 min 0,000 mm 0,0 UV-I 0 W/m -0,6 C -3,5 C 16,1 km/h (3 Bft) 100,00 %
12.02.2018 17:54 0,8 C 4,4 C 90 % 1015,2 hPa 0,0 l/m 12,1 km/h (2 Bft) SW 215 0 min 0,000 mm 0,0 UV-I 0 W/m -0,6 C -4,2 C 17,7 km/h (3 Bft) 96,30 %
12.02.2018 17:55 0,8 C 4,4 C 90 % 1015,2 hPa 0,0 l/m 17,4 km/h (3 Bft) W-SW 239 0 min 0,000 mm 0,0 UV-I 0 W/m -0,6 C -7,3 C 22,5 km/h (4 Bft) 95,65 %
12.02.2018 17:56 0,7 C 4,4 C 90 % 1015,2 hPa 0,0 l/m 12,3 km/h (3 Bft) W-SW 243 0 min 0,000 mm 0,0 UV-I 0 W/m -0,7 C -4,4 C 24,1 km/h (4 Bft) 96,30 %
12.02.2018 17:57 0,7 C 4,4 C 90 % 1015,3 hPa 0,0 l/m 19,5 km/h (3 Bft) SW 234 0 min 0,000 mm 0,0 UV-I 0 W/m -0,7 C -8,5 C 25,7 km/h (4 Bft) 100,00 %
12.02.2018 17:58 0,7 C 4,4 C 90 % 1015,3 hPa 0,0 l/m 13,0 km/h (3 Bft) SW 227 0 min 0,000 mm 0,0 UV-I 0 W/m -0,7 C -4,9 C 20,9 km/h (4 Bft) 97,62 %
12.02.2018 17:59 0,7 C 4,4 C 90 % 1015,3 hPa 0,0 l/m 13,1 km/h (3 Bft) SW 221 0 min 0,000 mm 0,0 UV-I 0 W/m -0,7 C -4,9 C 19,3 km/h (3 Bft) 95,65 %
12.02.2018 18:00 0,7 C 4,4 C 90 % 1015,4 hPa 0,0 l/m 14,9 km/h (3 Bft) W-SW 240 0 min 0,000 mm 0,0 UV-I 0 W/m -0,7 C -6,1 C 20,9 km/h (4 Bft) 100,00 %
12.02.2018 18:01 0,7 C 4,4 C 90 % 1015,4 hPa 0,0 l/m 10,6 km/h (2 Bft) SW 233 0 min 0,026 mm 0,0 UV-I 0 W/m -0,7 C -3,2 C 16,1 km/h (3 Bft) 92,86 %
12.02.2018 18:02 0,7 C 4,4 C 90 % 1015,4 hPa 0,0 l/m 13,0 km/h (3 Bft) SW 219 0 min 0,000 mm 0,0 UV-I 0 W/m -0,7 C -4,9 C 17,7 km/h (3 Bft) 100,00 %
12.02.2018 18:03 0,7 C 4,4 C 90 % 1015,4 hPa 0,0 l/m 10,2 km/h (2 Bft) W-SW 250 0 min 0,000 mm 0,0 UV-I 0 W/m -0,7 C -2,8 C 16,1 km/h (3 Bft) 93,33 %
12.02.2018 18:04 0,7 C 4,4 C 90 % 1015,4 hPa 0,0 l/m 12,8 km/h (3 Bft) SW 229 0 min 0,000 mm 0,0 UV-I 0 W/m -0,7 C -4,7 C 17,7 km/h (3 Bft) 100,00 %
12.02.2018 18:05 0,7 C 4,4 C 90 % 1015,4 hPa 0,0 l/m 19,2 km/h (3 Bft) W-SW 244 0 min 0,000 mm 0,0 UV-I 0 W/m -0,7 C -8,4 C 24,1 km/h (4 Bft) 96,15 %
12.02.2018 18:06 0,7 C 4,4 C 90 % 1015,4 hPa 0,0 l/m 14,3 km/h (3 Bft) SW 226 0 min 0,000 mm 0,0 UV-I 0 W/m -0,7 C -5,7 C 20,9 km/h (4 Bft) 96,30 %
12.02.2018 18:07 0,7 C 4,4 C 89 % 1015,4 hPa 0,0 l/m 13,2 km/h (3 Bft) S-SW 200 0 min 0,000 mm 0,0 UV-I 0 W/m -0,9 C -5,0 C 19,3 km/h (3 Bft) 100,00 %
12.02.2018 18:08 0,7 C 4,4 C 89 % 1015,4 hPa 0,0 l/m 12,6 km/h (3 Bft) SW 234 0 min 0,000 mm 0,0 UV-I 0 W/m -0,9 C -4,6 C 17,7 km/h (3 Bft) 96,55 %
12.02.2018 18:09 0,7 C 4,4 C 89 % 1015,5 hPa 0,0 l/m 11,3 km/h (2 Bft) SW 224 0 min 0,000 mm 0,0 UV-I 0 W/m -0,9 C -3,7 C 19,3 km/h (3 Bft) 100,00 %
12.02.2018 18:10 0,7 C 4,4 C 89 % 1015,5 hPa 0,0 l/m 15,4 km/h (3 Bft) W-SW 240 0 min 0,000 mm 0,0 UV-I 0 W/m -0,9 C -6,4 C 20,9 km/h (4 Bft) 97,37 %
12.02.2018 18:11 0,7 C 4,4 C 89 % 1015,5 hPa 0,0 l/m 11,7 km/h (2 Bft) S-SW 209 0 min 0,000 mm 0,0 UV-I 0 W/m -0,9 C -4,0 C 17,7 km/h (3 Bft) 100,00 %
12.02.2018 18:12 0,7 C 4,4 C 89 % 1015,5 hPa 0,0 l/m 12,3 km/h (3 Bft) SW 232 0 min 0,000 mm 0,0 UV-I 0 W/m -0,9 C -4,4 C 20,9 km/h (4 Bft) 95,65 %
12.02.2018 18:13 0,7 C 4,4 C 89 % 1015,5 hPa 0,0 l/m 15,8 km/h (3 Bft) W-SW 246 0 min 0,000 mm 0,0 UV-I 0 W/m -0,9 C -6,6 C 22,5 km/h (4 Bft) 100,00 %
12.02.2018 18:14 0,7 C 4,4 C 89 % 1015,5 hPa 0,0 l/m 12,5 km/h (3 Bft) SW 226 0 min 0,000 mm 0,0 UV-I 0 W/m -0,9 C -4,5 C 17,7 km/h (3 Bft) 92,31 %
12.02.2018 18:15 0,7 C 4,4 C 89 % 1015,5 hPa 0,0 l/m 13,5 km/h (3 Bft) W-SW 240 0 min 0,000 mm 0,0 UV-I 0 W/m -0,9 C -5,2 C 20,9 km/h (4 Bft) 100,00 %
12.02.2018 18:16 0,7 C 4,4 C 89 % 1015,5 hPa 0,0 l/m 11,0 km/h (2 Bft) SW 224 0 min 0,000 mm 0,0 UV-I 0 W/m -0,9 C -3,5 C 14,5 km/h (3 Bft) 100,00 %
12.02.2018 18:17 0,7 C 4,4 C 89 % 1015,5 hPa 0,0 l/m 13,4 km/h (3 Bft) S-SW 211 0 min 0,000 mm 0,0 UV-I 0 W/m -0,9 C -5,1 C 19,3 km/h (3 Bft) 100,00 %
12.02.2018 18:18 0,7 C 4,4 C 89 % 1015,5 hPa 0,0 l/m 11,7 km/h (2 Bft) SW 228 0 min 0,000 mm 0,0 UV-I 0 W/m -0,9 C -4,0 C 17,7 km/h (3 Bft) 100,00 %
12.02.2018 18:19 0,7 C 4,4 C 89 % 1015,6 hPa 0,0 l/m 13,2 km/h (3 Bft) W 272 0 min 0,000 mm 0,0 UV-I 0 W/m -0,9 C -5,0 C 17,7 km/h (3 Bft) 100,00 %
12.02.2018 18:20 0,7 C 4,4 C 89 % 1015,6 hPa 0,0 l/m 14,2 km/h (3 Bft) SW 225 0 min 0,000 mm 0,0 UV-I 0 W/m -0,9 C -5,7 C 19,3 km/h (3 Bft) 100,00 %
12.02.2018 18:21 0,7 C 4,4 C 89 % 1015,6 hPa 0,0 l/m 15,0 km/h (3 Bft) W-SW 238 0 min 0,000 mm 0,0 UV-I 0 W/m -0,9 C -6,1 C 22,5 km/h (4 Bft) 96,30 %
12.02.2018 18:22 0,7 C 4,4 C 89 % 1015,7 hPa 0,0 l/m 11,3 km/h (2 Bft) W-SW 252 0 min 0,000 mm 0,0 UV-I 0 W/m -0,9 C -3,7 C 17,7 km/h (3 Bft) 97,88 %
12.02.2018 18:23 0,7 C 4,4 C 89 % 1015,7 hPa 0,0 l/m 8,4 km/h (2 Bft) W-SW 246 0 min 0,000 mm 0,0 UV-I 0 W/m -0,9 C -1,3 C 12,9 km/h (3 Bft) 97,56 %
12.02.2018 18:24 0,7 C 4,4 C 89 % 1015,7 hPa 0,0 l/m 9,5 km/h (2 Bft) W-SW 251 0 min 0,000 mm 0,0 UV-I 0 W/m -0,9 C -2,3 C 12,9 km/h (3 Bft) 100,00 %
12.02.2018 18:25 0,7 C 4,4 C 89 % 1015,7 hPa 0,0 l/m 10,8 km/h (2 Bft) SW 219 0 min 0,000 mm 0,0 UV-I 0 W/m -0,9 C -3,3 C 14,5 km/h (3 Bft) 100,00 %
12.02.2018 18:26 0,7 C 4,4 C 89 % 1015,7 hPa 0,0 l/m 11,0 km/h (2 Bft) SW 233 0 min 0,000 mm 0,0 UV-I 0 W/m -0,9 C -3,5 C 16,1 km/h (3 Bft) 100,00 %
12.02.2018 18:27 0,7 C 4,4 C 89 % 1015,7 hPa 0,0 l/m 11,2 km/h (2 Bft) W 261 0 min 0,000 mm 0,0 UV-I 0 W/m -0,9 C -3,6 C 14,5 km/h (3 Bft) 100,00 %
12.02.2018 18:28 0,7 C 4,4 C 89 % 1015,7 hPa 0,0 l/m 11,3 km/h (2 Bft) SW 226 0 min 0,000 mm 0,0 UV-I 0 W/m -0,9 C -3,7 C 16,1 km/h (3 Bft) 96,88 %
12.02.2018 18:29 0,7 C 4,4 C 89 % 1015,7 hPa 0,0 l/m 10,5 km/h (2 Bft) W 267 0 min 0,000 mm 0,0 UV-I 0 W/m -0,9 C -3,1 C 17,7 km/h (3 Bft) 100,00 %
12.02.2018 18:30 0,7 C 4,4 C 89 % 1015,6 hPa 0,0 l/m 12,1 km/h (2 Bft) W 262 0 min 0,000 mm 0,0 UV-I 0 W/m -0,9 C -4,3 C 19,3 km/h (3 Bft) 100,00 %
12.02.2018 18:31 0,7 C 4,4 C 89 % 1015,7 hPa 0,0 l/m 13,0 km/h (3 Bft) W-SW 251 0 min 0,000 mm 0,0 UV-I 0 W/m -0,9 C -4,9 C 16,1 km/h (3 Bft) 100,00 %
12.02.2018 18:32 0,7 C 4,4 C 89 % 1015,7 hPa 0,0 l/m 9,3 km/h (2 Bft) W-SW 243 0 min 0,000 mm 0,0 UV-I 0 W/m -0,9 C -2,1 C 16,1 km/h (3 Bft) 91,67 %
12.02.2018 18:33 0,7 C 4,4 C 89 % 1015,7 hPa 0,0 l/m 11,2 km/h (2 Bft) S-SW 207 0 min 0,000 mm 0,0 UV-I 0 W/m -0,9 C -3,6 C 19,3 km/h (3 Bft) 100,00 %
12.02.2018 18:34 0,7 C 4,4 C 88 % 1015,6 hPa 0,0 l/m 13,8 km/h (3 Bft) SW 233 0 min 0,000 mm 0,0 UV-I 0 W/m -1,1 C -5,4 C 22,5 km/h (4 Bft) 100,00 %
12.02.2018 18:35 0,7 C 4,4 C 88 % 1015,7 hPa 0,0 l/m 18,7 km/h (3 Bft) SW 234 0 min 0,000 mm 0,0 UV-I 0 W/m -1,1 C -8,1 C 24,1 km/h (4 Bft) 100,00 %
12.02.2018 18:36 0,7 C 4,4 C 88 % 1015,7 hPa 0,0 l/m 11,5 km/h (2 Bft) SW 229 0 min 0,000 mm 0,0 UV-I 0 W/m -1,1 C -3,8 C 20,9 km/h (4 Bft) 100,00 %
12.02.2018 18:37 0,7 C 4,4 C 89 % 1015,7 hPa 0,0 l/m 13,9 km/h (3 Bft) SW 218 0 min 0,000 mm 0,0 UV-I 0 W/m -0,9 C -5,5 C 20,9 km/h (4 Bft) 100,00 %
12.02.2018 18:38 0,7 C 4,4 C 89 % 1015,8 hPa 0,0 l/m 15,4 km/h (3 Bft) W-SW 244 0 min 0,000 mm 0,0 UV-I 0 W/m -0,9 C -6,4 C 20,9 km/h (4 Bft) 100,00 %
12.02.2018 18:39 0,7 C 4,4 C 89 % 1015,8 hPa 0,0 l/m 16,3 km/h (3 Bft) W 278 0 min 0,000 mm 0,0 UV-I 0 W/m -0,9 C -6,9 C 20,9 km/h (4 Bft) 100,00 %
12.02.2018 18:40 0,7 C 4,4 C 89 % 1015,8 hPa 0,0 l/m 11,7 km/h (2 Bft) W-SW 258 0 min 0,000 mm 0,0 UV-I 0 W/m -0,9 C -4,0 C 19,3 km/h (3 Bft) 96,30 %
12.02.2018 18:41 0,7 C 4,4 C 89 % 1015,8 hPa 0,0 l/m 14,1 km/h (3 Bft) W 270 0 min 0,000 mm 0,0 UV-I 0 W/m -0,9 C -5,6 C 17,7 km/h (3 Bft) 100,00 %
12.02.2018 18:42 0,7 C 4,4 C 89 % 1015,8 hPa 0,0 l/m 9,5 km/h (2 Bft) W 264 0 min 0,000 mm 0,0 UV-I 0 W/m -0,9 C -2,3 C 14,5 km/h (3 Bft) 100,00 %
12.02.2018 18:43 0,7 C 4,4 C 89 % 1015,8 hPa 0,0 l/m 13,1 km/h (3 Bft) W-NW 292 0 min 0,000 mm 0,0 UV-I 0 W/m -0,9 C -4,9 C 16,1 km/h (3 Bft) 100,00 %
12.02.2018 18:44 0,7 C 4,4 C 89 % 1015,8 hPa 0,0 l/m 10,7 km/h (2 Bft) W 265 0 min 0,000 mm 0,0 UV-I 0 W/m -0,9 C -3,2 C 17,7 km/h (3 Bft) 100,00 %
12.02.2018 18:45 0,7 C 4,4 C 88 % 1015,9 hPa 0,0 l/m 8,8 km/h (2 Bft) W-SW 250 0 min 0,000 mm 0,0 UV-I 0 W/m -1,1 C -1,7 C 16,1 km/h (3 Bft) 100,00 %
12.02.2018 18:46 0,7 C 4,4 C 88 % 1015,9 hPa 0,0 l/m 5,0 km/h (1 Bft) W-NW 290 0 min 0,000 mm 0,0 UV-I 0 W/m -1,1 C 0,7 C 9,7 km/h (2 Bft) 100,00 %
12.02.2018 18:47 0,7 C 4,4 C 89 % 1015,9 hPa 0,0 l/m 4,1 km/h (1 Bft) W-NW 288 0 min 0,000 mm 0,0 UV-I 0 W/m -0,9 C 0,7 C 6,4 km/h (2 Bft) 100,00 %
12.02.2018 18:48 0,7 C 4,4 C 89 % 1015,9 hPa 0,0 l/m 4,2 km/h (1 Bft) W-NW 286 0 min 0,000 mm 0,0 UV-I 0 W/m -0,9 C 0,7 C 4,8 km/h (1 Bft) 100,00 %
12.02.2018 18:49 0,7 C 4,4 C 89 % 1015,9 hPa 0,0 l/m 4,8 km/h (1 Bft) W 266 0 min 0,000 mm 0,0 UV-I 0 W/m -0,9 C 0,7 C 6,4 km/h (2 Bft) 100,00 %
12.02.2018 18:50 0,7 C 4,4 C 89 % 1015,9 hPa 0,0 l/m 5,8 km/h (2 Bft) W 281 0 min 0,000 mm 0,0 UV-I 0 W/m -0,9 C 0,7 C 6,4 km/h (2 Bft) 100,00 %
12.02.2018 18:51 0,7 C 4,4 C 89 % 1016,0 hPa 0,0 l/m 5,6 km/h (1 Bft) W-SW 248 0 min 0,000 mm 0,0 UV-I 0 W/m -0,9 C 0,7 C 9,7 km/h (2 Bft) 100,00 %
12.02.2018 18:52 0,6 C 4,4 C 89 % 1016,0 hPa 0,0 l/m 3,8 km/h (1 Bft) W-SW 257 0 min 0,000 mm 0,0 UV-I 0 W/m -1,0 C 0,6 C 4,8 km/h (1 Bft) 100,00 %
12.02.2018 18:53 0,6 C 4,4 C 89 % 1016,0 hPa 0,0 l/m 4,8 km/h (1 Bft) W 279 0 min 0,000 mm 0,0 UV-I 0 W/m -1,0 C 0,6 C 9,7 km/h (2 Bft) 100,00 %
12.02.2018 18:54 0,6 C 4,4 C 89 % 1016,0 hPa 0,0 l/m 5,6 km/h (1 Bft) W-SW 248 0 min 0,000 mm 0,0 UV-I 0 W/m -1,0 C 0,6 C 11,3 km/h (2 Bft) 100,00 %
12.02.2018 18:55 0,6 C 4,4 C 89 % 1016,0 hPa 0,0 l/m 6,8 km/h (2 Bft) W-SW 255 0 min 0,000 mm 0,0 UV-I 0 W/m -1,0 C 0,2 C 11,3 km/h (2 Bft) 100,00 %
12.02.2018 18:56 0,6 C 4,4 C 89 % 1016,0 hPa 0,0 l/m 3,9 km/h (1 Bft) W-SW 258 0 min 0,000 mm 0,0 UV-I 0 W/m -1,0 C 0,6 C 4,8 km/h (1 Bft) 100,00 %
12.02.2018 18:57 0,6 C 4,4 C 89 % 1016,0 hPa 0,0 l/m 4,4 km/h (1 Bft) W 265 0 min 0,000 mm 0,0 UV-I 0 W/m -1,0 C 0,6 C 6,4 km/h (2 Bft) 100,00 %
12.02.2018 18:58 0,6 C 4,4 C 89 % 1016,0 hPa 0,0 l/m 5,3 km/h (1 Bft) NW 309 0 min 0,000 mm 0,0 UV-I 0 W/m -1,0 C 0,6 C 6,4 km/h (2 Bft) 100,00 %
12.02.2018 18:59 0,6 C 4,4 C 89 % 1016,0 hPa 0,0 l/m 12,0 km/h (2 Bft) W-SW 244 0 min 0,000 mm 0,0 UV-I 0 W/m -1,0 C -4,3 C 16,1 km/h (3 Bft) 100,00 %
12.02.2018 19:00 0,6 C 4,4 C 89 % 1016,1 hPa 0,0 l/m 12,1 km/h (2 Bft) W-NW 292 0 min 0,000 mm 0,0 UV-I 0 W/m -1,0 C -4,4 C 16,1 km/h (3 Bft) 100,00 %
12.02.2018 19:01 0,6 C 4,4 C 89 % 1016,1 hPa 0,0 l/m 10,3 km/h (2 Bft) W 265 0 min 0,000 mm 0,0 UV-I 0 W/m -1,0 C -3,0 C 12,9 km/h (3 Bft) 100,00 %
12.02.2018 19:02 0,6 C 4,4 C 89 % 1016,1 hPa 0,0 l/m 10,3 km/h (2 Bft) W-SW 246 0 min 0,000 mm 0,0 UV-I 0 W/m -1,0 C -3,0 C 12,9 km/h (3 Bft) 100,00 %
12.02.2018 19:03 0,7 C 4,4 C 89 % 1016,1 hPa 0,0 l/m 8,8 km/h (2 Bft) W-SW 251 0 min 0,000 mm 0,0 UV-I 0 W/m -0,9 C -1,7 C 14,5 km/h (3 Bft) 100,00 %
12.02.2018 19:04 0,7 C 4,4 C 89 % 1016,1 hPa 0,0 l/m 6,6 km/h (2 Bft) W 275 0 min 0,000 mm 0,0 UV-I 0 W/m -0,9 C 0,5 C 11,3 km/h (2 Bft) 100,00 %
12.02.2018 19:05 0,6 C 4,4 C 89 % 1016,2 hPa 0,0 l/m 6,1 km/h (2 Bft) W-SW 247 0 min 0,000 mm 0,0 UV-I 0 W/m -1,0 C 0,6 C 9,7 km/h (2 Bft) 100,00 %
12.02.2018 19:06 0,6 C 4,4 C 89 % 1016,2 hPa 0,0 l/m 6,0 km/h (2 Bft) W-NW 285 0 min 0,000 mm 0,0 UV-I 0 W/m -1,0 C 0,6 C 11,3 km/h (2 Bft) 100,00 %
12.02.2018 19:07 0,6 C 4,4 C 89 % 1016,2 hPa 0,0 l/m 5,7 km/h (1 Bft) W-SW 250 0 min 0,000 mm 0,0 UV-I 0 W/m -1,0 C 0,6 C 9,7 km/h (2 Bft) 100,00 %
12.02.2018 19:08 0,6 C 4,4 C 89 % 1016,2 hPa 0,0 l/m 4,5 km/h (1 Bft) W 261 0 min 0,000 mm 0,0 UV-I 0 W/m -1,0 C 0,6 C 6,4 km/h (2 Bft) 100,00 %
12.02.2018 19:09 0,6 C 4,4 C 89 % 1016,2 hPa 0,0 l/m 6,7 km/h (2 Bft) W 261 0 min 0,000 mm 0,0 UV-I 0 W/m -1,0 C 0,3 C 9,7 km/h (2 Bft) 100,00 %
12.02.2018 19:10 0,6 C 4,4 C 89 % 1016,3 hPa 0,0 l/m 5,4 km/h (1 Bft) W-SW 253 0 min 0,000 mm 0,0 UV-I 0 W/m -1,0 C 0,6 C 6,4 km/h (2 Bft) 96,30 %
12.02.2018 19:11 0,6 C 4,4 C 89 % 1016,3 hPa 0,0 l/m 10,0 km/h (2 Bft) W-SW 240 0 min 0,000 mm 0,0 UV-I 0 W/m -1,0 C -2,8 C 12,9 km/h (3 Bft) 95,65 %
12.02.2018 19:12 0,7 C 4,4 C 89 % 1016,2 hPa 0,0 l/m 7,6 km/h (2 Bft) W 261 0 min 0,000 mm 0,0 UV-I 0 W/m -0,9 C -0,5 C 11,3 km/h (2 Bft) 100,00 %
12.02.2018 19:13 0,6 C 4,4 C 89 % 1016,2 hPa 0,0 l/m 4,4 km/h (1 Bft) W-SW 249 0 min 0,000 mm 0,0 UV-I 0 W/m -1,0 C 0,6 C 8,0 km/h (2 Bft) 100,00 %
12.02.2018 19:14 0,7 C 4,4 C 89 % 1016,3 hPa 0,0 l/m 6,6 km/h (2 Bft) W 267 0 min 0,000 mm 0,0 UV-I 0 W/m -0,9 C 0,5 C 9,7 km/h (2 Bft) 100,00 %
12.02.2018 19:15 0,6 C 4,4 C 89 % 1016,3 hPa 0,0 l/m 7,1 km/h (2 Bft) W-SW 242 0 min 0,000 mm 0,0 UV-I 0 W/m -1,0 C -0,1 C 9,7 km/h (2 Bft) 100,00 %
12.02.2018 19:16 0,6 C 4,4 C 89 % 1016,2 hPa 0,0 l/m 7,7 km/h (2 Bft) W 259 0 min 0,000 mm 0,0 UV-I 0 W/m -1,0 C -0,7 C 12,9 km/h (3 Bft) 100,00 %
12.02.2018 19:17 0,6 C 4,4 C 89 % 1016,3 hPa 0,0 l/m 9,1 km/h (2 Bft) W-SW 257 0 min 0,000 mm 0,0 UV-I 0 W/m -1,0 C -2,0 C 12,9 km/h (3 Bft) 100,00 %
12.02.2018 19:18 0,6 C 4,4 C 89 % 1016,3 hPa 0,0 l/m 7,2 km/h (2 Bft) W-SW 248 0 min 0,000 mm 0,0 UV-I 0 W/m -1,0 C -0,2 C 9,7 km/h (2 Bft) 100,00 %
12.02.2018 19:19 0,7 C 4,4 C 89 % 1016,3 hPa 0,0 l/m 5,5 km/h (1 Bft) W-SW 250 0 min 0,000 mm 0,0 UV-I 0 W/m -0,9 C 0,7 C 8,0 km/h (2 Bft) 96,15 %
12.02.2018 19:20 0,6 C 4,4 C 89 % 1016,3 hPa 0,0 l/m 6,3 km/h (2 Bft) SW 226 0 min 0,000 mm 0,0 UV-I 0 W/m -1,0 C 0,6 C 8,0 km/h (2 Bft) 100,00 %
12.02.2018 19:21 0,6 C 4,4 C 89 % 1016,3 hPa 0,0 l/m 11,4 km/h (2 Bft) W 277 0 min 0,000 mm 0,0 UV-I 0 W/m -1,0 C -3,9 C 16,1 km/h (3 Bft) 100,00 %
12.02.2018 19:22 0,7 C 4,4 C 89 % 1016,3 hPa 0,0 l/m 13,7 km/h (3 Bft) W-SW 245 0 min 0,000 mm 0,0 UV-I 0 W/m -0,9 C -5,3 C 19,3 km/h (3 Bft) 100,00 %
12.02.2018 19:23 0,7 C 4,4 C 88 % 1016,3 hPa 0,0 l/m 10,7 km/h (2 Bft) SW 234 0 min 0,000 mm 0,0 UV-I 0 W/m -1,1 C -3,2 C 14,5 km/h (3 Bft) 100,00 %
12.02.2018 19:24 0,7 C 4,4 C 89 % 1016,3 hPa 0,0 l/m 9,1 km/h (2 Bft) W-SW 254 0 min 0,000 mm 0,0 UV-I 0 W/m -0,9 C -1,9 C 12,9 km/h (3 Bft) 100,00 %
12.02.2018 19:25 0,7 C 4,4 C 89 % 1016,3 hPa 0,0 l/m 8,4 km/h (2 Bft) S-SW 202 0 min 0,000 mm 0,0 UV-I 0 W/m -0,9 C -1,3 C 11,3 km/h (2 Bft) 100,00 %
12.02.2018 19:26 0,7 C 4,4 C 89 % 1016,4 hPa 0,0 l/m 10,9 km/h (2 Bft) SW 219 0 min 0,000 mm 0,0 UV-I 0 W/m -0,9 C -3,4 C 16,1 km/h (3 Bft) 100,00 %
12.02.2018 19:27 0,7 C 4,4 C 88 % 1016,4 hPa 0,0 l/m 9,9 km/h (2 Bft) S-SW 203 0 min 0,000 mm 0,0 UV-I 0 W/m -1,1 C -2,6 C 14,5 km/h (3 Bft) 100,00 %
12.02.2018 19:28 0,6 C 4,4 C 88 % 1016,4 hPa 0,0 l/m 9,8 km/h (2 Bft) SW 232 0 min 0,000 mm 0,0 UV-I 0 W/m -1,2 C -2,6 C 14,5 km/h (3 Bft) 100,00 %
12.02.2018 19:29 0,7 C 4,4 C 89 % 1016,4 hPa 0,0 l/m 12,1 km/h (2 Bft) W-SW 240 0 min 0,000 mm 0,0 UV-I 0 W/m -0,9 C -4,3 C 16,1 km/h (3 Bft) 100,00 %
12.02.2018 19:30 0,7 C 4,4 C 88 % 1016,4 hPa 0,0 l/m 12,6 km/h (3 Bft) SW 217 0 min 0,000 mm 0,0 UV-I 0 W/m -1,1 C -4,6 C 14,5 km/h (3 Bft) 100,00 %
12.02.2018 19:31 0,6 C 4,4 C 88 % 1016,4 hPa 0,0 l/m 11,3 km/h (2 Bft) SW 235 0 min 0,000 mm 0,0 UV-I 0 W/m -1,2 C -3,8 C 14,5 km/h (3 Bft) 100,00 %
12.02.2018 19:32 0,6 C 4,4 C 88 % 1016,4 hPa 0,0 l/m 8,1 km/h (2 Bft) SW 221 0 min 0,000 mm 0,0 UV-I 0 W/m -1,2 C -1,1 C 11,3 km/h (2 Bft) 100,00 %
12.02.2018 19:33 0,6 C 4,4 C 88 % 1016,4 hPa 0,0 l/m 10,6 km/h (2 Bft) SW 236 0 min 0,000 mm 0,0 UV-I 0 W/m -1,2 C -3,3 C 16,1 km/h (3 Bft) 100,00 %
12.02.2018 19:34 0,6 C 4,4 C 88 % 1016,4 hPa 0,0 l/m 8,9 km/h (2 Bft) W-SW 241 0 min 0,000 mm 0,0 UV-I 0 W/m -1,2 C -1,8 C 12,9 km/h (3 Bft) 100,00 %
12.02.2018 19:35 0,6 C 4,4 C 88 % 1016,4 hPa 0,0 l/m 11,1 km/h (2 Bft) SW 227 0 min 0,000 mm 0,0 UV-I 0 W/m -1,2 C -3,7 C 14,5 km/h (3 Bft) 100,00 %
12.02.2018 19:36 0,6 C 4,4 C 88 % 1016,4 hPa 0,0 l/m 8,4 km/h (2 Bft) S-SW 207 0 min 0,000 mm 0,0 UV-I 0 W/m -1,2 C -1,4 C 11,3 km/h (2 Bft) 95,65 %
12.02.2018 19:37 0,6 C 4,4 C 88 % 1016,4 hPa 0,0 l/m 11,0 km/h (2 Bft) W-SW 238 0 min 0,000 mm 0,0 UV-I 0 W/m -1,2 C -3,6 C 14,5 km/h (3 Bft) 96,30 %
12.02.2018 19:38 0,6 C 4,4 C 88 % 1016,4 hPa 0,0 l/m 13,8 km/h (3 Bft) W 261 0 min 0,000 mm 0,0 UV-I 0 W/m -1,2 C -5,5 C 17,7 km/h (3 Bft) 96,15 %
12.02.2018 19:39 0,6 C 4,4 C 88 % 1016,5 hPa 0,0 l/m 10,3 km/h (2 Bft) W-SW 252 0 min 0,000 mm 0,0 UV-I 0 W/m -1,2 C -3,0 C 16,1 km/h (3 Bft) 95,83 %
12.02.2018 19:40 0,6 C 4,4 C 88 % 1016,4 hPa 0,0 l/m 17,5 km/h (3 Bft) W 262 0 min 0,000 mm 0,0 UV-I 0 W/m -1,2 C -7,6 C 24,1 km/h (4 Bft) 100,00 %
12.02.2018 19:41 0,6 C 4,4 C 88 % 1016,4 hPa 0,0 l/m 12,3 km/h (3 Bft) SW 221 0 min 0,000 mm 0,0 UV-I 0 W/m -1,2 C -4,5 C 19,3 km/h (3 Bft) 100,00 %
12.02.2018 19:42 0,6 C 4,4 C 89 % 1016,4 hPa 0,0 l/m 14,6 km/h (3 Bft) SW 225 0 min 0,000 mm 0,0 UV-I 0 W/m -1,0 C -6,0 C 20,9 km/h (4 Bft) 100,00 %
12.02.2018 19:43 0,6 C 4,4 C 89 % 1016,4 hPa 0,0 l/m 13,6 km/h (3 Bft) W-SW 252 0 min 0,000 mm 0,0 UV-I 0 W/m -1,0 C -5,4 C 19,3 km/h (3 Bft) 96,30 %
12.02.2018 19:44 0,5 C 4,4 C 89 % 1016,4 hPa 0,0 l/m 12,4 km/h (3 Bft) S-SW 207 0 min 0,000 mm 0,0 UV-I 0 W/m -1,1 C -4,7 C 16,1 km/h (3 Bft) 100,00 %
12.02.2018 19:45 0,6 C 4,4 C 89 % 1016,4 hPa 0,0 l/m 11,8 km/h (2 Bft) S-SW 197 0 min 0,000 mm 0,0 UV-I 0 W/m -1,0 C -4,2 C 14,5 km/h (3 Bft) 96,30 %
12.02.2018 19:46 0,5 C 4,4 C 88 % 1016,4 hPa 0,0 l/m 10,3 km/h (2 Bft) W-SW 242 0 min 0,000 mm 0,0 UV-I 0 W/m -1,3 C -3,1 C 12,9 km/h (3 Bft) 100,00 %
12.02.2018 19:47 0,6 C 4,4 C 89 % 1016,4 hPa 0,0 l/m 11,4 km/h (2 Bft) S-SW 202 0 min 0,000 mm 0,0 UV-I 0 W/m -1,0 C -3,9 C 16,1 km/h (3 Bft) 91,67 %
12.02.2018 19:48 0,5 C 4,4 C 89 % 1016,4 hPa 0,0 l/m 13,4 km/h (3 Bft) W-SW 252 0 min 0,000 mm 0,0 UV-I 0 W/m -1,1 C -5,4 C 17,7 km/h (3 Bft) 100,00 %
12.02.2018 19:49 0,5 C 4,4 C 88 % 1016,4 hPa 0,0 l/m 9,7 km/h (2 Bft) SW 218 0 min 0,000 mm 0,0 UV-I 0 W/m -1,3 C -2,6 C 14,5 km/h (3 Bft) 96,15 %
12.02.2018 19:50 0,5 C 4,4 C 88 % 1016,4 hPa 0,0 l/m 13,7 km/h (3 Bft) W-SW 241 0 min 0,000 mm 0,0 UV-I 0 W/m -1,3 C -5,6 C 19,3 km/h (3 Bft) 100,00 %
12.02.2018 19:51 0,5 C 4,4 C 88 % 1016,4 hPa 0,0 l/m 17,6 km/h (3 Bft) W-SW 256 0 min 0,000 mm 0,0 UV-I 0 W/m -1,3 C -7,8 C 20,9 km/h (4 Bft) 96,55 %
12.02.2018 19:52 0,5 C 4,4 C 88 % 1016,4 hPa 0,0 l/m 10,6 km/h (2 Bft) SW 220 0 min 0,000 mm 0,0 UV-I 0 W/m -1,3 C -3,4 C 17,7 km/h (3 Bft) 96,67 %
12.02.2018 19:53 0,5 C 4,4 C 88 % 1016,4 hPa 0,0 l/m 12,9 km/h (3 Bft) SW 230 0 min 0,000 mm 0,0 UV-I 0 W/m -1,3 C -5,0 C 14,5 km/h (3 Bft) 100,00 %
12.02.2018 19:54 0,5 C 4,4 C 88 % 1016,5 hPa 0,0 l/m 15,1 km/h (3 Bft) SW 228 0 min 0,000 mm 0,0 UV-I 0 W/m -1,3 C -6,4 C 19,3 km/h (3 Bft) 96,67 %
12.02.2018 19:55 0,5 C 4,4 C 88 % 1016,4 hPa 0,0 l/m 14,3 km/h (3 Bft) W-SW 248 0 min 0,000 mm 0,0 UV-I 0 W/m -1,3 C -6,0 C 17,7 km/h (3 Bft) 100,00 %
12.02.2018 19:56 0,5 C 4,4 C 88 % 1016,5 hPa 0,0 l/m 14,5 km/h (3 Bft) W-SW 242 0 min 0,000 mm 0,0 UV-I 0 W/m -1,3 C -6,1 C 17,7 km/h (3 Bft) 96,30 %
12.02.2018 19:57 0,5 C 4,4 C 88 % 1016,5 hPa 0,0 l/m 16,0 km/h (3 Bft) SW 221 0 min 0,000 mm 0,0 UV-I 0 W/m -1,3 C -7,0 C 20,9 km/h (4 Bft) 100,00 %
12.02.2018 19:58 0,5 C 4,4 C 88 % 1016,5 hPa 0,0 l/m 15,5 km/h (3 Bft) SW 225 0 min 0,000 mm 0,0 UV-I 0 W/m -1,3 C -6,7 C 19,3 km/h (3 Bft) 96,30 %
12.02.2018 19:59 0,5 C 4,4 C 88 % 1016,5 hPa 0,0 l/m 17,0 km/h (3 Bft) SW 227 0 min 0,000 mm 0,0 UV-I 0 W/m -1,3 C -7,5 C 22,5 km/h (4 Bft) 91,30 %
12.02.2018 20:00 0,5 C 4,4 C 88 % 1016,5 hPa 0,0 l/m 12,0 km/h (2 Bft) SW 219 0 min 0,000 mm 0,0 UV-I 0 W/m -1,3 C -4,4 C 16,1 km/h (3 Bft) 100,00 %
12.02.2018 20:01 0,5 C 4,4 C 88 % 1016,5 hPa 0,0 l/m 14,0 km/h (3 Bft) SW 224 0 min 0,000 mm 0,0 UV-I 0 W/m -1,3 C -5,8 C 17,7 km/h (3 Bft) 96,55 %
12.02.2018 20:02 0,4 C 4,4 C 88 % 1016,5 hPa 0,0 l/m 13,9 km/h (3 Bft) W-SW 240 0 min 0,000 mm 0,0 UV-I 0 W/m -1,3 C -5,8 C 19,3 km/h (3 Bft) 97,99 %
12.02.2018 20:03 0,4 C 4,4 C 88 % 1016,5 hPa 0,0 l/m 13,9 km/h (3 Bft) SW 232 0 min 0,000 mm 0,0 UV-I 0 W/m -1,3 C -5,8 C 20,9 km/h (4 Bft) 97,56 %
12.02.2018 20:04 0,4 C 4,4 C 88 % 1016,5 hPa 0,0 l/m 11,9 km/h (2 Bft) W-SW 239 0 min 0,000 mm 0,0 UV-I 0 W/m -1,3 C -4,5 C 19,3 km/h (3 Bft) 100,00 %
12.02.2018 20:05 0,4 C 4,4 C 88 % 1016,5 hPa 0,0 l/m 9,4 km/h (2 Bft) W-SW 240 0 min 0,000 mm 0,0 UV-I 0 W/m -1,3 C -2,5 C 14,5 km/h (3 Bft) 94,44 %
12.02.2018 20:06 0,4 C 4,4 C 88 % 1016,6 hPa 0,0 l/m 10,6 km/h (2 Bft) S-SW 211 0 min 0,000 mm 0,0 UV-I 0 W/m -1,3 C -3,5 C 14,5 km/h (3 Bft) 93,10 %
12.02.2018 20:07 0,4 C 4,4 C 88 % 1016,7 hPa 0,0 l/m 11,6 km/h (2 Bft) W-SW 246 0 min 0,000 mm 0,0 UV-I 0 W/m -1,3 C -4,3 C 16,1 km/h (3 Bft) 100,00 %
12.02.2018 20:08 0,4 C 4,4 C 88 % 1016,6 hPa 0,0 l/m 10,8 km/h (2 Bft) SW 232 0 min 0,000 mm 0,0 UV-I 0 W/m -1,3 C -3,6 C 14,5 km/h (3 Bft) 96,15 %
12.02.2018 20:09 0,4 C 4,4 C 88 % 1016,6 hPa 0,0 l/m 10,5 km/h (2 Bft) SW 234 0 min 0,000 mm 0,0 UV-I 0 W/m -1,3 C -3,4 C 14,5 km/h (3 Bft) 100,00 %
12.02.2018 20:10 0,4 C 4,4 C 89 % 1016,6 hPa 0,0 l/m 9,0 km/h (2 Bft) W-SW 240 0 min 0,000 mm 0,0 UV-I 0 W/m -1,2 C -2,2 C 12,9 km/h (3 Bft) 96,15 %
12.02.2018 20:11 0,4 C 4,4 C 89 % 1016,6 hPa 0,0 l/m 11,5 km/h (2 Bft) SW 235 0 min 0,000 mm 0,0 UV-I 0 W/m -1,2 C -4,2 C 16,1 km/h (3 Bft) 100,00 %
12.02.2018 20:12 0,4 C 4,4 C 89 % 1016,6 hPa 0,0 l/m 13,5 km/h (3 Bft) SW 225 0 min 0,000 mm 0,0 UV-I 0 W/m -1,2 C -5,6 C 19,3 km/h (3 Bft) 95,65 %
12.02.2018 20:13 0,4 C 4,4 C 89 % 1016,7 hPa 0,0 l/m 8,6 km/h (2 Bft) SW 221 0 min 0,000 mm 0,0 UV-I 0 W/m -1,2 C -1,8 C 11,3 km/h (2 Bft) 100,00 %
12.02.2018 20:14 0,4 C 4,4 C 89 % 1016,7 hPa 0,0 l/m 9,5 km/h (2 Bft) SW 227 0 min 0,000 mm 0,0 UV-I 0 W/m -1,2 C -2,6 C 12,9 km/h (3 Bft) 96,15 %
12.02.2018 20:15 0,4 C 4,4 C 89 % 1016,7 hPa 0,0 l/m 10,6 km/h (2 Bft) W-SW 246 0 min 0,000 mm 0,0 UV-I 0 W/m -1,2 C -3,5 C 16,1 km/h (3 Bft) 95,83 %
12.02.2018 20:16 0,3 C 4,4 C 89 % 1016,7 hPa 0,0 l/m 11,4 km/h (2 Bft) W-SW 254 0 min 0,000 mm 0,0 UV-I 0 W/m -1,3 C -4,2 C 17,7 km/h (3 Bft) 96,15 %
12.02.2018 20:17 0,4 C 4,4 C 89 % 1016,7 hPa 0,0 l/m 8,8 km/h (2 Bft) W-SW 253 0 min 0,000 mm 0,0 UV-I 0 W/m -1,2 C -2,0 C 14,5 km/h (3 Bft) 100,00 %
12.02.2018 20:18 0,3 C 4,4 C 89 % 1016,7 hPa 0,0 l/m 12,6 km/h (3 Bft) W-SW 253 0 min 0,000 mm 0,0 UV-I 0 W/m -1,3 C -5,1 C 16,1 km/h (3 Bft) 96,15 %
12.02.2018 20:19 0,3 C 4,4 C 89 % 1016,7 hPa 0,0 l/m 9,7 km/h (2 Bft) SW 235 0 min 0,000 mm 0,0 UV-I 0 W/m -1,3 C -2,9 C 14,5 km/h (3 Bft) 96,30 %
12.02.2018 20:20 0,3 C 4,4 C 89 % 1016,7 hPa 0,0 l/m 11,9 km/h (2 Bft) SW 225 0 min 0,000 mm 0,0 UV-I 0 W/m -1,3 C -4,6 C 16,1 km/h (3 Bft) 93,10 %
12.02.2018 20:21 0,3 C 4,4 C 89 % 1016,7 hPa 0,0 l/m 11,2 km/h (2 Bft) SW 232 0 min 0,000 mm 0,0 UV-I 0 W/m -1,3 C -4,1 C 12,9 km/h (3 Bft) 91,67 %
12.02.2018 20:22 0,3 C 4,4 C 89 % 1016,8 hPa 0,0 l/m 9,5 km/h (2 Bft) S-SW 212 0 min 0,000 mm 0,0 UV-I 0 W/m -1,3 C -2,7 C 14,5 km/h (3 Bft) 96,30 %
12.02.2018 20:23 0,3 C 4,4 C 89 % 1016,8 hPa 0,0 l/m 10,1 km/h (2 Bft) W-SW 242 0 min 0,000 mm 0,0 UV-I 0 W/m -1,3 C -3,2 C 14,5 km/h (3 Bft) 100,00 %
12.02.2018 20:24 0,3 C 4,4 C 89 % 1016,8 hPa 0,0 l/m 10,5 km/h (2 Bft) W 266 0 min 0,000 mm 0,0 UV-I 0 W/m -1,3 C -3,5 C 16,1 km/h (3 Bft) 100,00 %
12.02.2018 20:25 0,3 C 4,4 C 89 % 1016,8 hPa 0,0 l/m 11,3 km/h (2 Bft) SW 228 0 min 0,000 mm 0,0 UV-I 0 W/m -1,3 C -4,1 C 14,5 km/h (3 Bft) 91,67 %
12.02.2018 20:26 0,3 C 4,4 C 89 % 1016,8 hPa 0,0 l/m 10,3 km/h (2 Bft) SW 232 0 min 0,000 mm 0,0 UV-I 0 W/m -1,3 C -3,4 C 12,9 km/h (3 Bft) 94,44 %
12.02.2018 20:27 0,3 C 4,4 C 89 % 1016,8 hPa 0,0 l/m 11,1 km/h (2 Bft) W 269 0 min 0,000 mm 0,0 UV-I 0 W/m -1,3 C -4,0 C 16,1 km/h (3 Bft) 100,00 %
12.02.2018 20:28 0,3 C 4,4 C 89 % 1016,8 hPa 0,0 l/m 12,8 km/h (3 Bft) W-SW 258 0 min 0,000 mm 0,0 UV-I 0 W/m -1,3 C -5,2 C 16,1 km/h (3 Bft) 91,67 %
12.02.2018 20:29 0,3 C 4,4 C 89 % 1016,8 hPa 0,0 l/m 10,5 km/h (2 Bft) W-SW 252 0 min 0,000 mm 0,0 UV-I 0 W/m -1,3 C -3,5 C 14,5 km/h (3 Bft) 92,86 %
12.02.2018 20:30 0,3 C 4,4 C 89 % 1016,8 hPa 0,0 l/m 12,3 km/h (3 Bft) SW 216 0 min 0,000 mm 0,0 UV-I 0 W/m -1,3 C -4,9 C 17,7 km/h (3 Bft) 95,83 %
12.02.2018 20:31 0,3 C 4,4 C 89 % 1016,8 hPa 0,0 l/m 11,6 km/h (2 Bft) SW 232 0 min 0,000 mm 0,0 UV-I 0 W/m -1,3 C -4,4 C 14,5 km/h (3 Bft) 100,00 %
12.02.2018 20:32 0,3 C 4,4 C 89 % 1016,8 hPa 0,0 l/m 11,2 km/h (2 Bft) SW 228 0 min 0,000 mm 0,0 UV-I 0 W/m -1,3 C -4,1 C 16,1 km/h (3 Bft) 96,30 %
12.02.2018 20:33 0,3 C 4,4 C 89 % 1016,9 hPa 0,0 l/m 12,0 km/h (2 Bft) W-SW 245 0 min 0,000 mm 0,0 UV-I 0 W/m -1,3 C -4,7 C 16,1 km/h (3 Bft) 100,00 %
12.02.2018 20:34 0,3 C 4,4 C 89 % 1016,9 hPa 0,0 l/m 13,1 km/h (3 Bft) SW 227 0 min 0,000 mm 0,0 UV-I 0 W/m -1,3 C -5,4 C 16,1 km/h (3 Bft) 97,95 %
12.02.2018 20:35 0,3 C 4,4 C 89 % 1016,8 hPa 0,0 l/m 9,9 km/h (2 Bft) W-SW 247 0 min 0,000 mm 0,0 UV-I 0 W/m -1,3 C -3,0 C 12,9 km/h (3 Bft) 97,56 %
12.02.2018 20:36 0,3 C 4,4 C 89 % 1016,8 hPa 0,0 l/m 9,8 km/h (2 Bft) W-SW 238 0 min 0,000 mm 0,0 UV-I 0 W/m -1,3 C -3,0 C 14,5 km/h (3 Bft) 100,00 %
12.02.2018 20:38 0,3 C 4,4 C 89 % 1016,9 hPa 0,0 l/m 9,4 km/h (2 Bft) W 265 0 min 0,000 mm 0,0 UV-I 0 W/m -1,3 C -2,6 C 12,9 km/h (3 Bft) 97,87 %
12.02.2018 20:39 0,3 C 4,4 C 89 % 1016,9 hPa 0,0 l/m 9,1 km/h (2 Bft) W-SW 238 0 min 0,000 mm 0,0 UV-I 0 W/m -1,3 C -2,4 C 12,9 km/h (3 Bft) 96,15 %
12.02.2018 20:40 0,3 C 4,4 C 89 % 1016,9 hPa 0,0 l/m 9,7 km/h (2 Bft) SW 232 0 min 0,000 mm 0,0 UV-I 0 W/m -1,3 C -2,9 C 14,5 km/h (3 Bft) 100,00 %
12.02.2018 20:41 0,3 C 4,4 C 89 % 1016,9 hPa 0,0 l/m 9,3 km/h (2 Bft) SW 234 0 min 0,000 mm 0,0 UV-I 0 W/m -1,3 C -2,5 C 14,5 km/h (3 Bft) 95,65 %
12.02.2018 20:42 0,3 C 4,4 C 89 % 1016,9 hPa 0,0 l/m 10,8 km/h (2 Bft) SW 236 0 min 0,000 mm 0,0 UV-I 0 W/m -1,3 C -3,8 C 16,1 km/h (3 Bft) 91,67 %
12.02.2018 20:43 0,3 C 4,4 C 89 % 1016,9 hPa 0,0 l/m 10,1 km/h (2 Bft) W-SW 241 0 min 0,000 mm 0,0 UV-I 0 W/m -1,3 C -3,2 C 12,9 km/h (3 Bft) 96,15 %
12.02.2018 20:44 0,2 C 4,4 C 89 % 1016,9 hPa 0,0 l/m 6,7 km/h (2 Bft) W-SW 251 0 min 0,000 mm 0,0 UV-I 0 W/m -1,4 C -0,1 C 11,3 km/h (2 Bft) 100,00 %
12.02.2018 20:45 0,2 C 4,4 C 89 % 1016,9 hPa 0,0 l/m 11,4 km/h (2 Bft) W-SW 247 0 min 0,000 mm 0,0 UV-I 0 W/m -1,4 C -4,3 C 16,1 km/h (3 Bft) 97,14 %
12.02.2018 20:46 0,2 C 4,4 C 89 % 1016,9 hPa 0,0 l/m 10,4 km/h (2 Bft) W 268 0 min 0,000 mm 0,0 UV-I 0 W/m -1,4 C -3,6 C 17,7 km/h (3 Bft) 100,00 %
12.02.2018 20:48 0,2 C 4,4 C 89 % 1016,9 hPa 0,0 l/m 11,4 km/h (2 Bft) SW 236 0 min 0,000 mm 0,0 UV-I 0 W/m -1,4 C -4,3 C 19,3 km/h (3 Bft) 98,00 %
12.02.2018 20:49 0,2 C 4,4 C 89 % 1016,9 hPa 0,0 l/m 12,2 km/h (2 Bft) SW 223 0 min 0,000 mm 0,0 UV-I 0 W/m -1,4 C -4,9 C 16,1 km/h (3 Bft) 96,30 %
12.02.2018 20:50 0,2 C 4,4 C 89 % 1017,0 hPa 0,0 l/m 12,3 km/h (3 Bft) SW 235 0 min 0,000 mm 0,0 UV-I 0 W/m -1,4 C -5,0 C 16,1 km/h (3 Bft) 100,00 %
12.02.2018 20:51 0,2 C 4,4 C 89 % 1017,0 hPa 0,0 l/m 9,7 km/h (2 Bft) W 265 0 min 0,000 mm 0,0 UV-I 0 W/m -1,4 C -3,0 C 12,9 km/h (3 Bft) 96,67 %
12.02.2018 20:52 0,2 C 4,4 C 89 % 1017,0 hPa 0,0 l/m 8,9 km/h (2 Bft) W-SW 241 0 min 0,000 mm 0,0 UV-I 0 W/m -1,4 C -2,3 C 11,3 km/h (2 Bft) 100,00 %
12.02.2018 20:53 0,2 C 4,4 C 89 % 1017,0 hPa 0,0 l/m 10,0 km/h (2 Bft) W-SW 248 0 min 0,000 mm 0,0 UV-I 0 W/m -1,4 C -3,2 C 12,9 km/h (3 Bft) 96,30 %
12.02.2018 20:54 0,2 C 4,4 C 89 % 1017,0 hPa 0,0 l/m 8,3 km/h (2 Bft) W-SW 257 0 min 0,000 mm 0,0 UV-I 0 W/m -1,4 C -1,7 C 9,7 km/h (2 Bft) 96,15 %
12.02.2018 20:55 0,2 C 4,4 C 89 % 1017,0 hPa 0,0 l/m 9,6 km/h (2 Bft) W-SW 257 0 min 0,000 mm 0,0 UV-I 0 W/m -1,4 C -2,9 C 17,7 km/h (3 Bft) 100,00 %
12.02.2018 20:56 0,2 C 4,4 C 89 % 1017,0 hPa 0,0 l/m 9,5 km/h (2 Bft) W-SW 257 0 min 0,000 mm 0,0 UV-I 0 W/m -1,4 C -2,8 C 11,3 km/h (2 Bft) 91,30 %
12.02.2018 20:57 0,2 C 4,4 C 89 % 1017,1 hPa 0,0 l/m 9,9 km/h (2 Bft) SW 236 0 min 0,000 mm 0,0 UV-I 0 W/m -1,4 C -3,1 C 14,5 km/h (3 Bft) 95,83 %
12.02.2018 20:58 0,2 C 4,4 C 89 % 1017,1 hPa 0,0 l/m 8,9 km/h (2 Bft) SW 232 0 min 0,000 mm 0,0 UV-I 0 W/m -1,4 C -2,3 C 12,9 km/h (3 Bft) 95,65 %
12.02.2018 20:59 0,2 C 4,4 C 89 % 1017,0 hPa 0,0 l/m 11,6 km/h (2 Bft) W-SW 244 0 min 0,000 mm 0,0 UV-I 0 W/m -1,4 C -4,5 C 16,1 km/h (3 Bft) 95,83 %
12.02.2018 21:00 0,2 C 4,4 C 89 % 1017,1 hPa 0,0 l/m 11,5 km/h (2 Bft) W 268 0 min 0,000 mm 0,0 UV-I 0 W/m -1,4 C -4,4 C 16,1 km/h (3 Bft) 100,00 %
12.02.2018 21:01 0,2 C 4,4 C 89 % 1017,1 hPa 0,0 l/m 11,5 km/h (2 Bft) SW 217 0 min 0,000 mm 0,0 UV-I 0 W/m -1,4 C -4,4 C 14,5 km/h (3 Bft) 100,00 %
12.02.2018 21:02 0,2 C 4,4 C 89 % 1017,1 hPa 0,0 l/m 6,8 km/h (2 Bft) W 267 0 min 0,000 mm 0,0 UV-I 0 W/m -1,4 C -0,2 C 11,3 km/h (2 Bft) 97,56 %
12.02.2018 21:03 0,2 C 4,4 C 89 % 1017,1 hPa 0,0 l/m 12,3 km/h (3 Bft) SW 229 0 min 0,000 mm 0,0 UV-I 0 W/m -1,4 C -5,0 C 17,7 km/h (3 Bft) 96,30 %
12.02.2018 21:04 0,2 C 4,4 C 89 % 1017,1 hPa 0,0 l/m 10,1 km/h (2 Bft) W 263 0 min 0,000 mm 0,0 UV-I 0 W/m -1,4 C -3,3 C 12,9 km/h (3 Bft) 97,93 %
12.02.2018 21:05 0,2 C 4,4 C 89 % 1017,1 hPa 0,0 l/m 8,9 km/h (2 Bft) W-SW 246 0 min 0,000 mm 0,0 UV-I 0 W/m -1,4 C -2,3 C 12,9 km/h (3 Bft) 97,56 %
12.02.2018 21:06 0,2 C 4,4 C 89 % 1017,2 hPa 0,0 l/m 9,8 km/h (2 Bft) SW 233 0 min 0,000 mm 0,0 UV-I 0 W/m -1,4 C -3,1 C 14,5 km/h (3 Bft) 100,00 %
12.02.2018 21:07 0,2 C 4,4 C 89 % 1017,1 hPa 0,0 l/m 11,0 km/h (2 Bft) W-SW 255 0 min 0,000 mm 0,0 UV-I 0 W/m -1,4 C -4,0 C 14,5 km/h (3 Bft) 96,15 %
12.02.2018 21:08 0,2 C 4,4 C 89 % 1017,2 hPa 0,0 l/m 11,8 km/h (2 Bft) W 261 0 min 0,000 mm 0,0 UV-I 0 W/m -1,4 C -4,6 C 14,5 km/h (3 Bft) 100,00 %
12.02.2018 21:09 0,2 C 4,4 C 89 % 1017,2 hPa 0,0 l/m 14,0 km/h (3 Bft) W-SW 248 0 min 0,000 mm 0,0 UV-I 0 W/m -1,4 C -6,1 C 17,7 km/h (3 Bft) 96,15 %
12.02.2018 21:10 0,2 C 4,4 C 89 % 1017,2 hPa 0,0 l/m 13,2 km/h (3 Bft) W 265 0 min 0,000 mm 0,0 UV-I 0 W/m -1,4 C -5,6 C 16,1 km/h (3 Bft) 100,00 %
12.02.2018 21:11 0,2 C 4,4 C 89 % 1017,2 hPa 0,0 l/m 10,8 km/h (2 Bft) W-SW 255 0 min 0,000 mm 0,0 UV-I 0 W/m -1,4 C -3,9 C 16,1 km/h (3 Bft) 96,15 %
12.02.2018 21:12 0,2 C 4,4 C 89 % 1017,2 hPa 0,0 l/m 14,4 km/h (3 Bft) SW 219 0 min 0,000 mm 0,0 UV-I 0 W/m -1,4 C -6,4 C 19,3 km/h (3 Bft) 100,00 %
12.02.2018 21:13 0,2 C 4,4 C 89 % 1017,2 hPa 0,0 l/m 8,3 km/h (2 Bft) W 259 0 min 0,000 mm 0,0 UV-I 0 W/m -1,4 C -1,7 C 12,9 km/h (3 Bft) 95,65 %
12.02.2018 21:14 0,2 C 4,4 C 89 % 1017,2 hPa 0,0 l/m 9,6 km/h (2 Bft) W-SW 250 0 min 0,000 mm 0,0 UV-I 0 W/m -1,4 C -2,9 C 12,9 km/h (3 Bft) 96,30 %
12.02.2018 21:15 0,2 C 4,4 C 89 % 1017,2 hPa 0,0 l/m 12,2 km/h (2 Bft) W-SW 248 0 min 0,000 mm 0,0 UV-I 0 W/m -1,4 C -4,9 C 17,7 km/h (3 Bft) 100,00 %
12.02.2018 21:16 0,2 C 4,4 C 89 % 1017,3 hPa 0,0 l/m 10,5 km/h (2 Bft) W-SW 257 0 min 0,000 mm 0,0 UV-I 0 W/m -1,4 C -3,6 C 16,1 km/h (3 Bft) 95,83 %
12.02.2018 21:17 0,2 C 4,4 C 89 % 1017,2 hPa 0,0 l/m 9,2 km/h (2 Bft) W 263 0 min 0,000 mm 0,0 UV-I 0 W/m -1,4 C -2,5 C 12,9 km/h (3 Bft) 100,00 %
12.02.2018 21:18 0,2 C 4,4 C 89 % 1017,3 hPa 0,0 l/m 7,3 km/h (2 Bft) W-SW 247 0 min 0,000 mm 0,0 UV-I 0 W/m -1,4 C -0,7 C 12,9 km/h (3 Bft) 94,44 %
12.02.2018 21:19 0,2 C 4,4 C 89 % 1017,3 hPa 0,0 l/m 11,7 km/h (2 Bft) SW 232 0 min 0,000 mm 0,0 UV-I 0 W/m -1,4 C -4,6 C 16,1 km/h (3 Bft) 100,00 %
12.02.2018 21:20 0,2 C 4,4 C 89 % 1017,3 hPa 0,0 l/m 9,7 km/h (2 Bft) W 259 0 min 0,000 mm 0,0 UV-I 0 W/m -1,4 C -3,0 C 12,9 km/h (3 Bft) 93,33 %
12.02.2018 21:21 0,2 C 4,4 C 89 % 1017,3 hPa 0,0 l/m 8,9 km/h (2 Bft) W 273 0 min 0,000 mm 0,0 UV-I 0 W/m -1,4 C -2,3 C 12,9 km/h (3 Bft) 100,00 %
12.02.2018 21:22 0,2 C 4,4 C 89 % 1017,3 hPa 0,0 l/m 11,9 km/h (2 Bft) W-SW 249 0 min 0,000 mm 0,0 UV-I 0 W/m -1,4 C -4,7 C 19,3 km/h (3 Bft) 86,67 %
12.02.2018 21:23 0,2 C 4,4 C 89 % 1017,3 hPa 0,0 l/m 11,5 km/h (2 Bft) SW 227 0 min 0,000 mm 0,0 UV-I 0 W/m -1,4 C -4,4 C 16,1 km/h (3 Bft) 100,00 %
12.02.2018 21:24 0,2 C 4,4 C 89 % 1017,3 hPa 0,0 l/m 9,5 km/h (2 Bft) SW 232 0 min 0,000 mm 0,0 UV-I 0 W/m -1,4 C -2,8 C 12,9 km/h (3 Bft) 91,30 %
12.02.2018 21:25 0,2 C 4,4 C 89 % 1017,3 hPa 0,0 l/m 12,8 km/h (3 Bft) W-SW 254 0 min 0,000 mm 0,0 UV-I 0 W/m -1,4 C -5,3 C 16,1 km/h (3 Bft) 96,67 %
12.02.2018 21:26 0,2 C 4,4 C 89 % 1017,3 hPa 0,0 l/m 12,1 km/h (2 Bft) W-SW 248 0 min 0,000 mm 0,0 UV-I 0 W/m -1,4 C -4,8 C 14,5 km/h (3 Bft) 100,00 %
12.02.2018 21:27 0,2 C 4,4 C 89 % 1017,3 hPa 0,0 l/m 11,4 km/h (2 Bft) SW 235 0 min 0,000 mm 0,0 UV-I 0 W/m -1,4 C -4,3 C 14,5 km/h (3 Bft) 95,83 %
12.02.2018 21:28 0,2 C 4,4 C 88 % 1017,3 hPa 0,0 l/m 11,5 km/h (2 Bft) W-SW 240 0 min 0,000 mm 0,0 UV-I 0 W/m -1,5 C -4,4 C 12,9 km/h (3 Bft) 100,00 %
12.02.2018 21:29 0,2 C 4,4 C 89 % 1017,3 hPa 0,0 l/m 13,2 km/h (3 Bft) W-SW 254 0 min 0,000 mm 0,0 UV-I 0 W/m -1,4 C -5,6 C 17,7 km/h (3 Bft) 91,67 %
12.02.2018 21:30 0,3 C 4,4 C 88 % 1017,3 hPa 0,0 l/m 9,6 km/h (2 Bft) W-SW 254 0 min 0,000 mm 0,0 UV-I 0 W/m -1,4 C -2,8 C 14,5 km/h (3 Bft) 100,00 %
12.02.2018 21:31 0,3 C 4,4 C 88 % 1017,3 hPa 0,0 l/m 7,7 km/h (2 Bft) SW 236 0 min 0,000 mm 0,0 UV-I 0 W/m -1,4 C -1,0 C 12,9 km/h (3 Bft) 100,00 %
12.02.2018 21:32 0,3 C 4,4 C 88 % 1017,4 hPa 0,0 l/m 10,5 km/h (2 Bft) W 261 0 min 0,000 mm 0,0 UV-I 0 W/m -1,4 C -3,5 C 16,1 km/h (3 Bft) 100,00 %
12.02.2018 21:33 0,3 C 4,4 C 88 % 1017,4 hPa 0,0 l/m 10,9 km/h (2 Bft) SW 226 0 min 0,000 mm 0,0 UV-I 0 W/m -1,4 C -3,8 C 14,5 km/h (3 Bft) 93,33 %
12.02.2018 21:34 0,3 C 4,4 C 88 % 1017,4 hPa 0,0 l/m 11,5 km/h (2 Bft) SW 222 0 min 0,000 mm 0,0 UV-I 0 W/m -1,4 C -4,3 C 16,1 km/h (3 Bft) 100,00 %
12.02.2018 21:35 0,3 C 4,4 C 88 % 1017,4 hPa 0,0 l/m 8,4 km/h (2 Bft) W-SW 254 0 min 0,000 mm 0,0 UV-I 0 W/m -1,4 C -1,7 C 12,9 km/h (3 Bft) 93,33 %
12.02.2018 21:36 0,3 C 4,4 C 88 % 1017,5 hPa 0,0 l/m 7,5 km/h (2 Bft) W-SW 247 0 min 0,000 mm 0,0 UV-I 0 W/m -1,4 C -0,8 C 12,9 km/h (3 Bft) 100,00 %
12.02.2018 21:37 0,3 C 4,4 C 88 % 1017,5 hPa 0,0 l/m 11,2 km/h (2 Bft) W 275 0 min 0,000 mm 0,0 UV-I 0 W/m -1,4 C -4,1 C 16,1 km/h (3 Bft) 100,00 %
12.02.2018 21:38 0,3 C 4,4 C 89 % 1017,5 hPa 0,0 l/m 10,8 km/h (2 Bft) W-SW 250 0 min 0,000 mm 0,0 UV-I 0 W/m -1,3 C -3,8 C 14,5 km/h (3 Bft) 96,15 %
12.02.2018 21:39 0,3 C 4,4 C 88 % 1017,5 hPa 0,0 l/m 12,0 km/h (2 Bft) W-SW 253 0 min 0,000 mm 0,0 UV-I 0 W/m -1,4 C -4,7 C 16,1 km/h (3 Bft) 97,92 %
12.02.2018 21:40 0,3 C 4,4 C 88 % 1017,5 hPa 0,0 l/m 8,6 km/h (2 Bft) W 259 0 min 0,000 mm 0,0 UV-I 0 W/m -1,4 C -1,9 C 11,3 km/h (2 Bft) 100,00 %
12.02.2018 21:41 0,3 C 4,4 C 88 % 1017,5 hPa 0,0 l/m 8,1 km/h (2 Bft) W-SW 238 0 min 0,000 mm 0,0 UV-I 0 W/m -1,4 C -1,4 C 11,3 km/h (2 Bft) 96,15 %
12.02.2018 21:42 0,3 C 4,4 C 89 % 1017,5 hPa 0,0 l/m 10,6 km/h (2 Bft) W 268 0 min 0,000 mm 0,0 UV-I 0 W/m -1,3 C -3,6 C 14,5 km/h (3 Bft) 100,00 %
12.02.2018 21:43 0,3 C 4,4 C 89 % 1017,5 hPa 0,0 l/m 9,0 km/h (2 Bft) W-SW 255 0 min 0,000 mm 0,0 UV-I 0 W/m -1,3 C -2,3 C 14,5 km/h (3 Bft) 100,00 %
12.02.2018 21:44 0,3 C 4,4 C 88 % 1017,5 hPa 0,0 l/m 5,9 km/h (2 Bft) W 261 0 min 0,000 mm 0,0 UV-I 0 W/m -1,4 C 0,3 C 9,7 km/h (2 Bft) 100,00 %
12.02.2018 21:45 0,3 C 4,4 C 88 % 1017,5 hPa 0,0 l/m 9,0 km/h (2 Bft) W-SW 258 0 min 0,000 mm 0,0 UV-I 0 W/m -1,4 C -2,3 C 12,9 km/h (3 Bft) 100,00 %
12.02.2018 21:46 0,3 C 4,4 C 89 % 1017,5 hPa 0,0 l/m 10,2 km/h (2 Bft) W-SW 258 0 min 0,000 mm 0,0 UV-I 0 W/m -1,3 C -3,3 C 14,5 km/h (3 Bft) 100,00 %
12.02.2018 21:47 0,3 C 4,4 C 88 % 1017,5 hPa 0,0 l/m 8,1 km/h (2 Bft) W-SW 245 0 min 0,000 mm 0,0 UV-I 0 W/m -1,4 C -1,4 C 12,9 km/h (3 Bft) 100,00 %
12.02.2018 21:48 0,3 C 4,4 C 88 % 1017,6 hPa 0,0 l/m 11,0 km/h (2 Bft) W-SW 252 0 min 0,000 mm 0,0 UV-I 0 W/m -1,4 C -3,9 C 14,5 km/h (3 Bft) 100,00 %
12.02.2018 21:49 0,3 C 4,4 C 88 % 1017,6 hPa 0,0 l/m 6,8 km/h (2 Bft) W-SW 258 0 min 0,000 mm 0,0 UV-I 0 W/m -1,4 C -0,1 C 11,3 km/h (2 Bft) 100,00 %
12.02.2018 21:50 0,3 C 4,4 C 88 % 1017,6 hPa 0,0 l/m 5,2 km/h (1 Bft) W-SW 250 0 min 0,000 mm 0,0 UV-I 0 W/m -1,4 C 0,3 C 8,0 km/h (2 Bft) 100,00 %
12.02.2018 21:51 0,3 C 4,4 C 88 % 1017,6 hPa 0,0 l/m 6,7 km/h (2 Bft) W 259 0 min 0,000 mm 0,0 UV-I 0 W/m -1,4 C 0,0 C 8,0 km/h (2 Bft) 100,00 %
12.02.2018 21:52 0,3 C 4,4 C 88 % 1017,6 hPa 0,0 l/m 5,6 km/h (1 Bft) SW 226 0 min 0,000 mm 0,0 UV-I 0 W/m -1,4 C 0,3 C 8,0 km/h (2 Bft) 100,00 %
12.02.2018 21:53 0,3 C 4,4 C 88 % 1017,6 hPa 0,0 l/m 5,4 km/h (1 Bft) SW 221 0 min 0,000 mm 0,0 UV-I 0 W/m -1,4 C 0,3 C 8,0 km/h (2 Bft) 96,30 %
12.02.2018 21:54 0,2 C 4,4 C 88 % 1017,6 hPa 0,0 l/m 7,2 km/h (2 Bft) SW 221 0 min 0,000 mm 0,0 UV-I 0 W/m -1,5 C -0,6 C 9,7 km/h (2 Bft) 96,30 %
12.02.2018 21:55 0,2 C 4,4 C 88 % 1017,6 hPa 0,0 l/m 8,7 km/h (2 Bft) S-SW 208 0 min 0,000 mm 0,0 UV-I 0 W/m -1,5 C -2,1 C 14,5 km/h (3 Bft) 100,00 %
12.02.2018 21:56 0,2 C 4,4 C 88 % 1017,6 hPa 0,0 l/m 7,4 km/h (2 Bft) S-SW 213 0 min 0,000 mm 0,0 UV-I 0 W/m -1,5 C -0,8 C 9,7 km/h (2 Bft) 95,83 %
12.02.2018 21:57 0,2 C 4,4 C 88 % 1017,6 hPa 0,0 l/m 10,8 km/h (2 Bft) W-SW 250 0 min 0,000 mm 0,0 UV-I 0 W/m -1,5 C -3,9 C 14,5 km/h (3 Bft) 100,00 %
12.02.2018 21:58 0,2 C 4,4 C 88 % 1017,6 hPa 0,0 l/m 6,9 km/h (2 Bft) W-SW 244 0 min 0,000 mm 0,0 UV-I 0 W/m -1,5 C -0,3 C 9,7 km/h (2 Bft) 96,55 %
12.02.2018 21:59 0,2 C 4,4 C 88 % 1017,6 hPa 0,0 l/m 8,2 km/h (2 Bft) W-SW 255 0 min 0,000 mm 0,0 UV-I 0 W/m -1,5 C -1,6 C 11,3 km/h (2 Bft) 100,00 %
12.02.2018 22:00 0,2 C 4,4 C 88 % 1017,6 hPa 0,0 l/m 6,8 km/h (2 Bft) W-SW 250 0 min 0,000 mm 0,0 UV-I 0 W/m -1,5 C -0,2 C 11,3 km/h (2 Bft) 96,55 %
12.02.2018 22:02 0,1 C 4,4 C 89 % 1017,6 hPa 0,0 l/m 7,8 km/h (2 Bft) SW 233 0 min 0,000 mm 0,0 UV-I 0 W/m -1,5 C -1,3 C 11,3 km/h (2 Bft) 97,73 %
12.02.2018 22:03 0,1 C 4,4 C 89 % 1017,6 hPa 0,0 l/m 8,3 km/h (2 Bft) W-SW 243 0 min 0,000 mm 0,0 UV-I 0 W/m -1,5 C -1,8 C 12,9 km/h (3 Bft) 91,67 %
12.02.2018 22:04 0,1 C 4,4 C 89 % 1017,7 hPa 0,0 l/m 6,7 km/h (2 Bft) W-SW 244 0 min 0,000 mm 0,0 UV-I 0 W/m -1,5 C -0,2 C 9,7 km/h (2 Bft) 97,93 %
12.02.2018 22:05 0,1 C 4,4 C 89 % 1017,6 hPa 0,0 l/m 4,8 km/h (1 Bft) W-SW 250 0 min 0,000 mm 0,0 UV-I 0 W/m -1,5 C 0,1 C 6,4 km/h (2 Bft) 98,31 %
12.02.2018 22:06 0,1 C 4,4 C 89 % 1017,7 hPa 0,0 l/m 6,4 km/h (2 Bft) W-SW 244 0 min 0,000 mm 0,0 UV-I 0 W/m -1,5 C 0,1 C 8,0 km/h (2 Bft) 91,67 %
12.02.2018 22:07 0,1 C 4,4 C 89 % 1017,7 hPa 0,0 l/m 8,6 km/h (2 Bft) W 276 0 min 0,000 mm 0,0 UV-I 0 W/m -1,5 C -2,1 C 14,5 km/h (3 Bft) 93,33 %
12.02.2018 22:08 0,1 C 4,4 C 89 % 1017,7 hPa 0,0 l/m 7,6 km/h (2 Bft) SW 233 0 min 0,000 mm 0,0 UV-I 0 W/m -1,5 C -1,1 C 12,9 km/h (3 Bft) 95,12 %
12.02.2018 22:09 0,1 C 4,4 C 89 % 1017,7 hPa 0,0 l/m 6,5 km/h (2 Bft) W-SW 244 0 min 0,000 mm 0,0 UV-I 0 W/m -1,5 C 0,0 C 8,0 km/h (2 Bft) 100,00 %
12.02.2018 22:10 0,0 C 4,4 C 89 % 1017,7 hPa 0,0 l/m 5,7 km/h (1 Bft) SW 234 0 min 0,000 mm 0,0 UV-I 0 W/m -1,6 C 0,0 C 11,3 km/h (2 Bft) 96,55 %
12.02.2018 22:11 0,0 C 4,4 C 89 % 1017,7 hPa 0,0 l/m 7,3 km/h (2 Bft) W-SW 240 0 min 0,000 mm 0,0 UV-I 0 W/m -1,6 C -0,9 C 11,3 km/h (2 Bft) 100,00 %
12.02.2018 22:12 0,0 C 4,4 C 89 % 1017,7 hPa 0,0 l/m 7,9 km/h (2 Bft) SW 221 0 min 0,000 mm 0,0 UV-I 0 W/m -1,6 C -1,5 C 11,3 km/h (2 Bft) 91,30 %
12.02.2018 22:13 0,0 C 4,4 C 89 % 1017,7 hPa 0,0 l/m 6,5 km/h (2 Bft) W-SW 255 0 min 0,000 mm 0,0 UV-I 0 W/m -1,6 C -0,1 C 11,3 km/h (2 Bft) 100,00 %
12.02.2018 22:14 0,0 C 4,4 C 89 % 1017,7 hPa 0,0 l/m 9,3 km/h (2 Bft) SW 226 0 min 0,000 mm 0,0 UV-I 0 W/m -1,6 C -2,9 C 12,9 km/h (3 Bft) 95,65 %
12.02.2018 22:15 0,0 C 4,4 C 89 % 1017,7 hPa 0,0 l/m 9,2 km/h (2 Bft) W-SW 244 0 min 0,000 mm 0,0 UV-I 0 W/m -1,6 C -2,8 C 11,3 km/h (2 Bft) 96,30 %
12.02.2018 22:16 0,0 C 4,4 C 89 % 1017,7 hPa 0,0 l/m 9,1 km/h (2 Bft) SW 234 0 min 0,000 mm 0,0 UV-I 0 W/m -1,6 C -2,7 C 12,9 km/h (3 Bft) 100,00 %
12.02.2018 22:17 0,0 C 4,4 C 89 % 1017,7 hPa 0,0 l/m 9,1 km/h (2 Bft) SW 232 0 min 0,000 mm 0,0 UV-I 0 W/m -1,6 C -2,7 C 12,9 km/h (3 Bft) 100,00 %
12.02.2018 22:18 -0,1 C 4,4 C 89 % 1017,7 hPa 0,0 l/m 9,3 km/h (2 Bft) SW 234 0 min 0,000 mm 0,0 UV-I 0 W/m -1,7 C -3,0 C 14,5 km/h (3 Bft) 95,83 %
12.02.2018 22:19 -0,1 C 4,4 C 89 % 1017,7 hPa 0,0 l/m 12,5 km/h (3 Bft) SW 235 0 min 0,000 mm 0,0 UV-I 0 W/m -1,7 C -5,5 C 16,1 km/h (3 Bft) 92,31 %
12.02.2018 22:20 -0,1 C 4,4 C 89 % 1017,7 hPa 0,0 l/m 9,5 km/h (2 Bft) W-SW 246 0 min 0,000 mm 0,0 UV-I 0 W/m -1,7 C -3,1 C 11,3 km/h (2 Bft) 100,00 %
12.02.2018 22:21 -0,1 C 4,4 C 89 % 1017,7 hPa 0,0 l/m 7,0 km/h (2 Bft) W-SW 240 0 min 0,000 mm 0,0 UV-I 0 W/m -1,7 C -0,7 C 11,3 km/h (2 Bft) 96,15 %
12.02.2018 22:22 -0,1 C 4,4 C 89 % 1017,7 hPa 0,0 l/m 8,6 km/h (2 Bft) W 276 0 min 0,000 mm 0,0 UV-I 0 W/m -1,7 C -2,3 C 12,9 km/h (3 Bft) 100,00 %
12.02.2018 22:23 -0,1 C 4,4 C 89 % 1017,7 hPa 0,0 l/m 9,0 km/h (2 Bft) SW 229 0 min 0,000 mm 0,0 UV-I 0 W/m -1,7 C -2,7 C 14,5 km/h (3 Bft) 92,86 %
12.02.2018 22:24 -0,1 C 4,4 C 89 % 1017,7 hPa 0,0 l/m 8,6 km/h (2 Bft) SW 224 0 min 0,000 mm 0,0 UV-I 0 W/m -1,7 C -2,3 C 12,9 km/h (3 Bft) 100,00 %
12.02.2018 22:25 -0,1 C 4,4 C 89 % 1017,7 hPa 0,0 l/m 8,8 km/h (2 Bft) W-SW 244 0 min 0,000 mm 0,0 UV-I 0 W/m -1,7 C -2,5 C 14,5 km/h (3 Bft) 96,15 %
12.02.2018 22:26 -0,1 C 4,4 C 89 % 1017,7 hPa 0,0 l/m 7,4 km/h (2 Bft) SW 228 0 min 0,000 mm 0,0 UV-I 0 W/m -1,7 C -1,1 C 12,9 km/h (3 Bft) 95,83 %
12.02.2018 22:27 -0,1 C 4,4 C 89 % 1017,7 hPa 0,0 l/m 7,1 km/h (2 Bft) W-SW 244 0 min 0,000 mm 0,0 UV-I 0 W/m -1,7 C -0,8 C 9,7 km/h (2 Bft) 100,00 %
12.02.2018 22:28 -0,1 C 4,4 C 89 % 1017,7 hPa 0,0 l/m 7,6 km/h (2 Bft) S-SW 213 0 min 0,000 mm 0,0 UV-I 0 W/m -1,7 C -1,4 C 11,3 km/h (2 Bft) 95,83 %
12.02.2018 22:29 -0,1 C 4,4 C 89 % 1017,7 hPa 0,0 l/m 10,1 km/h (2 Bft) W 275 0 min 0,000 mm 0,0 UV-I 0 W/m -1,7 C -3,6 C 14,5 km/h (3 Bft) 100,00 %
12.02.2018 22:30 -0,1 C 4,4 C 89 % 1017,7 hPa 0,0 l/m 8,4 km/h (2 Bft) SW 223 0 min 0,000 mm 0,0 UV-I 0 W/m -1,7 C -2,1 C 16,1 km/h (3 Bft) 100,00 %
12.02.2018 22:31 -0,1 C 4,4 C 89 % 1017,8 hPa 0,0 l/m 10,5 km/h (2 Bft) SW 234 0 min 0,000 mm 0,0 UV-I 0 W/m -1,7 C -4,0 C 16,1 km/h (3 Bft) 100,00 %
12.02.2018 22:32 -0,1 C 4,4 C 89 % 1017,7 hPa 0,0 l/m 8,1 km/h (2 Bft) W-SW 244 0 min 0,000 mm 0,0 UV-I 0 W/m -1,7 C -1,8 C 11,3 km/h (2 Bft) 96,30 %
12.02.2018 22:33 -0,1 C 4,4 C 89 % 1017,7 hPa 0,0 l/m 6,9 km/h (2 Bft) W-SW 246 0 min 0,000 mm 0,0 UV-I 0 W/m -1,7 C -0,6 C 9,7 km/h (2 Bft) 96,55 %
12.02.2018 22:34 -0,1 C 4,4 C 89 % 1017,7 hPa 0,0 l/m 6,6 km/h (2 Bft) SW 231 0 min 0,000 mm 0,0 UV-I 0 W/m -1,7 C -0,3 C 8,0 km/h (2 Bft) 100,00 %
12.02.2018 22:35 -0,1 C 4,4 C 89 % 1017,8 hPa 0,0 l/m 10,4 km/h (2 Bft) W 273 0 min 0,000 mm 0,0 UV-I 0 W/m -1,7 C -3,9 C 14,5 km/h (3 Bft) 96,55 %
12.02.2018 22:36 -0,1 C 4,4 C 89 % 1017,8 hPa 0,0 l/m 8,6 km/h (2 Bft) W-SW 247 0 min 0,000 mm 0,0 UV-I 0 W/m -1,7 C -2,3 C 12,9 km/h (3 Bft) 100,00 %
12.02.2018 22:37 -0,1 C 4,4 C 89 % 1017,8 hPa 0,0 l/m 7,3 km/h (2 Bft) W-SW 240 0 min 0,000 mm 0,0 UV-I 0 W/m -1,7 C -1,0 C 11,3 km/h (2 Bft) 100,00 %
12.02.2018 22:38 -0,2 C 4,4 C 89 % 1017,8 hPa 0,0 l/m 6,4 km/h (2 Bft) W-SW 257 0 min 0,000 mm 0,0 UV-I 0 W/m -1,8 C -0,2 C 8,0 km/h (2 Bft) 100,00 %
12.02.2018 22:39 -0,2 C 4,4 C 89 % 1017,8 hPa 0,0 l/m 6,5 km/h (2 Bft) SW 231 0 min 0,000 mm 0,0 UV-I 0 W/m -1,8 C -0,3 C 9,7 km/h (2 Bft) 100,00 %
12.02.2018 22:40 -0,2 C 4,4 C 89 % 1017,8 hPa 0,0 l/m 7,1 km/h (2 Bft) W-SW 237 0 min 0,000 mm 0,0 UV-I 0 W/m -1,8 C -0,9 C 12,9 km/h (3 Bft) 96,15 %
12.02.2018 22:41 -0,2 C 4,4 C 89 % 1017,8 hPa 0,0 l/m 7,2 km/h (2 Bft) W-SW 246 0 min 0,000 mm 0,0 UV-I 0 W/m -1,8 C -1,0 C 12,9 km/h (3 Bft) 97,92 %
12.02.2018 22:42 -0,2 C 4,4 C 90 % 1017,8 hPa 0,0 l/m 10,6 km/h (2 Bft) W-SW 242 0 min 0,000 mm 0,0 UV-I 0 W/m -1,6 C -4,2 C 17,7 km/h (3 Bft) 97,73 %
12.02.2018 22:43 -0,2 C 4,4 C 90 % 1017,9 hPa 0,0 l/m 9,5 km/h (2 Bft) W-SW 237 0 min 0,000 mm 0,0 UV-I 0 W/m -1,6 C -3,2 C 14,5 km/h (3 Bft) 100,00 %
12.02.2018 22:44 -0,2 C 4,4 C 90 % 1017,9 hPa 0,0 l/m 8,2 km/h (2 Bft) SW 217 0 min 0,000 mm 0,0 UV-I 0 W/m -1,6 C -2,1 C 11,3 km/h (2 Bft) 100,00 %
12.02.2018 22:45 -0,2 C 4,4 C 90 % 1017,9 hPa 0,0 l/m 6,9 km/h (2 Bft) SW 229 0 min 0,000 mm 0,0 UV-I 0 W/m -1,6 C -0,7 C 11,3 km/h (2 Bft) 100,00 %
12.02.2018 22:46 -0,2 C 4,4 C 90 % 1017,9 hPa 0,0 l/m 9,8 km/h (2 Bft) W 264 0 min 0,000 mm 0,0 UV-I 0 W/m -1,6 C -3,5 C 14,5 km/h (3 Bft) 100,00 %
12.02.2018 22:47 -0,2 C 4,4 C 90 % 1017,9 hPa 0,0 l/m 8,0 km/h (2 Bft) W-SW 239 0 min 0,000 mm 0,0 UV-I 0 W/m -1,6 C -1,9 C 12,9 km/h (3 Bft) 100,00 %
12.02.2018 22:48 -0,2 C 4,4 C 90 % 1017,9 hPa 0,0 l/m 9,4 km/h (2 Bft) W-SW 257 0 min 0,000 mm 0,0 UV-I 0 W/m -1,6 C -3,2 C 12,9 km/h (3 Bft) 95,65 %
12.02.2018 22:49 -0,2 C 4,4 C 90 % 1017,9 hPa 0,0 l/m 5,2 km/h (1 Bft) W-SW 252 0 min 0,000 mm 0,0 UV-I 0 W/m -1,6 C -0,2 C 6,4 km/h (2 Bft) 100,00 %
12.02.2018 22:50 -0,2 C 4,4 C 90 % 1017,9 hPa 0,0 l/m 5,9 km/h (2 Bft) W-SW 246 0 min 0,000 mm 0,0 UV-I 0 W/m -1,6 C -0,2 C 9,7 km/h (2 Bft) 91,30 %
12.02.2018 22:51 -0,2 C 4,4 C 90 % 1017,9 hPa 0,0 l/m 6,8 km/h (2 Bft) SW 225 0 min 0,000 mm 0,0 UV-I 0 W/m -1,6 C -0,6 C 9,7 km/h (2 Bft) 100,00 %
12.02.2018 22:52 -0,2 C 4,4 C 90 % 1017,9 hPa 0,0 l/m 7,2 km/h (2 Bft) W 263 0 min 0,000 mm 0,0 UV-I 0 W/m -1,6 C -1,0 C 11,3 km/h (2 Bft) 100,00 %
12.02.2018 22:53 -0,2 C 4,4 C 90 % 1017,9 hPa 0,0 l/m 6,2 km/h (2 Bft) SW 223 0 min 0,000 mm 0,0 UV-I 0 W/m -1,6 C -0,2 C 8,0 km/h (2 Bft) 100,00 %
12.02.2018 22:54 -0,2 C 4,4 C 90 % 1017,9 hPa 0,0 l/m 7,8 km/h (2 Bft) W-SW 246 0 min 0,000 mm 0,0 UV-I 0 W/m -1,6 C -1,7 C 11,3 km/h (2 Bft) 100,00 %
12.02.2018 22:55 -0,2 C 4,4 C 90 % 1017,9 hPa 0,0 l/m 7,7 km/h (2 Bft) SW 223 0 min 0,000 mm 0,0 UV-I 0 W/m -1,6 C -1,6 C 11,3 km/h (2 Bft) 100,00 %
12.02.2018 22:56 -0,2 C 4,4 C 90 % 1017,9 hPa 0,0 l/m 7,9 km/h (2 Bft) W-SW 254 0 min 0,000 mm 0,0 UV-I 0 W/m -1,6 C -1,8 C 11,3 km/h (2 Bft) 100,00 %
12.02.2018 22:57 -0,2 C 4,4 C 90 % 1017,9 hPa 0,0 l/m 8,4 km/h (2 Bft) SW 222 0 min 0,000 mm 0,0 UV-I 0 W/m -1,6 C -2,2 C 11,3 km/h (2 Bft) 100,00 %
12.02.2018 22:58 -0,2 C 4,4 C 90 % 1017,9 hPa 0,0 l/m 9,9 km/h (2 Bft) W-SW 245 0 min 0,000 mm 0,0 UV-I 0 W/m -1,6 C -3,6 C 12,9 km/h (3 Bft) 100,00 %
12.02.2018 22:59 -0,2 C 4,4 C 90 % 1018,0 hPa 0,0 l/m 6,0 km/h (2 Bft) W-SW 244 0 min 0,000 mm 0,0 UV-I 0 W/m -1,6 C -0,2 C 8,0 km/h (2 Bft) 100,00 %
12.02.2018 23:00 -0,2 C 4,4 C 90 % 1017,9 hPa 0,0 l/m 8,4 km/h (2 Bft) SW 227 0 min 0,000 mm 0,0 UV-I 0 W/m -1,6 C -2,2 C 12,9 km/h (3 Bft) 100,00 %
12.02.2018 23:01 -0,2 C 4,4 C 90 % 1017,9 hPa 0,0 l/m 8,1 km/h (2 Bft) SW 233 0 min 0,000 mm 0,0 UV-I 0 W/m -1,6 C -2,0 C 9,7 km/h (2 Bft) 100,00 %
12.02.2018 23:02 -0,2 C 4,4 C 90 % 1017,9 hPa 0,0 l/m 8,9 km/h (2 Bft) W-SW 258 0 min 0,000 mm 0,0 UV-I 0 W/m -1,6 C -2,7 C 12,9 km/h (3 Bft) 100,00 %
12.02.2018 23:03 -0,2 C 4,4 C 90 % 1018,0 hPa 0,0 l/m 5,0 km/h (1 Bft) W-SW 247 0 min 0,000 mm 0,0 UV-I 0 W/m -1,6 C -0,2 C 6,4 km/h (2 Bft) 100,00 %
12.02.2018 23:04 -0,2 C 4,4 C 90 % 1018,0 hPa 0,0 l/m 7,5 km/h (2 Bft) W-SW 238 0 min 0,000 mm 0,0 UV-I 0 W/m -1,6 C -1,4 C 11,3 km/h (2 Bft) 100,00 %
12.02.2018 23:05 -0,2 C 4,4 C 90 % 1018,0 hPa 0,0 l/m 6,9 km/h (2 Bft) SW 221 0 min 0,000 mm 0,0 UV-I 0 W/m -1,6 C -0,7 C 11,3 km/h (2 Bft) 100,00 %
12.02.2018 23:06 -0,2 C 4,4 C 90 % 1017,9 hPa 0,0 l/m 10,0 km/h (2 Bft) W-SW 244 0 min 0,000 mm 0,0 UV-I 0 W/m -1,6 C -3,7 C 12,9 km/h (3 Bft) 100,00 %
12.02.2018 23:07 -0,2 C 4,4 C 90 % 1018,0 hPa 0,0 l/m 8,4 km/h (2 Bft) SW 232 0 min 0,000 mm 0,0 UV-I 0 W/m -1,6 C -2,2 C 11,3 km/h (2 Bft) 97,56 %
12.02.2018 23:08 -0,2 C 4,4 C 90 % 1018,0 hPa 0,0 l/m 8,0 km/h (2 Bft) W-SW 244 0 min 0,000 mm 0,0 UV-I 0 W/m -1,6 C -1,9 C 11,3 km/h (2 Bft) 100,00 %
12.02.2018 23:09 -0,2 C 4,4 C 90 % 1018,0 hPa 0,0 l/m 7,2 km/h (2 Bft) SW 228 0 min 0,000 mm 0,0 UV-I 0 W/m -1,6 C -1,0 C 9,7 km/h (2 Bft) 100,00 %
12.02.2018 23:10 -0,2 C 4,4 C 90 % 1018,0 hPa 0,0 l/m 9,3 km/h (2 Bft) SW 226 0 min 0,000 mm 0,0 UV-I 0 W/m -1,6 C -3,1 C 12,9 km/h (3 Bft) 100,00 %
12.02.2018 23:11 -0,2 C 4,4 C 90 % 1018,0 hPa 0,0 l/m 6,0 km/h (2 Bft) W-SW 246 0 min 0,000 mm 0,0 UV-I 0 W/m -1,6 C -0,2 C 9,7 km/h (2 Bft) 100,00 %
12.02.2018 23:12 -0,2 C 4,4 C 90 % 1018,0 hPa 0,0 l/m 8,8 km/h (2 Bft) S-SW 213 0 min 0,000 mm 0,0 UV-I 0 W/m -1,6 C -2,6 C 11,3 km/h (2 Bft) 100,00 %
12.02.2018 23:13 -0,2 C 4,4 C 90 % 1017,9 hPa 0,0 l/m 11,2 km/h (2 Bft) SW 229 0 min 0,000 mm 0,0 UV-I 0 W/m -1,6 C -4,6 C 16,1 km/h (3 Bft) 100,00 %
12.02.2018 23:14 -0,2 C 4,4 C 90 % 1017,9 hPa 0,0 l/m 10,1 km/h (2 Bft) SW 220 0 min 0,000 mm 0,0 UV-I 0 W/m -1,6 C -3,8 C 14,5 km/h (3 Bft) 100,00 %
12.02.2018 23:15 -0,2 C 4,4 C 90 % 1018,0 hPa 0,0 l/m 9,5 km/h (2 Bft) SW 227 0 min 0,000 mm 0,0 UV-I 0 W/m -1,6 C -3,2 C 12,9 km/h (3 Bft) 100,00 %
12.02.2018 23:16 -0,2 C 4,4 C 90 % 1017,9 hPa 0,0 l/m 11,7 km/h (2 Bft) SW 227 0 min 0,000 mm 0,0 UV-I 0 W/m -1,6 C -5,0 C 16,1 km/h (3 Bft) 100,00 %
12.02.2018 23:17 -0,2 C 4,4 C 90 % 1018,0 hPa 0,0 l/m 13,4 km/h (3 Bft) W-SW 250 0 min 0,000 mm 0,0 UV-I 0 W/m -1,6 C -6,2 C 17,7 km/h (3 Bft) 100,00 %
12.02.2018 23:18 -0,2 C 4,4 C 90 % 1018,0 hPa 0,0 l/m 10,1 km/h (2 Bft) W-SW 248 0 min 0,000 mm 0,0 UV-I 0 W/m -1,6 C -3,8 C 14,5 km/h (3 Bft) 100,00 %
12.02.2018 23:19 -0,2 C 4,4 C 90 % 1018,0 hPa 0,0 l/m 8,8 km/h (2 Bft) W-SW 242 0 min 0,000 mm 0,0 UV-I 0 W/m -1,6 C -2,6 C 12,9 km/h (3 Bft) 100,00 %
12.02.2018 23:20 -0,2 C 4,4 C 90 % 1018,0 hPa 0,0 l/m 10,8 km/h (2 Bft) W-SW 238 0 min 0,000 mm 0,0 UV-I 0 W/m -1,6 C -4,3 C 14,5 km/h (3 Bft) 100,00 %
12.02.2018 23:21 -0,2 C 4,4 C 90 % 1018,0 hPa 0,0 l/m 10,9 km/h (2 Bft) SW 225 0 min 0,000 mm 0,0 UV-I 0 W/m -1,6 C -4,4 C 12,9 km/h (3 Bft) 100,00 %
12.02.2018 23:22 -0,2 C 4,4 C 90 % 1018,0 hPa 0,0 l/m 8,5 km/h (2 Bft) SW 234 0 min 0,000 mm 0,0 UV-I 0 W/m -1,6 C -2,3 C 14,5 km/h (3 Bft) 95,65 %
12.02.2018 23:23 -0,2 C 4,4 C 90 % 1018,0 hPa 0,0 l/m 7,3 km/h (2 Bft) W-SW 239 0 min 0,000 mm 0,0 UV-I 0 W/m -1,6 C -1,1 C 11,3 km/h (2 Bft) 100,00 %
12.02.2018 23:24 -0,2 C 4,4 C 90 % 1018,0 hPa 0,0 l/m 7,6 km/h (2 Bft) W-SW 243 0 min 0,000 mm 0,0 UV-I 0 W/m -1,6 C -1,5 C 9,7 km/h (2 Bft) 100,00 %
12.02.2018 23:25 -0,2 C 4,4 C 90 % 1017,9 hPa 0,0 l/m 7,9 km/h (2 Bft) SW 220 0 min 0,000 mm 0,0 UV-I 0 W/m -1,6 C -1,8 C 12,9 km/h (3 Bft) 100,00 %
12.02.2018 23:26 -0,2 C 4,4 C 90 % 1017,9 hPa 0,0 l/m 9,0 km/h (2 Bft) W-SW 245 0 min 0,000 mm 0,0 UV-I 0 W/m -1,6 C -2,8 C 14,5 km/h (3 Bft) 100,00 %
12.02.2018 23:27 -0,2 C 4,4 C 90 % 1017,9 hPa 0,0 l/m 10,1 km/h (2 Bft) SW 233 0 min 0,000 mm 0,0 UV-I 0 W/m -1,6 C -3,8 C 12,9 km/h (3 Bft) 100,00 %
12.02.2018 23:28 -0,2 C 4,4 C 90 % 1018,0 hPa 0,0 l/m 9,3 km/h (2 Bft) W-SW 248 0 min 0,000 mm 0,0 UV-I 0 W/m -1,6 C -3,1 C 12,9 km/h (3 Bft) 100,00 %
12.02.2018 23:29 -0,2 C 4,4 C 90 % 1018,0 hPa 0,0 l/m 9,5 km/h (2 Bft) SW 233 0 min 0,000 mm 0,0 UV-I 0 W/m -1,6 C -3,2 C 11,3 km/h (2 Bft) 100,00 %
12.02.2018 23:30 -0,2 C 4,4 C 90 % 1017,9 hPa 0,0 l/m 8,6 km/h (2 Bft) W-SW 244 0 min 0,000 mm 0,0 UV-I 0 W/m -1,6 C -2,4 C 11,3 km/h (2 Bft) 100,00 %
12.02.2018 23:31 -0,2 C 4,4 C 90 % 1017,9 hPa 0,0 l/m 8,6 km/h (2 Bft) SW 233 0 min 0,000 mm 0,0 UV-I 0 W/m -1,6 C -2,4 C 11,3 km/h (2 Bft) 100,00 %
12.02.2018 23:32 -0,2 C 4,4 C 90 % 1017,9 hPa 0,0 l/m 10,0 km/h (2 Bft) W-SW 240 0 min 0,000 mm 0,0 UV-I 0 W/m -1,6 C -3,7 C 14,5 km/h (3 Bft) 100,00 %
12.02.2018 23:33 -0,2 C 4,4 C 90 % 1017,9 hPa 0,0 l/m 8,3 km/h (2 Bft) SW 223 0 min 0,000 mm 0,0 UV-I 0 W/m -1,6 C -2,1 C 12,9 km/h (3 Bft) 100,00 %
12.02.2018 23:34 -0,3 C 4,4 C 90 % 1017,9 hPa 0,0 l/m 9,6 km/h (2 Bft) W-SW 250 0 min 0,000 mm 0,0 UV-I 0 W/m -1,7 C -3,4 C 12,9 km/h (3 Bft) 100,00 %
12.02.2018 23:35 -0,3 C 4,4 C 90 % 1017,9 hPa 0,0 l/m 9,7 km/h (2 Bft) SW 214 0 min 0,000 mm 0,0 UV-I 0 W/m -1,7 C -3,5 C 14,5 km/h (3 Bft) 100,00 %
12.02.2018 23:36 -0,3 C 4,4 C 90 % 1017,9 hPa 0,0 l/m 12,4 km/h (3 Bft) S-SW 213 0 min 0,000 mm 0,0 UV-I 0 W/m -1,7 C -5,6 C 16,1 km/h (3 Bft) 100,00 %
12.02.2018 23:37 -0,3 C 4,4 C 90 % 1017,9 hPa 0,0 l/m 11,3 km/h (2 Bft) SW 229 0 min 0,000 mm 0,0 UV-I 0 W/m -1,7 C -4,8 C 14,5 km/h (3 Bft) 96,15 %
12.02.2018 23:38 -0,3 C 4,4 C 90 % 1018,0 hPa 0,0 l/m 12,1 km/h (2 Bft) S-SW 211 0 min 0,000 mm 0,0 UV-I 0 W/m -1,7 C -5,4 C 16,1 km/h (3 Bft) 100,00 %
12.02.2018 23:39 -0,3 C 4,4 C 90 % 1018,0 hPa 0,0 l/m 8,2 km/h (2 Bft) W-SW 247 0 min 0,000 mm 0,0 UV-I 0 W/m -1,7 C -2,2 C 11,3 km/h (2 Bft) 100,00 %
12.02.2018 23:40 -0,3 C 4,4 C 90 % 1018,0 hPa 0,0 l/m 9,5 km/h (2 Bft) W-SW 238 0 min 0,000 mm 0,0 UV-I 0 W/m -1,7 C -3,4 C 14,5 km/h (3 Bft) 100,00 %
12.02.2018 23:41 -0,3 C 4,4 C 90 % 1018,0 hPa 0,0 l/m 11,6 km/h (2 Bft) SW 235 0 min 0,000 mm 0,0 UV-I 0 W/m -1,7 C -5,1 C 16,1 km/h (3 Bft) 95,65 %
12.02.2018 23:42 -0,3 C 4,4 C 90 % 1018,0 hPa 0,0 l/m 11,5 km/h (2 Bft) SW 229 0 min 0,000 mm 0,0 UV-I 0 W/m -1,7 C -5,0 C 16,1 km/h (3 Bft) 95,83 %
12.02.2018 23:43 -0,3 C 4,4 C 90 % 1018,0 hPa 0,0 l/m 9,0 km/h (2 Bft) SW 224 0 min 0,000 mm 0,0 UV-I 0 W/m -1,7 C -2,9 C 14,5 km/h (3 Bft) 100,00 %
12.02.2018 23:44 -0,3 C 4,4 C 90 % 1018,0 hPa 0,0 l/m 8,9 km/h (2 Bft) W 263 0 min 0,000 mm 0,0 UV-I 0 W/m -1,7 C -2,8 C 12,9 km/h (3 Bft) 100,00 %
12.02.2018 23:45 -0,3 C 4,4 C 90 % 1018,0 hPa 0,0 l/m 11,5 km/h (2 Bft) W-SW 238 0 min 0,000 mm 0,0 UV-I 0 W/m -1,7 C -5,0 C 19,3 km/h (3 Bft) 100,00 %
12.02.2018 23:46 -0,3 C 4,4 C 90 % 1018,0 hPa 0,0 l/m 9,2 km/h (2 Bft) W-SW 241 0 min 0,000 mm 0,0 UV-I 0 W/m -1,7 C -3,1 C 12,9 km/h (3 Bft) 100,00 %
12.02.2018 23:47 -0,3 C 4,4 C 90 % 1018,0 hPa 0,0 l/m 9,0 km/h (2 Bft) W-SW 237 0 min 0,000 mm 0,0 UV-I 0 W/m -1,7 C -2,9 C 14,5 km/h (3 Bft) 100,00 %
12.02.2018 23:48 -0,3 C 4,4 C 90 % 1018,1 hPa 0,0 l/m 8,4 km/h (2 Bft) SW 236 0 min 0,000 mm 0,0 UV-I 0 W/m -1,7 C -2,4 C 12,9 km/h (3 Bft) 100,00 %
12.02.2018 23:49 -0,3 C 4,4 C 90 % 1018,0 hPa 0,0 l/m 7,3 km/h (2 Bft) W 259 0 min 0,000 mm 0,0 UV-I 0 W/m -1,7 C -1,2 C 8,0 km/h (2 Bft) 100,00 %
12.02.2018 23:50 -0,3 C 4,4 C 90 % 1018,0 hPa 0,0 l/m 9,9 km/h (2 Bft) SW 235 0 min 0,000 mm 0,0 UV-I 0 W/m -1,7 C -3,7 C 12,9 km/h (3 Bft) 100,00 %
12.02.2018 23:51 -0,3 C 4,4 C 90 % 1018,0 hPa 0,0 l/m 7,6 km/h (2 Bft) SW 229 0 min 0,000 mm 0,0 UV-I 0 W/m -1,7 C -1,6 C 11,3 km/h (2 Bft) 100,00 %
12.02.2018 23:52 -0,3 C 4,4 C 90 % 1018,0 hPa 0,0 l/m 9,2 km/h (2 Bft) W 261 0 min 0,000 mm 0,0 UV-I 0 W/m -1,7 C -3,1 C 14,5 km/h (3 Bft) 100,00 %
12.02.2018 23:53 -0,3 C 4,4 C 90 % 1017,9 hPa 0,0 l/m 11,4 km/h (2 Bft) W-SW 240 0 min 0,000 mm 0,0 UV-I 0 W/m -1,7 C -4,9 C 16,1 km/h (3 Bft) 92,59 %
12.02.2018 23:54 -0,3 C 4,4 C 90 % 1017,9 hPa 0,0 l/m 9,0 km/h (2 Bft) SW 236 0 min 0,000 mm 0,0 UV-I 0 W/m -1,7 C -2,9 C 12,9 km/h (3 Bft) 100,00 %
12.02.2018 23:55 -0,3 C 4,4 C 90 % 1017,9 hPa 0,0 l/m 9,8 km/h (2 Bft) W-SW 247 0 min 0,000 mm 0,0 UV-I 0 W/m -1,7 C -3,6 C 14,5 km/h (3 Bft) 96,30 %
12.02.2018 23:56 -0,3 C 4,4 C 90 % 1017,9 hPa 0,0 l/m 8,4 km/h (2 Bft) W-SW 248 0 min 0,000 mm 0,0 UV-I 0 W/m -1,7 C -2,4 C 11,3 km/h (2 Bft) 92,86 %
12.02.2018 23:57 -0,3 C 4,4 C 90 % 1017,9 hPa 0,0 l/m 7,8 km/h (2 Bft) W-SW 238 0 min 0,000 mm 0,0 UV-I 0 W/m -1,7 C -1,8 C 11,3 km/h (2 Bft) 100,00 %
12.02.2018 23:58 -0,3 C 4,4 C 90 % 1017,9 hPa 0,0 l/m 7,6 km/h (2 Bft) W-SW 253 0 min 0,000 mm 0,0 UV-I 0 W/m -1,7 C -1,6 C 9,7 km/h (2 Bft) 100,00 %
12.02.2018 23:59 -0,3 C 4,4 C 90 % 1017,9 hPa 0,0 l/m 8,0 km/h (2 Bft) W-SW 250 0 min 0,000 mm 0,0 UV-I 0 W/m -1,7 C -2,0 C 11,3 km/h (2 Bft) 100,00 %
_ Min-Zeit 23:34 00:00 14:53 00:00 - 08:02 - - - - - - 22:38 17:57 08:02 01:06
Minimum _ -0,3 C 4,4 C 79 % 1008,4 hPa - 2,4 km/h (1 Bft) - - - - - - -1,8 C -8,5 C 4,8 km/h (1 Bft) 81,82 %
_ Max-Zeit 11:11 00:00 05:03 23:48 00:06 13:58 - - 17:10 13:00 10:52 11:08 11:05 10:50 13:58 00:03
Maximum _ 3,3 C 4,4 C 96 % 1018,1 hPa 0,2 l/m 22,5 km/h
W (4 Bft)
- - 3 min 0,076 mm 0,6 UV-I 230 W/m 1,9 C 2,6 C 33,8 km/h
W-SW (5 Bft)
100,00 %
Durchschnitt _ 1,5 C 4,4 C 90 % 1012,8 hPa #1,2 l/m 10,3 km/h (2 Bft) W-SW - #32 min. #0,432 mm 0,5 UV-I 101 W/m 0,1 C -1,8 C 14,7 km/h (3 Bft) 98,02 %